<?xml version='1.0' encoding='UTF-8'?><gpx version="1.1" creator="JPX - https://github.com/jenetics/jpx" xmlns="http://www.topografix.com/GPX/1/1"><trk><trkseg><trkpt lat="43.778825" lon="11.2060156"><ele>40.0</ele><time>2026-04-06T08:27:05.73Z</time></trkpt><trkpt lat="43.7788365" lon="11.2059156"><ele>40.0</ele><time>2026-04-06T08:27:09.73Z</time></trkpt><trkpt lat="43.7788794" lon="11.2058512"><ele>40.0</ele><time>2026-04-06T08:27:51.73Z</time></trkpt><trkpt lat="43.7789151" lon="11.2057732"><ele>40.0</ele><time>2026-04-06T08:28:27.735Z</time></trkpt><trkpt lat="43.7789472" lon="11.2058503"><ele>40.0</ele><time>2026-04-06T08:31:53.729Z</time></trkpt><trkpt lat="43.7790103" lon="11.2058553"><ele>40.0</ele><time>2026-04-06T08:32:06.661Z</time></trkpt><trkpt lat="43.7790777" lon="11.2058321"><ele>40.0</ele><time>2026-04-06T08:32:10.636Z</time></trkpt><trkpt lat="43.7791191" lon="11.2059093"><ele>40.0</ele><time>2026-04-06T08:33:25.729Z</time></trkpt><trkpt lat="43.7790955" lon="11.2060095"><ele>40.0</ele><time>2026-04-06T08:33:33.73Z</time></trkpt><trkpt lat="43.7791624" lon="11.2060098"><ele>40.0</ele><time>2026-04-06T08:33:50.73Z</time></trkpt><trkpt lat="43.7791407" lon="11.2059231"><ele>40.0</ele><time>2026-04-06T08:33:51.73Z</time></trkpt><trkpt lat="43.7791369" lon="11.2058317"><ele>40.0</ele><time>2026-04-06T08:34:06.73Z</time></trkpt><trkpt lat="43.7791401" lon="11.2057256"><ele>40.0</ele><time>2026-04-06T08:34:12.73Z</time></trkpt><trkpt lat="43.7792538" lon="11.2057986"><ele>40.0</ele><time>2026-04-06T08:34:27.73Z</time></trkpt><trkpt lat="43.7791769" lon="11.2058807"><ele>40.0</ele><time>2026-04-06T08:34:28.73Z</time></trkpt><trkpt lat="43.7792335" lon="11.2059345"><ele>40.0</ele><time>2026-04-06T08:34:35.73Z</time></trkpt><trkpt lat="43.7792228" lon="11.2058437"><ele>40.0</ele><time>2026-04-06T08:35:49.731Z</time></trkpt><trkpt lat="43.7791563" lon="11.2058831"><ele>40.0</ele><time>2026-04-06T08:35:57.73Z</time></trkpt><trkpt lat="43.7792192" lon="11.2058954"><ele>40.0</ele><time>2026-04-06T08:38:29.73Z</time></trkpt><trkpt lat="43.7792844" lon="11.2059332"><ele>40.0</ele><time>2026-04-06T08:38:40.73Z</time></trkpt><trkpt lat="43.7792911" lon="11.2060417"><ele>40.0</ele><time>2026-04-06T08:38:45.73Z</time></trkpt><trkpt lat="43.779285" lon="11.2061321"><ele>40.0</ele><time>2026-04-06T08:38:48.731Z</time></trkpt><trkpt lat="43.7792796" lon="11.2062207"><ele>40.0</ele><time>2026-04-06T08:38:51.73Z</time></trkpt><trkpt lat="43.7792709" lon="11.2063222"><ele>40.0</ele><time>2026-04-06T08:38:54.73Z</time></trkpt><trkpt lat="43.7792577" lon="11.2064104"><ele>40.0</ele><time>2026-04-06T08:38:57.729Z</time></trkpt><trkpt lat="43.779255" lon="11.2065003"><ele>40.0</ele><time>2026-04-06T08:39:01.729Z</time></trkpt><trkpt lat="43.7792495" lon="11.2066078"><ele>40.0</ele><time>2026-04-06T08:39:05.73Z</time></trkpt><trkpt lat="43.7792243" lon="11.2067082"><ele>40.14285714285714</ele><time>2026-04-06T08:39:08.729Z</time></trkpt><trkpt lat="43.7791907" lon="11.2068141"><ele>40.285714285714285</ele><time>2026-04-06T08:39:11.73Z</time></trkpt><trkpt lat="43.7791703" lon="11.2069089"><ele>40.42857142857143</ele><time>2026-04-06T08:39:14.73Z</time></trkpt><trkpt lat="43.7791554" lon="11.2069985"><ele>40.57142857142857</ele><time>2026-04-06T08:39:17.73Z</time></trkpt><trkpt lat="43.7791464" lon="11.2070883"><ele>40.714285714285715</ele><time>2026-04-06T08:39:20.731Z</time></trkpt><trkpt lat="43.7791233" lon="11.2071866"><ele>40.857142857142854</ele><time>2026-04-06T08:39:23.729Z</time></trkpt><trkpt lat="43.7791008" lon="11.2072756"><ele>41.0</ele><time>2026-04-06T08:39:26.73Z</time></trkpt><trkpt lat="43.7790936" lon="11.2073673"><ele>41.0</ele><time>2026-04-06T08:39:31.729Z</time></trkpt><trkpt lat="43.7790854" lon="11.2074635"><ele>41.0</ele><time>2026-04-06T08:39:50.73Z</time></trkpt><trkpt lat="43.7790561" lon="11.2075619"><ele>41.0</ele><time>2026-04-06T08:42:35.73Z</time></trkpt><trkpt lat="43.7790418" lon="11.2076666"><ele>41.0</ele><time>2026-04-06T08:42:39.729Z</time></trkpt><trkpt lat="43.7790277" lon="11.2077667"><ele>41.0</ele><time>2026-04-06T08:42:42.729Z</time></trkpt><trkpt lat="43.7790147" lon="11.2078639"><ele>41.0</ele><time>2026-04-06T08:42:45.731Z</time></trkpt><trkpt lat="43.7790027" lon="11.207983"><ele>40.99999999999999</ele><time>2026-04-06T08:42:48.729Z</time></trkpt><trkpt lat="43.7789836" lon="11.2080768"><ele>41.0</ele><time>2026-04-06T08:42:50.73Z</time></trkpt><trkpt lat="43.778967" lon="11.208171"><ele>41.0</ele><time>2026-04-06T08:42:52.731Z</time></trkpt><trkpt lat="43.7789512" lon="11.2082734"><ele>41.0</ele><time>2026-04-06T08:42:54.73Z</time></trkpt><trkpt lat="43.7789353" lon="11.2083717"><ele>41.0</ele><time>2026-04-06T08:42:56.731Z</time></trkpt><trkpt lat="43.7789184" lon="11.2084667"><ele>40.99999999999999</ele><time>2026-04-06T08:42:58.73Z</time></trkpt><trkpt lat="43.7789039" lon="11.2085597"><ele>41.0</ele><time>2026-04-06T08:43:00.729Z</time></trkpt><trkpt lat="43.7788981" lon="11.2086515"><ele>41.0</ele><time>2026-04-06T08:43:02.73Z</time></trkpt><trkpt lat="43.7789176" lon="11.2087789"><ele>41.0</ele><time>2026-04-06T08:43:05.729Z</time></trkpt><trkpt lat="43.7789492" lon="11.2088916"><ele>41.0</ele><time>2026-04-06T08:43:07.731Z</time></trkpt><trkpt lat="43.7790039" lon="11.2089846"><ele>41.0</ele><time>2026-04-06T08:43:08.73Z</time></trkpt><trkpt lat="43.7789935" lon="11.2090707"><ele>41.0</ele><time>2026-04-06T08:43:10.731Z</time></trkpt><trkpt lat="43.7789468" lon="11.2091782"><ele>41.0</ele><time>2026-04-06T08:43:12.731Z</time></trkpt><trkpt lat="43.7789019" lon="11.2092758"><ele>41.166666666666664</ele><time>2026-04-06T08:43:14.729Z</time></trkpt><trkpt lat="43.7788805" lon="11.2093888"><ele>41.33333333333333</ele><time>2026-04-06T08:43:16.729Z</time></trkpt><trkpt lat="43.7788508" lon="11.2095062"><ele>41.5</ele><time>2026-04-06T08:43:18.728Z</time></trkpt><trkpt lat="43.7788151" lon="11.2096054"><ele>41.666666666666664</ele><time>2026-04-06T08:43:20.73Z</time></trkpt><trkpt lat="43.7787881" lon="11.2097069"><ele>41.833333333333336</ele><time>2026-04-06T08:43:22.73Z</time></trkpt><trkpt lat="43.7787204" lon="11.2097626"><ele>42.0</ele><time>2026-04-06T08:43:25.807Z</time></trkpt><trkpt lat="43.7786998" lon="11.2098961"><ele>42.0</ele><time>2026-04-06T08:43:28.806Z</time></trkpt><trkpt lat="43.7787203" lon="11.2100218"><ele>42.0</ele><time>2026-04-06T08:43:31.806Z</time></trkpt><trkpt lat="43.778647" lon="11.2101869"><ele>42.0</ele><time>2026-04-06T08:43:32.806Z</time></trkpt><trkpt lat="43.7786191" lon="11.2103031"><ele>42.0</ele><time>2026-04-06T08:43:35.728Z</time></trkpt><trkpt lat="43.7785927" lon="11.2103892"><ele>42.0</ele><time>2026-04-06T08:43:37.729Z</time></trkpt><trkpt lat="43.7785587" lon="11.2104842"><ele>42.0</ele><time>2026-04-06T08:43:39.728Z</time></trkpt><trkpt lat="43.7785322" lon="11.2105882"><ele>42.0</ele><time>2026-04-06T08:43:41.729Z</time></trkpt><trkpt lat="43.7785133" lon="11.2106952"><ele>42.0</ele><time>2026-04-06T08:43:43.728Z</time></trkpt><trkpt lat="43.7784992" lon="11.2107975"><ele>42.0</ele><time>2026-04-06T08:43:45.728Z</time></trkpt><trkpt lat="43.7785013" lon="11.2109077"><ele>42.0</ele><time>2026-04-06T08:43:47.728Z</time></trkpt><trkpt lat="43.7784927" lon="11.2110184"><ele>42.0</ele><time>2026-04-06T08:43:49.729Z</time></trkpt><trkpt lat="43.7784732" lon="11.2111218"><ele>42.166666666666664</ele><time>2026-04-06T08:43:51.728Z</time></trkpt><trkpt lat="43.778456" lon="11.2112233"><ele>42.333333333333336</ele><time>2026-04-06T08:43:53.728Z</time></trkpt><trkpt lat="43.7784372" lon="11.2113244"><ele>42.5</ele><time>2026-04-06T08:43:55.73Z</time></trkpt><trkpt lat="43.7784072" lon="11.211428"><ele>42.66666666666667</ele><time>2026-04-06T08:43:57.73Z</time></trkpt><trkpt lat="43.7783788" lon="11.2115357"><ele>42.833333333333336</ele><time>2026-04-06T08:43:59.728Z</time></trkpt><trkpt lat="43.7783546" lon="11.2116483"><ele>43.0</ele><time>2026-04-06T08:44:01.729Z</time></trkpt><trkpt lat="43.7783234" lon="11.2117599"><ele>43.0</ele><time>2026-04-06T08:44:03.729Z</time></trkpt><trkpt lat="43.778296" lon="11.2118655"><ele>43.0</ele><time>2026-04-06T08:44:05.728Z</time></trkpt><trkpt lat="43.7782685" lon="11.2119722"><ele>43.0</ele><time>2026-04-06T08:44:07.729Z</time></trkpt><trkpt lat="43.7782461" lon="11.2120839"><ele>43.0</ele><time>2026-04-06T08:44:09.728Z</time></trkpt><trkpt lat="43.7782345" lon="11.2121962"><ele>43.0</ele><time>2026-04-06T08:44:11.73Z</time></trkpt><trkpt lat="43.778215" lon="11.2122999"><ele>43.0</ele><time>2026-04-06T08:44:13.729Z</time></trkpt><trkpt lat="43.7781797" lon="11.2123944"><ele>43.0</ele><time>2026-04-06T08:44:15.729Z</time></trkpt><trkpt lat="43.7781241" lon="11.2124775"><ele>43.0</ele><time>2026-04-06T08:44:17.729Z</time></trkpt><trkpt lat="43.7780548" lon="11.2125313"><ele>43.0</ele><time>2026-04-06T08:44:20.728Z</time></trkpt><trkpt lat="43.7780098" lon="11.2125941"><ele>43.0</ele><time>2026-04-06T08:44:24.728Z</time></trkpt><trkpt lat="43.7780328" lon="11.2127131"><ele>43.0</ele><time>2026-04-06T08:44:28.729Z</time></trkpt><trkpt lat="43.7780312" lon="11.2128423"><ele>43.0</ele><time>2026-04-06T08:44:31.729Z</time></trkpt><trkpt lat="43.7779873" lon="11.2129438"><ele>43.0</ele><time>2026-04-06T08:44:34.73Z</time></trkpt><trkpt lat="43.777954" lon="11.2130457"><ele>43.0</ele><time>2026-04-06T08:44:37.729Z</time></trkpt><trkpt lat="43.7779244" lon="11.2131527"><ele>43.0</ele><time>2026-04-06T08:44:40.729Z</time></trkpt><trkpt lat="43.7779001" lon="11.2132459"><ele>43.0</ele><time>2026-04-06T08:44:43.729Z</time></trkpt><trkpt lat="43.7778691" lon="11.2133415"><ele>43.0</ele><time>2026-04-06T08:44:46.729Z</time></trkpt><trkpt lat="43.7778359" lon="11.213456"><ele>43.0</ele><time>2026-04-06T08:44:49.728Z</time></trkpt><trkpt lat="43.7778113" lon="11.2135457"><ele>42.833333333333336</ele><time>2026-04-06T08:44:51.728Z</time></trkpt><trkpt lat="43.7777663" lon="11.2136408"><ele>42.66666666666667</ele><time>2026-04-06T08:44:53.729Z</time></trkpt><trkpt lat="43.7777111" lon="11.2137367"><ele>42.5</ele><time>2026-04-06T08:44:55.729Z</time></trkpt><trkpt lat="43.7776469" lon="11.213839"><ele>42.333333333333336</ele><time>2026-04-06T08:44:57.729Z</time></trkpt><trkpt lat="43.7775823" lon="11.2139361"><ele>42.166666666666664</ele><time>2026-04-06T08:44:59.728Z</time></trkpt><trkpt lat="43.7775166" lon="11.2140076"><ele>42.0</ele><time>2026-04-06T08:45:01.729Z</time></trkpt><trkpt lat="43.7774981" lon="11.2140977"><ele>42.0</ele><time>2026-04-06T08:45:03.728Z</time></trkpt><trkpt lat="43.7774519" lon="11.2141805"><ele>42.0</ele><time>2026-04-06T08:45:05.728Z</time></trkpt><trkpt lat="43.7774125" lon="11.2142566"><ele>42.0</ele><time>2026-04-06T08:45:07.73Z</time></trkpt><trkpt lat="43.7773542" lon="11.2143619"><ele>42.0</ele><time>2026-04-06T08:45:10.73Z</time></trkpt><trkpt lat="43.7773092" lon="11.2144317"><ele>42.0</ele><time>2026-04-06T08:45:12.729Z</time></trkpt><trkpt lat="43.7772543" lon="11.2145349"><ele>42.0</ele><time>2026-04-06T08:45:15.73Z</time></trkpt><trkpt lat="43.777205" lon="11.2146276"><ele>42.0</ele><time>2026-04-06T08:45:18.729Z</time></trkpt><trkpt lat="43.7771703" lon="11.2147266"><ele>42.0</ele><time>2026-04-06T08:45:21.729Z</time></trkpt><trkpt lat="43.7771863" lon="11.214816"><ele>42.0</ele><time>2026-04-06T08:45:24.73Z</time></trkpt><trkpt lat="43.7772528" lon="11.2148845"><ele>42.0</ele><time>2026-04-06T08:45:27.728Z</time></trkpt><trkpt lat="43.7773078" lon="11.2149591"><ele>42.0</ele><time>2026-04-06T08:45:30.729Z</time></trkpt><trkpt lat="43.7773202" lon="11.2150461"><ele>42.0</ele><time>2026-04-06T08:45:33.73Z</time></trkpt><trkpt lat="43.7772945" lon="11.2151364"><ele>42.0</ele><time>2026-04-06T08:45:36.729Z</time></trkpt><trkpt lat="43.7772772" lon="11.215235"><ele>42.166666666666664</ele><time>2026-04-06T08:45:39.728Z</time></trkpt><trkpt lat="43.7773148" lon="11.2153181"><ele>42.333333333333336</ele><time>2026-04-06T08:45:43.729Z</time></trkpt><trkpt lat="43.7773783" lon="11.2153878"><ele>42.5</ele><time>2026-04-06T08:45:46.729Z</time></trkpt><trkpt lat="43.777458" lon="11.2154507"><ele>42.66666666666667</ele><time>2026-04-06T08:45:49.729Z</time></trkpt><trkpt lat="43.7775281" lon="11.2155238"><ele>42.833333333333336</ele><time>2026-04-06T08:45:52.73Z</time></trkpt><trkpt lat="43.7775951" lon="11.2155861"><ele>43.0</ele><time>2026-04-06T08:45:55.729Z</time></trkpt><trkpt lat="43.7776616" lon="11.2155914"><ele>43.00000000000001</ele><time>2026-04-06T08:45:58.729Z</time></trkpt><trkpt lat="43.7777223" lon="11.215547"><ele>43.0</ele><time>2026-04-06T08:46:01.729Z</time></trkpt><trkpt lat="43.7777499" lon="11.2156261"><ele>43.0</ele><time>2026-04-06T08:46:06.73Z</time></trkpt><trkpt lat="43.7777241" lon="11.2157363"><ele>43.0</ele><time>2026-04-06T08:46:10.729Z</time></trkpt><trkpt lat="43.7776877" lon="11.2158311"><ele>43.0</ele><time>2026-04-06T08:46:13.73Z</time></trkpt><trkpt lat="43.7776518" lon="11.2159157"><ele>43.00000000000001</ele><time>2026-04-06T08:46:17.73Z</time></trkpt><trkpt lat="43.7776241" lon="11.2160105"><ele>43.0</ele><time>2026-04-06T08:46:23.729Z</time></trkpt><trkpt lat="43.7776467" lon="11.2161164"><ele>43.16666666666667</ele><time>2026-04-06T08:46:27.729Z</time></trkpt><trkpt lat="43.7777153" lon="11.2161993"><ele>43.333333333333336</ele><time>2026-04-06T08:46:30.729Z</time></trkpt><trkpt lat="43.7777718" lon="11.2162552"><ele>43.5</ele><time>2026-04-06T08:46:32.73Z</time></trkpt><trkpt lat="43.7778401" lon="11.2163168"><ele>43.666666666666664</ele><time>2026-04-06T08:46:34.729Z</time></trkpt><trkpt lat="43.777903" lon="11.21638"><ele>43.83333333333333</ele><time>2026-04-06T08:46:36.729Z</time></trkpt><trkpt lat="43.7779577" lon="11.2164389"><ele>44.0</ele><time>2026-04-06T08:46:38.729Z</time></trkpt><trkpt lat="43.7780151" lon="11.2164999"><ele>44.0</ele><time>2026-04-06T08:46:40.728Z</time></trkpt><trkpt lat="43.7780663" lon="11.2165558"><ele>44.0</ele><time>2026-04-06T08:46:42.729Z</time></trkpt><trkpt lat="43.7781129" lon="11.2166422"><ele>44.0</ele><time>2026-04-06T08:46:45.728Z</time></trkpt><trkpt lat="43.7780754" lon="11.2167374"><ele>44.0</ele><time>2026-04-06T08:46:48.728Z</time></trkpt><trkpt lat="43.7780195" lon="11.2168256"><ele>44.0</ele><time>2026-04-06T08:46:51.729Z</time></trkpt><trkpt lat="43.7779736" lon="11.2169206"><ele>44.0</ele><time>2026-04-06T08:46:54.729Z</time></trkpt><trkpt lat="43.7779426" lon="11.217029"><ele>44.0</ele><time>2026-04-06T08:46:57.729Z</time></trkpt><trkpt lat="43.7779518" lon="11.2171314"><ele>44.0</ele><time>2026-04-06T08:47:00.729Z</time></trkpt><trkpt lat="43.7780076" lon="11.2171824"><ele>44.0</ele><time>2026-04-06T08:47:03.728Z</time></trkpt><trkpt lat="43.7780851" lon="11.2172333"><ele>44.0</ele><time>2026-04-06T08:47:06.73Z</time></trkpt><trkpt lat="43.7781635" lon="11.2172893"><ele>44.0</ele><time>2026-04-06T08:47:09.728Z</time></trkpt><trkpt lat="43.7782379" lon="11.2173312"><ele>44.0</ele><time>2026-04-06T08:47:12.728Z</time></trkpt><trkpt lat="43.7783136" lon="11.2173509"><ele>44.0</ele><time>2026-04-06T08:47:15.73Z</time></trkpt><trkpt lat="43.7783872" lon="11.2173719"><ele>44.0</ele><time>2026-04-06T08:47:18.728Z</time></trkpt><trkpt lat="43.7784441" lon="11.2174352"><ele>44.0</ele><time>2026-04-06T08:47:22.729Z</time></trkpt><trkpt lat="43.7784953" lon="11.2175138"><ele>44.0</ele><time>2026-04-06T08:47:26.728Z</time></trkpt><trkpt lat="43.7784838" lon="11.2176009"><ele>44.0</ele><time>2026-04-06T08:47:32.729Z</time></trkpt><trkpt lat="43.7785596" lon="11.2176036"><ele>44.0</ele><time>2026-04-06T08:50:11.728Z</time></trkpt><trkpt lat="43.7785728" lon="11.2175017"><ele>44.0</ele><time>2026-04-06T09:05:19.725Z</time></trkpt><trkpt lat="43.7785756" lon="11.2173903"><ele>44.0</ele><time>2026-04-06T09:05:22.728Z</time></trkpt><trkpt lat="43.7785367" lon="11.2173071"><ele>44.0</ele><time>2026-04-06T09:05:25.726Z</time></trkpt><trkpt lat="43.7784592" lon="11.2172887"><ele>44.0</ele><time>2026-04-06T09:05:28.727Z</time></trkpt><trkpt lat="43.778396" lon="11.2172411"><ele>44.0</ele><time>2026-04-06T09:05:30.725Z</time></trkpt><trkpt lat="43.7783745" lon="11.2171482"><ele>44.0</ele><time>2026-04-06T09:05:32.726Z</time></trkpt><trkpt lat="43.7783897" lon="11.2170199"><ele>44.0</ele><time>2026-04-06T09:05:35.726Z</time></trkpt><trkpt lat="43.778367" lon="11.2169181"><ele>44.0</ele><time>2026-04-06T09:05:37.726Z</time></trkpt><trkpt lat="43.778319" lon="11.2168307"><ele>44.0</ele><time>2026-04-06T09:05:39.725Z</time></trkpt><trkpt lat="43.7782519" lon="11.2167671"><ele>44.0</ele><time>2026-04-06T09:05:41.728Z</time></trkpt><trkpt lat="43.7781838" lon="11.2167139"><ele>44.0</ele><time>2026-04-06T09:05:43.727Z</time></trkpt><trkpt lat="43.7781179" lon="11.2166638"><ele>44.0</ele><time>2026-04-06T09:05:45.725Z</time></trkpt><trkpt lat="43.7780572" lon="11.2166054"><ele>44.0</ele><time>2026-04-06T09:05:47.725Z</time></trkpt><trkpt lat="43.778007" lon="11.2165199"><ele>44.0</ele><time>2026-04-06T09:05:49.725Z</time></trkpt><trkpt lat="43.7779616" lon="11.2164365"><ele>44.0</ele><time>2026-04-06T09:05:51.725Z</time></trkpt><trkpt lat="43.7779146" lon="11.2163632"><ele>44.0</ele><time>2026-04-06T09:05:53.726Z</time></trkpt><trkpt lat="43.7778522" lon="11.2162771"><ele>44.0</ele><time>2026-04-06T09:05:56.726Z</time></trkpt><trkpt lat="43.7777739" lon="11.2162022"><ele>44.0</ele><time>2026-04-06T09:05:59.725Z</time></trkpt><trkpt lat="43.7777145" lon="11.2161437"><ele>44.0</ele><time>2026-04-06T09:06:01.726Z</time></trkpt><trkpt lat="43.7776577" lon="11.2160919"><ele>43.85714285714286</ele><time>2026-04-06T09:06:03.725Z</time></trkpt><trkpt lat="43.777604" lon="11.2160359"><ele>43.714285714285715</ele><time>2026-04-06T09:06:05.726Z</time></trkpt><trkpt lat="43.7775505" lon="11.2159795"><ele>43.57142857142857</ele><time>2026-04-06T09:06:07.727Z</time></trkpt><trkpt lat="43.7774936" lon="11.2159256"><ele>43.42857142857143</ele><time>2026-04-06T09:06:09.726Z</time></trkpt><trkpt lat="43.7774345" lon="11.2158769"><ele>43.285714285714285</ele><time>2026-04-06T09:06:11.726Z</time></trkpt><trkpt lat="43.7773756" lon="11.2158244"><ele>43.142857142857146</ele><time>2026-04-06T09:06:13.726Z</time></trkpt><trkpt lat="43.777314" lon="11.215771"><ele>43.0</ele><time>2026-04-06T09:06:15.725Z</time></trkpt><trkpt lat="43.777256" lon="11.2157171"><ele>43.00000000000001</ele><time>2026-04-06T09:06:17.725Z</time></trkpt><trkpt lat="43.7771976" lon="11.2156643"><ele>43.0</ele><time>2026-04-06T09:06:19.726Z</time></trkpt><trkpt lat="43.7771398" lon="11.2156095"><ele>43.0</ele><time>2026-04-06T09:06:21.726Z</time></trkpt><trkpt lat="43.7770846" lon="11.2155445"><ele>43.0</ele><time>2026-04-06T09:06:24.725Z</time></trkpt><trkpt lat="43.7770321" lon="11.2154775"><ele>43.0</ele><time>2026-04-06T09:06:56.727Z</time></trkpt><trkpt lat="43.776966" lon="11.2154111"><ele>43.00000000000001</ele><time>2026-04-06T09:06:59.726Z</time></trkpt><trkpt lat="43.7769149" lon="11.2153473"><ele>43.0</ele><time>2026-04-06T09:07:01.726Z</time></trkpt><trkpt lat="43.7768516" lon="11.2152844"><ele>43.0</ele><time>2026-04-06T09:07:03.725Z</time></trkpt><trkpt lat="43.7767796" lon="11.2152244"><ele>43.0</ele><time>2026-04-06T09:07:05.727Z</time></trkpt><trkpt lat="43.7766985" lon="11.2151532"><ele>43.0</ele><time>2026-04-06T09:07:07.726Z</time></trkpt><trkpt lat="43.7766017" lon="11.2150794"><ele>43.0</ele><time>2026-04-06T09:07:09.726Z</time></trkpt><trkpt lat="43.7765132" lon="11.215014"><ele>43.0</ele><time>2026-04-06T09:07:11.726Z</time></trkpt><trkpt lat="43.7764402" lon="11.2149508"><ele>43.0</ele><time>2026-04-06T09:07:13.724Z</time></trkpt><trkpt lat="43.7763503" lon="11.2148727"><ele>43.0</ele><time>2026-04-06T09:07:15.726Z</time></trkpt><trkpt lat="43.7762722" lon="11.2147791"><ele>43.0</ele><time>2026-04-06T09:07:17.725Z</time></trkpt><trkpt lat="43.7761816" lon="11.2147245"><ele>43.0</ele><time>2026-04-06T09:07:19.725Z</time></trkpt><trkpt lat="43.7761014" lon="11.2146573"><ele>43.0</ele><time>2026-04-06T09:07:21.727Z</time></trkpt><trkpt lat="43.7760101" lon="11.2145917"><ele>42.8</ele><time>2026-04-06T09:07:23.726Z</time></trkpt><trkpt lat="43.7759161" lon="11.2145558"><ele>42.599999999999994</ele><time>2026-04-06T09:07:25.725Z</time></trkpt><trkpt lat="43.7758377" lon="11.2144966"><ele>42.400000000000006</ele><time>2026-04-06T09:07:27.726Z</time></trkpt><trkpt lat="43.7757431" lon="11.2144409"><ele>42.2</ele><time>2026-04-06T09:07:29.725Z</time></trkpt><trkpt lat="43.7756549" lon="11.2143774"><ele>42.0</ele><time>2026-04-06T09:07:31.726Z</time></trkpt><trkpt lat="43.7755648" lon="11.2143094"><ele>42.0</ele><time>2026-04-06T09:07:33.726Z</time></trkpt><trkpt lat="43.775484" lon="11.214247"><ele>42.0</ele><time>2026-04-06T09:07:35.727Z</time></trkpt><trkpt lat="43.7754043" lon="11.214188"><ele>42.0</ele><time>2026-04-06T09:07:37.725Z</time></trkpt><trkpt lat="43.7753195" lon="11.2141656"><ele>42.0</ele><time>2026-04-06T09:07:39.726Z</time></trkpt><trkpt lat="43.7752307" lon="11.2140904"><ele>42.0</ele><time>2026-04-06T09:07:41.726Z</time></trkpt><trkpt lat="43.7751486" lon="11.2140156"><ele>42.0</ele><time>2026-04-06T09:07:43.725Z</time></trkpt><trkpt lat="43.7750863" lon="11.2139361"><ele>42.0</ele><time>2026-04-06T09:07:45.726Z</time></trkpt><trkpt lat="43.7749968" lon="11.2138687"><ele>42.0</ele><time>2026-04-06T09:07:47.726Z</time></trkpt><trkpt lat="43.7749223" lon="11.2138069"><ele>42.0</ele><time>2026-04-06T09:07:49.726Z</time></trkpt><trkpt lat="43.7748612" lon="11.213738"><ele>42.0</ele><time>2026-04-06T09:07:51.725Z</time></trkpt><trkpt lat="43.7747914" lon="11.2136576"><ele>42.0</ele><time>2026-04-06T09:07:53.725Z</time></trkpt><trkpt lat="43.7747206" lon="11.2135887"><ele>42.0</ele><time>2026-04-06T09:07:55.726Z</time></trkpt><trkpt lat="43.7746413" lon="11.2135282"><ele>42.0</ele><time>2026-04-06T09:07:57.725Z</time></trkpt><trkpt lat="43.7745568" lon="11.2134882"><ele>42.0</ele><time>2026-04-06T09:07:59.725Z</time></trkpt><trkpt lat="43.7744845" lon="11.2134417"><ele>42.0</ele><time>2026-04-06T09:08:01.725Z</time></trkpt><trkpt lat="43.7743961" lon="11.2133633"><ele>42.0</ele><time>2026-04-06T09:08:03.724Z</time></trkpt><trkpt lat="43.7743141" lon="11.2132941"><ele>42.166666666666664</ele><time>2026-04-06T09:08:05.725Z</time></trkpt><trkpt lat="43.7742391" lon="11.213241"><ele>42.333333333333336</ele><time>2026-04-06T09:08:07.725Z</time></trkpt><trkpt lat="43.7741569" lon="11.2131917"><ele>42.5</ele><time>2026-04-06T09:08:09.725Z</time></trkpt><trkpt lat="43.7740805" lon="11.2131443"><ele>42.66666666666667</ele><time>2026-04-06T09:08:11.726Z</time></trkpt><trkpt lat="43.7740176" lon="11.2131718"><ele>42.833333333333336</ele><time>2026-04-06T09:08:13.726Z</time></trkpt><trkpt lat="43.7739503" lon="11.213151"><ele>43.0</ele><time>2026-04-06T09:08:16.725Z</time></trkpt><trkpt lat="43.7738882" lon="11.213136"><ele>43.00000000000001</ele><time>2026-04-06T09:08:18.726Z</time></trkpt><trkpt lat="43.7738112" lon="11.2131287"><ele>43.0</ele><time>2026-04-06T09:08:20.726Z</time></trkpt><trkpt lat="43.7737328" lon="11.2131454"><ele>43.0</ele><time>2026-04-06T09:08:22.725Z</time></trkpt><trkpt lat="43.7736667" lon="11.2131703"><ele>43.0</ele><time>2026-04-06T09:08:24.726Z</time></trkpt><trkpt lat="43.7736027" lon="11.2132019"><ele>43.0</ele><time>2026-04-06T09:08:26.724Z</time></trkpt><trkpt lat="43.7735464" lon="11.2132594"><ele>43.00000000000001</ele><time>2026-04-06T09:08:28.725Z</time></trkpt><trkpt lat="43.7734941" lon="11.2133169"><ele>43.0</ele><time>2026-04-06T09:08:30.725Z</time></trkpt><trkpt lat="43.7734155" lon="11.2133071"><ele>42.833333333333336</ele><time>2026-04-06T09:08:33.725Z</time></trkpt><trkpt lat="43.7733303" lon="11.2133051"><ele>42.66666666666667</ele><time>2026-04-06T09:08:37.725Z</time></trkpt><trkpt lat="43.7733252" lon="11.2132016"><ele>42.5</ele><time>2026-04-06T09:08:41.725Z</time></trkpt><trkpt lat="43.7733324" lon="11.2130869"><ele>42.333333333333336</ele><time>2026-04-06T09:08:44.725Z</time></trkpt><trkpt lat="43.7733341" lon="11.2129851"><ele>42.166666666666664</ele><time>2026-04-06T09:08:46.725Z</time></trkpt><trkpt lat="43.7733249" lon="11.2128654"><ele>42.0</ele><time>2026-04-06T09:08:48.725Z</time></trkpt><trkpt lat="43.7732864" lon="11.2127572"><ele>41.833333333333336</ele><time>2026-04-06T09:08:50.725Z</time></trkpt><trkpt lat="43.7732034" lon="11.212709"><ele>41.666666666666664</ele><time>2026-04-06T09:08:52.726Z</time></trkpt><trkpt lat="43.7731187" lon="11.2126813"><ele>41.5</ele><time>2026-04-06T09:08:54.725Z</time></trkpt><trkpt lat="43.7730477" lon="11.2126442"><ele>41.33333333333333</ele><time>2026-04-06T09:08:58.726Z</time></trkpt><trkpt lat="43.772961" lon="11.2126436"><ele>41.166666666666664</ele><time>2026-04-06T09:09:02.725Z</time></trkpt><trkpt lat="43.7729005" lon="11.2126183"><ele>41.0</ele><time>2026-04-06T09:09:04.724Z</time></trkpt><trkpt lat="43.7728244" lon="11.212587"><ele>41.0</ele><time>2026-04-06T09:09:06.725Z</time></trkpt><trkpt lat="43.7727454" lon="11.2125281"><ele>41.0</ele><time>2026-04-06T09:09:08.726Z</time></trkpt><trkpt lat="43.7726583" lon="11.2124644"><ele>41.0</ele><time>2026-04-06T09:09:10.724Z</time></trkpt><trkpt lat="43.7725674" lon="11.2124115"><ele>41.0</ele><time>2026-04-06T09:09:12.725Z</time></trkpt><trkpt lat="43.7724819" lon="11.2123594"><ele>41.0</ele><time>2026-04-06T09:09:14.725Z</time></trkpt><trkpt lat="43.7723881" lon="11.2123042"><ele>41.0</ele><time>2026-04-06T09:09:16.725Z</time></trkpt><trkpt lat="43.7723057" lon="11.212253"><ele>41.0</ele><time>2026-04-06T09:09:18.725Z</time></trkpt><trkpt lat="43.7722254" lon="11.212219"><ele>41.0</ele><time>2026-04-06T09:09:20.726Z</time></trkpt><trkpt lat="43.7721434" lon="11.2121819"><ele>41.0</ele><time>2026-04-06T09:09:22.725Z</time></trkpt><trkpt lat="43.7720653" lon="11.2121291"><ele>41.0</ele><time>2026-04-06T09:09:24.726Z</time></trkpt><trkpt lat="43.7719824" lon="11.2120803"><ele>41.0</ele><time>2026-04-06T09:09:26.725Z</time></trkpt><trkpt lat="43.7718969" lon="11.2120279"><ele>41.199999999999996</ele><time>2026-04-06T09:09:28.725Z</time></trkpt><trkpt lat="43.7718081" lon="11.2119803"><ele>41.4</ele><time>2026-04-06T09:09:30.725Z</time></trkpt><trkpt lat="43.7717291" lon="11.2119285"><ele>41.6</ele><time>2026-04-06T09:09:32.726Z</time></trkpt><trkpt lat="43.7716481" lon="11.2118566"><ele>41.8</ele><time>2026-04-06T09:09:34.724Z</time></trkpt><trkpt lat="43.7715632" lon="11.2118059"><ele>42.0</ele><time>2026-04-06T09:09:36.724Z</time></trkpt><trkpt lat="43.7714787" lon="11.2117646"><ele>42.0</ele><time>2026-04-06T09:09:38.724Z</time></trkpt><trkpt lat="43.7713926" lon="11.211728"><ele>42.0</ele><time>2026-04-06T09:09:40.725Z</time></trkpt><trkpt lat="43.7713156" lon="11.2116548"><ele>42.0</ele><time>2026-04-06T09:09:42.726Z</time></trkpt><trkpt lat="43.7712313" lon="11.2116007"><ele>42.0</ele><time>2026-04-06T09:09:44.726Z</time></trkpt><trkpt lat="43.77114" lon="11.2115518"><ele>42.0</ele><time>2026-04-06T09:09:46.725Z</time></trkpt><trkpt lat="43.771064" lon="11.2114987"><ele>41.833333333333336</ele><time>2026-04-06T09:09:48.725Z</time></trkpt><trkpt lat="43.7709782" lon="11.2114371"><ele>41.666666666666664</ele><time>2026-04-06T09:09:50.725Z</time></trkpt><trkpt lat="43.7708984" lon="11.2113834"><ele>41.5</ele><time>2026-04-06T09:09:52.726Z</time></trkpt><trkpt lat="43.7708435" lon="11.2113109"><ele>41.33333333333333</ele><time>2026-04-06T09:09:54.725Z</time></trkpt><trkpt lat="43.7707794" lon="11.2112615"><ele>41.166666666666664</ele><time>2026-04-06T09:10:39.726Z</time></trkpt><trkpt lat="43.7707048" lon="11.2112099"><ele>41.0</ele><time>2026-04-06T09:10:42.725Z</time></trkpt><trkpt lat="43.7706338" lon="11.2111717"><ele>41.0</ele><time>2026-04-06T09:10:44.725Z</time></trkpt><trkpt lat="43.7705513" lon="11.2111375"><ele>41.0</ele><time>2026-04-06T09:10:46.724Z</time></trkpt><trkpt lat="43.7704593" lon="11.211091"><ele>41.0</ele><time>2026-04-06T09:10:48.724Z</time></trkpt><trkpt lat="43.7703663" lon="11.2110475"><ele>41.0</ele><time>2026-04-06T09:10:50.725Z</time></trkpt><trkpt lat="43.7702753" lon="11.2110133"><ele>41.0</ele><time>2026-04-06T09:10:52.725Z</time></trkpt><trkpt lat="43.7701834" lon="11.2109658"><ele>40.8</ele><time>2026-04-06T09:10:54.724Z</time></trkpt><trkpt lat="43.7700996" lon="11.2109053"><ele>40.599999999999994</ele><time>2026-04-06T09:10:56.726Z</time></trkpt><trkpt lat="43.770012" lon="11.2108538"><ele>40.4</ele><time>2026-04-06T09:10:58.725Z</time></trkpt><trkpt lat="43.7699343" lon="11.2108062"><ele>40.2</ele><time>2026-04-06T09:11:00.726Z</time></trkpt><trkpt lat="43.7698399" lon="11.2107492"><ele>40.0</ele><time>2026-04-06T09:11:02.725Z</time></trkpt><trkpt lat="43.7697422" lon="11.2107028"><ele>40.2</ele><time>2026-04-06T09:11:04.725Z</time></trkpt><trkpt lat="43.7696471" lon="11.2106411"><ele>40.4</ele><time>2026-04-06T09:11:06.724Z</time></trkpt><trkpt lat="43.769569" lon="11.2105785"><ele>40.599999999999994</ele><time>2026-04-06T09:11:08.726Z</time></trkpt><trkpt lat="43.7694731" lon="11.210516"><ele>40.8</ele><time>2026-04-06T09:11:10.725Z</time></trkpt><trkpt lat="43.7693784" lon="11.2104551"><ele>41.0</ele><time>2026-04-06T09:11:12.726Z</time></trkpt><trkpt lat="43.7692848" lon="11.2103746"><ele>41.599999999999994</ele><time>2026-04-06T09:11:14.725Z</time></trkpt><trkpt lat="43.7691905" lon="11.2103321"><ele>42.2</ele><time>2026-04-06T09:11:16.725Z</time></trkpt><trkpt lat="43.7691062" lon="11.210276"><ele>42.8</ele><time>2026-04-06T09:11:18.725Z</time></trkpt><trkpt lat="43.7690152" lon="11.2102186"><ele>43.400000000000006</ele><time>2026-04-06T09:11:20.725Z</time></trkpt><trkpt lat="43.7689295" lon="11.2101661"><ele>44.0</ele><time>2026-04-06T09:11:22.726Z</time></trkpt><trkpt lat="43.7688413" lon="11.2101049"><ele>44.0</ele><time>2026-04-06T09:11:24.726Z</time></trkpt><trkpt lat="43.768737" lon="11.2100543"><ele>44.0</ele><time>2026-04-06T09:11:26.726Z</time></trkpt><trkpt lat="43.7686529" lon="11.2099994"><ele>44.0</ele><time>2026-04-06T09:11:28.727Z</time></trkpt><trkpt lat="43.7685727" lon="11.2099207"><ele>44.0</ele><time>2026-04-06T09:11:30.726Z</time></trkpt><trkpt lat="43.7684744" lon="11.2098636"><ele>44.0</ele><time>2026-04-06T09:11:32.725Z</time></trkpt><trkpt lat="43.7683822" lon="11.2098097"><ele>43.800000000000004</ele><time>2026-04-06T09:11:34.725Z</time></trkpt><trkpt lat="43.7682784" lon="11.2097766"><ele>43.6</ele><time>2026-04-06T09:11:36.725Z</time></trkpt><trkpt lat="43.7681988" lon="11.2096937"><ele>43.4</ele><time>2026-04-06T09:11:38.724Z</time></trkpt><trkpt lat="43.7681052" lon="11.2096335"><ele>43.2</ele><time>2026-04-06T09:11:40.724Z</time></trkpt><trkpt lat="43.7680176" lon="11.2095669"><ele>43.0</ele><time>2026-04-06T09:11:42.726Z</time></trkpt><trkpt lat="43.7679292" lon="11.2094805"><ele>43.0</ele><time>2026-04-06T09:11:44.725Z</time></trkpt><trkpt lat="43.7678597" lon="11.2093916"><ele>43.0</ele><time>2026-04-06T09:11:46.725Z</time></trkpt><trkpt lat="43.7677973" lon="11.2092706"><ele>43.0</ele><time>2026-04-06T09:11:48.725Z</time></trkpt><trkpt lat="43.7677446" lon="11.2091545"><ele>43.0</ele><time>2026-04-06T09:11:50.726Z</time></trkpt><trkpt lat="43.767675" lon="11.2090511"><ele>43.0</ele><time>2026-04-06T09:11:52.725Z</time></trkpt><trkpt lat="43.7675985" lon="11.2089673"><ele>42.8</ele><time>2026-04-06T09:11:54.724Z</time></trkpt><trkpt lat="43.767516" lon="11.208904"><ele>42.599999999999994</ele><time>2026-04-06T09:11:56.725Z</time></trkpt><trkpt lat="43.7674136" lon="11.2088677"><ele>42.400000000000006</ele><time>2026-04-06T09:11:58.724Z</time></trkpt><trkpt lat="43.767306" lon="11.2088378"><ele>42.2</ele><time>2026-04-06T09:12:00.725Z</time></trkpt><trkpt lat="43.767208" lon="11.2088236"><ele>42.0</ele><time>2026-04-06T09:12:02.724Z</time></trkpt><trkpt lat="43.7671144" lon="11.2087799"><ele>42.0</ele><time>2026-04-06T09:12:04.724Z</time></trkpt><trkpt lat="43.7670322" lon="11.2087065"><ele>42.0</ele><time>2026-04-06T09:12:06.725Z</time></trkpt><trkpt lat="43.766952" lon="11.2086273"><ele>42.0</ele><time>2026-04-06T09:12:08.725Z</time></trkpt><trkpt lat="43.7668742" lon="11.2085448"><ele>42.0</ele><time>2026-04-06T09:12:10.726Z</time></trkpt><trkpt lat="43.7667879" lon="11.2084435"><ele>42.0</ele><time>2026-04-06T09:12:12.725Z</time></trkpt><trkpt lat="43.7667204" lon="11.2083558"><ele>42.0</ele><time>2026-04-06T09:12:14.725Z</time></trkpt><trkpt lat="43.7666405" lon="11.2082471"><ele>42.0</ele><time>2026-04-06T09:12:16.726Z</time></trkpt><trkpt lat="43.7665706" lon="11.2081423"><ele>42.0</ele><time>2026-04-06T09:12:18.726Z</time></trkpt><trkpt lat="43.7664939" lon="11.2080485"><ele>42.0</ele><time>2026-04-06T09:12:20.724Z</time></trkpt><trkpt lat="43.7664331" lon="11.2079599"><ele>42.0</ele><time>2026-04-06T09:12:22.724Z</time></trkpt><trkpt lat="43.7663554" lon="11.2078636"><ele>42.0</ele><time>2026-04-06T09:12:24.725Z</time></trkpt><trkpt lat="43.76628" lon="11.2077827"><ele>42.0</ele><time>2026-04-06T09:12:26.724Z</time></trkpt><trkpt lat="43.7662017" lon="11.2076709"><ele>42.0</ele><time>2026-04-06T09:12:28.724Z</time></trkpt><trkpt lat="43.7661398" lon="11.2075721"><ele>42.0</ele><time>2026-04-06T09:12:30.725Z</time></trkpt><trkpt lat="43.7660814" lon="11.2074627"><ele>42.0</ele><time>2026-04-06T09:12:32.725Z</time></trkpt><trkpt lat="43.766015" lon="11.2073578"><ele>41.6</ele><time>2026-04-06T09:12:34.725Z</time></trkpt><trkpt lat="43.7659607" lon="11.2072489"><ele>41.2</ele><time>2026-04-06T09:12:36.725Z</time></trkpt><trkpt lat="43.7659126" lon="11.2071436"><ele>40.8</ele><time>2026-04-06T09:12:38.725Z</time></trkpt><trkpt lat="43.7658534" lon="11.2070349"><ele>40.4</ele><time>2026-04-06T09:12:40.725Z</time></trkpt><trkpt lat="43.7657912" lon="11.2069255"><ele>40.0</ele><time>2026-04-06T09:12:42.725Z</time></trkpt><trkpt lat="43.7657178" lon="11.2068092"><ele>40.0</ele><time>2026-04-06T09:12:44.725Z</time></trkpt><trkpt lat="43.7656588" lon="11.2066981"><ele>40.0</ele><time>2026-04-06T09:12:46.724Z</time></trkpt><trkpt lat="43.7655929" lon="11.2065909"><ele>40.0</ele><time>2026-04-06T09:12:48.724Z</time></trkpt><trkpt lat="43.7655431" lon="11.2064945"><ele>40.0</ele><time>2026-04-06T09:12:50.726Z</time></trkpt><trkpt lat="43.7654937" lon="11.2063863"><ele>40.0</ele><time>2026-04-06T09:12:52.724Z</time></trkpt><trkpt lat="43.7654376" lon="11.2062783"><ele>40.0</ele><time>2026-04-06T09:12:54.724Z</time></trkpt><trkpt lat="43.7653771" lon="11.2061715"><ele>40.0</ele><time>2026-04-06T09:12:56.724Z</time></trkpt><trkpt lat="43.765328" lon="11.206053"><ele>40.0</ele><time>2026-04-06T09:12:58.725Z</time></trkpt><trkpt lat="43.7652788" lon="11.2059393"><ele>40.0</ele><time>2026-04-06T09:13:00.725Z</time></trkpt><trkpt lat="43.7652313" lon="11.2058178"><ele>40.0</ele><time>2026-04-06T09:13:02.725Z</time></trkpt><trkpt lat="43.7651864" lon="11.2056915"><ele>40.0</ele><time>2026-04-06T09:13:04.724Z</time></trkpt><trkpt lat="43.7651519" lon="11.2055552"><ele>40.0</ele><time>2026-04-06T09:13:06.726Z</time></trkpt><trkpt lat="43.7651225" lon="11.2054248"><ele>40.0</ele><time>2026-04-06T09:13:08.724Z</time></trkpt><trkpt lat="43.7651116" lon="11.2052771"><ele>40.0</ele><time>2026-04-06T09:13:10.725Z</time></trkpt><trkpt lat="43.7650955" lon="11.2051334"><ele>40.0</ele><time>2026-04-06T09:13:12.723Z</time></trkpt><trkpt lat="43.7650721" lon="11.2049955"><ele>40.0</ele><time>2026-04-06T09:13:14.726Z</time></trkpt><trkpt lat="43.765047" lon="11.2048546"><ele>40.0</ele><time>2026-04-06T09:13:16.725Z</time></trkpt><trkpt lat="43.765026" lon="11.2047222"><ele>40.0</ele><time>2026-04-06T09:13:18.725Z</time></trkpt><trkpt lat="43.7650047" lon="11.2045821"><ele>40.0</ele><time>2026-04-06T09:13:20.725Z</time></trkpt><trkpt lat="43.7649821" lon="11.2044499"><ele>40.0</ele><time>2026-04-06T09:13:22.724Z</time></trkpt><trkpt lat="43.764955" lon="11.2043037"><ele>40.2</ele><time>2026-04-06T09:13:24.725Z</time></trkpt><trkpt lat="43.7649442" lon="11.2041704"><ele>40.4</ele><time>2026-04-06T09:13:26.723Z</time></trkpt><trkpt lat="43.7649095" lon="11.2040451"><ele>40.599999999999994</ele><time>2026-04-06T09:13:28.725Z</time></trkpt><trkpt lat="43.7648911" lon="11.2039194"><ele>40.8</ele><time>2026-04-06T09:13:30.724Z</time></trkpt><trkpt lat="43.7648822" lon="11.2037941"><ele>41.0</ele><time>2026-04-06T09:13:32.725Z</time></trkpt><trkpt lat="43.7648716" lon="11.2036595"><ele>41.0</ele><time>2026-04-06T09:13:34.725Z</time></trkpt><trkpt lat="43.7648483" lon="11.2035216"><ele>41.0</ele><time>2026-04-06T09:13:36.725Z</time></trkpt><trkpt lat="43.7648422" lon="11.2033756"><ele>41.0</ele><time>2026-04-06T09:13:38.725Z</time></trkpt><trkpt lat="43.7648299" lon="11.2032368"><ele>41.0</ele><time>2026-04-06T09:13:40.724Z</time></trkpt><trkpt lat="43.7648167" lon="11.2031058"><ele>41.0</ele><time>2026-04-06T09:13:42.725Z</time></trkpt><trkpt lat="43.7648012" lon="11.2029824"><ele>41.0</ele><time>2026-04-06T09:13:44.726Z</time></trkpt><trkpt lat="43.7647895" lon="11.202844"><ele>41.0</ele><time>2026-04-06T09:13:46.725Z</time></trkpt><trkpt lat="43.764776" lon="11.2027135"><ele>41.0</ele><time>2026-04-06T09:13:48.725Z</time></trkpt><trkpt lat="43.7647648" lon="11.2025859"><ele>41.0</ele><time>2026-04-06T09:13:50.724Z</time></trkpt><trkpt lat="43.7647585" lon="11.2024454"><ele>41.0</ele><time>2026-04-06T09:13:52.724Z</time></trkpt><trkpt lat="43.7647479" lon="11.2023088"><ele>40.8</ele><time>2026-04-06T09:13:54.725Z</time></trkpt><trkpt lat="43.764744" lon="11.2021687"><ele>40.599999999999994</ele><time>2026-04-06T09:13:56.725Z</time></trkpt><trkpt lat="43.7647369" lon="11.2020309"><ele>40.4</ele><time>2026-04-06T09:13:58.724Z</time></trkpt><trkpt lat="43.7647199" lon="11.2018909"><ele>40.2</ele><time>2026-04-06T09:14:00.725Z</time></trkpt><trkpt lat="43.7647235" lon="11.2017761"><ele>40.0</ele><time>2026-04-06T09:14:02.726Z</time></trkpt><trkpt lat="43.7647108" lon="11.2016505"><ele>40.0</ele><time>2026-04-06T09:14:04.724Z</time></trkpt><trkpt lat="43.7647128" lon="11.2015256"><ele>40.0</ele><time>2026-04-06T09:14:06.725Z</time></trkpt><trkpt lat="43.7647133" lon="11.2014044"><ele>40.0</ele><time>2026-04-06T09:14:08.724Z</time></trkpt><trkpt lat="43.7646945" lon="11.2012712"><ele>40.0</ele><time>2026-04-06T09:14:10.725Z</time></trkpt><trkpt lat="43.764677" lon="11.2011333"><ele>40.0</ele><time>2026-04-06T09:14:12.724Z</time></trkpt><trkpt lat="43.7646756" lon="11.201"><ele>40.2</ele><time>2026-04-06T09:14:14.725Z</time></trkpt><trkpt lat="43.7646607" lon="11.2008689"><ele>40.4</ele><time>2026-04-06T09:14:16.724Z</time></trkpt><trkpt lat="43.7646457" lon="11.2007346"><ele>40.599999999999994</ele><time>2026-04-06T09:14:18.726Z</time></trkpt><trkpt lat="43.7646321" lon="11.2005944"><ele>40.8</ele><time>2026-04-06T09:14:20.725Z</time></trkpt><trkpt lat="43.7646218" lon="11.200467"><ele>41.0</ele><time>2026-04-06T09:14:22.724Z</time></trkpt><trkpt lat="43.7645999" lon="11.2003267"><ele>41.0</ele><time>2026-04-06T09:14:24.725Z</time></trkpt><trkpt lat="43.7645989" lon="11.2002163"><ele>41.0</ele><time>2026-04-06T09:14:26.725Z</time></trkpt><trkpt lat="43.7646248" lon="11.2001156"><ele>41.0</ele><time>2026-04-06T09:14:28.724Z</time></trkpt><trkpt lat="43.7646586" lon="11.2000091"><ele>41.0</ele><time>2026-04-06T09:14:30.724Z</time></trkpt><trkpt lat="43.7647121" lon="11.1998959"><ele>41.0</ele><time>2026-04-06T09:14:32.724Z</time></trkpt><trkpt lat="43.7647591" lon="11.199786"><ele>41.0</ele><time>2026-04-06T09:14:34.724Z</time></trkpt><trkpt lat="43.7647974" lon="11.1996651"><ele>40.599999999999994</ele><time>2026-04-06T09:14:36.725Z</time></trkpt><trkpt lat="43.7648152" lon="11.1995278"><ele>40.199999999999996</ele><time>2026-04-06T09:14:38.723Z</time></trkpt><trkpt lat="43.7647987" lon="11.199396"><ele>39.8</ele><time>2026-04-06T09:14:40.723Z</time></trkpt><trkpt lat="43.7647681" lon="11.1992703"><ele>39.4</ele><time>2026-04-06T09:14:42.725Z</time></trkpt><trkpt lat="43.7647121" lon="11.1991699"><ele>39.0</ele><time>2026-04-06T09:14:44.723Z</time></trkpt><trkpt lat="43.7646517" lon="11.1990692"><ele>39.2</ele><time>2026-04-06T09:14:46.724Z</time></trkpt><trkpt lat="43.764605" lon="11.1989641"><ele>39.4</ele><time>2026-04-06T09:14:48.725Z</time></trkpt><trkpt lat="43.7645573" lon="11.1988525"><ele>39.6</ele><time>2026-04-06T09:14:50.725Z</time></trkpt><trkpt lat="43.7645061" lon="11.1987334"><ele>39.8</ele><time>2026-04-06T09:14:52.723Z</time></trkpt><trkpt lat="43.7644679" lon="11.1986157"><ele>40.0</ele><time>2026-04-06T09:14:54.723Z</time></trkpt><trkpt lat="43.7644287" lon="11.1984964"><ele>40.0</ele><time>2026-04-06T09:14:56.724Z</time></trkpt><trkpt lat="43.7643989" lon="11.198368"><ele>40.0</ele><time>2026-04-06T09:14:58.725Z</time></trkpt><trkpt lat="43.7643649" lon="11.1982492"><ele>40.0</ele><time>2026-04-06T09:15:00.723Z</time></trkpt><trkpt lat="43.7643294" lon="11.1981224"><ele>40.0</ele><time>2026-04-06T09:15:02.723Z</time></trkpt><trkpt lat="43.764301" lon="11.1979945"><ele>40.0</ele><time>2026-04-06T09:15:04.723Z</time></trkpt><trkpt lat="43.7642727" lon="11.1978714"><ele>39.8</ele><time>2026-04-06T09:15:06.724Z</time></trkpt><trkpt lat="43.7642378" lon="11.1977577"><ele>39.6</ele><time>2026-04-06T09:15:08.724Z</time></trkpt><trkpt lat="43.7642048" lon="11.1976384"><ele>39.4</ele><time>2026-04-06T09:15:10.726Z</time></trkpt><trkpt lat="43.7641853" lon="11.1975209"><ele>39.2</ele><time>2026-04-06T09:15:12.724Z</time></trkpt><trkpt lat="43.7641639" lon="11.1974023"><ele>39.0</ele><time>2026-04-06T09:15:14.724Z</time></trkpt><trkpt lat="43.7641454" lon="11.1972718"><ele>39.0</ele><time>2026-04-06T09:15:16.725Z</time></trkpt><trkpt lat="43.7641342" lon="11.1971297"><ele>39.0</ele><time>2026-04-06T09:15:18.723Z</time></trkpt><trkpt lat="43.7641156" lon="11.1970006"><ele>39.0</ele><time>2026-04-06T09:15:20.725Z</time></trkpt><trkpt lat="43.7640976" lon="11.1968651"><ele>39.0</ele><time>2026-04-06T09:15:22.726Z</time></trkpt><trkpt lat="43.7640775" lon="11.1967271"><ele>39.0</ele><time>2026-04-06T09:15:24.725Z</time></trkpt><trkpt lat="43.76405" lon="11.1966051"><ele>39.2</ele><time>2026-04-06T09:15:26.723Z</time></trkpt><trkpt lat="43.7640244" lon="11.196484"><ele>39.4</ele><time>2026-04-06T09:15:28.725Z</time></trkpt><trkpt lat="43.76398" lon="11.1963719"><ele>39.6</ele><time>2026-04-06T09:15:30.723Z</time></trkpt><trkpt lat="43.763931" lon="11.196259"><ele>39.8</ele><time>2026-04-06T09:15:32.725Z</time></trkpt><trkpt lat="43.7638747" lon="11.196133"><ele>40.0</ele><time>2026-04-06T09:15:34.723Z</time></trkpt><trkpt lat="43.7638209" lon="11.1960272"><ele>40.0</ele><time>2026-04-06T09:15:36.724Z</time></trkpt><trkpt lat="43.7637675" lon="11.1959208"><ele>40.0</ele><time>2026-04-06T09:15:38.723Z</time></trkpt><trkpt lat="43.7637135" lon="11.1957971"><ele>40.0</ele><time>2026-04-06T09:15:40.724Z</time></trkpt><trkpt lat="43.7636658" lon="11.1956864"><ele>40.0</ele><time>2026-04-06T09:15:42.723Z</time></trkpt><trkpt lat="43.7636296" lon="11.1955711"><ele>40.0</ele><time>2026-04-06T09:15:44.726Z</time></trkpt><trkpt lat="43.7635918" lon="11.1954517"><ele>40.2</ele><time>2026-04-06T09:15:46.724Z</time></trkpt><trkpt lat="43.7635557" lon="11.1953312"><ele>40.4</ele><time>2026-04-06T09:15:48.723Z</time></trkpt><trkpt lat="43.763525" lon="11.1952163"><ele>40.599999999999994</ele><time>2026-04-06T09:15:50.724Z</time></trkpt><trkpt lat="43.7634959" lon="11.1951031"><ele>40.8</ele><time>2026-04-06T09:15:52.723Z</time></trkpt><trkpt lat="43.7634599" lon="11.1949844"><ele>41.0</ele><time>2026-04-06T09:15:54.723Z</time></trkpt><trkpt lat="43.7634338" lon="11.1948685"><ele>41.166666666666664</ele><time>2026-04-06T09:15:56.724Z</time></trkpt><trkpt lat="43.7634015" lon="11.1947656"><ele>41.33333333333333</ele><time>2026-04-06T09:15:58.724Z</time></trkpt><trkpt lat="43.7633706" lon="11.1946596"><ele>41.5</ele><time>2026-04-06T09:16:00.726Z</time></trkpt><trkpt lat="43.7633415" lon="11.1945534"><ele>41.666666666666664</ele><time>2026-04-06T09:16:02.724Z</time></trkpt><trkpt lat="43.763316" lon="11.1944536"><ele>41.833333333333336</ele><time>2026-04-06T09:16:04.724Z</time></trkpt><trkpt lat="43.763292" lon="11.1943553"><ele>42.0</ele><time>2026-04-06T09:16:06.725Z</time></trkpt><trkpt lat="43.7632702" lon="11.1942544"><ele>42.0</ele><time>2026-04-06T09:16:08.724Z</time></trkpt><trkpt lat="43.7632524" lon="11.1941519"><ele>42.0</ele><time>2026-04-06T09:16:10.724Z</time></trkpt><trkpt lat="43.7632369" lon="11.1940471"><ele>42.0</ele><time>2026-04-06T09:16:12.724Z</time></trkpt><trkpt lat="43.7632243" lon="11.1939378"><ele>42.0</ele><time>2026-04-06T09:16:14.725Z</time></trkpt><trkpt lat="43.7632104" lon="11.1938301"><ele>42.0</ele><time>2026-04-06T09:16:16.724Z</time></trkpt><trkpt lat="43.7631961" lon="11.1937262"><ele>42.0</ele><time>2026-04-06T09:16:18.723Z</time></trkpt><trkpt lat="43.7631843" lon="11.1936197"><ele>42.0</ele><time>2026-04-06T09:16:20.723Z</time></trkpt><trkpt lat="43.7631688" lon="11.193516"><ele>42.0</ele><time>2026-04-06T09:16:22.725Z</time></trkpt><trkpt lat="43.7631553" lon="11.1934095"><ele>42.0</ele><time>2026-04-06T09:16:24.723Z</time></trkpt><trkpt lat="43.7631397" lon="11.1933056"><ele>42.0</ele><time>2026-04-06T09:16:26.725Z</time></trkpt><trkpt lat="43.7631194" lon="11.1931989"><ele>42.0</ele><time>2026-04-06T09:16:28.725Z</time></trkpt><trkpt lat="43.7630959" lon="11.1930936"><ele>42.0</ele><time>2026-04-06T09:16:30.724Z</time></trkpt><trkpt lat="43.7630733" lon="11.1929863"><ele>41.6</ele><time>2026-04-06T09:16:32.723Z</time></trkpt><trkpt lat="43.7630535" lon="11.1928729"><ele>41.2</ele><time>2026-04-06T09:16:34.724Z</time></trkpt><trkpt lat="43.7630334" lon="11.1927542"><ele>40.8</ele><time>2026-04-06T09:16:36.724Z</time></trkpt><trkpt lat="43.7630092" lon="11.1926245"><ele>40.4</ele><time>2026-04-06T09:16:38.724Z</time></trkpt><trkpt lat="43.7629858" lon="11.1925024"><ele>40.0</ele><time>2026-04-06T09:16:40.723Z</time></trkpt><trkpt lat="43.7629707" lon="11.1923754"><ele>39.6</ele><time>2026-04-06T09:16:42.724Z</time></trkpt><trkpt lat="43.7629539" lon="11.1922504"><ele>39.2</ele><time>2026-04-06T09:16:44.723Z</time></trkpt><trkpt lat="43.7629286" lon="11.192137"><ele>38.8</ele><time>2026-04-06T09:16:46.725Z</time></trkpt><trkpt lat="43.7629232" lon="11.1920108"><ele>38.4</ele><time>2026-04-06T09:16:48.724Z</time></trkpt><trkpt lat="43.7629079" lon="11.1918683"><ele>38.0</ele><time>2026-04-06T09:16:50.725Z</time></trkpt><trkpt lat="43.7628909" lon="11.1917619"><ele>38.0</ele><time>2026-04-06T09:16:52.725Z</time></trkpt><trkpt lat="43.7628708" lon="11.1916542"><ele>38.0</ele><time>2026-04-06T09:16:54.725Z</time></trkpt><trkpt lat="43.7628441" lon="11.1915431"><ele>38.0</ele><time>2026-04-06T09:16:56.725Z</time></trkpt><trkpt lat="43.7628282" lon="11.1914034"><ele>38.0</ele><time>2026-04-06T09:16:58.723Z</time></trkpt><trkpt lat="43.7628107" lon="11.191249"><ele>38.0</ele><time>2026-04-06T09:17:00.725Z</time></trkpt><trkpt lat="43.7628029" lon="11.1911536"><ele>38.0</ele><time>2026-04-06T09:17:01.724Z</time></trkpt><trkpt lat="43.7627865" lon="11.1910501"><ele>38.5</ele><time>2026-04-06T09:17:02.724Z</time></trkpt><trkpt lat="43.7627736" lon="11.1909583"><ele>39.0</ele><time>2026-04-06T09:17:03.725Z</time></trkpt><trkpt lat="43.7627438" lon="11.1907833"><ele>39.5</ele><time>2026-04-06T09:17:05.724Z</time></trkpt><trkpt lat="43.7627255" lon="11.1906888"><ele>40.0</ele><time>2026-04-06T09:17:06.724Z</time></trkpt><trkpt lat="43.7627089" lon="11.190597"><ele>40.5</ele><time>2026-04-06T09:17:07.724Z</time></trkpt><trkpt lat="43.7627175" lon="11.1905084"><ele>41.0</ele><time>2026-04-06T09:17:08.725Z</time></trkpt><trkpt lat="43.7627231" lon="11.1904021"><ele>41.0</ele><time>2026-04-06T09:17:09.724Z</time></trkpt><trkpt lat="43.7627362" lon="11.190308"><ele>41.0</ele><time>2026-04-06T09:17:10.724Z</time></trkpt><trkpt lat="43.7627433" lon="11.1902194"><ele>41.0</ele><time>2026-04-06T09:17:11.724Z</time></trkpt><trkpt lat="43.7627466" lon="11.1901293"><ele>41.0</ele><time>2026-04-06T09:17:12.724Z</time></trkpt><trkpt lat="43.7627085" lon="11.1899888"><ele>41.0</ele><time>2026-04-06T09:17:14.724Z</time></trkpt><trkpt lat="43.7626323" lon="11.1898862"><ele>41.0</ele><time>2026-04-06T09:17:16.725Z</time></trkpt><trkpt lat="43.7625236" lon="11.1898327"><ele>41.0</ele><time>2026-04-06T09:17:18.725Z</time></trkpt><trkpt lat="43.7624607" lon="11.1898279"><ele>41.0</ele><time>2026-04-06T09:17:19.724Z</time></trkpt><trkpt lat="43.7623503" lon="11.1898914"><ele>41.0</ele><time>2026-04-06T09:17:21.724Z</time></trkpt><trkpt lat="43.7622958" lon="11.1899516"><ele>41.0</ele><time>2026-04-06T09:17:22.724Z</time></trkpt><trkpt lat="43.7622437" lon="11.1900892"><ele>41.0</ele><time>2026-04-06T09:17:24.723Z</time></trkpt><trkpt lat="43.7622258" lon="11.1902298"><ele>41.0</ele><time>2026-04-06T09:17:26.725Z</time></trkpt><trkpt lat="43.7621917" lon="11.1903657"><ele>41.0</ele><time>2026-04-06T09:17:28.724Z</time></trkpt><trkpt lat="43.7621401" lon="11.1904797"><ele>41.0</ele><time>2026-04-06T09:17:30.723Z</time></trkpt><trkpt lat="43.7620856" lon="11.1906001"><ele>41.0</ele><time>2026-04-06T09:17:32.724Z</time></trkpt><trkpt lat="43.7620108" lon="11.1906862"><ele>41.0</ele><time>2026-04-06T09:17:34.725Z</time></trkpt><trkpt lat="43.7619323" lon="11.190771"><ele>41.166666666666664</ele><time>2026-04-06T09:17:36.724Z</time></trkpt><trkpt lat="43.7618645" lon="11.1908557"><ele>41.33333333333333</ele><time>2026-04-06T09:17:38.723Z</time></trkpt><trkpt lat="43.7617873" lon="11.1909206"><ele>41.5</ele><time>2026-04-06T09:17:40.725Z</time></trkpt><trkpt lat="43.7617041" lon="11.1909894"><ele>41.666666666666664</ele><time>2026-04-06T09:17:42.724Z</time></trkpt><trkpt lat="43.7616339" lon="11.1910456"><ele>41.833333333333336</ele><time>2026-04-06T09:17:44.723Z</time></trkpt><trkpt lat="43.7615573" lon="11.1911061"><ele>42.0</ele><time>2026-04-06T09:17:46.724Z</time></trkpt><trkpt lat="43.7614755" lon="11.1911696"><ele>42.0</ele><time>2026-04-06T09:17:48.725Z</time></trkpt><trkpt lat="43.7613987" lon="11.1912311"><ele>42.0</ele><time>2026-04-06T09:17:50.724Z</time></trkpt><trkpt lat="43.7613226" lon="11.1912907"><ele>42.0</ele><time>2026-04-06T09:17:52.724Z</time></trkpt><trkpt lat="43.7612422" lon="11.1913477"><ele>42.0</ele><time>2026-04-06T09:17:54.723Z</time></trkpt><trkpt lat="43.7611576" lon="11.1914091"><ele>42.0</ele><time>2026-04-06T09:17:56.724Z</time></trkpt><trkpt lat="43.7610786" lon="11.1914663"><ele>42.2</ele><time>2026-04-06T09:17:58.723Z</time></trkpt><trkpt lat="43.7610033" lon="11.1915157"><ele>42.400000000000006</ele><time>2026-04-06T09:18:00.725Z</time></trkpt><trkpt lat="43.7609178" lon="11.1915725"><ele>42.599999999999994</ele><time>2026-04-06T09:18:02.723Z</time></trkpt><trkpt lat="43.7608365" lon="11.1916083"><ele>42.8</ele><time>2026-04-06T09:18:04.724Z</time></trkpt><trkpt lat="43.7607506" lon="11.1916539"><ele>43.0</ele><time>2026-04-06T09:18:06.723Z</time></trkpt><trkpt lat="43.7606551" lon="11.1916979"><ele>43.0</ele><time>2026-04-06T09:18:08.724Z</time></trkpt><trkpt lat="43.7605722" lon="11.1917253"><ele>43.0</ele><time>2026-04-06T09:18:10.724Z</time></trkpt><trkpt lat="43.7604965" lon="11.1917637"><ele>43.0</ele><time>2026-04-06T09:18:12.724Z</time></trkpt><trkpt lat="43.7604189" lon="11.1918074"><ele>43.0</ele><time>2026-04-06T09:18:14.723Z</time></trkpt><trkpt lat="43.7603361" lon="11.1918329"><ele>43.0</ele><time>2026-04-06T09:18:16.725Z</time></trkpt><trkpt lat="43.7602521" lon="11.191866"><ele>43.0</ele><time>2026-04-06T09:18:18.723Z</time></trkpt><trkpt lat="43.760166" lon="11.1919116"><ele>43.0</ele><time>2026-04-06T09:18:20.725Z</time></trkpt><trkpt lat="43.7600719" lon="11.1919421"><ele>43.0</ele><time>2026-04-06T09:18:22.723Z</time></trkpt><trkpt lat="43.7599973" lon="11.1919567"><ele>43.0</ele><time>2026-04-06T09:18:24.724Z</time></trkpt><trkpt lat="43.7599191" lon="11.1919747"><ele>43.0</ele><time>2026-04-06T09:18:26.724Z</time></trkpt><trkpt lat="43.7598262" lon="11.1919926"><ele>43.0</ele><time>2026-04-06T09:18:28.723Z</time></trkpt><trkpt lat="43.7597438" lon="11.192011"><ele>43.0</ele><time>2026-04-06T09:18:30.724Z</time></trkpt><trkpt lat="43.759659" lon="11.1920354"><ele>43.0</ele><time>2026-04-06T09:18:32.724Z</time></trkpt><trkpt lat="43.7595766" lon="11.192057"><ele>43.0</ele><time>2026-04-06T09:18:34.724Z</time></trkpt><trkpt lat="43.7594946" lon="11.1920799"><ele>43.0</ele><time>2026-04-06T09:18:36.724Z</time></trkpt><trkpt lat="43.7594134" lon="11.1921043"><ele>43.0</ele><time>2026-04-06T09:18:38.724Z</time></trkpt><trkpt lat="43.7593287" lon="11.1921254"><ele>43.0</ele><time>2026-04-06T09:18:40.724Z</time></trkpt><trkpt lat="43.7592394" lon="11.1921394"><ele>43.0</ele><time>2026-04-06T09:18:42.723Z</time></trkpt><trkpt lat="43.7591504" lon="11.1921549"><ele>43.333333333333336</ele><time>2026-04-06T09:18:44.724Z</time></trkpt><trkpt lat="43.7590608" lon="11.1921662"><ele>43.66666666666667</ele><time>2026-04-06T09:18:46.723Z</time></trkpt><trkpt lat="43.7589704" lon="11.1921762"><ele>44.0</ele><time>2026-04-06T09:18:48.725Z</time></trkpt><trkpt lat="43.7588892" lon="11.1921919"><ele>44.333333333333336</ele><time>2026-04-06T09:18:50.724Z</time></trkpt><trkpt lat="43.7588121" lon="11.1922057"><ele>44.666666666666664</ele><time>2026-04-06T09:18:52.724Z</time></trkpt><trkpt lat="43.7587186" lon="11.1922069"><ele>45.0</ele><time>2026-04-06T09:18:54.724Z</time></trkpt><trkpt lat="43.758624" lon="11.1922134"><ele>44.6</ele><time>2026-04-06T09:18:56.724Z</time></trkpt><trkpt lat="43.7585289" lon="11.1922222"><ele>44.2</ele><time>2026-04-06T09:18:58.725Z</time></trkpt><trkpt lat="43.7584369" lon="11.192237"><ele>43.8</ele><time>2026-04-06T09:19:00.723Z</time></trkpt><trkpt lat="43.7583392" lon="11.1922529"><ele>43.4</ele><time>2026-04-06T09:19:02.724Z</time></trkpt><trkpt lat="43.7582477" lon="11.1922605"><ele>43.0</ele><time>2026-04-06T09:19:04.725Z</time></trkpt><trkpt lat="43.7581612" lon="11.1922499"><ele>43.0</ele><time>2026-04-06T09:19:06.723Z</time></trkpt><trkpt lat="43.7580703" lon="11.1922498"><ele>43.0</ele><time>2026-04-06T09:19:08.724Z</time></trkpt><trkpt lat="43.757985" lon="11.1922495"><ele>43.0</ele><time>2026-04-06T09:19:10.724Z</time></trkpt><trkpt lat="43.757898" lon="11.1922516"><ele>43.0</ele><time>2026-04-06T09:19:12.723Z</time></trkpt><trkpt lat="43.7578122" lon="11.1922554"><ele>43.0</ele><time>2026-04-06T09:19:14.723Z</time></trkpt><trkpt lat="43.7577281" lon="11.1922506"><ele>43.0</ele><time>2026-04-06T09:19:16.725Z</time></trkpt><trkpt lat="43.7576446" lon="11.1922487"><ele>43.333333333333336</ele><time>2026-04-06T09:19:18.724Z</time></trkpt><trkpt lat="43.7575621" lon="11.1922507"><ele>43.66666666666667</ele><time>2026-04-06T09:19:20.724Z</time></trkpt><trkpt lat="43.7574789" lon="11.1922492"><ele>44.0</ele><time>2026-04-06T09:19:22.725Z</time></trkpt><trkpt lat="43.7573914" lon="11.1922431"><ele>44.333333333333336</ele><time>2026-04-06T09:19:24.723Z</time></trkpt><trkpt lat="43.7573024" lon="11.1922393"><ele>44.666666666666664</ele><time>2026-04-06T09:19:26.723Z</time></trkpt><trkpt lat="43.7572126" lon="11.1922329"><ele>45.0</ele><time>2026-04-06T09:19:28.724Z</time></trkpt><trkpt lat="43.7571262" lon="11.1922279"><ele>45.0</ele><time>2026-04-06T09:19:30.724Z</time></trkpt><trkpt lat="43.7570386" lon="11.1922226"><ele>45.0</ele><time>2026-04-06T09:19:32.723Z</time></trkpt><trkpt lat="43.7569373" lon="11.1922168"><ele>45.0</ele><time>2026-04-06T09:19:34.722Z</time></trkpt><trkpt lat="43.7568508" lon="11.1922184"><ele>45.0</ele><time>2026-04-06T09:19:36.723Z</time></trkpt><trkpt lat="43.7567545" lon="11.1922287"><ele>45.0</ele><time>2026-04-06T09:19:38.722Z</time></trkpt><trkpt lat="43.7566642" lon="11.1922169"><ele>45.0</ele><time>2026-04-06T09:19:40.722Z</time></trkpt><trkpt lat="43.7565734" lon="11.1922227"><ele>45.0</ele><time>2026-04-06T09:19:42.723Z</time></trkpt><trkpt lat="43.7564841" lon="11.1922097"><ele>45.0</ele><time>2026-04-06T09:19:44.723Z</time></trkpt><trkpt lat="43.7563933" lon="11.1922097"><ele>45.0</ele><time>2026-04-06T09:19:46.723Z</time></trkpt><trkpt lat="43.7563051" lon="11.192212"><ele>45.0</ele><time>2026-04-06T09:19:48.725Z</time></trkpt><trkpt lat="43.7562152" lon="11.1922172"><ele>45.0</ele><time>2026-04-06T09:19:50.724Z</time></trkpt><trkpt lat="43.7561329" lon="11.1922248"><ele>45.0</ele><time>2026-04-06T09:19:52.723Z</time></trkpt><trkpt lat="43.7560569" lon="11.1922"><ele>45.0</ele><time>2026-04-06T09:19:54.724Z</time></trkpt><trkpt lat="43.7559864" lon="11.1921492"><ele>45.0</ele><time>2026-04-06T09:19:56.723Z</time></trkpt><trkpt lat="43.7559084" lon="11.1920864"><ele>45.0</ele><time>2026-04-06T09:19:58.724Z</time></trkpt><trkpt lat="43.7558379" lon="11.192002"><ele>45.0</ele><time>2026-04-06T09:20:00.723Z</time></trkpt><trkpt lat="43.7557628" lon="11.1919107"><ele>45.0</ele><time>2026-04-06T09:20:02.723Z</time></trkpt><trkpt lat="43.7557034" lon="11.1918234"><ele>45.0</ele><time>2026-04-06T09:20:04.724Z</time></trkpt><trkpt lat="43.7556508" lon="11.191736"><ele>45.0</ele><time>2026-04-06T09:20:06.724Z</time></trkpt><trkpt lat="43.7555919" lon="11.1916362"><ele>45.0</ele><time>2026-04-06T09:20:08.725Z</time></trkpt><trkpt lat="43.7555316" lon="11.1915392"><ele>45.0</ele><time>2026-04-06T09:20:10.723Z</time></trkpt><trkpt lat="43.7554762" lon="11.1914379"><ele>45.0</ele><time>2026-04-06T09:20:12.724Z</time></trkpt><trkpt lat="43.7554217" lon="11.1913435"><ele>45.166666666666664</ele><time>2026-04-06T09:20:14.724Z</time></trkpt><trkpt lat="43.7553464" lon="11.1912787"><ele>45.333333333333336</ele><time>2026-04-06T09:20:16.723Z</time></trkpt><trkpt lat="43.7552902" lon="11.1911954"><ele>45.5</ele><time>2026-04-06T09:20:18.723Z</time></trkpt><trkpt lat="43.7552399" lon="11.1911124"><ele>45.66666666666667</ele><time>2026-04-06T09:20:20.724Z</time></trkpt><trkpt lat="43.7551867" lon="11.1910306"><ele>45.833333333333336</ele><time>2026-04-06T09:20:22.722Z</time></trkpt><trkpt lat="43.7551268" lon="11.1909378"><ele>46.0</ele><time>2026-04-06T09:20:24.723Z</time></trkpt><trkpt lat="43.7550821" lon="11.1908447"><ele>46.0</ele><time>2026-04-06T09:20:26.724Z</time></trkpt><trkpt lat="43.7550119" lon="11.1907634"><ele>46.0</ele><time>2026-04-06T09:20:28.723Z</time></trkpt><trkpt lat="43.7549581" lon="11.1906825"><ele>46.0</ele><time>2026-04-06T09:20:30.723Z</time></trkpt><trkpt lat="43.7549088" lon="11.1906007"><ele>46.0</ele><time>2026-04-06T09:20:32.722Z</time></trkpt><trkpt lat="43.7548573" lon="11.1905211"><ele>46.0</ele><time>2026-04-06T09:20:34.723Z</time></trkpt><trkpt lat="43.7548066" lon="11.1904383"><ele>46.0</ele><time>2026-04-06T09:20:37.724Z</time></trkpt><trkpt lat="43.7547718" lon="11.1903595"><ele>46.0</ele><time>2026-04-06T09:20:40.724Z</time></trkpt><trkpt lat="43.7547419" lon="11.1902773"><ele>46.0</ele><time>2026-04-06T09:20:44.722Z</time></trkpt><trkpt lat="43.7547072" lon="11.1902024"><ele>46.0</ele><time>2026-04-06T09:20:50.723Z</time></trkpt><trkpt lat="43.7546734" lon="11.1901045"><ele>46.0</ele><time>2026-04-06T09:20:53.724Z</time></trkpt><trkpt lat="43.7546076" lon="11.1900239"><ele>46.0</ele><time>2026-04-06T09:20:56.722Z</time></trkpt><trkpt lat="43.7545522" lon="11.1899229"><ele>46.0</ele><time>2026-04-06T09:20:59.723Z</time></trkpt><trkpt lat="43.754519" lon="11.1898136"><ele>46.0</ele><time>2026-04-06T09:21:02.723Z</time></trkpt><trkpt lat="43.7544746" lon="11.1897457"><ele>46.0</ele><time>2026-04-06T09:21:04.725Z</time></trkpt><trkpt lat="43.754427" lon="11.1896749"><ele>46.0</ele><time>2026-04-06T09:21:06.723Z</time></trkpt><trkpt lat="43.7543734" lon="11.1895891"><ele>46.0</ele><time>2026-04-06T09:21:08.723Z</time></trkpt><trkpt lat="43.7543107" lon="11.189499"><ele>46.0</ele><time>2026-04-06T09:21:10.722Z</time></trkpt><trkpt lat="43.7542566" lon="11.1894255"><ele>46.0</ele><time>2026-04-06T09:21:12.722Z</time></trkpt><trkpt lat="43.7542112" lon="11.1893459"><ele>46.16666666666667</ele><time>2026-04-06T09:21:14.723Z</time></trkpt><trkpt lat="43.7541668" lon="11.1892371"><ele>46.333333333333336</ele><time>2026-04-06T09:21:17.723Z</time></trkpt><trkpt lat="43.754136" lon="11.189128"><ele>46.5</ele><time>2026-04-06T09:21:20.723Z</time></trkpt><trkpt lat="43.754062" lon="11.1890988"><ele>46.666666666666664</ele><time>2026-04-06T09:21:24.722Z</time></trkpt><trkpt lat="43.7540022" lon="11.1891585"><ele>46.83333333333333</ele><time>2026-04-06T09:21:26.722Z</time></trkpt><trkpt lat="43.753942" lon="11.1892278"><ele>47.0</ele><time>2026-04-06T09:21:28.723Z</time></trkpt><trkpt lat="43.7538858" lon="11.1893071"><ele>47.0</ele><time>2026-04-06T09:21:30.723Z</time></trkpt><trkpt lat="43.7538267" lon="11.1893811"><ele>47.0</ele><time>2026-04-06T09:21:32.724Z</time></trkpt><trkpt lat="43.7537635" lon="11.1894571"><ele>47.0</ele><time>2026-04-06T09:21:34.723Z</time></trkpt><trkpt lat="43.7537034" lon="11.1895276"><ele>47.0</ele><time>2026-04-06T09:21:36.723Z</time></trkpt><trkpt lat="43.7536453" lon="11.1895914"><ele>47.0</ele><time>2026-04-06T09:21:38.722Z</time></trkpt><trkpt lat="43.7535799" lon="11.1896721"><ele>47.0</ele><time>2026-04-06T09:21:40.722Z</time></trkpt><trkpt lat="43.7535148" lon="11.1897346"><ele>47.33333333333333</ele><time>2026-04-06T09:21:42.723Z</time></trkpt><trkpt lat="43.7534553" lon="11.1897864"><ele>47.666666666666664</ele><time>2026-04-06T09:21:44.724Z</time></trkpt><trkpt lat="43.7534034" lon="11.1898372"><ele>48.0</ele><time>2026-04-06T09:21:46.724Z</time></trkpt><trkpt lat="43.7533246" lon="11.1897908"><ele>48.33333333333333</ele><time>2026-04-06T09:21:49.723Z</time></trkpt><trkpt lat="43.7532543" lon="11.1896775"><ele>48.666666666666664</ele><time>2026-04-06T09:21:52.724Z</time></trkpt><trkpt lat="43.7532115" lon="11.1896107"><ele>49.0</ele><time>2026-04-06T09:21:53.723Z</time></trkpt><trkpt lat="43.7531599" lon="11.1895084"><ele>48.99999999999999</ele><time>2026-04-06T09:21:55.723Z</time></trkpt><trkpt lat="43.7531144" lon="11.1894272"><ele>49.0</ele><time>2026-04-06T09:21:57.722Z</time></trkpt><trkpt lat="43.7530654" lon="11.1893371"><ele>49.0</ele><time>2026-04-06T09:21:59.723Z</time></trkpt><trkpt lat="43.7530052" lon="11.1892502"><ele>49.0</ele><time>2026-04-06T09:22:01.724Z</time></trkpt><trkpt lat="43.7529438" lon="11.1891385"><ele>48.99999999999999</ele><time>2026-04-06T09:22:03.723Z</time></trkpt><trkpt lat="43.7529067" lon="11.1890253"><ele>49.0</ele><time>2026-04-06T09:22:05.724Z</time></trkpt><trkpt lat="43.7528551" lon="11.1889357"><ele>48.800000000000004</ele><time>2026-04-06T09:22:07.724Z</time></trkpt><trkpt lat="43.7528022" lon="11.1888372"><ele>48.6</ele><time>2026-04-06T09:22:09.724Z</time></trkpt><trkpt lat="43.7527576" lon="11.1887188"><ele>48.4</ele><time>2026-04-06T09:22:11.724Z</time></trkpt><trkpt lat="43.7526953" lon="11.1886144"><ele>48.2</ele><time>2026-04-06T09:22:13.723Z</time></trkpt><trkpt lat="43.7526374" lon="11.1885057"><ele>48.0</ele><time>2026-04-06T09:22:15.724Z</time></trkpt><trkpt lat="43.7526116" lon="11.188399"><ele>48.0</ele><time>2026-04-06T09:22:17.724Z</time></trkpt><trkpt lat="43.7525676" lon="11.1882955"><ele>48.0</ele><time>2026-04-06T09:22:19.723Z</time></trkpt><trkpt lat="43.7525052" lon="11.188214"><ele>48.0</ele><time>2026-04-06T09:22:21.723Z</time></trkpt><trkpt lat="43.7524388" lon="11.1881328"><ele>48.0</ele><time>2026-04-06T09:22:23.724Z</time></trkpt><trkpt lat="43.7523901" lon="11.1880239"><ele>48.0</ele><time>2026-04-06T09:22:25.722Z</time></trkpt><trkpt lat="43.7523469" lon="11.1879501"><ele>48.0</ele><time>2026-04-06T09:22:27.724Z</time></trkpt><trkpt lat="43.7522972" lon="11.1878514"><ele>47.8</ele><time>2026-04-06T09:22:29.723Z</time></trkpt><trkpt lat="43.7522366" lon="11.1877539"><ele>47.599999999999994</ele><time>2026-04-06T09:22:31.723Z</time></trkpt><trkpt lat="43.752177" lon="11.1876563"><ele>47.400000000000006</ele><time>2026-04-06T09:22:33.724Z</time></trkpt><trkpt lat="43.7520982" lon="11.1875754"><ele>47.2</ele><time>2026-04-06T09:22:35.723Z</time></trkpt><trkpt lat="43.7520259" lon="11.187478"><ele>47.0</ele><time>2026-04-06T09:22:37.723Z</time></trkpt><trkpt lat="43.7519396" lon="11.1873892"><ele>46.8</ele><time>2026-04-06T09:22:39.723Z</time></trkpt><trkpt lat="43.7518577" lon="11.1873134"><ele>46.6</ele><time>2026-04-06T09:22:41.723Z</time></trkpt><trkpt lat="43.7517974" lon="11.1872478"><ele>46.4</ele><time>2026-04-06T09:22:43.724Z</time></trkpt><trkpt lat="43.7517316" lon="11.1871766"><ele>46.199999999999996</ele><time>2026-04-06T09:22:45.723Z</time></trkpt><trkpt lat="43.7516849" lon="11.1870643"><ele>46.0</ele><time>2026-04-06T09:22:47.723Z</time></trkpt><trkpt lat="43.7516277" lon="11.1869547"><ele>46.0</ele><time>2026-04-06T09:22:49.723Z</time></trkpt><trkpt lat="43.7515623" lon="11.1868724"><ele>46.0</ele><time>2026-04-06T09:22:51.722Z</time></trkpt><trkpt lat="43.7514925" lon="11.186782"><ele>46.0</ele><time>2026-04-06T09:22:53.723Z</time></trkpt><trkpt lat="43.7514359" lon="11.1866947"><ele>46.0</ele><time>2026-04-06T09:22:55.723Z</time></trkpt><trkpt lat="43.7513692" lon="11.1866028"><ele>46.0</ele><time>2026-04-06T09:22:57.723Z</time></trkpt><trkpt lat="43.751299" lon="11.186499"><ele>46.199999999999996</ele><time>2026-04-06T09:22:59.723Z</time></trkpt><trkpt lat="43.7512349" lon="11.1864126"><ele>46.4</ele><time>2026-04-06T09:23:01.723Z</time></trkpt><trkpt lat="43.7511699" lon="11.1863176"><ele>46.6</ele><time>2026-04-06T09:23:03.723Z</time></trkpt><trkpt lat="43.7510965" lon="11.1862297"><ele>46.8</ele><time>2026-04-06T09:23:05.722Z</time></trkpt><trkpt lat="43.7510272" lon="11.1861285"><ele>47.0</ele><time>2026-04-06T09:23:07.723Z</time></trkpt><trkpt lat="43.7509578" lon="11.1860394"><ele>47.0</ele><time>2026-04-06T09:23:09.723Z</time></trkpt><trkpt lat="43.750893" lon="11.185954"><ele>47.0</ele><time>2026-04-06T09:23:11.723Z</time></trkpt><trkpt lat="43.7508269" lon="11.1858696"><ele>47.0</ele><time>2026-04-06T09:23:13.725Z</time></trkpt><trkpt lat="43.750763" lon="11.1857828"><ele>47.0</ele><time>2026-04-06T09:23:15.723Z</time></trkpt><trkpt lat="43.7506929" lon="11.1857068"><ele>47.0</ele><time>2026-04-06T09:23:17.724Z</time></trkpt><trkpt lat="43.7506149" lon="11.1856193"><ele>47.0</ele><time>2026-04-06T09:23:19.723Z</time></trkpt><trkpt lat="43.750544" lon="11.1855274"><ele>47.0</ele><time>2026-04-06T09:23:21.723Z</time></trkpt><trkpt lat="43.750479" lon="11.1854368"><ele>47.0</ele><time>2026-04-06T09:23:23.723Z</time></trkpt><trkpt lat="43.7504152" lon="11.1853383"><ele>47.0</ele><time>2026-04-06T09:23:25.723Z</time></trkpt><trkpt lat="43.7503574" lon="11.1852345"><ele>47.0</ele><time>2026-04-06T09:23:27.723Z</time></trkpt><trkpt lat="43.7502959" lon="11.1851207"><ele>47.0</ele><time>2026-04-06T09:23:29.723Z</time></trkpt><trkpt lat="43.7502388" lon="11.1850212"><ele>47.0</ele><time>2026-04-06T09:23:31.725Z</time></trkpt><trkpt lat="43.7501908" lon="11.1848851"><ele>47.0</ele><time>2026-04-06T09:23:33.723Z</time></trkpt><trkpt lat="43.7501324" lon="11.1847731"><ele>47.0</ele><time>2026-04-06T09:23:35.723Z</time></trkpt><trkpt lat="43.7500592" lon="11.184695"><ele>47.0</ele><time>2026-04-06T09:23:37.723Z</time></trkpt><trkpt lat="43.7499965" lon="11.1845818"><ele>47.33333333333333</ele><time>2026-04-06T09:23:39.723Z</time></trkpt><trkpt lat="43.7499394" lon="11.1845033"><ele>47.666666666666664</ele><time>2026-04-06T09:23:41.723Z</time></trkpt><trkpt lat="43.7498853" lon="11.1844222"><ele>48.0</ele><time>2026-04-06T09:23:43.724Z</time></trkpt><trkpt lat="43.7498234" lon="11.184342"><ele>48.33333333333333</ele><time>2026-04-06T09:23:45.723Z</time></trkpt><trkpt lat="43.7497565" lon="11.1842511"><ele>48.666666666666664</ele><time>2026-04-06T09:23:47.724Z</time></trkpt><trkpt lat="43.749686" lon="11.1841597"><ele>49.0</ele><time>2026-04-06T09:23:49.723Z</time></trkpt><trkpt lat="43.7496139" lon="11.1840717"><ele>48.99999999999999</ele><time>2026-04-06T09:23:51.723Z</time></trkpt><trkpt lat="43.7495496" lon="11.1839925"><ele>49.0</ele><time>2026-04-06T09:23:53.722Z</time></trkpt><trkpt lat="43.7494931" lon="11.1838954"><ele>49.0</ele><time>2026-04-06T09:23:55.722Z</time></trkpt><trkpt lat="43.749427" lon="11.1838102"><ele>49.0</ele><time>2026-04-06T09:23:57.722Z</time></trkpt><trkpt lat="43.7493589" lon="11.1837267"><ele>48.99999999999999</ele><time>2026-04-06T09:23:59.722Z</time></trkpt><trkpt lat="43.7493002" lon="11.1836311"><ele>49.0</ele><time>2026-04-06T09:24:01.723Z</time></trkpt><trkpt lat="43.7492388" lon="11.1835443"><ele>48.99999999999999</ele><time>2026-04-06T09:24:03.724Z</time></trkpt><trkpt lat="43.7491704" lon="11.1834488"><ele>49.0</ele><time>2026-04-06T09:24:05.723Z</time></trkpt><trkpt lat="43.7491011" lon="11.1833728"><ele>49.0</ele><time>2026-04-06T09:24:07.723Z</time></trkpt><trkpt lat="43.7490464" lon="11.1832684"><ele>49.0</ele><time>2026-04-06T09:24:09.722Z</time></trkpt><trkpt lat="43.7489809" lon="11.1831925"><ele>48.99999999999999</ele><time>2026-04-06T09:24:11.723Z</time></trkpt><trkpt lat="43.7489233" lon="11.1831096"><ele>49.0</ele><time>2026-04-06T09:24:13.722Z</time></trkpt><trkpt lat="43.748853" lon="11.1830523"><ele>49.2</ele><time>2026-04-06T09:24:15.723Z</time></trkpt><trkpt lat="43.7487829" lon="11.1829802"><ele>49.400000000000006</ele><time>2026-04-06T09:24:17.723Z</time></trkpt><trkpt lat="43.7487173" lon="11.1828864"><ele>49.6</ele><time>2026-04-06T09:24:19.722Z</time></trkpt><trkpt lat="43.748633" lon="11.1828234"><ele>49.8</ele><time>2026-04-06T09:24:21.722Z</time></trkpt><trkpt lat="43.7485549" lon="11.1827646"><ele>50.0</ele><time>2026-04-06T09:24:23.723Z</time></trkpt><trkpt lat="43.748483" lon="11.1827058"><ele>50.00000000000001</ele><time>2026-04-06T09:24:25.723Z</time></trkpt><trkpt lat="43.7484122" lon="11.182645"><ele>50.0</ele><time>2026-04-06T09:24:27.723Z</time></trkpt><trkpt lat="43.7483443" lon="11.1825614"><ele>50.0</ele><time>2026-04-06T09:24:29.723Z</time></trkpt><trkpt lat="43.7482646" lon="11.1824971"><ele>50.0</ele><time>2026-04-06T09:24:31.722Z</time></trkpt><trkpt lat="43.7481835" lon="11.1824432"><ele>50.00000000000001</ele><time>2026-04-06T09:24:33.724Z</time></trkpt><trkpt lat="43.7481009" lon="11.1823849"><ele>50.0</ele><time>2026-04-06T09:24:35.722Z</time></trkpt><trkpt lat="43.7480266" lon="11.1823157"><ele>50.00000000000001</ele><time>2026-04-06T09:24:37.723Z</time></trkpt><trkpt lat="43.7479489" lon="11.1822527"><ele>50.0</ele><time>2026-04-06T09:24:39.722Z</time></trkpt><trkpt lat="43.7478784" lon="11.1821954"><ele>50.0</ele><time>2026-04-06T09:24:41.722Z</time></trkpt><trkpt lat="43.7478045" lon="11.1821414"><ele>50.0</ele><time>2026-04-06T09:24:43.724Z</time></trkpt><trkpt lat="43.7477237" lon="11.182084"><ele>50.00000000000001</ele><time>2026-04-06T09:24:45.723Z</time></trkpt><trkpt lat="43.7476546" lon="11.1820223"><ele>50.0</ele><time>2026-04-06T09:24:47.723Z</time></trkpt><trkpt lat="43.7475779" lon="11.1819656"><ele>50.0</ele><time>2026-04-06T09:24:49.722Z</time></trkpt><trkpt lat="43.747505" lon="11.1818815"><ele>50.0</ele><time>2026-04-06T09:24:51.722Z</time></trkpt><trkpt lat="43.7474407" lon="11.181801"><ele>50.0</ele><time>2026-04-06T09:24:53.722Z</time></trkpt><trkpt lat="43.7473745" lon="11.1817226"><ele>50.0</ele><time>2026-04-06T09:24:55.722Z</time></trkpt><trkpt lat="43.7473127" lon="11.181646"><ele>50.0</ele><time>2026-04-06T09:24:57.723Z</time></trkpt><trkpt lat="43.7472428" lon="11.1815459"><ele>50.2</ele><time>2026-04-06T09:24:59.723Z</time></trkpt><trkpt lat="43.7471749" lon="11.1814553"><ele>50.4</ele><time>2026-04-06T09:25:01.723Z</time></trkpt><trkpt lat="43.7471024" lon="11.1813738"><ele>50.599999999999994</ele><time>2026-04-06T09:25:03.723Z</time></trkpt><trkpt lat="43.7470337" lon="11.1812762"><ele>50.8</ele><time>2026-04-06T09:25:05.723Z</time></trkpt><trkpt lat="43.746964" lon="11.1811899"><ele>51.0</ele><time>2026-04-06T09:25:07.722Z</time></trkpt><trkpt lat="43.7469051" lon="11.1811071"><ele>51.0</ele><time>2026-04-06T09:25:09.722Z</time></trkpt><trkpt lat="43.746847" lon="11.1810183"><ele>51.0</ele><time>2026-04-06T09:25:11.722Z</time></trkpt><trkpt lat="43.7467812" lon="11.1809179"><ele>51.0</ele><time>2026-04-06T09:25:13.723Z</time></trkpt><trkpt lat="43.7467182" lon="11.1808232"><ele>51.0</ele><time>2026-04-06T09:25:15.723Z</time></trkpt><trkpt lat="43.7466669" lon="11.1807226"><ele>51.0</ele><time>2026-04-06T09:25:17.722Z</time></trkpt><trkpt lat="43.746607" lon="11.1806298"><ele>51.0</ele><time>2026-04-06T09:25:19.721Z</time></trkpt><trkpt lat="43.7465529" lon="11.1805444"><ele>51.0</ele><time>2026-04-06T09:25:21.724Z</time></trkpt><trkpt lat="43.746503" lon="11.1804527"><ele>51.0</ele><time>2026-04-06T09:25:23.722Z</time></trkpt><trkpt lat="43.7464539" lon="11.1803872"><ele>51.0</ele><time>2026-04-06T09:25:25.722Z</time></trkpt><trkpt lat="43.7463926" lon="11.1803043"><ele>51.0</ele><time>2026-04-06T09:25:27.722Z</time></trkpt><trkpt lat="43.7463375" lon="11.1802202"><ele>51.0</ele><time>2026-04-06T09:25:29.723Z</time></trkpt><trkpt lat="43.7462933" lon="11.180136"><ele>51.0</ele><time>2026-04-06T09:25:31.723Z</time></trkpt><trkpt lat="43.7462454" lon="11.1800506"><ele>51.0</ele><time>2026-04-06T09:25:33.723Z</time></trkpt><trkpt lat="43.7461905" lon="11.179983"><ele>51.0</ele><time>2026-04-06T09:25:35.722Z</time></trkpt><trkpt lat="43.7461173" lon="11.1799558"><ele>51.0</ele><time>2026-04-06T09:25:37.723Z</time></trkpt><trkpt lat="43.7460397" lon="11.1799461"><ele>51.0</ele><time>2026-04-06T09:25:39.722Z</time></trkpt><trkpt lat="43.7459618" lon="11.1799511"><ele>51.0</ele><time>2026-04-06T09:25:41.723Z</time></trkpt><trkpt lat="43.7458833" lon="11.1799596"><ele>51.0</ele><time>2026-04-06T09:25:43.723Z</time></trkpt><trkpt lat="43.7458067" lon="11.1799708"><ele>51.0</ele><time>2026-04-06T09:25:45.723Z</time></trkpt><trkpt lat="43.7457342" lon="11.1799964"><ele>51.0</ele><time>2026-04-06T09:25:47.722Z</time></trkpt><trkpt lat="43.7456652" lon="11.1800274"><ele>51.0</ele><time>2026-04-06T09:25:49.723Z</time></trkpt><trkpt lat="43.7455937" lon="11.1800602"><ele>51.0</ele><time>2026-04-06T09:25:51.723Z</time></trkpt><trkpt lat="43.7455242" lon="11.1800973"><ele>51.0</ele><time>2026-04-06T09:25:53.722Z</time></trkpt><trkpt lat="43.7454622" lon="11.180145"><ele>51.0</ele><time>2026-04-06T09:25:55.723Z</time></trkpt><trkpt lat="43.7454008" lon="11.1801756"><ele>51.0</ele><time>2026-04-06T09:25:57.723Z</time></trkpt><trkpt lat="43.7453146" lon="11.1802405"><ele>51.0</ele><time>2026-04-06T09:26:00.723Z</time></trkpt><trkpt lat="43.7452539" lon="11.1802863"><ele>51.0</ele><time>2026-04-06T09:26:02.722Z</time></trkpt><trkpt lat="43.7452001" lon="11.1803363"><ele>51.0</ele><time>2026-04-06T09:26:04.724Z</time></trkpt><trkpt lat="43.7451164" lon="11.1803768"><ele>51.0</ele><time>2026-04-06T09:26:07.723Z</time></trkpt><trkpt lat="43.7450568" lon="11.1804067"><ele>51.0</ele><time>2026-04-06T09:29:13.721Z</time></trkpt><trkpt lat="43.7449866" lon="11.1804823"><ele>51.5</ele><time>2026-04-06T09:29:17.722Z</time></trkpt><trkpt lat="43.7449149" lon="11.1805489"><ele>52.0</ele><time>2026-04-06T09:29:20.721Z</time></trkpt><trkpt lat="43.7448626" lon="11.180598"><ele>52.5</ele><time>2026-04-06T09:29:22.722Z</time></trkpt><trkpt lat="43.7447764" lon="11.1806538"><ele>53.0</ele><time>2026-04-06T09:29:25.722Z</time></trkpt><trkpt lat="43.7447131" lon="11.1806814"><ele>53.5</ele><time>2026-04-06T09:29:27.721Z</time></trkpt><trkpt lat="43.7446456" lon="11.1807072"><ele>54.0</ele><time>2026-04-06T09:29:29.721Z</time></trkpt><trkpt lat="43.7445763" lon="11.1807298"><ele>54.0</ele><time>2026-04-06T09:29:31.721Z</time></trkpt><trkpt lat="43.7445052" lon="11.1807477"><ele>54.0</ele><time>2026-04-06T09:29:33.721Z</time></trkpt><trkpt lat="43.7444342" lon="11.1807624"><ele>54.0</ele><time>2026-04-06T09:29:35.721Z</time></trkpt><trkpt lat="43.744364" lon="11.1807814"><ele>54.0</ele><time>2026-04-06T09:29:37.722Z</time></trkpt><trkpt lat="43.7442964" lon="11.1808039"><ele>54.0</ele><time>2026-04-06T09:29:39.723Z</time></trkpt><trkpt lat="43.7442297" lon="11.1808359"><ele>54.0</ele><time>2026-04-06T09:29:41.722Z</time></trkpt><trkpt lat="43.744162" lon="11.1808653"><ele>54.0</ele><time>2026-04-06T09:29:43.722Z</time></trkpt><trkpt lat="43.7440942" lon="11.180892"><ele>54.14285714285714</ele><time>2026-04-06T09:29:45.721Z</time></trkpt><trkpt lat="43.7440242" lon="11.1809213"><ele>54.285714285714285</ele><time>2026-04-06T09:29:47.721Z</time></trkpt><trkpt lat="43.7439554" lon="11.1809502"><ele>54.42857142857143</ele><time>2026-04-06T09:29:49.722Z</time></trkpt><trkpt lat="43.7438919" lon="11.1809863"><ele>54.57142857142857</ele><time>2026-04-06T09:29:51.721Z</time></trkpt><trkpt lat="43.7438318" lon="11.1810195"><ele>54.714285714285715</ele><time>2026-04-06T09:29:53.722Z</time></trkpt><trkpt lat="43.7437578" lon="11.1810649"><ele>54.857142857142854</ele><time>2026-04-06T09:29:56.721Z</time></trkpt><trkpt lat="43.7436917" lon="11.1810991"><ele>55.0</ele><time>2026-04-06T09:30:00.721Z</time></trkpt><trkpt lat="43.7436251" lon="11.18109"><ele>54.99999999999999</ele><time>2026-04-06T09:30:03.722Z</time></trkpt><trkpt lat="43.7435576" lon="11.1811376"><ele>55.0</ele><time>2026-04-06T09:30:06.721Z</time></trkpt><trkpt lat="43.7434923" lon="11.18121"><ele>55.0</ele><time>2026-04-06T09:30:09.721Z</time></trkpt><trkpt lat="43.7434053" lon="11.1812693"><ele>55.0</ele><time>2026-04-06T09:30:12.721Z</time></trkpt><trkpt lat="43.7433429" lon="11.1813115"><ele>54.99999999999999</ele><time>2026-04-06T09:30:14.721Z</time></trkpt><trkpt lat="43.7432808" lon="11.1813497"><ele>55.0</ele><time>2026-04-06T09:30:16.721Z</time></trkpt><trkpt lat="43.743208" lon="11.1813867"><ele>54.99999999999999</ele><time>2026-04-06T09:30:18.723Z</time></trkpt><trkpt lat="43.7431296" lon="11.1814162"><ele>55.0</ele><time>2026-04-06T09:30:20.721Z</time></trkpt><trkpt lat="43.7430456" lon="11.181436"><ele>55.0</ele><time>2026-04-06T09:30:22.721Z</time></trkpt><trkpt lat="43.7429624" lon="11.1814518"><ele>55.0</ele><time>2026-04-06T09:30:24.721Z</time></trkpt><trkpt lat="43.7428832" lon="11.1814678"><ele>54.99999999999999</ele><time>2026-04-06T09:30:26.721Z</time></trkpt><trkpt lat="43.7428054" lon="11.181476"><ele>55.0</ele><time>2026-04-06T09:30:28.721Z</time></trkpt><trkpt lat="43.7427323" lon="11.1814731"><ele>55.28571428571428</ele><time>2026-04-06T09:30:30.721Z</time></trkpt><trkpt lat="43.7426686" lon="11.1814648"><ele>55.57142857142857</ele><time>2026-04-06T09:30:32.721Z</time></trkpt><trkpt lat="43.742584" lon="11.1814361"><ele>55.857142857142854</ele><time>2026-04-06T09:30:35.722Z</time></trkpt><trkpt lat="43.7425111" lon="11.181417"><ele>56.14285714285714</ele><time>2026-04-06T09:30:39.723Z</time></trkpt><trkpt lat="43.7424458" lon="11.1813964"><ele>56.42857142857142</ele><time>2026-04-06T09:31:18.72Z</time></trkpt><trkpt lat="43.742378" lon="11.1813797"><ele>56.71428571428571</ele><time>2026-04-06T09:31:20.722Z</time></trkpt><trkpt lat="43.7423107" lon="11.1813464"><ele>57.0</ele><time>2026-04-06T09:31:22.723Z</time></trkpt><trkpt lat="43.7422432" lon="11.1813126"><ele>57.0</ele><time>2026-04-06T09:31:24.722Z</time></trkpt><trkpt lat="43.742177" lon="11.1812762"><ele>57.0</ele><time>2026-04-06T09:31:26.721Z</time></trkpt><trkpt lat="43.7418816" lon="11.1811256"><ele>57.0</ele><time>2026-04-06T09:31:35.721Z</time></trkpt><trkpt lat="43.7417965" lon="11.1811189"><ele>57.42857142857142</ele><time>2026-04-06T09:31:37.721Z</time></trkpt><trkpt lat="43.7417188" lon="11.1811229"><ele>57.85714285714285</ele><time>2026-04-06T09:31:39.721Z</time></trkpt><trkpt lat="43.7416485" lon="11.1811308"><ele>58.285714285714285</ele><time>2026-04-06T09:31:41.722Z</time></trkpt><trkpt lat="43.7415762" lon="11.1811369"><ele>58.71428571428571</ele><time>2026-04-06T09:31:43.721Z</time></trkpt><trkpt lat="43.7415058" lon="11.1811495"><ele>59.14285714285714</ele><time>2026-04-06T09:31:45.722Z</time></trkpt><trkpt lat="43.7414363" lon="11.181165"><ele>59.57142857142857</ele><time>2026-04-06T09:31:47.722Z</time></trkpt><trkpt lat="43.7413718" lon="11.1811865"><ele>60.0</ele><time>2026-04-06T09:31:49.722Z</time></trkpt><trkpt lat="43.7413087" lon="11.1812094"><ele>60.0</ele><time>2026-04-06T09:31:51.722Z</time></trkpt><trkpt lat="43.7412203" lon="11.1812471"><ele>60.0</ele><time>2026-04-06T09:31:54.721Z</time></trkpt><trkpt lat="43.7411573" lon="11.1812649"><ele>60.0</ele><time>2026-04-06T09:31:56.722Z</time></trkpt><trkpt lat="43.741081" lon="11.1812636"><ele>60.0</ele><time>2026-04-06T09:31:59.723Z</time></trkpt><trkpt lat="43.7410018" lon="11.1812481"><ele>60.0</ele><time>2026-04-06T09:32:02.721Z</time></trkpt><trkpt lat="43.7409183" lon="11.1812385"><ele>60.0</ele><time>2026-04-06T09:32:05.721Z</time></trkpt><trkpt lat="43.7408531" lon="11.1812351"><ele>61.666666666666664</ele><time>2026-04-06T09:32:07.722Z</time></trkpt><trkpt lat="43.7407617" lon="11.1812236"><ele>63.33333333333333</ele><time>2026-04-06T09:32:10.722Z</time></trkpt><trkpt lat="43.7406733" lon="11.1812184"><ele>65.0</ele><time>2026-04-06T09:32:13.721Z</time></trkpt><trkpt lat="43.7405857" lon="11.1812168"><ele>66.66666666666666</ele><time>2026-04-06T09:32:16.72Z</time></trkpt><trkpt lat="43.7405016" lon="11.1812145"><ele>68.33333333333333</ele><time>2026-04-06T09:32:19.721Z</time></trkpt><trkpt lat="43.7404173" lon="11.1812104"><ele>70.0</ele><time>2026-04-06T09:32:22.72Z</time></trkpt><trkpt lat="43.7403507" lon="11.1811979"><ele>70.0</ele><time>2026-04-06T09:32:24.722Z</time></trkpt><trkpt lat="43.7402852" lon="11.1811955"><ele>70.0</ele><time>2026-04-06T09:32:26.721Z</time></trkpt><trkpt lat="43.7401958" lon="11.1811832"><ele>70.0</ele><time>2026-04-06T09:32:29.72Z</time></trkpt><trkpt lat="43.7401054" lon="11.1811639"><ele>70.0</ele><time>2026-04-06T09:32:32.722Z</time></trkpt><trkpt lat="43.7400186" lon="11.1811479"><ele>70.0</ele><time>2026-04-06T09:32:35.721Z</time></trkpt><trkpt lat="43.7399303" lon="11.1811435"><ele>70.0</ele><time>2026-04-06T09:32:38.723Z</time></trkpt><trkpt lat="43.7398484" lon="11.1811348"><ele>71.0</ele><time>2026-04-06T09:32:41.722Z</time></trkpt><trkpt lat="43.739761" lon="11.1811247"><ele>72.0</ele><time>2026-04-06T09:32:44.721Z</time></trkpt><trkpt lat="43.7396779" lon="11.1811107"><ele>73.0</ele><time>2026-04-06T09:32:47.72Z</time></trkpt><trkpt lat="43.7395942" lon="11.1810983"><ele>74.0</ele><time>2026-04-06T09:32:50.723Z</time></trkpt><trkpt lat="43.7395134" lon="11.1810919"><ele>75.0</ele><time>2026-04-06T09:32:53.722Z</time></trkpt><trkpt lat="43.7394416" lon="11.181086"><ele>76.0</ele><time>2026-04-06T09:32:56.722Z</time></trkpt><trkpt lat="43.7393669" lon="11.1810785"><ele>77.66666666666666</ele><time>2026-04-06T09:32:59.721Z</time></trkpt><trkpt lat="43.7392938" lon="11.1810641"><ele>79.33333333333333</ele><time>2026-04-06T09:33:02.72Z</time></trkpt><trkpt lat="43.7392185" lon="11.1810381"><ele>81.0</ele><time>2026-04-06T09:33:05.721Z</time></trkpt><trkpt lat="43.7391425" lon="11.1810286"><ele>82.66666666666667</ele><time>2026-04-06T09:33:08.72Z</time></trkpt><trkpt lat="43.7390663" lon="11.1810154"><ele>84.33333333333334</ele><time>2026-04-06T09:33:11.721Z</time></trkpt><trkpt lat="43.7389912" lon="11.1810036"><ele>86.0</ele><time>2026-04-06T09:33:14.72Z</time></trkpt><trkpt lat="43.7389123" lon="11.1809927"><ele>86.0</ele><time>2026-04-06T09:33:17.721Z</time></trkpt><trkpt lat="43.7388336" lon="11.1810014"><ele>86.0</ele><time>2026-04-06T09:33:20.721Z</time></trkpt><trkpt lat="43.7387547" lon="11.1810152"><ele>86.0</ele><time>2026-04-06T09:33:23.722Z</time></trkpt><trkpt lat="43.7386749" lon="11.1810317"><ele>86.0</ele><time>2026-04-06T09:33:26.722Z</time></trkpt><trkpt lat="43.7385953" lon="11.1810475"><ele>86.0</ele><time>2026-04-06T09:33:29.721Z</time></trkpt><trkpt lat="43.7385192" lon="11.1810574"><ele>86.0</ele><time>2026-04-06T09:33:32.72Z</time></trkpt><trkpt lat="43.738445" lon="11.18107"><ele>86.16666666666667</ele><time>2026-04-06T09:33:35.721Z</time></trkpt><trkpt lat="43.7383653" lon="11.1810849"><ele>86.33333333333334</ele><time>2026-04-06T09:33:38.722Z</time></trkpt><trkpt lat="43.7382886" lon="11.1810983"><ele>86.5</ele><time>2026-04-06T09:33:41.721Z</time></trkpt><trkpt lat="43.7382141" lon="11.1811138"><ele>86.66666666666667</ele><time>2026-04-06T09:33:44.722Z</time></trkpt><trkpt lat="43.7381387" lon="11.1811381"><ele>86.83333333333333</ele><time>2026-04-06T09:33:47.72Z</time></trkpt><trkpt lat="43.7380638" lon="11.1811636"><ele>87.0</ele><time>2026-04-06T09:33:50.721Z</time></trkpt><trkpt lat="43.737987" lon="11.1811875"><ele>87.0</ele><time>2026-04-06T09:33:53.721Z</time></trkpt><trkpt lat="43.7379143" lon="11.1812154"><ele>87.0</ele><time>2026-04-06T09:33:56.72Z</time></trkpt><trkpt lat="43.7378411" lon="11.1812413"><ele>87.0</ele><time>2026-04-06T09:33:59.722Z</time></trkpt><trkpt lat="43.737769" lon="11.1812639"><ele>87.0</ele><time>2026-04-06T09:34:02.721Z</time></trkpt><trkpt lat="43.7376965" lon="11.1812873"><ele>87.0</ele><time>2026-04-06T09:34:05.721Z</time></trkpt><trkpt lat="43.7376249" lon="11.1813144"><ele>87.0</ele><time>2026-04-06T09:34:08.721Z</time></trkpt><trkpt lat="43.7375521" lon="11.1813541"><ele>86.5</ele><time>2026-04-06T09:34:11.72Z</time></trkpt><trkpt lat="43.7374808" lon="11.1813884"><ele>86.0</ele><time>2026-04-06T09:34:14.721Z</time></trkpt><trkpt lat="43.7374034" lon="11.1814218"><ele>85.5</ele><time>2026-04-06T09:34:17.721Z</time></trkpt><trkpt lat="43.7373303" lon="11.1814584"><ele>85.0</ele><time>2026-04-06T09:34:20.722Z</time></trkpt><trkpt lat="43.7372492" lon="11.1815004"><ele>84.5</ele><time>2026-04-06T09:34:23.721Z</time></trkpt><trkpt lat="43.7371645" lon="11.1815503"><ele>84.0</ele><time>2026-04-06T09:34:26.721Z</time></trkpt><trkpt lat="43.7370894" lon="11.1816047"><ele>85.83333333333333</ele><time>2026-04-06T09:34:29.72Z</time></trkpt><trkpt lat="43.7370165" lon="11.1816549"><ele>87.66666666666667</ele><time>2026-04-06T09:34:32.721Z</time></trkpt><trkpt lat="43.7369352" lon="11.181703"><ele>89.5</ele><time>2026-04-06T09:34:35.72Z</time></trkpt><trkpt lat="43.7368493" lon="11.1817541"><ele>91.33333333333334</ele><time>2026-04-06T09:34:38.72Z</time></trkpt><trkpt lat="43.7367761" lon="11.1818145"><ele>93.16666666666667</ele><time>2026-04-06T09:34:41.72Z</time></trkpt><trkpt lat="43.7366981" lon="11.1818716"><ele>95.0</ele><time>2026-04-06T09:34:44.72Z</time></trkpt><trkpt lat="43.7366192" lon="11.1819383"><ele>95.0</ele><time>2026-04-06T09:34:47.721Z</time></trkpt><trkpt lat="43.7365598" lon="11.1819859"><ele>95.0</ele><time>2026-04-06T09:34:49.72Z</time></trkpt><trkpt lat="43.7364982" lon="11.1820298"><ele>95.0</ele><time>2026-04-06T09:34:51.721Z</time></trkpt><trkpt lat="43.7364363" lon="11.182066"><ele>95.0</ele><time>2026-04-06T09:34:53.721Z</time></trkpt><trkpt lat="43.7363777" lon="11.1820981"><ele>95.0</ele><time>2026-04-06T09:34:55.721Z</time></trkpt><trkpt lat="43.7363098" lon="11.1821391"><ele>95.0</ele><time>2026-04-06T09:34:57.721Z</time></trkpt><trkpt lat="43.7362308" lon="11.1821715"><ele>95.0</ele><time>2026-04-06T09:34:59.721Z</time></trkpt><trkpt lat="43.7361481" lon="11.1821972"><ele>95.0</ele><time>2026-04-06T09:35:01.721Z</time></trkpt><trkpt lat="43.7360706" lon="11.182209"><ele>95.0</ele><time>2026-04-06T09:35:03.721Z</time></trkpt><trkpt lat="43.7359947" lon="11.1822015"><ele>95.0</ele><time>2026-04-06T09:35:05.72Z</time></trkpt><trkpt lat="43.7359116" lon="11.1821917"><ele>95.0</ele><time>2026-04-06T09:35:07.719Z</time></trkpt><trkpt lat="43.7358264" lon="11.1821868"><ele>95.0</ele><time>2026-04-06T09:35:09.721Z</time></trkpt><trkpt lat="43.7357352" lon="11.1821894"><ele>95.0</ele><time>2026-04-06T09:35:11.72Z</time></trkpt><trkpt lat="43.7356634" lon="11.1821606"><ele>94.57142857142857</ele><time>2026-04-06T09:35:13.721Z</time></trkpt><trkpt lat="43.7355875" lon="11.1821213"><ele>94.14285714285714</ele><time>2026-04-06T09:35:15.721Z</time></trkpt><trkpt lat="43.735523" lon="11.1820707"><ele>93.71428571428572</ele><time>2026-04-06T09:35:17.721Z</time></trkpt><trkpt lat="43.7354532" lon="11.1820266"><ele>93.28571428571428</ele><time>2026-04-06T09:35:19.721Z</time></trkpt><trkpt lat="43.7353903" lon="11.1819737"><ele>92.85714285714285</ele><time>2026-04-06T09:35:21.721Z</time></trkpt><trkpt lat="43.7353338" lon="11.1819167"><ele>92.42857142857143</ele><time>2026-04-06T09:35:23.721Z</time></trkpt><trkpt lat="43.7352762" lon="11.1818566"><ele>92.0</ele><time>2026-04-06T09:35:25.721Z</time></trkpt><trkpt lat="43.7352199" lon="11.1818079"><ele>92.71428571428572</ele><time>2026-04-06T09:35:27.72Z</time></trkpt><trkpt lat="43.7351638" lon="11.181755"><ele>93.42857142857142</ele><time>2026-04-06T09:35:29.72Z</time></trkpt><trkpt lat="43.7351051" lon="11.1817029"><ele>94.14285714285714</ele><time>2026-04-06T09:35:31.719Z</time></trkpt><trkpt lat="43.735049" lon="11.1816439"><ele>94.85714285714286</ele><time>2026-04-06T09:35:33.721Z</time></trkpt><trkpt lat="43.7350065" lon="11.1815667"><ele>95.57142857142858</ele><time>2026-04-06T09:35:35.721Z</time></trkpt><trkpt lat="43.7349657" lon="11.1814896"><ele>96.28571428571428</ele><time>2026-04-06T09:35:37.72Z</time></trkpt><trkpt lat="43.7349261" lon="11.1814135"><ele>97.0</ele><time>2026-04-06T09:35:39.721Z</time></trkpt><trkpt lat="43.7348884" lon="11.181343"><ele>97.00000000000001</ele><time>2026-04-06T09:35:41.721Z</time></trkpt><trkpt lat="43.7348396" lon="11.1812655"><ele>97.0</ele><time>2026-04-06T09:35:43.721Z</time></trkpt><trkpt lat="43.7347905" lon="11.1811801"><ele>97.0</ele><time>2026-04-06T09:35:45.72Z</time></trkpt><trkpt lat="43.7347428" lon="11.1810938"><ele>97.0</ele><time>2026-04-06T09:35:47.719Z</time></trkpt><trkpt lat="43.7346815" lon="11.1809881"><ele>97.00000000000001</ele><time>2026-04-06T09:35:50.72Z</time></trkpt><trkpt lat="43.7346396" lon="11.1809161"><ele>97.0</ele><time>2026-04-06T09:35:52.721Z</time></trkpt><trkpt lat="43.7345954" lon="11.1808398"><ele>97.00000000000001</ele><time>2026-04-06T09:35:54.721Z</time></trkpt><trkpt lat="43.7345521" lon="11.1807623"><ele>97.0</ele><time>2026-04-06T09:35:56.721Z</time></trkpt><trkpt lat="43.7345084" lon="11.1806923"><ele>97.0</ele><time>2026-04-06T09:35:58.721Z</time></trkpt><trkpt lat="43.734452" lon="11.1805885"><ele>97.0</ele><time>2026-04-06T09:36:01.72Z</time></trkpt><trkpt lat="43.7344164" lon="11.1805166"><ele>97.00000000000001</ele><time>2026-04-06T09:36:03.72Z</time></trkpt><trkpt lat="43.7343812" lon="11.1804386"><ele>97.0</ele><time>2026-04-06T09:36:05.721Z</time></trkpt><trkpt lat="43.7343547" lon="11.1803146"><ele>97.16666666666667</ele><time>2026-04-06T09:36:08.72Z</time></trkpt><trkpt lat="43.7343618" lon="11.180191"><ele>97.33333333333334</ele><time>2026-04-06T09:36:11.72Z</time></trkpt><trkpt lat="43.7343934" lon="11.1800825"><ele>97.5</ele><time>2026-04-06T09:36:14.72Z</time></trkpt><trkpt lat="43.7344191" lon="11.1799627"><ele>97.66666666666666</ele><time>2026-04-06T09:36:17.72Z</time></trkpt><trkpt lat="43.734443" lon="11.1798392"><ele>97.83333333333333</ele><time>2026-04-06T09:36:20.721Z</time></trkpt><trkpt lat="43.7344414" lon="11.1797145"><ele>98.0</ele><time>2026-04-06T09:36:23.721Z</time></trkpt><trkpt lat="43.7343771" lon="11.1796446"><ele>100.16666666666666</ele><time>2026-04-06T09:36:26.719Z</time></trkpt><trkpt lat="43.7343137" lon="11.1796312"><ele>102.33333333333333</ele><time>2026-04-06T09:36:28.72Z</time></trkpt><trkpt lat="43.7342214" lon="11.1796227"><ele>104.5</ele><time>2026-04-06T09:36:31.719Z</time></trkpt><trkpt lat="43.7341566" lon="11.1796166"><ele>106.66666666666666</ele><time>2026-04-06T09:36:33.72Z</time></trkpt><trkpt lat="43.7340743" lon="11.1796097"><ele>108.83333333333333</ele><time>2026-04-06T09:36:36.72Z</time></trkpt><trkpt lat="43.7339822" lon="11.1796144"><ele>111.0</ele><time>2026-04-06T09:36:39.72Z</time></trkpt><trkpt lat="43.7338888" lon="11.1796185"><ele>111.0</ele><time>2026-04-06T09:36:42.721Z</time></trkpt><trkpt lat="43.7338008" lon="11.1796291"><ele>111.0</ele><time>2026-04-06T09:36:45.72Z</time></trkpt><trkpt lat="43.7337115" lon="11.179645"><ele>111.0</ele><time>2026-04-06T09:36:48.72Z</time></trkpt><trkpt lat="43.7336282" lon="11.1796484"><ele>111.0</ele><time>2026-04-06T09:36:51.721Z</time></trkpt><trkpt lat="43.73354" lon="11.1796485"><ele>111.0</ele><time>2026-04-06T09:36:54.72Z</time></trkpt><trkpt lat="43.7334712" lon="11.1796221"><ele>111.0</ele><time>2026-04-06T09:36:56.721Z</time></trkpt><trkpt lat="43.7334162" lon="11.1795706"><ele>111.83333333333333</ele><time>2026-04-06T09:36:58.72Z</time></trkpt><trkpt lat="43.7333662" lon="11.1794673"><ele>112.66666666666666</ele><time>2026-04-06T09:37:01.72Z</time></trkpt><trkpt lat="43.7333369" lon="11.1793784"><ele>113.5</ele><time>2026-04-06T09:37:03.721Z</time></trkpt><trkpt lat="43.7333169" lon="11.1792915"><ele>114.33333333333333</ele><time>2026-04-06T09:37:05.719Z</time></trkpt><trkpt lat="43.733295" lon="11.179208"><ele>115.16666666666666</ele><time>2026-04-06T09:37:07.719Z</time></trkpt><trkpt lat="43.7332598" lon="11.1790909"><ele>116.0</ele><time>2026-04-06T09:37:10.721Z</time></trkpt><trkpt lat="43.7332156" lon="11.1789793"><ele>116.00000000000001</ele><time>2026-04-06T09:37:13.72Z</time></trkpt><trkpt lat="43.7331827" lon="11.1789049"><ele>116.0</ele><time>2026-04-06T09:37:15.721Z</time></trkpt><trkpt lat="43.7331463" lon="11.1788277"><ele>116.00000000000001</ele><time>2026-04-06T09:37:17.719Z</time></trkpt><trkpt lat="43.7331091" lon="11.178753"><ele>116.00000000000001</ele><time>2026-04-06T09:37:19.72Z</time></trkpt><trkpt lat="43.7330662" lon="11.1786788"><ele>116.0</ele><time>2026-04-06T09:37:21.719Z</time></trkpt><trkpt lat="43.7330234" lon="11.1786136"><ele>116.00000000000001</ele><time>2026-04-06T09:37:23.72Z</time></trkpt><trkpt lat="43.7329746" lon="11.1785493"><ele>116.00000000000001</ele><time>2026-04-06T09:37:25.72Z</time></trkpt><trkpt lat="43.7329191" lon="11.1784988"><ele>116.00000000000001</ele><time>2026-04-06T09:37:27.72Z</time></trkpt><trkpt lat="43.732859" lon="11.1784598"><ele>116.0</ele><time>2026-04-06T09:37:29.72Z</time></trkpt><trkpt lat="43.732794" lon="11.178436"><ele>116.00000000000001</ele><time>2026-04-06T09:37:31.721Z</time></trkpt><trkpt lat="43.7327299" lon="11.1784292"><ele>116.00000000000001</ele><time>2026-04-06T09:37:33.721Z</time></trkpt><trkpt lat="43.7326645" lon="11.1784288"><ele>116.0</ele><time>2026-04-06T09:37:35.719Z</time></trkpt><trkpt lat="43.7326016" lon="11.1784334"><ele>116.00000000000001</ele><time>2026-04-06T09:37:37.72Z</time></trkpt><trkpt lat="43.7325088" lon="11.1784477"><ele>116.00000000000001</ele><time>2026-04-06T09:37:40.721Z</time></trkpt><trkpt lat="43.7324407" lon="11.1784554"><ele>118.57142857142858</ele><time>2026-04-06T09:37:42.719Z</time></trkpt><trkpt lat="43.7323759" lon="11.1784625"><ele>121.14285714285714</ele><time>2026-04-06T09:37:44.721Z</time></trkpt><trkpt lat="43.7323127" lon="11.1784663"><ele>123.71428571428572</ele><time>2026-04-06T09:37:46.721Z</time></trkpt><trkpt lat="43.7322496" lon="11.1784767"><ele>126.28571428571429</ele><time>2026-04-06T09:37:48.72Z</time></trkpt><trkpt lat="43.7321861" lon="11.1784778"><ele>128.85714285714286</ele><time>2026-04-06T09:37:50.72Z</time></trkpt><trkpt lat="43.7321223" lon="11.1784673"><ele>131.42857142857144</ele><time>2026-04-06T09:37:52.719Z</time></trkpt><trkpt lat="43.7320575" lon="11.1784584"><ele>134.0</ele><time>2026-04-06T09:37:54.72Z</time></trkpt><trkpt lat="43.7319926" lon="11.1784398"><ele>134.0</ele><time>2026-04-06T09:37:56.721Z</time></trkpt><trkpt lat="43.7319053" lon="11.1784173"><ele>134.0</ele><time>2026-04-06T09:37:59.721Z</time></trkpt><trkpt lat="43.7318304" lon="11.1783801"><ele>134.0</ele><time>2026-04-06T09:38:02.722Z</time></trkpt><trkpt lat="43.731746" lon="11.1783458"><ele>134.0</ele><time>2026-04-06T09:38:05.721Z</time></trkpt><trkpt lat="43.7316572" lon="11.1783112"><ele>134.0</ele><time>2026-04-06T09:38:08.72Z</time></trkpt><trkpt lat="43.7315934" lon="11.1782874"><ele>134.0</ele><time>2026-04-06T09:38:10.721Z</time></trkpt><trkpt lat="43.7315284" lon="11.17827"><ele>135.14285714285714</ele><time>2026-04-06T09:38:12.72Z</time></trkpt><trkpt lat="43.7314627" lon="11.1782659"><ele>136.28571428571428</ele><time>2026-04-06T09:38:14.72Z</time></trkpt><trkpt lat="43.7313986" lon="11.1782688"><ele>137.42857142857142</ele><time>2026-04-06T09:38:16.721Z</time></trkpt><trkpt lat="43.7313332" lon="11.1782815"><ele>138.57142857142856</ele><time>2026-04-06T09:38:18.72Z</time></trkpt><trkpt lat="43.7312691" lon="11.1782953"><ele>139.7142857142857</ele><time>2026-04-06T09:38:20.72Z</time></trkpt><trkpt lat="43.731204" lon="11.1783029"><ele>140.85714285714286</ele><time>2026-04-06T09:38:22.72Z</time></trkpt><trkpt lat="43.7311375" lon="11.1782997"><ele>142.0</ele><time>2026-04-06T09:38:24.719Z</time></trkpt><trkpt lat="43.7310708" lon="11.1782947"><ele>142.57142857142856</ele><time>2026-04-06T09:38:26.721Z</time></trkpt><trkpt lat="43.7310059" lon="11.1782898"><ele>143.14285714285714</ele><time>2026-04-06T09:38:28.72Z</time></trkpt><trkpt lat="43.7309425" lon="11.1782893"><ele>143.71428571428572</ele><time>2026-04-06T09:38:30.719Z</time></trkpt><trkpt lat="43.730874" lon="11.178293"><ele>144.28571428571428</ele><time>2026-04-06T09:38:32.719Z</time></trkpt><trkpt lat="43.7308024" lon="11.1782999"><ele>144.85714285714286</ele><time>2026-04-06T09:38:34.721Z</time></trkpt><trkpt lat="43.7307349" lon="11.178309"><ele>145.42857142857142</ele><time>2026-04-06T09:38:36.721Z</time></trkpt><trkpt lat="43.7306412" lon="11.1783154"><ele>146.0</ele><time>2026-04-06T09:38:39.72Z</time></trkpt><trkpt lat="43.7305495" lon="11.1783062"><ele>146.0</ele><time>2026-04-06T09:38:42.72Z</time></trkpt><trkpt lat="43.7304552" lon="11.178287"><ele>146.0</ele><time>2026-04-06T09:38:45.721Z</time></trkpt><trkpt lat="43.7303865" lon="11.178263"><ele>146.0</ele><time>2026-04-06T09:38:47.721Z</time></trkpt><trkpt lat="43.730319" lon="11.1782288"><ele>146.0</ele><time>2026-04-06T09:38:49.719Z</time></trkpt><trkpt lat="43.7302441" lon="11.1781609"><ele>146.0</ele><time>2026-04-06T09:38:52.72Z</time></trkpt><trkpt lat="43.7301687" lon="11.1781074"><ele>146.0</ele><time>2026-04-06T09:38:55.72Z</time></trkpt><trkpt lat="43.7301072" lon="11.1780709"><ele>146.0</ele><time>2026-04-06T09:38:58.72Z</time></trkpt><trkpt lat="43.7300424" lon="11.1780141"><ele>146.0</ele><time>2026-04-06T09:39:01.72Z</time></trkpt><trkpt lat="43.7299546" lon="11.1779588"><ele>146.0</ele><time>2026-04-06T09:39:04.72Z</time></trkpt><trkpt lat="43.7298884" lon="11.1779191"><ele>146.0</ele><time>2026-04-06T09:39:06.72Z</time></trkpt><trkpt lat="43.7298236" lon="11.1778749"><ele>146.0</ele><time>2026-04-06T09:39:08.72Z</time></trkpt><trkpt lat="43.7297545" lon="11.1778275"><ele>146.0</ele><time>2026-04-06T09:39:10.719Z</time></trkpt><trkpt lat="43.7296878" lon="11.1777803"><ele>146.0</ele><time>2026-04-06T09:39:12.72Z</time></trkpt><trkpt lat="43.729619" lon="11.1777299"><ele>146.0</ele><time>2026-04-06T09:39:14.721Z</time></trkpt><trkpt lat="43.7295459" lon="11.1776755"><ele>146.0</ele><time>2026-04-06T09:39:16.719Z</time></trkpt><trkpt lat="43.7294727" lon="11.1776189"><ele>146.0</ele><time>2026-04-06T09:39:18.721Z</time></trkpt><trkpt lat="43.7293973" lon="11.1775689"><ele>146.0</ele><time>2026-04-06T09:39:20.719Z</time></trkpt><trkpt lat="43.7293255" lon="11.1775195"><ele>146.0</ele><time>2026-04-06T09:39:22.72Z</time></trkpt><trkpt lat="43.7292517" lon="11.1774768"><ele>146.85714285714286</ele><time>2026-04-06T09:39:24.72Z</time></trkpt><trkpt lat="43.7291854" lon="11.1774316"><ele>147.71428571428572</ele><time>2026-04-06T09:39:26.72Z</time></trkpt><trkpt lat="43.7291236" lon="11.1773864"><ele>148.57142857142856</ele><time>2026-04-06T09:39:28.721Z</time></trkpt><trkpt lat="43.729065" lon="11.1773414"><ele>149.42857142857144</ele><time>2026-04-06T09:39:30.72Z</time></trkpt><trkpt lat="43.7289964" lon="11.177301"><ele>150.2857142857143</ele><time>2026-04-06T09:39:32.719Z</time></trkpt><trkpt lat="43.7289215" lon="11.1772793"><ele>151.14285714285714</ele><time>2026-04-06T09:39:34.72Z</time></trkpt><trkpt lat="43.7288473" lon="11.1772771"><ele>152.0</ele><time>2026-04-06T09:39:36.72Z</time></trkpt><trkpt lat="43.7287759" lon="11.1772875"><ele>152.16666666666666</ele><time>2026-04-06T09:39:38.721Z</time></trkpt><trkpt lat="43.728702" lon="11.1773076"><ele>152.33333333333331</ele><time>2026-04-06T09:39:40.72Z</time></trkpt><trkpt lat="43.728631" lon="11.1773334"><ele>152.5</ele><time>2026-04-06T09:39:42.72Z</time></trkpt><trkpt lat="43.7285589" lon="11.1773619"><ele>152.66666666666666</ele><time>2026-04-06T09:39:44.72Z</time></trkpt><trkpt lat="43.7284764" lon="11.1773921"><ele>152.83333333333334</ele><time>2026-04-06T09:39:46.72Z</time></trkpt><trkpt lat="43.7283818" lon="11.1774238"><ele>153.0</ele><time>2026-04-06T09:39:48.72Z</time></trkpt><trkpt lat="43.7282804" lon="11.1774409"><ele>153.0</ele><time>2026-04-06T09:39:50.719Z</time></trkpt><trkpt lat="43.728186" lon="11.1774159"><ele>153.0</ele><time>2026-04-06T09:39:52.721Z</time></trkpt><trkpt lat="43.7280822" lon="11.1773729"><ele>153.0</ele><time>2026-04-06T09:39:54.72Z</time></trkpt><trkpt lat="43.7279835" lon="11.1772803"><ele>153.0</ele><time>2026-04-06T09:39:56.719Z</time></trkpt><trkpt lat="43.7279005" lon="11.1771679"><ele>153.0</ele><time>2026-04-06T09:39:58.719Z</time></trkpt><trkpt lat="43.7278572" lon="11.1771005"><ele>151.0</ele><time>2026-04-06T09:39:59.719Z</time></trkpt><trkpt lat="43.7278161" lon="11.1770306"><ele>149.0</ele><time>2026-04-06T09:40:00.719Z</time></trkpt><trkpt lat="43.7277424" lon="11.1768913"><ele>147.0</ele><time>2026-04-06T09:40:02.72Z</time></trkpt><trkpt lat="43.7276909" lon="11.1768317"><ele>145.0</ele><time>2026-04-06T09:40:03.719Z</time></trkpt><trkpt lat="43.727642" lon="11.1767762"><ele>143.0</ele><time>2026-04-06T09:40:04.72Z</time></trkpt><trkpt lat="43.7275183" lon="11.1767063"><ele>143.0</ele><time>2026-04-06T09:40:06.719Z</time></trkpt><trkpt lat="43.727421" lon="11.1766224"><ele>143.0</ele><time>2026-04-06T09:40:08.72Z</time></trkpt><trkpt lat="43.727325" lon="11.1765518"><ele>143.0</ele><time>2026-04-06T09:40:10.72Z</time></trkpt><trkpt lat="43.7272396" lon="11.1764715"><ele>143.0</ele><time>2026-04-06T09:40:12.719Z</time></trkpt><trkpt lat="43.7271521" lon="11.1764244"><ele>143.0</ele><time>2026-04-06T09:40:14.72Z</time></trkpt><trkpt lat="43.7270528" lon="11.1763789"><ele>142.33333333333331</ele><time>2026-04-06T09:40:16.72Z</time></trkpt><trkpt lat="43.7269738" lon="11.1763399"><ele>141.66666666666666</ele><time>2026-04-06T09:40:18.719Z</time></trkpt><trkpt lat="43.7269005" lon="11.1763052"><ele>141.0</ele><time>2026-04-06T09:40:20.72Z</time></trkpt><trkpt lat="43.7268544" lon="11.1762213"><ele>140.33333333333334</ele><time>2026-04-06T09:40:22.72Z</time></trkpt><trkpt lat="43.7268343" lon="11.1761189"><ele>139.66666666666669</ele><time>2026-04-06T09:40:24.72Z</time></trkpt><trkpt lat="43.7268166" lon="11.1760119"><ele>139.0</ele><time>2026-04-06T09:40:26.718Z</time></trkpt><trkpt lat="43.7268081" lon="11.1759104"><ele>139.85714285714286</ele><time>2026-04-06T09:40:28.72Z</time></trkpt><trkpt lat="43.7267926" lon="11.1758149"><ele>140.71428571428572</ele><time>2026-04-06T09:40:30.719Z</time></trkpt><trkpt lat="43.7267594" lon="11.1757322"><ele>141.57142857142858</ele><time>2026-04-06T09:40:32.719Z</time></trkpt><trkpt lat="43.7267113" lon="11.1756542"><ele>142.42857142857144</ele><time>2026-04-06T09:40:34.718Z</time></trkpt><trkpt lat="43.7266513" lon="11.1755804"><ele>143.2857142857143</ele><time>2026-04-06T09:40:36.72Z</time></trkpt><trkpt lat="43.7265971" lon="11.1755195"><ele>144.14285714285714</ele><time>2026-04-06T09:40:38.719Z</time></trkpt><trkpt lat="43.7265337" lon="11.1754547"><ele>145.0</ele><time>2026-04-06T09:40:40.719Z</time></trkpt><trkpt lat="43.7264844" lon="11.175386"><ele>145.0</ele><time>2026-04-06T09:40:42.719Z</time></trkpt><trkpt lat="43.726438" lon="11.1753255"><ele>145.0</ele><time>2026-04-06T09:40:44.72Z</time></trkpt><trkpt lat="43.7263647" lon="11.1752427"><ele>145.0</ele><time>2026-04-06T09:40:47.72Z</time></trkpt><trkpt lat="43.7263135" lon="11.175178"><ele>145.0</ele><time>2026-04-06T09:40:49.72Z</time></trkpt><trkpt lat="43.7262619" lon="11.1751251"><ele>145.0</ele><time>2026-04-06T09:40:51.72Z</time></trkpt><trkpt lat="43.7261988" lon="11.1750955"><ele>145.0</ele><time>2026-04-06T09:40:53.72Z</time></trkpt><trkpt lat="43.7261298" lon="11.1751295"><ele>145.0</ele><time>2026-04-06T09:40:55.719Z</time></trkpt><trkpt lat="43.726073" lon="11.1751961"><ele>146.85714285714286</ele><time>2026-04-06T09:40:57.688Z</time></trkpt><trkpt lat="43.7260219" lon="11.175261"><ele>148.71428571428572</ele><time>2026-04-06T09:40:59.719Z</time></trkpt><trkpt lat="43.7259329" lon="11.1753034"><ele>150.57142857142858</ele><time>2026-04-06T09:41:02.719Z</time></trkpt><trkpt lat="43.7258757" lon="11.1753435"><ele>152.42857142857144</ele><time>2026-04-06T09:41:04.72Z</time></trkpt><trkpt lat="43.7258164" lon="11.1753953"><ele>154.28571428571428</ele><time>2026-04-06T09:41:06.719Z</time></trkpt><trkpt lat="43.7257546" lon="11.1754533"><ele>156.14285714285717</ele><time>2026-04-06T09:41:08.718Z</time></trkpt><trkpt lat="43.7256929" lon="11.1755094"><ele>158.0</ele><time>2026-04-06T09:41:10.719Z</time></trkpt><trkpt lat="43.7256315" lon="11.1755543"><ele>158.00000000000003</ele><time>2026-04-06T09:41:12.718Z</time></trkpt><trkpt lat="43.725571" lon="11.1756019"><ele>158.0</ele><time>2026-04-06T09:41:14.72Z</time></trkpt><trkpt lat="43.7255125" lon="11.1756439"><ele>158.0</ele><time>2026-04-06T09:41:16.719Z</time></trkpt><trkpt lat="43.7254543" lon="11.1756932"><ele>158.0</ele><time>2026-04-06T09:41:18.72Z</time></trkpt><trkpt lat="43.7253944" lon="11.175734"><ele>158.0</ele><time>2026-04-06T09:41:20.718Z</time></trkpt><trkpt lat="43.7253178" lon="11.1758114"><ele>158.00000000000003</ele><time>2026-04-06T09:41:23.719Z</time></trkpt><trkpt lat="43.7252576" lon="11.175861"><ele>158.0</ele><time>2026-04-06T09:41:25.719Z</time></trkpt><trkpt lat="43.7251981" lon="11.1759061"><ele>159.2857142857143</ele><time>2026-04-06T09:41:27.719Z</time></trkpt><trkpt lat="43.7251411" lon="11.1759536"><ele>160.57142857142858</ele><time>2026-04-06T09:41:29.718Z</time></trkpt><trkpt lat="43.725085" lon="11.1760076"><ele>161.85714285714286</ele><time>2026-04-06T09:41:31.719Z</time></trkpt><trkpt lat="43.7250229" lon="11.1760507"><ele>163.14285714285717</ele><time>2026-04-06T09:41:33.721Z</time></trkpt><trkpt lat="43.7249689" lon="11.1760971"><ele>164.42857142857144</ele><time>2026-04-06T09:41:35.718Z</time></trkpt><trkpt lat="43.7249109" lon="11.1761311"><ele>165.71428571428572</ele><time>2026-04-06T09:41:37.719Z</time></trkpt><trkpt lat="43.7248513" lon="11.1761695"><ele>167.0</ele><time>2026-04-06T09:41:39.72Z</time></trkpt><trkpt lat="43.7247929" lon="11.1762114"><ele>167.0</ele><time>2026-04-06T09:41:41.719Z</time></trkpt><trkpt lat="43.7247139" lon="11.1762761"><ele>167.0</ele><time>2026-04-06T09:41:44.719Z</time></trkpt><trkpt lat="43.7246618" lon="11.1763264"><ele>167.0</ele><time>2026-04-06T09:41:46.719Z</time></trkpt><trkpt lat="43.724607" lon="11.176371"><ele>167.0</ele><time>2026-04-06T09:41:48.721Z</time></trkpt><trkpt lat="43.7245274" lon="11.1764252"><ele>167.0</ele><time>2026-04-06T09:41:51.72Z</time></trkpt><trkpt lat="43.7244488" lon="11.1764866"><ele>167.0</ele><time>2026-04-06T09:41:54.721Z</time></trkpt><trkpt lat="43.7243735" lon="11.1765614"><ele>169.66666666666666</ele><time>2026-04-06T09:41:57.718Z</time></trkpt><trkpt lat="43.7243107" lon="11.1766411"><ele>172.33333333333331</ele><time>2026-04-06T09:42:00.721Z</time></trkpt><trkpt lat="43.7242435" lon="11.1766587"><ele>175.0</ele><time>2026-04-06T09:42:03.721Z</time></trkpt><trkpt lat="43.7241948" lon="11.176557"><ele>177.66666666666666</ele><time>2026-04-06T09:42:06.72Z</time></trkpt><trkpt lat="43.7241581" lon="11.1764379"><ele>180.33333333333334</ele><time>2026-04-06T09:42:09.718Z</time></trkpt><trkpt lat="43.7241283" lon="11.1763527"><ele>183.0</ele><time>2026-04-06T09:42:11.719Z</time></trkpt><trkpt lat="43.7240789" lon="11.1762448"><ele>183.14285714285714</ele><time>2026-04-06T09:42:14.719Z</time></trkpt><trkpt lat="43.7240445" lon="11.1761658"><ele>183.28571428571428</ele><time>2026-04-06T09:42:16.72Z</time></trkpt><trkpt lat="43.7240059" lon="11.1760868"><ele>183.42857142857144</ele><time>2026-04-06T09:42:18.719Z</time></trkpt><trkpt lat="43.7239665" lon="11.1760174"><ele>183.57142857142856</ele><time>2026-04-06T09:42:20.719Z</time></trkpt><trkpt lat="43.7239249" lon="11.1759229"><ele>183.7142857142857</ele><time>2026-04-06T09:42:23.72Z</time></trkpt><trkpt lat="43.7238869" lon="11.1758047"><ele>183.85714285714286</ele><time>2026-04-06T09:42:26.72Z</time></trkpt><trkpt lat="43.7238555" lon="11.1757241"><ele>184.0</ele><time>2026-04-06T09:42:28.719Z</time></trkpt><trkpt lat="43.7238235" lon="11.1756428"><ele>184.5</ele><time>2026-04-06T09:42:30.72Z</time></trkpt><trkpt lat="43.7237895" lon="11.1755639"><ele>185.0</ele><time>2026-04-06T09:42:32.719Z</time></trkpt><trkpt lat="43.7237485" lon="11.1754482"><ele>185.5</ele><time>2026-04-06T09:42:35.718Z</time></trkpt><trkpt lat="43.723713" lon="11.1753295"><ele>186.0</ele><time>2026-04-06T09:42:38.719Z</time></trkpt><trkpt lat="43.723645" lon="11.1752772"><ele>186.5</ele><time>2026-04-06T09:42:41.72Z</time></trkpt><trkpt lat="43.7235674" lon="11.1753142"><ele>187.0</ele><time>2026-04-06T09:42:44.718Z</time></trkpt><trkpt lat="43.7234987" lon="11.1753802"><ele>187.0</ele><time>2026-04-06T09:42:47.721Z</time></trkpt><trkpt lat="43.7234307" lon="11.1754535"><ele>187.0</ele><time>2026-04-06T09:42:50.719Z</time></trkpt><trkpt lat="43.7233605" lon="11.1755145"><ele>187.0</ele><time>2026-04-06T09:42:53.719Z</time></trkpt><trkpt lat="43.7233131" lon="11.1755724"><ele>187.0</ele><time>2026-04-06T09:42:56.719Z</time></trkpt><trkpt lat="43.7232427" lon="11.1756316"><ele>187.0</ele><time>2026-04-06T09:44:45.72Z</time></trkpt><trkpt lat="43.7231885" lon="11.1756949"><ele>187.0</ele><time>2026-04-06T09:44:48.719Z</time></trkpt><trkpt lat="43.7231325" lon="11.1757655"><ele>187.0</ele><time>2026-04-06T09:44:51.719Z</time></trkpt><trkpt lat="43.7230581" lon="11.1758274"><ele>187.0</ele><time>2026-04-06T09:44:54.719Z</time></trkpt><trkpt lat="43.7229815" lon="11.1757663"><ele>187.0</ele><time>2026-04-06T09:44:57.719Z</time></trkpt><trkpt lat="43.7229595" lon="11.1756469"><ele>187.0</ele><time>2026-04-06T09:44:59.719Z</time></trkpt><trkpt lat="43.7229479" lon="11.175532"><ele>187.0</ele><time>2026-04-06T09:45:01.72Z</time></trkpt><trkpt lat="43.7229117" lon="11.1754088"><ele>187.0</ele><time>2026-04-06T09:45:03.72Z</time></trkpt><trkpt lat="43.7229057" lon="11.175261"><ele>187.0</ele><time>2026-04-06T09:45:05.72Z</time></trkpt><trkpt lat="43.7228882" lon="11.1751319"><ele>187.0</ele><time>2026-04-06T09:45:07.718Z</time></trkpt><trkpt lat="43.7228651" lon="11.1750363"><ele>187.0</ele><time>2026-04-06T09:45:09.72Z</time></trkpt><trkpt lat="43.7228633" lon="11.1749136"><ele>187.0</ele><time>2026-04-06T09:45:11.72Z</time></trkpt><trkpt lat="43.7228476" lon="11.1748248"><ele>187.0</ele><time>2026-04-06T09:45:12.719Z</time></trkpt><trkpt lat="43.7228243" lon="11.17473"><ele>187.0</ele><time>2026-04-06T09:45:14.719Z</time></trkpt><trkpt lat="43.7227929" lon="11.1745814"><ele>186.66666666666669</ele><time>2026-04-06T09:45:16.719Z</time></trkpt><trkpt lat="43.7227391" lon="11.1744316"><ele>186.33333333333334</ele><time>2026-04-06T09:45:18.72Z</time></trkpt><trkpt lat="43.722691" lon="11.1743015"><ele>186.0</ele><time>2026-04-06T09:45:20.721Z</time></trkpt><trkpt lat="43.7226594" lon="11.1742136"><ele>185.66666666666666</ele><time>2026-04-06T09:45:22.72Z</time></trkpt><trkpt lat="43.7226038" lon="11.174143"><ele>185.33333333333331</ele><time>2026-04-06T09:45:24.718Z</time></trkpt><trkpt lat="43.7225639" lon="11.1740604"><ele>185.0</ele><time>2026-04-06T09:45:26.719Z</time></trkpt><trkpt lat="43.7224918" lon="11.1739997"><ele>185.83333333333331</ele><time>2026-04-06T09:45:30.719Z</time></trkpt><trkpt lat="43.7224403" lon="11.1739315"><ele>186.66666666666666</ele><time>2026-04-06T09:45:32.718Z</time></trkpt><trkpt lat="43.722392" lon="11.1738604"><ele>187.5</ele><time>2026-04-06T09:45:34.717Z</time></trkpt><trkpt lat="43.7223308" lon="11.1737773"><ele>188.33333333333334</ele><time>2026-04-06T09:45:36.717Z</time></trkpt><trkpt lat="43.7222598" lon="11.173723"><ele>189.16666666666669</ele><time>2026-04-06T09:45:38.718Z</time></trkpt><trkpt lat="43.7221726" lon="11.1737002"><ele>190.0</ele><time>2026-04-06T09:45:40.718Z</time></trkpt><trkpt lat="43.7220821" lon="11.1736929"><ele>190.0</ele><time>2026-04-06T09:45:42.718Z</time></trkpt><trkpt lat="43.7220006" lon="11.1736915"><ele>190.0</ele><time>2026-04-06T09:45:44.718Z</time></trkpt><trkpt lat="43.7219262" lon="11.1737124"><ele>190.0</ele><time>2026-04-06T09:45:46.718Z</time></trkpt><trkpt lat="43.7218694" lon="11.1737725"><ele>190.0</ele><time>2026-04-06T09:45:49.718Z</time></trkpt><trkpt lat="43.7218453" lon="11.1738679"><ele>190.0</ele><time>2026-04-06T09:45:52.72Z</time></trkpt><trkpt lat="43.7218224" lon="11.1739606"><ele>190.0</ele><time>2026-04-06T09:45:55.718Z</time></trkpt><trkpt lat="43.7218103" lon="11.1740778"><ele>189.0</ele><time>2026-04-06T09:45:58.719Z</time></trkpt><trkpt lat="43.7218024" lon="11.1741664"><ele>188.0</ele><time>2026-04-06T09:46:00.718Z</time></trkpt><trkpt lat="43.7217648" lon="11.1742889"><ele>187.0</ele><time>2026-04-06T09:46:03.719Z</time></trkpt><trkpt lat="43.7217314" lon="11.1744023"><ele>186.0</ele><time>2026-04-06T09:46:05.719Z</time></trkpt><trkpt lat="43.7217186" lon="11.1745028"><ele>185.0</ele><time>2026-04-06T09:46:06.719Z</time></trkpt><trkpt lat="43.7216712" lon="11.1746044"><ele>184.0</ele><time>2026-04-06T09:46:08.718Z</time></trkpt><trkpt lat="43.7216366" lon="11.1747088"><ele>184.0</ele><time>2026-04-06T09:46:10.718Z</time></trkpt><trkpt lat="43.7216429" lon="11.17485"><ele>184.0</ele><time>2026-04-06T09:46:12.719Z</time></trkpt><trkpt lat="43.721709" lon="11.1749243"><ele>184.0</ele><time>2026-04-06T09:46:14.718Z</time></trkpt><trkpt lat="43.7217108" lon="11.1750517"><ele>184.0</ele><time>2026-04-06T09:46:16.718Z</time></trkpt><trkpt lat="43.7217012" lon="11.1751953"><ele>184.0</ele><time>2026-04-06T09:46:18.72Z</time></trkpt><trkpt lat="43.7216474" lon="11.1753246"><ele>182.5</ele><time>2026-04-06T09:46:20.719Z</time></trkpt><trkpt lat="43.7215981" lon="11.1754365"><ele>181.0</ele><time>2026-04-06T09:46:22.719Z</time></trkpt><trkpt lat="43.7215684" lon="11.1755347"><ele>179.5</ele><time>2026-04-06T09:46:24.719Z</time></trkpt><trkpt lat="43.721505" lon="11.1756196"><ele>178.0</ele><time>2026-04-06T09:46:26.718Z</time></trkpt><trkpt lat="43.7214515" lon="11.1757281"><ele>176.5</ele><time>2026-04-06T09:46:28.719Z</time></trkpt><trkpt lat="43.7214099" lon="11.1758328"><ele>175.0</ele><time>2026-04-06T09:46:30.719Z</time></trkpt><trkpt lat="43.7213445" lon="11.1759389"><ele>173.0</ele><time>2026-04-06T09:46:32.718Z</time></trkpt><trkpt lat="43.7212949" lon="11.1760329"><ele>171.0</ele><time>2026-04-06T09:46:34.718Z</time></trkpt><trkpt lat="43.7212699" lon="11.1761368"><ele>169.0</ele><time>2026-04-06T09:46:36.717Z</time></trkpt><trkpt lat="43.7212516" lon="11.1762212"><ele>167.0</ele><time>2026-04-06T09:46:38.719Z</time></trkpt><trkpt lat="43.7212388" lon="11.1763375"><ele>165.0</ele><time>2026-04-06T09:46:40.718Z</time></trkpt><trkpt lat="43.7212166" lon="11.1764457"><ele>163.0</ele><time>2026-04-06T09:46:42.719Z</time></trkpt><trkpt lat="43.7211812" lon="11.1765419"><ele>162.2857142857143</ele><time>2026-04-06T09:46:44.719Z</time></trkpt><trkpt lat="43.7211504" lon="11.1766388"><ele>161.57142857142856</ele><time>2026-04-06T09:46:47.719Z</time></trkpt><trkpt lat="43.7211211" lon="11.17672"><ele>160.85714285714286</ele><time>2026-04-06T09:46:49.718Z</time></trkpt><trkpt lat="43.7210839" lon="11.1768019"><ele>160.14285714285717</ele><time>2026-04-06T09:46:51.719Z</time></trkpt><trkpt lat="43.7210458" lon="11.1768924"><ele>159.42857142857144</ele><time>2026-04-06T09:46:53.719Z</time></trkpt><trkpt lat="43.7210185" lon="11.1769755"><ele>158.71428571428572</ele><time>2026-04-06T09:46:55.719Z</time></trkpt><trkpt lat="43.7209865" lon="11.1770568"><ele>158.0</ele><time>2026-04-06T09:46:57.719Z</time></trkpt><trkpt lat="43.7209527" lon="11.1771338"><ele>160.71428571428572</ele><time>2026-04-06T09:46:59.718Z</time></trkpt><trkpt lat="43.7209142" lon="11.1772195"><ele>163.42857142857144</ele><time>2026-04-06T09:47:01.718Z</time></trkpt><trkpt lat="43.720885" lon="11.1773053"><ele>166.14285714285717</ele><time>2026-04-06T09:47:03.718Z</time></trkpt><trkpt lat="43.7208634" lon="11.177395"><ele>168.85714285714286</ele><time>2026-04-06T09:47:05.718Z</time></trkpt><trkpt lat="43.7208349" lon="11.1774814"><ele>171.57142857142856</ele><time>2026-04-06T09:47:07.718Z</time></trkpt><trkpt lat="43.7208079" lon="11.1775637"><ele>174.2857142857143</ele><time>2026-04-06T09:47:09.718Z</time></trkpt><trkpt lat="43.720786" lon="11.1776499"><ele>177.0</ele><time>2026-04-06T09:47:11.718Z</time></trkpt><trkpt lat="43.7207424" lon="11.177746"><ele>177.0</ele><time>2026-04-06T09:47:13.718Z</time></trkpt><trkpt lat="43.7207042" lon="11.1778307"><ele>177.0</ele><time>2026-04-06T09:47:15.718Z</time></trkpt><trkpt lat="43.7206615" lon="11.1779213"><ele>177.0</ele><time>2026-04-06T09:47:17.718Z</time></trkpt><trkpt lat="43.7206142" lon="11.1780123"><ele>177.0</ele><time>2026-04-06T09:47:19.718Z</time></trkpt><trkpt lat="43.7205704" lon="11.1781023"><ele>177.0</ele><time>2026-04-06T09:47:21.717Z</time></trkpt><trkpt lat="43.7205341" lon="11.1781983"><ele>177.0</ele><time>2026-04-06T09:47:23.719Z</time></trkpt><trkpt lat="43.7205203" lon="11.1783086"><ele>174.2</ele><time>2026-04-06T09:47:25.717Z</time></trkpt><trkpt lat="43.7204974" lon="11.178457"><ele>171.39999999999998</ele><time>2026-04-06T09:47:27.718Z</time></trkpt><trkpt lat="43.7205556" lon="11.1785965"><ele>168.60000000000002</ele><time>2026-04-06T09:47:29.718Z</time></trkpt><trkpt lat="43.7205523" lon="11.1787217"><ele>165.8</ele><time>2026-04-06T09:47:31.719Z</time></trkpt><trkpt lat="43.7205194" lon="11.1788612"><ele>163.0</ele><time>2026-04-06T09:47:33.719Z</time></trkpt><trkpt lat="43.7204487" lon="11.1789561"><ele>161.33333333333334</ele><time>2026-04-06T09:47:34.718Z</time></trkpt><trkpt lat="43.7203858" lon="11.1790423"><ele>159.66666666666669</ele><time>2026-04-06T09:47:36.719Z</time></trkpt><trkpt lat="43.7203326" lon="11.1791383"><ele>158.0</ele><time>2026-04-06T09:47:38.717Z</time></trkpt><trkpt lat="43.7202769" lon="11.1792011"><ele>156.33333333333334</ele><time>2026-04-06T09:47:40.718Z</time></trkpt><trkpt lat="43.7202179" lon="11.1793248"><ele>154.66666666666666</ele><time>2026-04-06T09:47:42.718Z</time></trkpt><trkpt lat="43.7201949" lon="11.1794331"><ele>153.0</ele><time>2026-04-06T09:47:44.72Z</time></trkpt><trkpt lat="43.7201333" lon="11.1795124"><ele>154.83333333333334</ele><time>2026-04-06T09:47:46.718Z</time></trkpt><trkpt lat="43.7200669" lon="11.1796105"><ele>156.66666666666666</ele><time>2026-04-06T09:47:48.719Z</time></trkpt><trkpt lat="43.7200201" lon="11.1797146"><ele>158.5</ele><time>2026-04-06T09:47:50.717Z</time></trkpt><trkpt lat="43.7199681" lon="11.1797646"><ele>160.33333333333331</ele><time>2026-04-06T09:47:51.72Z</time></trkpt><trkpt lat="43.719915" lon="11.1798234"><ele>162.16666666666666</ele><time>2026-04-06T09:47:52.719Z</time></trkpt><trkpt lat="43.7198539" lon="11.1799343"><ele>164.0</ele><time>2026-04-06T09:47:54.72Z</time></trkpt><trkpt lat="43.7198071" lon="11.1799948"><ele>164.0</ele><time>2026-04-06T09:47:55.717Z</time></trkpt><trkpt lat="43.719743" lon="11.1801034"><ele>164.0</ele><time>2026-04-06T09:47:57.718Z</time></trkpt><trkpt lat="43.719653" lon="11.180229"><ele>164.0</ele><time>2026-04-06T09:47:59.718Z</time></trkpt><trkpt lat="43.7195983" lon="11.1803562"><ele>164.0</ele><time>2026-04-06T09:48:01.718Z</time></trkpt><trkpt lat="43.7195233" lon="11.1804739"><ele>164.0</ele><time>2026-04-06T09:48:03.72Z</time></trkpt><trkpt lat="43.7194644" lon="11.1806042"><ele>164.0</ele><time>2026-04-06T09:48:05.717Z</time></trkpt><trkpt lat="43.7194629" lon="11.1807116"><ele>164.0</ele><time>2026-04-06T09:48:07.717Z</time></trkpt><trkpt lat="43.7193982" lon="11.1807824"><ele>164.0</ele><time>2026-04-06T09:48:09.717Z</time></trkpt><trkpt lat="43.7193173" lon="11.1808706"><ele>164.0</ele><time>2026-04-06T09:48:12.717Z</time></trkpt><trkpt lat="43.7192543" lon="11.1809195"><ele>164.0</ele><time>2026-04-06T09:48:14.717Z</time></trkpt><trkpt lat="43.7191891" lon="11.1809966"><ele>164.33333333333331</ele><time>2026-04-06T09:48:17.719Z</time></trkpt><trkpt lat="43.7191682" lon="11.1810981"><ele>164.66666666666666</ele><time>2026-04-06T09:48:20.718Z</time></trkpt><trkpt lat="43.7191727" lon="11.1812283"><ele>165.0</ele><time>2026-04-06T09:48:23.717Z</time></trkpt><trkpt lat="43.7191584" lon="11.1813367"><ele>165.33333333333334</ele><time>2026-04-06T09:48:26.718Z</time></trkpt><trkpt lat="43.7191247" lon="11.1814254"><ele>165.66666666666669</ele><time>2026-04-06T09:50:34.718Z</time></trkpt><trkpt lat="43.7190894" lon="11.1815141"><ele>166.0</ele><time>2026-04-06T09:50:37.718Z</time></trkpt><trkpt lat="43.7190655" lon="11.181596"><ele>165.28571428571428</ele><time>2026-04-06T09:50:39.718Z</time></trkpt><trkpt lat="43.719037" lon="11.1816744"><ele>164.57142857142858</ele><time>2026-04-06T09:50:41.718Z</time></trkpt><trkpt lat="43.7190069" lon="11.1817594"><ele>163.85714285714286</ele><time>2026-04-06T09:50:43.717Z</time></trkpt><trkpt lat="43.7189756" lon="11.1818416"><ele>163.14285714285714</ele><time>2026-04-06T09:50:45.717Z</time></trkpt><trkpt lat="43.7189591" lon="11.1819312"><ele>162.42857142857144</ele><time>2026-04-06T09:50:47.718Z</time></trkpt><trkpt lat="43.7189449" lon="11.1820389"><ele>161.71428571428572</ele><time>2026-04-06T09:50:50.718Z</time></trkpt><trkpt lat="43.718939" lon="11.1821482"><ele>161.0</ele><time>2026-04-06T09:50:53.716Z</time></trkpt><trkpt lat="43.7189628" lon="11.1822593"><ele>161.16666666666666</ele><time>2026-04-06T09:50:56.717Z</time></trkpt><trkpt lat="43.7189619" lon="11.1823957"><ele>161.33333333333331</ele><time>2026-04-06T09:50:59.716Z</time></trkpt><trkpt lat="43.7189531" lon="11.1824906"><ele>161.5</ele><time>2026-04-06T09:51:00.718Z</time></trkpt><trkpt lat="43.7189126" lon="11.1825963"><ele>161.66666666666666</ele><time>2026-04-06T09:51:02.718Z</time></trkpt><trkpt lat="43.7188592" lon="11.1826591"><ele>161.83333333333334</ele><time>2026-04-06T09:51:04.719Z</time></trkpt><trkpt lat="43.7187844" lon="11.1827147"><ele>162.0</ele><time>2026-04-06T09:51:06.718Z</time></trkpt><trkpt lat="43.7186944" lon="11.1826908"><ele>162.0</ele><time>2026-04-06T09:51:09.718Z</time></trkpt><trkpt lat="43.7186414" lon="11.1826397"><ele>162.0</ele><time>2026-04-06T09:51:11.719Z</time></trkpt><trkpt lat="43.7185898" lon="11.1825883"><ele>162.0</ele><time>2026-04-06T09:51:13.718Z</time></trkpt><trkpt lat="43.7185203" lon="11.1825166"><ele>162.0</ele><time>2026-04-06T09:51:16.718Z</time></trkpt><trkpt lat="43.7184563" lon="11.1824818"><ele>162.0</ele><time>2026-04-06T09:51:18.717Z</time></trkpt><trkpt lat="43.7183927" lon="11.1824737"><ele>162.0</ele><time>2026-04-06T09:51:20.719Z</time></trkpt><trkpt lat="43.7183246" lon="11.18249"><ele>162.0</ele><time>2026-04-06T09:51:22.717Z</time></trkpt><trkpt lat="43.7182646" lon="11.1825855"><ele>163.5</ele><time>2026-04-06T09:51:25.717Z</time></trkpt><trkpt lat="43.7182621" lon="11.1826927"><ele>165.0</ele><time>2026-04-06T09:51:28.717Z</time></trkpt><trkpt lat="43.7182686" lon="11.1827997"><ele>166.5</ele><time>2026-04-06T09:51:31.717Z</time></trkpt><trkpt lat="43.7182681" lon="11.1829049"><ele>168.0</ele><time>2026-04-06T09:51:34.716Z</time></trkpt><trkpt lat="43.7182648" lon="11.1830344"><ele>169.5</ele><time>2026-04-06T09:51:37.717Z</time></trkpt><trkpt lat="43.718257" lon="11.1831278"><ele>171.0</ele><time>2026-04-06T09:51:39.719Z</time></trkpt><trkpt lat="43.7182376" lon="11.1832342"><ele>171.0</ele><time>2026-04-06T09:51:42.718Z</time></trkpt><trkpt lat="43.7182117" lon="11.1833138"><ele>171.0</ele><time>2026-04-06T09:51:44.718Z</time></trkpt><trkpt lat="43.718172" lon="11.183398"><ele>171.0</ele><time>2026-04-06T09:51:46.718Z</time></trkpt><trkpt lat="43.7181348" lon="11.1834877"><ele>171.0</ele><time>2026-04-06T09:51:48.716Z</time></trkpt><trkpt lat="43.7180932" lon="11.1835708"><ele>171.0</ele><time>2026-04-06T09:51:50.717Z</time></trkpt><trkpt lat="43.7180479" lon="11.1836713"><ele>171.0</ele><time>2026-04-06T09:51:53.718Z</time></trkpt><trkpt lat="43.7179835" lon="11.1837681"><ele>170.99999999999997</ele><time>2026-04-06T09:51:56.717Z</time></trkpt><trkpt lat="43.7179449" lon="11.1838448"><ele>171.0</ele><time>2026-04-06T09:51:58.718Z</time></trkpt><trkpt lat="43.7179115" lon="11.1839205"><ele>171.0</ele><time>2026-04-06T09:52:00.718Z</time></trkpt><trkpt lat="43.7178774" lon="11.1839948"><ele>171.0</ele><time>2026-04-06T09:52:02.718Z</time></trkpt><trkpt lat="43.7178435" lon="11.1840747"><ele>171.0</ele><time>2026-04-06T09:52:04.717Z</time></trkpt><trkpt lat="43.7178127" lon="11.1841563"><ele>170.99999999999997</ele><time>2026-04-06T09:52:06.717Z</time></trkpt><trkpt lat="43.7177795" lon="11.1842304"><ele>171.0</ele><time>2026-04-06T09:52:08.719Z</time></trkpt><trkpt lat="43.71771" lon="11.1843055"><ele>173.33333333333334</ele><time>2026-04-06T09:52:11.717Z</time></trkpt><trkpt lat="43.7176282" lon="11.1843375"><ele>175.66666666666666</ele><time>2026-04-06T09:52:14.717Z</time></trkpt><trkpt lat="43.7175658" lon="11.1843615"><ele>178.0</ele><time>2026-04-06T09:52:16.717Z</time></trkpt><trkpt lat="43.7175024" lon="11.1843764"><ele>180.33333333333331</ele><time>2026-04-06T09:52:18.718Z</time></trkpt><trkpt lat="43.7174141" lon="11.1844162"><ele>182.66666666666666</ele><time>2026-04-06T09:52:21.718Z</time></trkpt><trkpt lat="43.7173317" lon="11.1844216"><ele>185.0</ele><time>2026-04-06T09:52:24.716Z</time></trkpt><trkpt lat="43.7172671" lon="11.1844431"><ele>184.99999999999997</ele><time>2026-04-06T09:52:26.717Z</time></trkpt><trkpt lat="43.7172126" lon="11.1844905"><ele>185.0</ele><time>2026-04-06T09:52:28.718Z</time></trkpt><trkpt lat="43.7171959" lon="11.1845869"><ele>185.0</ele><time>2026-04-06T09:52:31.718Z</time></trkpt><trkpt lat="43.7171895" lon="11.1847002"><ele>185.0</ele><time>2026-04-06T09:52:34.718Z</time></trkpt><trkpt lat="43.717174" lon="11.1847871"><ele>185.0</ele><time>2026-04-06T09:52:36.719Z</time></trkpt><trkpt lat="43.7171444" lon="11.1848677"><ele>184.99999999999997</ele><time>2026-04-06T09:52:38.718Z</time></trkpt><trkpt lat="43.7171149" lon="11.1849503"><ele>185.0</ele><time>2026-04-06T09:52:40.717Z</time></trkpt><trkpt lat="43.7170759" lon="11.1850551"><ele>186.14285714285714</ele><time>2026-04-06T09:52:43.717Z</time></trkpt><trkpt lat="43.7170516" lon="11.1851366"><ele>187.28571428571428</ele><time>2026-04-06T09:52:45.717Z</time></trkpt><trkpt lat="43.7170157" lon="11.1852571"><ele>188.42857142857144</ele><time>2026-04-06T09:52:48.718Z</time></trkpt><trkpt lat="43.7169841" lon="11.1853366"><ele>189.57142857142856</ele><time>2026-04-06T09:52:50.717Z</time></trkpt><trkpt lat="43.7169552" lon="11.1854173"><ele>190.71428571428572</ele><time>2026-04-06T09:52:52.717Z</time></trkpt><trkpt lat="43.7169284" lon="11.1854999"><ele>191.85714285714286</ele><time>2026-04-06T09:52:54.717Z</time></trkpt><trkpt lat="43.716882" lon="11.1856075"><ele>193.0</ele><time>2026-04-06T09:52:57.719Z</time></trkpt><trkpt lat="43.7168449" lon="11.185687"><ele>192.99999999999997</ele><time>2026-04-06T09:52:59.717Z</time></trkpt><trkpt lat="43.7167943" lon="11.1857531"><ele>193.0</ele><time>2026-04-06T09:53:01.718Z</time></trkpt><trkpt lat="43.71675" lon="11.1858215"><ele>193.0</ele><time>2026-04-06T09:53:03.718Z</time></trkpt><trkpt lat="43.716721" lon="11.1859215"><ele>193.0</ele><time>2026-04-06T09:53:06.717Z</time></trkpt><trkpt lat="43.7167186" lon="11.1860322"><ele>192.99999999999997</ele><time>2026-04-06T09:53:09.718Z</time></trkpt><trkpt lat="43.7167165" lon="11.1861309"><ele>193.0</ele><time>2026-04-06T09:53:12.718Z</time></trkpt><trkpt lat="43.7166942" lon="11.1862513"><ele>192.99999999999997</ele><time>2026-04-06T09:53:15.717Z</time></trkpt><trkpt lat="43.7166653" lon="11.1863353"><ele>193.0</ele><time>2026-04-06T09:53:17.717Z</time></trkpt><trkpt lat="43.7166279" lon="11.1864254"><ele>193.0</ele><time>2026-04-06T09:53:19.716Z</time></trkpt><trkpt lat="43.7166081" lon="11.1865147"><ele>193.0</ele><time>2026-04-06T09:53:21.717Z</time></trkpt><trkpt lat="43.7165542" lon="11.1866189"><ele>192.99999999999997</ele><time>2026-04-06T09:53:24.718Z</time></trkpt><trkpt lat="43.7164852" lon="11.1866786"><ele>193.0</ele><time>2026-04-06T09:53:27.718Z</time></trkpt><trkpt lat="43.7163959" lon="11.1866848"><ele>192.33333333333331</ele><time>2026-04-06T09:53:30.718Z</time></trkpt><trkpt lat="43.7163304" lon="11.186684"><ele>191.66666666666666</ele><time>2026-04-06T09:53:32.716Z</time></trkpt><trkpt lat="43.7162612" lon="11.1866811"><ele>191.0</ele><time>2026-04-06T09:53:34.719Z</time></trkpt><trkpt lat="43.7161971" lon="11.1866822"><ele>190.33333333333331</ele><time>2026-04-06T09:53:36.717Z</time></trkpt><trkpt lat="43.7161122" lon="11.1867018"><ele>189.66666666666666</ele><time>2026-04-06T09:53:39.717Z</time></trkpt><trkpt lat="43.7160272" lon="11.1867107"><ele>189.0</ele><time>2026-04-06T09:53:42.717Z</time></trkpt><trkpt lat="43.7159387" lon="11.1867344"><ele>191.2</ele><time>2026-04-06T09:53:45.717Z</time></trkpt><trkpt lat="43.7158548" lon="11.1867561"><ele>193.39999999999998</ele><time>2026-04-06T09:53:48.716Z</time></trkpt><trkpt lat="43.71577" lon="11.1867685"><ele>195.6</ele><time>2026-04-06T09:53:51.718Z</time></trkpt><trkpt lat="43.715679" lon="11.1867765"><ele>197.8</ele><time>2026-04-06T09:53:54.719Z</time></trkpt><trkpt lat="43.7155838" lon="11.1867681"><ele>200.0</ele><time>2026-04-06T09:53:57.718Z</time></trkpt><trkpt lat="43.7154888" lon="11.1867536"><ele>200.00000000000003</ele><time>2026-04-06T09:54:00.717Z</time></trkpt><trkpt lat="43.715417" lon="11.1867446"><ele>200.0</ele><time>2026-04-06T09:54:02.717Z</time></trkpt><trkpt lat="43.7153517" lon="11.1867341"><ele>200.0</ele><time>2026-04-06T09:54:04.718Z</time></trkpt><trkpt lat="43.7152468" lon="11.1867134"><ele>200.0</ele><time>2026-04-06T09:54:07.717Z</time></trkpt><trkpt lat="43.7151646" lon="11.1866962"><ele>200.00000000000003</ele><time>2026-04-06T09:54:09.717Z</time></trkpt><trkpt lat="43.7150899" lon="11.1866827"><ele>200.0</ele><time>2026-04-06T09:54:10.717Z</time></trkpt><trkpt lat="43.7150018" lon="11.1866937"><ele>199.66666666666669</ele><time>2026-04-06T09:54:12.717Z</time></trkpt><trkpt lat="43.7149366" lon="11.1867232"><ele>199.33333333333334</ele><time>2026-04-06T09:54:13.718Z</time></trkpt><trkpt lat="43.714859" lon="11.1866639"><ele>199.0</ele><time>2026-04-06T09:54:14.716Z</time></trkpt><trkpt lat="43.7147744" lon="11.1866685"><ele>198.66666666666669</ele><time>2026-04-06T09:54:16.718Z</time></trkpt><trkpt lat="43.7146725" lon="11.1866724"><ele>198.33333333333334</ele><time>2026-04-06T09:54:18.717Z</time></trkpt><trkpt lat="43.7146306" lon="11.1867815"><ele>198.0</ele><time>2026-04-06T09:54:20.717Z</time></trkpt><trkpt lat="43.714649" lon="11.1869122"><ele>198.0</ele><time>2026-04-06T09:54:23.716Z</time></trkpt><trkpt lat="43.714737" lon="11.1869826"><ele>198.0</ele><time>2026-04-06T09:54:26.716Z</time></trkpt><trkpt lat="43.7148065" lon="11.1870368"><ele>198.0</ele><time>2026-04-06T09:54:32.719Z</time></trkpt><trkpt lat="43.7148581" lon="11.1871333"><ele>198.0</ele><time>2026-04-06T09:54:35.716Z</time></trkpt><trkpt lat="43.7148941" lon="11.1872097"><ele>198.0</ele><time>2026-04-06T09:54:37.718Z</time></trkpt><trkpt lat="43.7149215" lon="11.1872977"><ele>198.0</ele><time>2026-04-06T09:54:39.716Z</time></trkpt><trkpt lat="43.7149776" lon="11.187388"><ele>197.33333333333334</ele><time>2026-04-06T09:54:42.717Z</time></trkpt><trkpt lat="43.7150435" lon="11.1874643"><ele>196.66666666666669</ele><time>2026-04-06T09:54:46.717Z</time></trkpt><trkpt lat="43.7151213" lon="11.1875483"><ele>196.0</ele><time>2026-04-06T09:54:49.716Z</time></trkpt><trkpt lat="43.7151821" lon="11.1876073"><ele>195.33333333333334</ele><time>2026-04-06T09:54:51.717Z</time></trkpt><trkpt lat="43.715248" lon="11.1876607"><ele>194.66666666666669</ele><time>2026-04-06T09:54:53.717Z</time></trkpt><trkpt lat="43.7153222" lon="11.1877255"><ele>194.0</ele><time>2026-04-06T09:54:56.717Z</time></trkpt><trkpt lat="43.715374" lon="11.1877969"><ele>193.50000000000003</ele><time>2026-04-06T09:54:59.717Z</time></trkpt><trkpt lat="43.7154131" lon="11.187869"><ele>193.0</ele><time>2026-04-06T09:55:03.718Z</time></trkpt><trkpt lat="43.715464" lon="11.187972"><ele>192.5</ele><time>2026-04-06T09:55:07.716Z</time></trkpt><trkpt lat="43.7155182" lon="11.1880522"><ele>192.0</ele><time>2026-04-06T09:55:09.718Z</time></trkpt><trkpt lat="43.7155829" lon="11.1881362"><ele>191.5</ele><time>2026-04-06T09:55:11.717Z</time></trkpt><trkpt lat="43.7156413" lon="11.188198"><ele>191.0</ele><time>2026-04-06T09:55:13.717Z</time></trkpt><trkpt lat="43.7157061" lon="11.1882505"><ele>191.0</ele><time>2026-04-06T09:55:15.716Z</time></trkpt><trkpt lat="43.7157623" lon="11.1883091"><ele>191.0</ele><time>2026-04-06T09:55:17.717Z</time></trkpt><trkpt lat="43.7158102" lon="11.1883744"><ele>191.0</ele><time>2026-04-06T09:55:19.716Z</time></trkpt><trkpt lat="43.7158541" lon="11.188467"><ele>191.0</ele><time>2026-04-06T09:55:22.716Z</time></trkpt><trkpt lat="43.7158763" lon="11.1885486"><ele>191.0</ele><time>2026-04-06T09:55:25.717Z</time></trkpt><trkpt lat="43.7158235" lon="11.1884892"><ele>191.0</ele><time>2026-04-06T09:55:43.716Z</time></trkpt><trkpt lat="43.7157766" lon="11.1884294"><ele>191.0</ele><time>2026-04-06T09:55:45.716Z</time></trkpt><trkpt lat="43.7157194" lon="11.1883812"><ele>191.0</ele><time>2026-04-06T09:55:47.717Z</time></trkpt><trkpt lat="43.715653" lon="11.1883304"><ele>191.0</ele><time>2026-04-06T09:55:49.717Z</time></trkpt><trkpt lat="43.7155847" lon="11.1882791"><ele>191.0</ele><time>2026-04-06T09:55:51.718Z</time></trkpt><trkpt lat="43.7155172" lon="11.1882222"><ele>191.0</ele><time>2026-04-06T09:55:53.717Z</time></trkpt><trkpt lat="43.7154565" lon="11.1881681"><ele>191.0</ele><time>2026-04-06T09:55:55.717Z</time></trkpt><trkpt lat="43.7153989" lon="11.1881171"><ele>191.0</ele><time>2026-04-06T09:55:57.717Z</time></trkpt><trkpt lat="43.715341" lon="11.1880685"><ele>191.0</ele><time>2026-04-06T09:55:59.717Z</time></trkpt><trkpt lat="43.7152857" lon="11.188015"><ele>191.42857142857144</ele><time>2026-04-06T09:56:01.718Z</time></trkpt><trkpt lat="43.7152278" lon="11.1879592"><ele>191.85714285714283</ele><time>2026-04-06T09:56:03.717Z</time></trkpt><trkpt lat="43.7151714" lon="11.1879041"><ele>192.28571428571428</ele><time>2026-04-06T09:56:05.717Z</time></trkpt><trkpt lat="43.7151147" lon="11.1878394"><ele>192.71428571428572</ele><time>2026-04-06T09:56:07.716Z</time></trkpt><trkpt lat="43.7150536" lon="11.187783"><ele>193.14285714285717</ele><time>2026-04-06T09:56:09.718Z</time></trkpt><trkpt lat="43.7149909" lon="11.1877364"><ele>193.57142857142856</ele><time>2026-04-06T09:56:11.716Z</time></trkpt><trkpt lat="43.7149291" lon="11.1876919"><ele>194.0</ele><time>2026-04-06T09:56:13.717Z</time></trkpt><trkpt lat="43.7148648" lon="11.1876482"><ele>194.0</ele><time>2026-04-06T09:56:15.717Z</time></trkpt><trkpt lat="43.7147987" lon="11.1876058"><ele>194.0</ele><time>2026-04-06T09:56:17.717Z</time></trkpt><trkpt lat="43.7147322" lon="11.1875579"><ele>194.0</ele><time>2026-04-06T09:56:19.717Z</time></trkpt><trkpt lat="43.714665" lon="11.1875046"><ele>194.0</ele><time>2026-04-06T09:56:21.716Z</time></trkpt><trkpt lat="43.7145966" lon="11.1874716"><ele>194.0</ele><time>2026-04-06T09:56:23.718Z</time></trkpt><trkpt lat="43.7145297" lon="11.1874398"><ele>194.0</ele><time>2026-04-06T09:56:25.716Z</time></trkpt><trkpt lat="43.7144608" lon="11.187415"><ele>194.0</ele><time>2026-04-06T09:56:27.717Z</time></trkpt><trkpt lat="43.7143962" lon="11.187403"><ele>196.14285714285714</ele><time>2026-04-06T09:56:29.715Z</time></trkpt><trkpt lat="43.7143254" lon="11.1874017"><ele>198.2857142857143</ele><time>2026-04-06T09:56:31.716Z</time></trkpt><trkpt lat="43.7142504" lon="11.1874139"><ele>200.42857142857144</ele><time>2026-04-06T09:56:33.716Z</time></trkpt><trkpt lat="43.7141724" lon="11.1874143"><ele>202.57142857142856</ele><time>2026-04-06T09:56:35.717Z</time></trkpt><trkpt lat="43.714107" lon="11.1874098"><ele>204.71428571428572</ele><time>2026-04-06T09:56:37.718Z</time></trkpt><trkpt lat="43.7140399" lon="11.1874093"><ele>206.85714285714286</ele><time>2026-04-06T09:56:39.717Z</time></trkpt><trkpt lat="43.7139688" lon="11.1874124"><ele>209.0</ele><time>2026-04-06T09:56:41.715Z</time></trkpt><trkpt lat="43.7138755" lon="11.1874258"><ele>209.00000000000003</ele><time>2026-04-06T09:56:44.717Z</time></trkpt><trkpt lat="43.713781" lon="11.1874497"><ele>209.0</ele><time>2026-04-06T09:56:47.717Z</time></trkpt><trkpt lat="43.713705" lon="11.1874653"><ele>209.0</ele><time>2026-04-06T09:56:49.717Z</time></trkpt><trkpt lat="43.7136262" lon="11.1874723"><ele>209.0</ele><time>2026-04-06T09:56:51.716Z</time></trkpt><trkpt lat="43.7135424" lon="11.1874752"><ele>209.00000000000003</ele><time>2026-04-06T09:56:53.716Z</time></trkpt><trkpt lat="43.7134682" lon="11.187483"><ele>209.0</ele><time>2026-04-06T09:56:55.717Z</time></trkpt><trkpt lat="43.7134032" lon="11.1874988"><ele>209.66666666666669</ele><time>2026-04-06T09:56:57.718Z</time></trkpt><trkpt lat="43.713329" lon="11.1875212"><ele>210.33333333333334</ele><time>2026-04-06T09:56:59.717Z</time></trkpt><trkpt lat="43.7132483" lon="11.187547"><ele>211.0</ele><time>2026-04-06T09:57:01.715Z</time></trkpt><trkpt lat="43.713164" lon="11.1875807"><ele>211.66666666666669</ele><time>2026-04-06T09:57:03.717Z</time></trkpt><trkpt lat="43.7130842" lon="11.1876189"><ele>212.33333333333334</ele><time>2026-04-06T09:57:05.717Z</time></trkpt><trkpt lat="43.7130005" lon="11.1876771"><ele>213.0</ele><time>2026-04-06T09:57:07.716Z</time></trkpt><trkpt lat="43.7129354" lon="11.1877135"><ele>213.0</ele><time>2026-04-06T09:57:09.717Z</time></trkpt><trkpt lat="43.7128671" lon="11.1877843"><ele>213.0</ele><time>2026-04-06T09:57:11.717Z</time></trkpt><trkpt lat="43.7127915" lon="11.187856"><ele>213.0</ele><time>2026-04-06T09:57:13.716Z</time></trkpt><trkpt lat="43.7127291" lon="11.1879528"><ele>213.0</ele><time>2026-04-06T09:57:15.717Z</time></trkpt><trkpt lat="43.7126875" lon="11.1880472"><ele>213.0</ele><time>2026-04-06T09:57:17.716Z</time></trkpt><trkpt lat="43.712649" lon="11.188163"><ele>213.0</ele><time>2026-04-06T09:57:19.717Z</time></trkpt><trkpt lat="43.7126276" lon="11.1882744"><ele>213.2</ele><time>2026-04-06T09:57:21.717Z</time></trkpt><trkpt lat="43.7126027" lon="11.1883947"><ele>213.4</ele><time>2026-04-06T09:57:23.717Z</time></trkpt><trkpt lat="43.712564" lon="11.1885177"><ele>213.59999999999997</ele><time>2026-04-06T09:57:25.718Z</time></trkpt><trkpt lat="43.7125263" lon="11.1886417"><ele>213.79999999999998</ele><time>2026-04-06T09:57:27.717Z</time></trkpt><trkpt lat="43.7124811" lon="11.1887526"><ele>214.0</ele><time>2026-04-06T09:57:29.717Z</time></trkpt><trkpt lat="43.7124173" lon="11.1888337"><ele>214.0</ele><time>2026-04-06T09:57:31.716Z</time></trkpt><trkpt lat="43.7123396" lon="11.1889159"><ele>213.99999999999997</ele><time>2026-04-06T09:57:33.718Z</time></trkpt><trkpt lat="43.7122708" lon="11.1889761"><ele>213.99999999999997</ele><time>2026-04-06T09:57:35.717Z</time></trkpt><trkpt lat="43.7121824" lon="11.1890364"><ele>214.0</ele><time>2026-04-06T09:57:37.716Z</time></trkpt><trkpt lat="43.7120964" lon="11.1890719"><ele>214.0</ele><time>2026-04-06T09:57:39.717Z</time></trkpt><trkpt lat="43.7120051" lon="11.1890823"><ele>214.33333333333331</ele><time>2026-04-06T09:57:41.716Z</time></trkpt><trkpt lat="43.7119233" lon="11.1890959"><ele>214.66666666666666</ele><time>2026-04-06T09:57:43.715Z</time></trkpt><trkpt lat="43.7118416" lon="11.1891058"><ele>215.0</ele><time>2026-04-06T09:57:45.717Z</time></trkpt><trkpt lat="43.711771" lon="11.1891238"><ele>215.33333333333331</ele><time>2026-04-06T09:57:47.716Z</time></trkpt><trkpt lat="43.7116937" lon="11.189129"><ele>215.66666666666666</ele><time>2026-04-06T09:57:49.715Z</time></trkpt><trkpt lat="43.7116128" lon="11.1891269"><ele>216.0</ele><time>2026-04-06T09:57:51.717Z</time></trkpt><trkpt lat="43.7115219" lon="11.1891305"><ele>216.0</ele><time>2026-04-06T09:57:53.716Z</time></trkpt><trkpt lat="43.7114219" lon="11.189139"><ele>216.00000000000003</ele><time>2026-04-06T09:57:55.717Z</time></trkpt><trkpt lat="43.7113218" lon="11.1891342"><ele>216.00000000000003</ele><time>2026-04-06T09:57:57.715Z</time></trkpt><trkpt lat="43.7112227" lon="11.1891245"><ele>216.0</ele><time>2026-04-06T09:57:59.716Z</time></trkpt><trkpt lat="43.7111326" lon="11.1890963"><ele>216.0</ele><time>2026-04-06T09:58:01.716Z</time></trkpt><trkpt lat="43.711047" lon="11.1890639"><ele>215.60000000000002</ele><time>2026-04-06T09:58:03.716Z</time></trkpt><trkpt lat="43.710947" lon="11.1890209"><ele>215.20000000000002</ele><time>2026-04-06T09:58:05.716Z</time></trkpt><trkpt lat="43.7108529" lon="11.1889993"><ele>214.79999999999998</ele><time>2026-04-06T09:58:07.715Z</time></trkpt><trkpt lat="43.7107594" lon="11.1889603"><ele>214.39999999999998</ele><time>2026-04-06T09:58:09.718Z</time></trkpt><trkpt lat="43.7106594" lon="11.1889299"><ele>214.0</ele><time>2026-04-06T09:58:11.716Z</time></trkpt><trkpt lat="43.7105581" lon="11.1888822"><ele>213.79999999999998</ele><time>2026-04-06T09:58:13.716Z</time></trkpt><trkpt lat="43.7104542" lon="11.1888317"><ele>213.59999999999997</ele><time>2026-04-06T09:58:15.717Z</time></trkpt><trkpt lat="43.710356" lon="11.1887751"><ele>213.4</ele><time>2026-04-06T09:58:17.715Z</time></trkpt><trkpt lat="43.7102637" lon="11.1887114"><ele>213.2</ele><time>2026-04-06T09:58:19.716Z</time></trkpt><trkpt lat="43.7101687" lon="11.1886409"><ele>213.0</ele><time>2026-04-06T09:58:21.716Z</time></trkpt><trkpt lat="43.7100712" lon="11.1885726"><ele>213.0</ele><time>2026-04-06T09:58:23.716Z</time></trkpt><trkpt lat="43.709974" lon="11.1884972"><ele>213.0</ele><time>2026-04-06T09:58:25.718Z</time></trkpt><trkpt lat="43.7098862" lon="11.1884244"><ele>213.0</ele><time>2026-04-06T09:58:27.717Z</time></trkpt><trkpt lat="43.7097993" lon="11.1883643"><ele>213.0</ele><time>2026-04-06T09:58:29.717Z</time></trkpt><trkpt lat="43.7097012" lon="11.188282"><ele>213.0</ele><time>2026-04-06T09:58:31.715Z</time></trkpt><trkpt lat="43.709608" lon="11.1882177"><ele>213.0</ele><time>2026-04-06T09:58:33.717Z</time></trkpt><trkpt lat="43.709512" lon="11.1881482"><ele>213.0</ele><time>2026-04-06T09:58:35.716Z</time></trkpt><trkpt lat="43.7094104" lon="11.1880853"><ele>213.0</ele><time>2026-04-06T09:58:37.716Z</time></trkpt><trkpt lat="43.7093179" lon="11.1879959"><ele>213.0</ele><time>2026-04-06T09:58:39.716Z</time></trkpt><trkpt lat="43.709235" lon="11.1879267"><ele>213.0</ele><time>2026-04-06T09:58:41.718Z</time></trkpt><trkpt lat="43.7091573" lon="11.1878575"><ele>213.0</ele><time>2026-04-06T09:58:43.717Z</time></trkpt><trkpt lat="43.7090704" lon="11.1877819"><ele>213.0</ele><time>2026-04-06T09:58:45.716Z</time></trkpt><trkpt lat="43.7089924" lon="11.1877011"><ele>213.0</ele><time>2026-04-06T09:58:47.715Z</time></trkpt><trkpt lat="43.7089097" lon="11.1876191"><ele>213.0</ele><time>2026-04-06T09:58:49.717Z</time></trkpt><trkpt lat="43.7088324" lon="11.1875499"><ele>213.0</ele><time>2026-04-06T09:58:51.717Z</time></trkpt><trkpt lat="43.7087471" lon="11.1874684"><ele>213.0</ele><time>2026-04-06T09:58:53.717Z</time></trkpt><trkpt lat="43.7086724" lon="11.1873864"><ele>213.0</ele><time>2026-04-06T09:58:55.716Z</time></trkpt><trkpt lat="43.7086007" lon="11.187309"><ele>213.0</ele><time>2026-04-06T09:58:57.715Z</time></trkpt><trkpt lat="43.7085179" lon="11.1872424"><ele>213.0</ele><time>2026-04-06T09:58:59.715Z</time></trkpt><trkpt lat="43.7084263" lon="11.1871668"><ele>213.0</ele><time>2026-04-06T09:59:01.717Z</time></trkpt><trkpt lat="43.7083368" lon="11.1871197"><ele>213.8</ele><time>2026-04-06T09:59:03.716Z</time></trkpt><trkpt lat="43.708242" lon="11.1871104"><ele>214.60000000000002</ele><time>2026-04-06T09:59:05.715Z</time></trkpt><trkpt lat="43.7081275" lon="11.1870734"><ele>215.39999999999998</ele><time>2026-04-06T09:59:07.716Z</time></trkpt><trkpt lat="43.7080341" lon="11.1870433"><ele>216.2</ele><time>2026-04-06T09:59:09.717Z</time></trkpt><trkpt lat="43.7079461" lon="11.1870203"><ele>217.0</ele><time>2026-04-06T09:59:11.715Z</time></trkpt><trkpt lat="43.7078506" lon="11.1869789"><ele>217.0</ele><time>2026-04-06T09:59:13.716Z</time></trkpt><trkpt lat="43.7077565" lon="11.1869451"><ele>217.0</ele><time>2026-04-06T09:59:15.716Z</time></trkpt><trkpt lat="43.7076585" lon="11.1869178"><ele>217.0</ele><time>2026-04-06T09:59:17.716Z</time></trkpt><trkpt lat="43.7075649" lon="11.1868986"><ele>217.0</ele><time>2026-04-06T09:59:19.716Z</time></trkpt><trkpt lat="43.7074639" lon="11.1868815"><ele>217.0</ele><time>2026-04-06T09:59:21.716Z</time></trkpt><trkpt lat="43.7073896" lon="11.186862"><ele>218.2</ele><time>2026-04-06T09:59:23.716Z</time></trkpt><trkpt lat="43.7072823" lon="11.1868431"><ele>219.39999999999998</ele><time>2026-04-06T09:59:25.716Z</time></trkpt><trkpt lat="43.7071927" lon="11.1868227"><ele>220.60000000000002</ele><time>2026-04-06T09:59:27.717Z</time></trkpt><trkpt lat="43.7071072" lon="11.1868002"><ele>221.8</ele><time>2026-04-06T09:59:29.717Z</time></trkpt><trkpt lat="43.707023" lon="11.1867623"><ele>223.0</ele><time>2026-04-06T09:59:31.716Z</time></trkpt><trkpt lat="43.7069337" lon="11.1867311"><ele>223.8</ele><time>2026-04-06T09:59:33.716Z</time></trkpt><trkpt lat="43.7068591" lon="11.1866745"><ele>224.60000000000002</ele><time>2026-04-06T09:59:35.715Z</time></trkpt><trkpt lat="43.706766" lon="11.1866017"><ele>225.39999999999998</ele><time>2026-04-06T09:59:37.716Z</time></trkpt><trkpt lat="43.7066961" lon="11.1865369"><ele>226.2</ele><time>2026-04-06T09:59:39.717Z</time></trkpt><trkpt lat="43.7066181" lon="11.1864578"><ele>227.0</ele><time>2026-04-06T09:59:41.716Z</time></trkpt><trkpt lat="43.706539" lon="11.1864107"><ele>227.66666666666669</ele><time>2026-04-06T09:59:43.715Z</time></trkpt><trkpt lat="43.7064678" lon="11.1863873"><ele>228.33333333333334</ele><time>2026-04-06T09:59:45.717Z</time></trkpt><trkpt lat="43.706378" lon="11.1863598"><ele>229.0</ele><time>2026-04-06T09:59:47.718Z</time></trkpt><trkpt lat="43.7062935" lon="11.1863392"><ele>229.66666666666669</ele><time>2026-04-06T09:59:49.717Z</time></trkpt><trkpt lat="43.7062087" lon="11.1863151"><ele>230.33333333333334</ele><time>2026-04-06T09:59:51.715Z</time></trkpt><trkpt lat="43.7061151" lon="11.1862893"><ele>231.0</ele><time>2026-04-06T09:59:53.717Z</time></trkpt><trkpt lat="43.7060294" lon="11.1862472"><ele>231.60000000000002</ele><time>2026-04-06T09:59:55.715Z</time></trkpt><trkpt lat="43.7059405" lon="11.1862407"><ele>232.20000000000002</ele><time>2026-04-06T09:59:57.716Z</time></trkpt><trkpt lat="43.7058532" lon="11.1862382"><ele>232.79999999999998</ele><time>2026-04-06T09:59:59.717Z</time></trkpt><trkpt lat="43.7057572" lon="11.1862073"><ele>233.39999999999998</ele><time>2026-04-06T10:00:01.716Z</time></trkpt><trkpt lat="43.7056662" lon="11.1861948"><ele>234.0</ele><time>2026-04-06T10:00:03.716Z</time></trkpt><trkpt lat="43.7055735" lon="11.1861696"><ele>234.0</ele><time>2026-04-06T10:00:05.716Z</time></trkpt><trkpt lat="43.7054832" lon="11.1861424"><ele>233.99999999999997</ele><time>2026-04-06T10:00:07.717Z</time></trkpt><trkpt lat="43.7054043" lon="11.1861366"><ele>233.99999999999997</ele><time>2026-04-06T10:00:09.716Z</time></trkpt><trkpt lat="43.7053149" lon="11.1860965"><ele>234.0</ele><time>2026-04-06T10:00:11.716Z</time></trkpt><trkpt lat="43.705233" lon="11.1860579"><ele>234.0</ele><time>2026-04-06T10:00:13.715Z</time></trkpt><trkpt lat="43.7051374" lon="11.1860261"><ele>233.66666666666666</ele><time>2026-04-06T10:00:15.716Z</time></trkpt><trkpt lat="43.7050519" lon="11.1859778"><ele>233.33333333333331</ele><time>2026-04-06T10:00:17.716Z</time></trkpt><trkpt lat="43.7049855" lon="11.1859159"><ele>233.0</ele><time>2026-04-06T10:00:19.716Z</time></trkpt><trkpt lat="43.7048982" lon="11.1858757"><ele>232.66666666666666</ele><time>2026-04-06T10:00:21.717Z</time></trkpt><trkpt lat="43.7048134" lon="11.1858606"><ele>232.33333333333331</ele><time>2026-04-06T10:00:23.716Z</time></trkpt><trkpt lat="43.7047259" lon="11.1858441"><ele>232.0</ele><time>2026-04-06T10:00:25.715Z</time></trkpt><trkpt lat="43.7046515" lon="11.1858095"><ele>232.0</ele><time>2026-04-06T10:00:27.717Z</time></trkpt><trkpt lat="43.7045609" lon="11.1857731"><ele>232.0</ele><time>2026-04-06T10:00:29.715Z</time></trkpt><trkpt lat="43.7044639" lon="11.1857404"><ele>232.0</ele><time>2026-04-06T10:00:31.717Z</time></trkpt><trkpt lat="43.7043721" lon="11.185702"><ele>232.0</ele><time>2026-04-06T10:00:33.717Z</time></trkpt><trkpt lat="43.704282" lon="11.1856869"><ele>232.0</ele><time>2026-04-06T10:00:35.716Z</time></trkpt><trkpt lat="43.7041918" lon="11.1856801"><ele>231.8</ele><time>2026-04-06T10:00:37.716Z</time></trkpt><trkpt lat="43.7041012" lon="11.185668"><ele>231.6</ele><time>2026-04-06T10:00:39.715Z</time></trkpt><trkpt lat="43.7040034" lon="11.1856677"><ele>231.40000000000003</ele><time>2026-04-06T10:00:41.715Z</time></trkpt><trkpt lat="43.7039115" lon="11.1856619"><ele>231.20000000000002</ele><time>2026-04-06T10:00:43.716Z</time></trkpt><trkpt lat="43.703818" lon="11.1856727"><ele>231.0</ele><time>2026-04-06T10:00:45.716Z</time></trkpt><trkpt lat="43.7037377" lon="11.185675"><ele>231.0</ele><time>2026-04-06T10:00:47.717Z</time></trkpt><trkpt lat="43.7036611" lon="11.1856709"><ele>231.0</ele><time>2026-04-06T10:00:49.715Z</time></trkpt><trkpt lat="43.7035938" lon="11.1856794"><ele>231.0</ele><time>2026-04-06T10:00:51.716Z</time></trkpt><trkpt lat="43.7035052" lon="11.1856796"><ele>231.0</ele><time>2026-04-06T10:00:53.716Z</time></trkpt><trkpt lat="43.7034276" lon="11.1856932"><ele>231.0</ele><time>2026-04-06T10:00:55.717Z</time></trkpt><trkpt lat="43.7033489" lon="11.1856952"><ele>231.0</ele><time>2026-04-06T10:00:57.716Z</time></trkpt><trkpt lat="43.7032814" lon="11.1856946"><ele>231.42857142857144</ele><time>2026-04-06T10:00:59.716Z</time></trkpt><trkpt lat="43.703221" lon="11.18572"><ele>231.85714285714286</ele><time>2026-04-06T10:01:02.717Z</time></trkpt><trkpt lat="43.7032661" lon="11.1857893"><ele>232.28571428571428</ele><time>2026-04-06T10:01:07.716Z</time></trkpt><trkpt lat="43.7032034" lon="11.1857407"><ele>232.71428571428572</ele><time>2026-04-06T10:06:43.715Z</time></trkpt><trkpt lat="43.7031697" lon="11.1856481"><ele>233.14285714285717</ele><time>2026-04-06T10:06:46.715Z</time></trkpt><trkpt lat="43.7031016" lon="11.1856145"><ele>233.57142857142858</ele><time>2026-04-06T10:06:48.715Z</time></trkpt><trkpt lat="43.7030259" lon="11.1856256"><ele>234.0</ele><time>2026-04-06T10:06:50.715Z</time></trkpt><trkpt lat="43.7029433" lon="11.1856733"><ele>234.0</ele><time>2026-04-06T10:06:52.715Z</time></trkpt><trkpt lat="43.7028633" lon="11.1856846"><ele>234.0</ele><time>2026-04-06T10:06:54.715Z</time></trkpt><trkpt lat="43.7027811" lon="11.1856982"><ele>234.0</ele><time>2026-04-06T10:06:56.715Z</time></trkpt><trkpt lat="43.7026975" lon="11.1857249"><ele>234.0</ele><time>2026-04-06T10:06:58.715Z</time></trkpt><trkpt lat="43.702618" lon="11.1857485"><ele>234.0</ele><time>2026-04-06T10:07:00.715Z</time></trkpt><trkpt lat="43.7025413" lon="11.1857781"><ele>234.0</ele><time>2026-04-06T10:07:02.715Z</time></trkpt><trkpt lat="43.7024586" lon="11.1858154"><ele>233.66666666666666</ele><time>2026-04-06T10:07:04.715Z</time></trkpt><trkpt lat="43.7023784" lon="11.1858481"><ele>233.33333333333331</ele><time>2026-04-06T10:07:06.715Z</time></trkpt><trkpt lat="43.7022792" lon="11.1858909"><ele>233.0</ele><time>2026-04-06T10:07:08.715Z</time></trkpt><trkpt lat="43.7022053" lon="11.1859012"><ele>232.66666666666666</ele><time>2026-04-06T10:07:10.716Z</time></trkpt><trkpt lat="43.7021298" lon="11.1859021"><ele>232.33333333333331</ele><time>2026-04-06T10:07:12.715Z</time></trkpt><trkpt lat="43.7020539" lon="11.1859054"><ele>232.0</ele><time>2026-04-06T10:07:14.714Z</time></trkpt><trkpt lat="43.7019769" lon="11.1858936"><ele>232.33333333333331</ele><time>2026-04-06T10:07:16.715Z</time></trkpt><trkpt lat="43.701903" lon="11.1858584"><ele>232.66666666666666</ele><time>2026-04-06T10:07:18.715Z</time></trkpt><trkpt lat="43.7018296" lon="11.1858235"><ele>233.0</ele><time>2026-04-06T10:07:20.716Z</time></trkpt><trkpt lat="43.7017546" lon="11.1857863"><ele>233.33333333333331</ele><time>2026-04-06T10:07:22.715Z</time></trkpt><trkpt lat="43.7016812" lon="11.1857283"><ele>233.66666666666666</ele><time>2026-04-06T10:07:24.714Z</time></trkpt><trkpt lat="43.7016134" lon="11.185675"><ele>234.0</ele><time>2026-04-06T10:07:26.715Z</time></trkpt><trkpt lat="43.7015474" lon="11.1856295"><ele>234.0</ele><time>2026-04-06T10:07:28.714Z</time></trkpt><trkpt lat="43.701479" lon="11.1855838"><ele>234.0</ele><time>2026-04-06T10:07:30.714Z</time></trkpt><trkpt lat="43.7014029" lon="11.1855419"><ele>234.0</ele><time>2026-04-06T10:07:32.714Z</time></trkpt><trkpt lat="43.7013266" lon="11.1854938"><ele>234.0</ele><time>2026-04-06T10:07:34.715Z</time></trkpt><trkpt lat="43.7012473" lon="11.1854487"><ele>234.0</ele><time>2026-04-06T10:07:36.715Z</time></trkpt><trkpt lat="43.7011697" lon="11.1854029"><ele>234.0</ele><time>2026-04-06T10:07:38.715Z</time></trkpt><trkpt lat="43.7010938" lon="11.185356"><ele>233.79999999999998</ele><time>2026-04-06T10:07:40.714Z</time></trkpt><trkpt lat="43.7010101" lon="11.1853067"><ele>233.59999999999997</ele><time>2026-04-06T10:07:42.714Z</time></trkpt><trkpt lat="43.7009237" lon="11.1852529"><ele>233.4</ele><time>2026-04-06T10:07:44.714Z</time></trkpt><trkpt lat="43.7008268" lon="11.1852065"><ele>233.2</ele><time>2026-04-06T10:07:46.715Z</time></trkpt><trkpt lat="43.7007369" lon="11.1851464"><ele>233.0</ele><time>2026-04-06T10:07:48.715Z</time></trkpt><trkpt lat="43.7006524" lon="11.1850907"><ele>233.00000000000003</ele><time>2026-04-06T10:07:50.714Z</time></trkpt><trkpt lat="43.7005675" lon="11.1850382"><ele>233.0</ele><time>2026-04-06T10:07:52.715Z</time></trkpt><trkpt lat="43.700482" lon="11.1850031"><ele>233.0</ele><time>2026-04-06T10:07:54.715Z</time></trkpt><trkpt lat="43.7004001" lon="11.1849776"><ele>233.0</ele><time>2026-04-06T10:07:56.715Z</time></trkpt><trkpt lat="43.7003148" lon="11.1849455"><ele>233.00000000000003</ele><time>2026-04-06T10:07:58.714Z</time></trkpt><trkpt lat="43.7002356" lon="11.1849083"><ele>233.0</ele><time>2026-04-06T10:08:00.714Z</time></trkpt><trkpt lat="43.7001309" lon="11.1849007"><ele>233.16666666666669</ele><time>2026-04-06T10:08:02.715Z</time></trkpt><trkpt lat="43.7000384" lon="11.184889"><ele>233.33333333333334</ele><time>2026-04-06T10:08:04.715Z</time></trkpt><trkpt lat="43.6999442" lon="11.1848851"><ele>233.5</ele><time>2026-04-06T10:08:06.715Z</time></trkpt><trkpt lat="43.6998596" lon="11.1848692"><ele>233.66666666666669</ele><time>2026-04-06T10:08:08.716Z</time></trkpt><trkpt lat="43.6997857" lon="11.1848657"><ele>233.83333333333334</ele><time>2026-04-06T10:08:10.714Z</time></trkpt><trkpt lat="43.6997047" lon="11.1848431"><ele>234.0</ele><time>2026-04-06T10:08:12.715Z</time></trkpt><trkpt lat="43.6996198" lon="11.184837"><ele>234.0</ele><time>2026-04-06T10:08:14.715Z</time></trkpt><trkpt lat="43.6995356" lon="11.1848373"><ele>234.0</ele><time>2026-04-06T10:08:16.714Z</time></trkpt><trkpt lat="43.6994586" lon="11.1848533"><ele>234.0</ele><time>2026-04-06T10:08:18.714Z</time></trkpt><trkpt lat="43.6993783" lon="11.1848835"><ele>234.0</ele><time>2026-04-06T10:08:20.714Z</time></trkpt><trkpt lat="43.6992992" lon="11.1849214"><ele>234.0</ele><time>2026-04-06T10:08:22.714Z</time></trkpt><trkpt lat="43.6992264" lon="11.1849656"><ele>234.0</ele><time>2026-04-06T10:08:24.715Z</time></trkpt><trkpt lat="43.6991538" lon="11.1850088"><ele>234.0</ele><time>2026-04-06T10:08:26.715Z</time></trkpt><trkpt lat="43.6990741" lon="11.1850494"><ele>234.0</ele><time>2026-04-06T10:08:28.715Z</time></trkpt><trkpt lat="43.6989847" lon="11.1850672"><ele>234.0</ele><time>2026-04-06T10:08:30.714Z</time></trkpt><trkpt lat="43.6988948" lon="11.1850761"><ele>234.0</ele><time>2026-04-06T10:08:32.716Z</time></trkpt><trkpt lat="43.6988076" lon="11.1850651"><ele>234.0</ele><time>2026-04-06T10:08:34.715Z</time></trkpt><trkpt lat="43.6987243" lon="11.1850243"><ele>234.0</ele><time>2026-04-06T10:08:36.713Z</time></trkpt><trkpt lat="43.6986528" lon="11.1849562"><ele>234.0</ele><time>2026-04-06T10:08:38.714Z</time></trkpt><trkpt lat="43.6985934" lon="11.1848797"><ele>234.0</ele><time>2026-04-06T10:08:40.714Z</time></trkpt><trkpt lat="43.6985373" lon="11.184794"><ele>234.0</ele><time>2026-04-06T10:08:42.714Z</time></trkpt><trkpt lat="43.6984849" lon="11.1847084"><ele>234.0</ele><time>2026-04-06T10:08:44.716Z</time></trkpt><trkpt lat="43.6984385" lon="11.1846249"><ele>234.0</ele><time>2026-04-06T10:08:46.715Z</time></trkpt><trkpt lat="43.6983867" lon="11.1845482"><ele>234.0</ele><time>2026-04-06T10:08:48.716Z</time></trkpt><trkpt lat="43.6983205" lon="11.1844749"><ele>234.83333333333334</ele><time>2026-04-06T10:08:50.715Z</time></trkpt><trkpt lat="43.6982502" lon="11.1844038"><ele>235.66666666666669</ele><time>2026-04-06T10:08:52.714Z</time></trkpt><trkpt lat="43.698175" lon="11.1843453"><ele>236.5</ele><time>2026-04-06T10:08:54.715Z</time></trkpt><trkpt lat="43.6981064" lon="11.1842861"><ele>237.33333333333334</ele><time>2026-04-06T10:08:56.714Z</time></trkpt><trkpt lat="43.6980399" lon="11.1842319"><ele>238.16666666666669</ele><time>2026-04-06T10:08:58.714Z</time></trkpt><trkpt lat="43.6979693" lon="11.184183"><ele>239.0</ele><time>2026-04-06T10:09:00.714Z</time></trkpt><trkpt lat="43.6978931" lon="11.1841395"><ele>239.00000000000003</ele><time>2026-04-06T10:09:02.715Z</time></trkpt><trkpt lat="43.6978138" lon="11.1841049"><ele>239.0</ele><time>2026-04-06T10:09:04.713Z</time></trkpt><trkpt lat="43.6977346" lon="11.1840785"><ele>239.0</ele><time>2026-04-06T10:09:06.714Z</time></trkpt><trkpt lat="43.6976412" lon="11.1840872"><ele>239.0</ele><time>2026-04-06T10:09:08.713Z</time></trkpt><trkpt lat="43.6975709" lon="11.1840652"><ele>239.00000000000003</ele><time>2026-04-06T10:09:10.714Z</time></trkpt><trkpt lat="43.697466" lon="11.1840585"><ele>239.0</ele><time>2026-04-06T10:09:12.715Z</time></trkpt><trkpt lat="43.697392" lon="11.1840238"><ele>237.83333333333334</ele><time>2026-04-06T10:09:14.715Z</time></trkpt><trkpt lat="43.697301" lon="11.1840045"><ele>236.66666666666669</ele><time>2026-04-06T10:09:16.713Z</time></trkpt><trkpt lat="43.6972238" lon="11.1839821"><ele>235.5</ele><time>2026-04-06T10:09:18.714Z</time></trkpt><trkpt lat="43.6971547" lon="11.1839686"><ele>234.33333333333331</ele><time>2026-04-06T10:09:19.714Z</time></trkpt><trkpt lat="43.6970833" lon="11.1839493"><ele>233.16666666666666</ele><time>2026-04-06T10:09:21.715Z</time></trkpt><trkpt lat="43.6970014" lon="11.1839296"><ele>232.0</ele><time>2026-04-06T10:09:23.714Z</time></trkpt><trkpt lat="43.6969257" lon="11.1839171"><ele>232.66666666666666</ele><time>2026-04-06T10:09:25.715Z</time></trkpt><trkpt lat="43.6968418" lon="11.1839143"><ele>233.33333333333331</ele><time>2026-04-06T10:09:27.714Z</time></trkpt><trkpt lat="43.6967558" lon="11.1839155"><ele>234.0</ele><time>2026-04-06T10:09:29.715Z</time></trkpt><trkpt lat="43.6966741" lon="11.1839319"><ele>234.66666666666669</ele><time>2026-04-06T10:09:31.714Z</time></trkpt><trkpt lat="43.6965904" lon="11.1839482"><ele>235.33333333333334</ele><time>2026-04-06T10:09:33.716Z</time></trkpt><trkpt lat="43.6965072" lon="11.1839659"><ele>236.0</ele><time>2026-04-06T10:09:35.714Z</time></trkpt><trkpt lat="43.6964231" lon="11.1839771"><ele>236.00000000000003</ele><time>2026-04-06T10:09:37.716Z</time></trkpt><trkpt lat="43.6963388" lon="11.1839897"><ele>236.0</ele><time>2026-04-06T10:09:39.714Z</time></trkpt><trkpt lat="43.6962558" lon="11.1839993"><ele>236.0</ele><time>2026-04-06T10:09:41.716Z</time></trkpt><trkpt lat="43.6961694" lon="11.1840081"><ele>236.0</ele><time>2026-04-06T10:09:43.714Z</time></trkpt><trkpt lat="43.6960813" lon="11.1840098"><ele>236.00000000000003</ele><time>2026-04-06T10:09:45.715Z</time></trkpt><trkpt lat="43.6959935" lon="11.1840047"><ele>236.0</ele><time>2026-04-06T10:09:47.714Z</time></trkpt><trkpt lat="43.6959068" lon="11.1839955"><ele>236.50000000000003</ele><time>2026-04-06T10:09:49.713Z</time></trkpt><trkpt lat="43.6958194" lon="11.1839838"><ele>237.0</ele><time>2026-04-06T10:09:51.714Z</time></trkpt><trkpt lat="43.695733" lon="11.1839757"><ele>237.5</ele><time>2026-04-06T10:09:53.715Z</time></trkpt><trkpt lat="43.6956435" lon="11.1839817"><ele>238.0</ele><time>2026-04-06T10:09:55.716Z</time></trkpt><trkpt lat="43.6955566" lon="11.183983"><ele>238.50000000000003</ele><time>2026-04-06T10:09:57.716Z</time></trkpt><trkpt lat="43.6954642" lon="11.1839788"><ele>239.0</ele><time>2026-04-06T10:09:59.713Z</time></trkpt><trkpt lat="43.695372" lon="11.1839893"><ele>239.0</ele><time>2026-04-06T10:10:01.715Z</time></trkpt><trkpt lat="43.6952818" lon="11.1840041"><ele>238.99999999999997</ele><time>2026-04-06T10:10:03.714Z</time></trkpt><trkpt lat="43.6951975" lon="11.1840232"><ele>238.99999999999997</ele><time>2026-04-06T10:10:05.715Z</time></trkpt><trkpt lat="43.6951125" lon="11.1840434"><ele>239.0</ele><time>2026-04-06T10:10:07.713Z</time></trkpt><trkpt lat="43.6950167" lon="11.1840785"><ele>239.0</ele><time>2026-04-06T10:10:09.714Z</time></trkpt><trkpt lat="43.6949232" lon="11.1840998"><ele>238.79999999999998</ele><time>2026-04-06T10:10:11.714Z</time></trkpt><trkpt lat="43.694833" lon="11.1841244"><ele>238.59999999999997</ele><time>2026-04-06T10:10:13.714Z</time></trkpt><trkpt lat="43.6947426" lon="11.1841717"><ele>238.4</ele><time>2026-04-06T10:10:15.714Z</time></trkpt><trkpt lat="43.6946562" lon="11.1841989"><ele>238.2</ele><time>2026-04-06T10:10:17.714Z</time></trkpt><trkpt lat="43.6945709" lon="11.1842298"><ele>238.0</ele><time>2026-04-06T10:10:19.715Z</time></trkpt><trkpt lat="43.69448" lon="11.1842576"><ele>238.2</ele><time>2026-04-06T10:10:21.715Z</time></trkpt><trkpt lat="43.694403" lon="11.1842742"><ele>238.4</ele><time>2026-04-06T10:10:23.713Z</time></trkpt><trkpt lat="43.6943117" lon="11.1843035"><ele>238.59999999999997</ele><time>2026-04-06T10:10:25.713Z</time></trkpt><trkpt lat="43.6942115" lon="11.1843133"><ele>238.79999999999998</ele><time>2026-04-06T10:10:27.714Z</time></trkpt><trkpt lat="43.6941187" lon="11.1842885"><ele>239.0</ele><time>2026-04-06T10:10:29.713Z</time></trkpt><trkpt lat="43.6940282" lon="11.1842586"><ele>239.0</ele><time>2026-04-06T10:10:31.715Z</time></trkpt><trkpt lat="43.6939439" lon="11.184213"><ele>238.99999999999997</ele><time>2026-04-06T10:10:33.714Z</time></trkpt><trkpt lat="43.693867" lon="11.1841577"><ele>238.99999999999997</ele><time>2026-04-06T10:10:35.715Z</time></trkpt><trkpt lat="43.6937905" lon="11.1840862"><ele>239.0</ele><time>2026-04-06T10:10:37.714Z</time></trkpt><trkpt lat="43.6937106" lon="11.1840034"><ele>239.0</ele><time>2026-04-06T10:10:39.715Z</time></trkpt><trkpt lat="43.6936391" lon="11.1839106"><ele>239.39999999999998</ele><time>2026-04-06T10:10:41.715Z</time></trkpt><trkpt lat="43.6935553" lon="11.1838239"><ele>239.79999999999998</ele><time>2026-04-06T10:10:43.714Z</time></trkpt><trkpt lat="43.6934874" lon="11.1837353"><ele>240.20000000000002</ele><time>2026-04-06T10:10:45.715Z</time></trkpt><trkpt lat="43.6934085" lon="11.1836439"><ele>240.60000000000002</ele><time>2026-04-06T10:10:47.714Z</time></trkpt><trkpt lat="43.693343" lon="11.1835631"><ele>241.0</ele><time>2026-04-06T10:10:49.714Z</time></trkpt><trkpt lat="43.693269" lon="11.1834692"><ele>241.0</ele><time>2026-04-06T10:10:51.714Z</time></trkpt><trkpt lat="43.6931974" lon="11.1833906"><ele>241.00000000000003</ele><time>2026-04-06T10:10:53.714Z</time></trkpt><trkpt lat="43.6931184" lon="11.1833209"><ele>241.00000000000003</ele><time>2026-04-06T10:10:55.714Z</time></trkpt><trkpt lat="43.6930325" lon="11.183252"><ele>241.0</ele><time>2026-04-06T10:10:57.714Z</time></trkpt><trkpt lat="43.692956" lon="11.183199"><ele>241.0</ele><time>2026-04-06T10:10:59.714Z</time></trkpt><trkpt lat="43.6928908" lon="11.1831332"><ele>241.20000000000002</ele><time>2026-04-06T10:11:01.715Z</time></trkpt><trkpt lat="43.6928206" lon="11.18306"><ele>241.40000000000003</ele><time>2026-04-06T10:11:03.714Z</time></trkpt><trkpt lat="43.6927446" lon="11.1829753"><ele>241.6</ele><time>2026-04-06T10:11:05.713Z</time></trkpt><trkpt lat="43.692663" lon="11.1829101"><ele>241.8</ele><time>2026-04-06T10:11:07.713Z</time></trkpt><trkpt lat="43.6925921" lon="11.1828428"><ele>242.0</ele><time>2026-04-06T10:11:09.715Z</time></trkpt><trkpt lat="43.692514" lon="11.1827563"><ele>242.0</ele><time>2026-04-06T10:11:11.714Z</time></trkpt><trkpt lat="43.6924183" lon="11.1826779"><ele>242.0</ele><time>2026-04-06T10:11:13.713Z</time></trkpt><trkpt lat="43.6923266" lon="11.1825985"><ele>242.0</ele><time>2026-04-06T10:11:15.715Z</time></trkpt><trkpt lat="43.6922445" lon="11.1825279"><ele>242.0</ele><time>2026-04-06T10:11:17.714Z</time></trkpt><trkpt lat="43.6921594" lon="11.1824695"><ele>242.0</ele><time>2026-04-06T10:11:19.714Z</time></trkpt><trkpt lat="43.6920816" lon="11.1824202"><ele>242.00000000000003</ele><time>2026-04-06T10:11:21.715Z</time></trkpt><trkpt lat="43.6920134" lon="11.182367"><ele>242.0</ele><time>2026-04-06T10:11:23.714Z</time></trkpt><trkpt lat="43.691929" lon="11.182329"><ele>242.0</ele><time>2026-04-06T10:11:25.713Z</time></trkpt><trkpt lat="43.6918398" lon="11.1822887"><ele>242.0</ele><time>2026-04-06T10:11:27.713Z</time></trkpt><trkpt lat="43.6917581" lon="11.1822387"><ele>242.00000000000003</ele><time>2026-04-06T10:11:29.714Z</time></trkpt><trkpt lat="43.6916739" lon="11.1821832"><ele>242.0</ele><time>2026-04-06T10:11:31.714Z</time></trkpt><trkpt lat="43.6915936" lon="11.1821082"><ele>241.33333333333334</ele><time>2026-04-06T10:11:33.715Z</time></trkpt><trkpt lat="43.6915105" lon="11.1820382"><ele>240.66666666666669</ele><time>2026-04-06T10:11:35.714Z</time></trkpt><trkpt lat="43.6914354" lon="11.1819643"><ele>240.0</ele><time>2026-04-06T10:11:37.714Z</time></trkpt><trkpt lat="43.691374" lon="11.1818916"><ele>239.33333333333331</ele><time>2026-04-06T10:11:39.713Z</time></trkpt><trkpt lat="43.6913043" lon="11.1818189"><ele>238.66666666666666</ele><time>2026-04-06T10:11:41.713Z</time></trkpt><trkpt lat="43.6912431" lon="11.1817573"><ele>238.0</ele><time>2026-04-06T10:11:43.716Z</time></trkpt><trkpt lat="43.6911784" lon="11.1816873"><ele>237.99999999999997</ele><time>2026-04-06T10:11:45.714Z</time></trkpt><trkpt lat="43.691109" lon="11.1816173"><ele>238.0</ele><time>2026-04-06T10:11:47.715Z</time></trkpt><trkpt lat="43.6910405" lon="11.1815593"><ele>238.0</ele><time>2026-04-06T10:11:49.714Z</time></trkpt><trkpt lat="43.6909642" lon="11.181516"><ele>238.0</ele><time>2026-04-06T10:11:51.713Z</time></trkpt><trkpt lat="43.6908887" lon="11.1814856"><ele>237.99999999999997</ele><time>2026-04-06T10:11:53.714Z</time></trkpt><trkpt lat="43.6908138" lon="11.1814721"><ele>238.0</ele><time>2026-04-06T10:11:55.714Z</time></trkpt><trkpt lat="43.6907397" lon="11.1814736"><ele>239.99999999999997</ele><time>2026-04-06T10:11:57.715Z</time></trkpt><trkpt lat="43.69066" lon="11.1814791"><ele>242.0</ele><time>2026-04-06T10:11:59.714Z</time></trkpt><trkpt lat="43.690579" lon="11.1814743"><ele>244.0</ele><time>2026-04-06T10:12:01.714Z</time></trkpt><trkpt lat="43.690493" lon="11.1814689"><ele>246.0</ele><time>2026-04-06T10:12:03.714Z</time></trkpt><trkpt lat="43.6904048" lon="11.18145"><ele>247.99999999999997</ele><time>2026-04-06T10:12:05.714Z</time></trkpt><trkpt lat="43.6903347" lon="11.1814413"><ele>250.0</ele><time>2026-04-06T10:12:07.714Z</time></trkpt><trkpt lat="43.6902637" lon="11.1814317"><ele>250.99999999999997</ele><time>2026-04-06T10:12:09.714Z</time></trkpt><trkpt lat="43.6901836" lon="11.181437"><ele>252.0</ele><time>2026-04-06T10:12:11.714Z</time></trkpt><trkpt lat="43.6901061" lon="11.1814189"><ele>253.0</ele><time>2026-04-06T10:12:13.714Z</time></trkpt><trkpt lat="43.6900262" lon="11.1813898"><ele>254.0</ele><time>2026-04-06T10:12:15.713Z</time></trkpt><trkpt lat="43.6899381" lon="11.181368"><ele>254.99999999999997</ele><time>2026-04-06T10:12:17.714Z</time></trkpt><trkpt lat="43.6898542" lon="11.1813482"><ele>256.0</ele><time>2026-04-06T10:12:19.714Z</time></trkpt><trkpt lat="43.6897704" lon="11.181322"><ele>255.99999999999997</ele><time>2026-04-06T10:12:21.713Z</time></trkpt><trkpt lat="43.6896828" lon="11.1812984"><ele>256.0</ele><time>2026-04-06T10:12:23.714Z</time></trkpt><trkpt lat="43.6895968" lon="11.1812824"><ele>256.0</ele><time>2026-04-06T10:12:25.713Z</time></trkpt><trkpt lat="43.6895153" lon="11.1812852"><ele>256.0</ele><time>2026-04-06T10:12:27.714Z</time></trkpt><trkpt lat="43.6894354" lon="11.1813163"><ele>255.99999999999997</ele><time>2026-04-06T10:12:29.714Z</time></trkpt><trkpt lat="43.6893571" lon="11.1813597"><ele>256.0</ele><time>2026-04-06T10:12:31.715Z</time></trkpt><trkpt lat="43.6892799" lon="11.1813975"><ele>256.42857142857144</ele><time>2026-04-06T10:12:33.714Z</time></trkpt><trkpt lat="43.6892138" lon="11.1814385"><ele>256.85714285714283</ele><time>2026-04-06T10:12:35.715Z</time></trkpt><trkpt lat="43.6891479" lon="11.1814756"><ele>257.2857142857143</ele><time>2026-04-06T10:12:37.713Z</time></trkpt><trkpt lat="43.6890831" lon="11.1814972"><ele>257.7142857142857</ele><time>2026-04-06T10:12:39.714Z</time></trkpt><trkpt lat="43.6890201" lon="11.1815136"><ele>258.1428571428571</ele><time>2026-04-06T10:12:41.714Z</time></trkpt><trkpt lat="43.6889575" lon="11.1815429"><ele>258.57142857142856</ele><time>2026-04-06T10:12:43.714Z</time></trkpt><trkpt lat="43.6888982" lon="11.1815836"><ele>259.0</ele><time>2026-04-06T10:12:45.713Z</time></trkpt><trkpt lat="43.6888462" lon="11.1816359"><ele>259.2857142857143</ele><time>2026-04-06T10:12:47.713Z</time></trkpt><trkpt lat="43.6888007" lon="11.1817065"><ele>259.57142857142856</ele><time>2026-04-06T10:12:49.714Z</time></trkpt><trkpt lat="43.6887554" lon="11.1817862"><ele>259.8571428571429</ele><time>2026-04-06T10:12:51.714Z</time></trkpt><trkpt lat="43.6887107" lon="11.1818623"><ele>260.1428571428571</ele><time>2026-04-06T10:12:53.713Z</time></trkpt><trkpt lat="43.6886684" lon="11.1819329"><ele>260.42857142857144</ele><time>2026-04-06T10:12:55.713Z</time></trkpt><trkpt lat="43.6886247" lon="11.1820048"><ele>260.7142857142857</ele><time>2026-04-06T10:12:57.715Z</time></trkpt><trkpt lat="43.6885852" lon="11.1820791"><ele>261.0</ele><time>2026-04-06T10:12:59.713Z</time></trkpt><trkpt lat="43.6885457" lon="11.1821543"><ele>261.57142857142856</ele><time>2026-04-06T10:13:01.714Z</time></trkpt><trkpt lat="43.6885032" lon="11.1822306"><ele>262.1428571428571</ele><time>2026-04-06T10:13:03.713Z</time></trkpt><trkpt lat="43.6884573" lon="11.1823037"><ele>262.71428571428567</ele><time>2026-04-06T10:13:05.713Z</time></trkpt><trkpt lat="43.6884101" lon="11.1823793"><ele>263.2857142857143</ele><time>2026-04-06T10:13:07.714Z</time></trkpt><trkpt lat="43.6883675" lon="11.1824557"><ele>263.85714285714283</ele><time>2026-04-06T10:13:09.713Z</time></trkpt><trkpt lat="43.6883321" lon="11.1825316"><ele>264.4285714285714</ele><time>2026-04-06T10:13:11.713Z</time></trkpt><trkpt lat="43.6882985" lon="11.1826206"><ele>265.0</ele><time>2026-04-06T10:13:13.714Z</time></trkpt><trkpt lat="43.6882716" lon="11.1827068"><ele>265.71428571428567</ele><time>2026-04-06T10:13:15.715Z</time></trkpt><trkpt lat="43.6882391" lon="11.1827907"><ele>266.42857142857144</ele><time>2026-04-06T10:13:17.713Z</time></trkpt><trkpt lat="43.6882043" lon="11.1828813"><ele>267.1428571428571</ele><time>2026-04-06T10:13:19.714Z</time></trkpt><trkpt lat="43.6881717" lon="11.1829808"><ele>267.85714285714283</ele><time>2026-04-06T10:13:21.713Z</time></trkpt><trkpt lat="43.6881442" lon="11.1830721"><ele>268.57142857142856</ele><time>2026-04-06T10:13:23.714Z</time></trkpt><trkpt lat="43.6881181" lon="11.1831683"><ele>269.2857142857143</ele><time>2026-04-06T10:13:25.713Z</time></trkpt><trkpt lat="43.6881007" lon="11.1832633"><ele>270.0</ele><time>2026-04-06T10:13:27.714Z</time></trkpt><trkpt lat="43.6880893" lon="11.1833605"><ele>270.0</ele><time>2026-04-06T10:13:29.715Z</time></trkpt><trkpt lat="43.6880871" lon="11.1834661"><ele>270.0</ele><time>2026-04-06T10:13:31.713Z</time></trkpt><trkpt lat="43.6880824" lon="11.1835912"><ele>270.0</ele><time>2026-04-06T10:13:33.714Z</time></trkpt><trkpt lat="43.6880732" lon="11.183718"><ele>270.0</ele><time>2026-04-06T10:13:35.714Z</time></trkpt><trkpt lat="43.6880566" lon="11.1838024"><ele>270.0</ele><time>2026-04-06T10:13:36.716Z</time></trkpt><trkpt lat="43.6880523" lon="11.1839241"><ele>270.0</ele><time>2026-04-06T10:13:38.714Z</time></trkpt><trkpt lat="43.688011" lon="11.1840227"><ele>269.4</ele><time>2026-04-06T10:13:40.712Z</time></trkpt><trkpt lat="43.6879625" lon="11.1841492"><ele>268.8</ele><time>2026-04-06T10:13:42.713Z</time></trkpt><trkpt lat="43.6879131" lon="11.1842492"><ele>268.2</ele><time>2026-04-06T10:13:44.713Z</time></trkpt><trkpt lat="43.6878166" lon="11.1843341"><ele>267.6</ele><time>2026-04-06T10:13:46.713Z</time></trkpt><trkpt lat="43.6877526" lon="11.1844284"><ele>267.0</ele><time>2026-04-06T10:13:48.713Z</time></trkpt><trkpt lat="43.6876729" lon="11.1844868"><ele>267.0</ele><time>2026-04-06T10:13:50.713Z</time></trkpt><trkpt lat="43.6875941" lon="11.184519"><ele>267.0</ele><time>2026-04-06T10:13:52.715Z</time></trkpt><trkpt lat="43.6875166" lon="11.1845423"><ele>267.0</ele><time>2026-04-06T10:13:54.713Z</time></trkpt><trkpt lat="43.6874482" lon="11.1845675"><ele>267.0</ele><time>2026-04-06T10:13:56.713Z</time></trkpt><trkpt lat="43.6873877" lon="11.1845966"><ele>267.0</ele><time>2026-04-06T10:13:58.714Z</time></trkpt><trkpt lat="43.6872846" lon="11.1846168"><ele>267.0</ele><time>2026-04-06T10:14:00.713Z</time></trkpt><trkpt lat="43.6871911" lon="11.1846471"><ele>267.0</ele><time>2026-04-06T10:14:02.713Z</time></trkpt><trkpt lat="43.6870857" lon="11.184667"><ele>267.0</ele><time>2026-04-06T10:14:04.714Z</time></trkpt><trkpt lat="43.6869968" lon="11.1846709"><ele>267.0</ele><time>2026-04-06T10:14:06.714Z</time></trkpt><trkpt lat="43.6868955" lon="11.1846677"><ele>267.0</ele><time>2026-04-06T10:14:08.714Z</time></trkpt><trkpt lat="43.686817" lon="11.1846823"><ele>267.0</ele><time>2026-04-06T10:14:10.714Z</time></trkpt><trkpt lat="43.6866976" lon="11.1846809"><ele>266.6</ele><time>2026-04-06T10:14:12.714Z</time></trkpt><trkpt lat="43.6866194" lon="11.1846565"><ele>266.2</ele><time>2026-04-06T10:14:14.712Z</time></trkpt><trkpt lat="43.6865164" lon="11.1846574"><ele>265.8</ele><time>2026-04-06T10:14:16.714Z</time></trkpt><trkpt lat="43.6864167" lon="11.1846606"><ele>265.4</ele><time>2026-04-06T10:14:18.713Z</time></trkpt><trkpt lat="43.6863272" lon="11.1846836"><ele>265.0</ele><time>2026-04-06T10:14:20.713Z</time></trkpt><trkpt lat="43.68625" lon="11.1847201"><ele>265.0</ele><time>2026-04-06T10:14:22.712Z</time></trkpt><trkpt lat="43.6861767" lon="11.1847697"><ele>265.0</ele><time>2026-04-06T10:14:24.712Z</time></trkpt><trkpt lat="43.6860883" lon="11.1848519"><ele>265.0</ele><time>2026-04-06T10:14:26.713Z</time></trkpt><trkpt lat="43.6860349" lon="11.1849349"><ele>265.0</ele><time>2026-04-06T10:14:28.713Z</time></trkpt><trkpt lat="43.6859909" lon="11.1850412"><ele>265.0</ele><time>2026-04-06T10:14:30.714Z</time></trkpt><trkpt lat="43.6859553" lon="11.1851518"><ele>265.0</ele><time>2026-04-06T10:14:32.713Z</time></trkpt><trkpt lat="43.6859009" lon="11.1852438"><ele>265.0</ele><time>2026-04-06T10:14:34.714Z</time></trkpt><trkpt lat="43.6858648" lon="11.1853381"><ele>265.0</ele><time>2026-04-06T10:14:36.713Z</time></trkpt><trkpt lat="43.6858202" lon="11.1854325"><ele>265.0</ele><time>2026-04-06T10:14:38.712Z</time></trkpt><trkpt lat="43.6857938" lon="11.1855511"><ele>265.0</ele><time>2026-04-06T10:14:40.712Z</time></trkpt><trkpt lat="43.6857742" lon="11.1856637"><ele>265.0</ele><time>2026-04-06T10:14:42.713Z</time></trkpt><trkpt lat="43.6857793" lon="11.1857868"><ele>265.0</ele><time>2026-04-06T10:14:44.713Z</time></trkpt><trkpt lat="43.6857969" lon="11.1859011"><ele>265.0</ele><time>2026-04-06T10:14:46.713Z</time></trkpt><trkpt lat="43.6858171" lon="11.1860253"><ele>265.0</ele><time>2026-04-06T10:14:48.712Z</time></trkpt><trkpt lat="43.6858295" lon="11.1861503"><ele>265.0</ele><time>2026-04-06T10:14:50.714Z</time></trkpt><trkpt lat="43.6858378" lon="11.1862666"><ele>265.0</ele><time>2026-04-06T10:14:52.713Z</time></trkpt><trkpt lat="43.6858524" lon="11.1863918"><ele>265.0</ele><time>2026-04-06T10:14:54.713Z</time></trkpt><trkpt lat="43.6858692" lon="11.1865087"><ele>265.0</ele><time>2026-04-06T10:14:56.712Z</time></trkpt><trkpt lat="43.6859016" lon="11.1866261"><ele>265.0</ele><time>2026-04-06T10:14:58.713Z</time></trkpt><trkpt lat="43.6859175" lon="11.1867641"><ele>265.0</ele><time>2026-04-06T10:15:00.714Z</time></trkpt><trkpt lat="43.6859397" lon="11.1868865"><ele>265.0</ele><time>2026-04-06T10:15:02.712Z</time></trkpt><trkpt lat="43.6859758" lon="11.1869976"><ele>265.0</ele><time>2026-04-06T10:15:04.712Z</time></trkpt><trkpt lat="43.6859985" lon="11.18712"><ele>265.0</ele><time>2026-04-06T10:15:06.713Z</time></trkpt><trkpt lat="43.6860293" lon="11.1872617"><ele>265.0</ele><time>2026-04-06T10:15:08.716Z</time></trkpt><trkpt lat="43.6860288" lon="11.1873604"><ele>265.0</ele><time>2026-04-06T10:15:10.713Z</time></trkpt><trkpt lat="43.6860432" lon="11.1874944"><ele>265.0</ele><time>2026-04-06T10:15:12.713Z</time></trkpt><trkpt lat="43.6860397" lon="11.1876198"><ele>265.0</ele><time>2026-04-06T10:15:14.712Z</time></trkpt><trkpt lat="43.6860723" lon="11.1877448"><ele>265.0</ele><time>2026-04-06T10:15:16.713Z</time></trkpt><trkpt lat="43.6861065" lon="11.1878579"><ele>265.0</ele><time>2026-04-06T10:15:18.713Z</time></trkpt><trkpt lat="43.6861185" lon="11.1879718"><ele>264.8</ele><time>2026-04-06T10:15:20.713Z</time></trkpt><trkpt lat="43.686128" lon="11.1880993"><ele>264.6</ele><time>2026-04-06T10:15:22.713Z</time></trkpt><trkpt lat="43.6861494" lon="11.1882278"><ele>264.4</ele><time>2026-04-06T10:15:24.714Z</time></trkpt><trkpt lat="43.6861549" lon="11.1883434"><ele>264.2</ele><time>2026-04-06T10:15:26.714Z</time></trkpt><trkpt lat="43.686186" lon="11.1884622"><ele>264.0</ele><time>2026-04-06T10:15:28.714Z</time></trkpt><trkpt lat="43.6861991" lon="11.1885882"><ele>264.0</ele><time>2026-04-06T10:15:30.714Z</time></trkpt><trkpt lat="43.6862187" lon="11.1887255"><ele>264.0</ele><time>2026-04-06T10:15:32.714Z</time></trkpt><trkpt lat="43.686229" lon="11.1888505"><ele>264.0</ele><time>2026-04-06T10:15:34.714Z</time></trkpt><trkpt lat="43.6862402" lon="11.1889672"><ele>264.0</ele><time>2026-04-06T10:15:36.712Z</time></trkpt><trkpt lat="43.6862496" lon="11.1890845"><ele>264.0</ele><time>2026-04-06T10:15:38.714Z</time></trkpt><trkpt lat="43.6862682" lon="11.1892188"><ele>264.0</ele><time>2026-04-06T10:15:40.712Z</time></trkpt><trkpt lat="43.6862834" lon="11.1893453"><ele>264.0</ele><time>2026-04-06T10:15:42.712Z</time></trkpt><trkpt lat="43.6862877" lon="11.1894739"><ele>264.0</ele><time>2026-04-06T10:15:44.713Z</time></trkpt><trkpt lat="43.6862959" lon="11.1896115"><ele>264.0</ele><time>2026-04-06T10:15:46.712Z</time></trkpt><trkpt lat="43.6863033" lon="11.1897306"><ele>264.0</ele><time>2026-04-06T10:15:48.714Z</time></trkpt><trkpt lat="43.6863056" lon="11.1898372"><ele>264.0</ele><time>2026-04-06T10:15:50.713Z</time></trkpt><trkpt lat="43.6863126" lon="11.1899673"><ele>263.59999999999997</ele><time>2026-04-06T10:15:52.712Z</time></trkpt><trkpt lat="43.6863198" lon="11.1901044"><ele>263.2</ele><time>2026-04-06T10:15:54.712Z</time></trkpt><trkpt lat="43.6863415" lon="11.1902333"><ele>262.79999999999995</ele><time>2026-04-06T10:15:56.713Z</time></trkpt><trkpt lat="43.6863597" lon="11.1903617"><ele>262.4</ele><time>2026-04-06T10:15:58.712Z</time></trkpt><trkpt lat="43.6863812" lon="11.190493"><ele>262.0</ele><time>2026-04-06T10:16:00.714Z</time></trkpt><trkpt lat="43.686397" lon="11.1906375"><ele>261.8</ele><time>2026-04-06T10:16:02.712Z</time></trkpt><trkpt lat="43.6863976" lon="11.1907656"><ele>261.6</ele><time>2026-04-06T10:16:04.713Z</time></trkpt><trkpt lat="43.6863925" lon="11.1909017"><ele>261.40000000000003</ele><time>2026-04-06T10:16:06.713Z</time></trkpt><trkpt lat="43.6863695" lon="11.1910586"><ele>261.2</ele><time>2026-04-06T10:16:08.712Z</time></trkpt><trkpt lat="43.6863502" lon="11.1912085"><ele>261.0</ele><time>2026-04-06T10:16:10.713Z</time></trkpt><trkpt lat="43.6862936" lon="11.1913516"><ele>261.0</ele><time>2026-04-06T10:16:12.712Z</time></trkpt><trkpt lat="43.6862161" lon="11.1914724"><ele>261.0</ele><time>2026-04-06T10:16:14.713Z</time></trkpt><trkpt lat="43.6861227" lon="11.1915569"><ele>261.0</ele><time>2026-04-06T10:16:16.712Z</time></trkpt><trkpt lat="43.6860675" lon="11.1916005"><ele>261.0</ele><time>2026-04-06T10:16:17.713Z</time></trkpt><trkpt lat="43.6859637" lon="11.1916479"><ele>261.0</ele><time>2026-04-06T10:16:19.713Z</time></trkpt><trkpt lat="43.6858686" lon="11.1916948"><ele>261.2</ele><time>2026-04-06T10:16:21.713Z</time></trkpt><trkpt lat="43.6857601" lon="11.1917342"><ele>261.40000000000003</ele><time>2026-04-06T10:16:23.715Z</time></trkpt><trkpt lat="43.6856656" lon="11.1917844"><ele>261.6</ele><time>2026-04-06T10:16:25.713Z</time></trkpt><trkpt lat="43.6855707" lon="11.1918208"><ele>261.8</ele><time>2026-04-06T10:16:27.713Z</time></trkpt><trkpt lat="43.6854664" lon="11.1918575"><ele>262.0</ele><time>2026-04-06T10:16:29.714Z</time></trkpt><trkpt lat="43.6853715" lon="11.1918919"><ele>262.0</ele><time>2026-04-06T10:16:31.713Z</time></trkpt><trkpt lat="43.6852798" lon="11.19193"><ele>262.0</ele><time>2026-04-06T10:16:33.714Z</time></trkpt><trkpt lat="43.6851853" lon="11.1919686"><ele>262.0</ele><time>2026-04-06T10:16:35.713Z</time></trkpt><trkpt lat="43.6850903" lon="11.1920119"><ele>262.0</ele><time>2026-04-06T10:16:37.713Z</time></trkpt><trkpt lat="43.685001" lon="11.1920548"><ele>262.0</ele><time>2026-04-06T10:16:39.712Z</time></trkpt><trkpt lat="43.6849045" lon="11.1921035"><ele>261.4</ele><time>2026-04-06T10:16:41.712Z</time></trkpt><trkpt lat="43.6848095" lon="11.1921511"><ele>260.79999999999995</ele><time>2026-04-06T10:16:43.713Z</time></trkpt><trkpt lat="43.6847136" lon="11.1921974"><ele>260.2</ele><time>2026-04-06T10:16:45.712Z</time></trkpt><trkpt lat="43.6846206" lon="11.1922392"><ele>259.59999999999997</ele><time>2026-04-06T10:16:47.714Z</time></trkpt><trkpt lat="43.6845335" lon="11.1922739"><ele>259.0</ele><time>2026-04-06T10:16:49.712Z</time></trkpt><trkpt lat="43.6844257" lon="11.1923019"><ele>259.59999999999997</ele><time>2026-04-06T10:16:51.714Z</time></trkpt><trkpt lat="43.6843364" lon="11.1923448"><ele>260.2</ele><time>2026-04-06T10:16:53.712Z</time></trkpt><trkpt lat="43.6842483" lon="11.19238"><ele>260.79999999999995</ele><time>2026-04-06T10:16:55.714Z</time></trkpt><trkpt lat="43.6841555" lon="11.1924165"><ele>261.4</ele><time>2026-04-06T10:16:57.713Z</time></trkpt><trkpt lat="43.6840717" lon="11.1924524"><ele>262.0</ele><time>2026-04-06T10:16:59.712Z</time></trkpt><trkpt lat="43.6839859" lon="11.1924779"><ele>262.0</ele><time>2026-04-06T10:17:01.713Z</time></trkpt><trkpt lat="43.6838904" lon="11.1925081"><ele>262.0</ele><time>2026-04-06T10:17:03.713Z</time></trkpt><trkpt lat="43.6837951" lon="11.1925334"><ele>262.0</ele><time>2026-04-06T10:17:05.713Z</time></trkpt><trkpt lat="43.6837319" lon="11.1925648"><ele>262.0</ele><time>2026-04-06T10:17:06.713Z</time></trkpt><trkpt lat="43.6836446" lon="11.1925886"><ele>262.0</ele><time>2026-04-06T10:17:08.713Z</time></trkpt><trkpt lat="43.6835596" lon="11.1926201"><ele>262.0</ele><time>2026-04-06T10:17:10.713Z</time></trkpt><trkpt lat="43.6834781" lon="11.1926201"><ele>263.4</ele><time>2026-04-06T10:17:12.712Z</time></trkpt><trkpt lat="43.6833828" lon="11.1926722"><ele>264.79999999999995</ele><time>2026-04-06T10:17:14.712Z</time></trkpt><trkpt lat="43.6832911" lon="11.1926932"><ele>266.2</ele><time>2026-04-06T10:17:16.713Z</time></trkpt><trkpt lat="43.6832027" lon="11.1927208"><ele>267.59999999999997</ele><time>2026-04-06T10:17:18.713Z</time></trkpt><trkpt lat="43.6831184" lon="11.1927641"><ele>269.0</ele><time>2026-04-06T10:17:20.713Z</time></trkpt><trkpt lat="43.6830296" lon="11.1927909"><ele>269.0</ele><time>2026-04-06T10:17:22.713Z</time></trkpt><trkpt lat="43.6829321" lon="11.1928171"><ele>269.0</ele><time>2026-04-06T10:17:24.713Z</time></trkpt><trkpt lat="43.6828346" lon="11.1928659"><ele>269.0</ele><time>2026-04-06T10:17:26.712Z</time></trkpt><trkpt lat="43.6827513" lon="11.1928757"><ele>269.0</ele><time>2026-04-06T10:17:28.713Z</time></trkpt><trkpt lat="43.6826523" lon="11.1929133"><ele>269.0</ele><time>2026-04-06T10:17:30.715Z</time></trkpt><trkpt lat="43.6825541" lon="11.1929381"><ele>269.59999999999997</ele><time>2026-04-06T10:17:32.715Z</time></trkpt><trkpt lat="43.6824652" lon="11.1929339"><ele>270.2</ele><time>2026-04-06T10:17:34.712Z</time></trkpt><trkpt lat="43.6823701" lon="11.1929557"><ele>270.79999999999995</ele><time>2026-04-06T10:17:36.712Z</time></trkpt><trkpt lat="43.6822703" lon="11.1929417"><ele>271.4</ele><time>2026-04-06T10:17:38.714Z</time></trkpt><trkpt lat="43.6822037" lon="11.1929492"><ele>272.0</ele><time>2026-04-06T10:17:39.713Z</time></trkpt><trkpt lat="43.6821063" lon="11.1929811"><ele>272.0</ele><time>2026-04-06T10:17:41.713Z</time></trkpt><trkpt lat="43.6820195" lon="11.1929517"><ele>272.0</ele><time>2026-04-06T10:17:43.712Z</time></trkpt><trkpt lat="43.6819031" lon="11.1930234"><ele>272.0</ele><time>2026-04-06T10:17:45.712Z</time></trkpt><trkpt lat="43.6817949" lon="11.1930112"><ele>272.0</ele><time>2026-04-06T10:17:47.713Z</time></trkpt><trkpt lat="43.681702" lon="11.1930832"><ele>272.0</ele><time>2026-04-06T10:17:49.713Z</time></trkpt><trkpt lat="43.6816172" lon="11.193145"><ele>271.2</ele><time>2026-04-06T10:17:51.713Z</time></trkpt><trkpt lat="43.6815636" lon="11.1931907"><ele>270.4</ele><time>2026-04-06T10:17:52.713Z</time></trkpt><trkpt lat="43.681479" lon="11.1932698"><ele>269.6</ele><time>2026-04-06T10:17:54.713Z</time></trkpt><trkpt lat="43.6813894" lon="11.1933145"><ele>268.8</ele><time>2026-04-06T10:17:56.714Z</time></trkpt><trkpt lat="43.6812967" lon="11.193361"><ele>268.0</ele><time>2026-04-06T10:17:58.713Z</time></trkpt><trkpt lat="43.6812053" lon="11.1934074"><ele>268.0</ele><time>2026-04-06T10:18:00.713Z</time></trkpt><trkpt lat="43.6811089" lon="11.1934445"><ele>268.0</ele><time>2026-04-06T10:18:02.713Z</time></trkpt><trkpt lat="43.6810106" lon="11.1934967"><ele>268.0</ele><time>2026-04-06T10:18:04.713Z</time></trkpt><trkpt lat="43.6809147" lon="11.193533"><ele>268.0</ele><time>2026-04-06T10:18:06.713Z</time></trkpt><trkpt lat="43.6808052" lon="11.1935095"><ele>268.0</ele><time>2026-04-06T10:18:08.713Z</time></trkpt><trkpt lat="43.6807015" lon="11.193404"><ele>268.0</ele><time>2026-04-06T10:18:10.713Z</time></trkpt><trkpt lat="43.6806556" lon="11.1933321"><ele>268.0</ele><time>2026-04-06T10:18:11.712Z</time></trkpt><trkpt lat="43.6806012" lon="11.1932443"><ele>268.0</ele><time>2026-04-06T10:18:12.711Z</time></trkpt><trkpt lat="43.6805445" lon="11.1931762"><ele>268.0</ele><time>2026-04-06T10:18:13.713Z</time></trkpt><trkpt lat="43.6804879" lon="11.1931043"><ele>268.0</ele><time>2026-04-06T10:18:14.713Z</time></trkpt><trkpt lat="43.6804223" lon="11.1930463"><ele>268.0</ele><time>2026-04-06T10:18:15.713Z</time></trkpt><trkpt lat="43.6803684" lon="11.1929674"><ele>267.5</ele><time>2026-04-06T10:18:16.712Z</time></trkpt><trkpt lat="43.6803052" lon="11.1929122"><ele>267.0</ele><time>2026-04-06T10:18:17.713Z</time></trkpt><trkpt lat="43.6802386" lon="11.1928527"><ele>266.5</ele><time>2026-04-06T10:18:18.713Z</time></trkpt><trkpt lat="43.6801674" lon="11.1927972"><ele>266.0</ele><time>2026-04-06T10:18:19.713Z</time></trkpt><trkpt lat="43.6801079" lon="11.1927354"><ele>265.5</ele><time>2026-04-06T10:18:20.713Z</time></trkpt><trkpt lat="43.6800419" lon="11.1926664"><ele>265.0</ele><time>2026-04-06T10:18:21.712Z</time></trkpt><trkpt lat="43.6799667" lon="11.1925975"><ele>265.16666666666663</ele><time>2026-04-06T10:18:22.712Z</time></trkpt><trkpt lat="43.6798983" lon="11.1925346"><ele>265.3333333333333</ele><time>2026-04-06T10:18:23.714Z</time></trkpt><trkpt lat="43.679834" lon="11.1924821"><ele>265.5</ele><time>2026-04-06T10:18:24.714Z</time></trkpt><trkpt lat="43.6797541" lon="11.1924274"><ele>265.6666666666667</ele><time>2026-04-06T10:18:25.712Z</time></trkpt><trkpt lat="43.6796694" lon="11.1923738"><ele>265.83333333333337</ele><time>2026-04-06T10:18:26.712Z</time></trkpt><trkpt lat="43.6795884" lon="11.1923201"><ele>266.0</ele><time>2026-04-06T10:18:27.712Z</time></trkpt><trkpt lat="43.6795017" lon="11.1922704"><ele>265.83333333333337</ele><time>2026-04-06T10:18:28.714Z</time></trkpt><trkpt lat="43.6794066" lon="11.1922412"><ele>265.6666666666667</ele><time>2026-04-06T10:18:29.712Z</time></trkpt><trkpt lat="43.6793264" lon="11.1922463"><ele>265.5</ele><time>2026-04-06T10:18:30.713Z</time></trkpt><trkpt lat="43.6792401" lon="11.1922404"><ele>265.3333333333333</ele><time>2026-04-06T10:18:31.712Z</time></trkpt><trkpt lat="43.6791758" lon="11.1922293"><ele>265.16666666666663</ele><time>2026-04-06T10:18:32.714Z</time></trkpt><trkpt lat="43.6791034" lon="11.1922443"><ele>265.0</ele><time>2026-04-06T10:18:33.711Z</time></trkpt><trkpt lat="43.6789839" lon="11.1922376"><ele>265.0</ele><time>2026-04-06T10:18:35.711Z</time></trkpt><trkpt lat="43.6788852" lon="11.1922246"><ele>265.0</ele><time>2026-04-06T10:18:37.713Z</time></trkpt><trkpt lat="43.678795" lon="11.1922377"><ele>265.0</ele><time>2026-04-06T10:18:39.712Z</time></trkpt><trkpt lat="43.6786916" lon="11.1922386"><ele>265.0</ele><time>2026-04-06T10:18:41.713Z</time></trkpt><trkpt lat="43.6786108" lon="11.1922324"><ele>265.0</ele><time>2026-04-06T10:18:43.714Z</time></trkpt><trkpt lat="43.6785225" lon="11.1921946"><ele>264.4285714285714</ele><time>2026-04-06T10:18:45.711Z</time></trkpt><trkpt lat="43.6784464" lon="11.1922127"><ele>263.85714285714283</ele><time>2026-04-06T10:18:47.713Z</time></trkpt><trkpt lat="43.6783765" lon="11.1922053"><ele>263.2857142857143</ele><time>2026-04-06T10:18:49.712Z</time></trkpt><trkpt lat="43.6783126" lon="11.1922065"><ele>262.71428571428567</ele><time>2026-04-06T10:19:06.712Z</time></trkpt><trkpt lat="43.6782159" lon="11.1921987"><ele>262.1428571428571</ele><time>2026-04-06T10:36:19.709Z</time></trkpt><trkpt lat="43.6781597" lon="11.1922612"><ele>261.57142857142856</ele><time>2026-04-06T10:36:22.71Z</time></trkpt><trkpt lat="43.6780958" lon="11.1922952"><ele>261.0</ele><time>2026-04-06T10:36:24.709Z</time></trkpt><trkpt lat="43.6780259" lon="11.1923244"><ele>260.8333333333333</ele><time>2026-04-06T10:36:26.708Z</time></trkpt><trkpt lat="43.6779651" lon="11.1923493"><ele>260.6666666666667</ele><time>2026-04-06T10:36:28.709Z</time></trkpt><trkpt lat="43.6778717" lon="11.1923822"><ele>260.5</ele><time>2026-04-06T10:36:31.71Z</time></trkpt><trkpt lat="43.6778014" lon="11.1924168"><ele>260.33333333333337</ele><time>2026-04-06T10:36:33.708Z</time></trkpt><trkpt lat="43.6777288" lon="11.192464"><ele>260.1666666666667</ele><time>2026-04-06T10:36:35.709Z</time></trkpt><trkpt lat="43.6776641" lon="11.1925112"><ele>260.0</ele><time>2026-04-06T10:36:37.709Z</time></trkpt><trkpt lat="43.6775951" lon="11.1925727"><ele>260.0</ele><time>2026-04-06T10:36:39.71Z</time></trkpt><trkpt lat="43.6775239" lon="11.1926334"><ele>260.0</ele><time>2026-04-06T10:36:41.708Z</time></trkpt><trkpt lat="43.677454" lon="11.1926973"><ele>260.0</ele><time>2026-04-06T10:36:43.709Z</time></trkpt><trkpt lat="43.6773816" lon="11.1927626"><ele>260.0</ele><time>2026-04-06T10:36:45.708Z</time></trkpt><trkpt lat="43.6772965" lon="11.1928276"><ele>260.0</ele><time>2026-04-06T10:36:47.709Z</time></trkpt><trkpt lat="43.677232" lon="11.1928998"><ele>260.0</ele><time>2026-04-06T10:36:49.709Z</time></trkpt><trkpt lat="43.6771573" lon="11.1929755"><ele>260.0</ele><time>2026-04-06T10:36:51.709Z</time></trkpt><trkpt lat="43.6770989" lon="11.1930571"><ele>260.0</ele><time>2026-04-06T10:36:53.709Z</time></trkpt><trkpt lat="43.6770511" lon="11.1931413"><ele>260.0</ele><time>2026-04-06T10:36:55.71Z</time></trkpt><trkpt lat="43.6769932" lon="11.1932027"><ele>260.0</ele><time>2026-04-06T10:36:57.709Z</time></trkpt><trkpt lat="43.6769365" lon="11.1932636"><ele>260.0</ele><time>2026-04-06T10:36:59.709Z</time></trkpt><trkpt lat="43.6768648" lon="11.1933335"><ele>260.0</ele><time>2026-04-06T10:37:01.708Z</time></trkpt><trkpt lat="43.6767667" lon="11.1933858"><ele>260.33333333333337</ele><time>2026-04-06T10:37:03.708Z</time></trkpt><trkpt lat="43.6766996" lon="11.1934619"><ele>260.6666666666667</ele><time>2026-04-06T10:37:05.709Z</time></trkpt><trkpt lat="43.6765866" lon="11.1935657"><ele>261.0</ele><time>2026-04-06T10:37:07.708Z</time></trkpt><trkpt lat="43.6765272" lon="11.1936077"><ele>261.3333333333333</ele><time>2026-04-06T10:37:08.709Z</time></trkpt><trkpt lat="43.6764684" lon="11.1936488"><ele>261.66666666666663</ele><time>2026-04-06T10:37:09.708Z</time></trkpt><trkpt lat="43.6763956" lon="11.1937005"><ele>262.0</ele><time>2026-04-06T10:37:10.71Z</time></trkpt><trkpt lat="43.6763136" lon="11.1937224"><ele>262.0</ele><time>2026-04-06T10:37:11.709Z</time></trkpt><trkpt lat="43.6762453" lon="11.1937629"><ele>262.0</ele><time>2026-04-06T10:37:12.709Z</time></trkpt><trkpt lat="43.6761674" lon="11.1937889"><ele>262.0</ele><time>2026-04-06T10:37:13.709Z</time></trkpt><trkpt lat="43.6761063" lon="11.1938226"><ele>262.0</ele><time>2026-04-06T10:37:14.71Z</time></trkpt><trkpt lat="43.6760397" lon="11.1938664"><ele>262.0</ele><time>2026-04-06T10:37:15.71Z</time></trkpt><trkpt lat="43.6759564" lon="11.1939243"><ele>262.0</ele><time>2026-04-06T10:37:16.71Z</time></trkpt><trkpt lat="43.6758819" lon="11.1939805"><ele>260.66666666666663</ele><time>2026-04-06T10:37:17.71Z</time></trkpt><trkpt lat="43.6757942" lon="11.1940298"><ele>259.3333333333333</ele><time>2026-04-06T10:37:18.709Z</time></trkpt><trkpt lat="43.6757155" lon="11.1940704"><ele>258.0</ele><time>2026-04-06T10:37:19.71Z</time></trkpt><trkpt lat="43.6756353" lon="11.1940987"><ele>256.6666666666667</ele><time>2026-04-06T10:37:20.709Z</time></trkpt><trkpt lat="43.6755523" lon="11.1941065"><ele>255.33333333333334</ele><time>2026-04-06T10:37:21.709Z</time></trkpt><trkpt lat="43.675479" lon="11.1941259"><ele>254.0</ele><time>2026-04-06T10:37:22.708Z</time></trkpt><trkpt lat="43.6754008" lon="11.1941401"><ele>254.0</ele><time>2026-04-06T10:37:23.708Z</time></trkpt><trkpt lat="43.675331" lon="11.1941542"><ele>254.0</ele><time>2026-04-06T10:37:24.708Z</time></trkpt><trkpt lat="43.6752683" lon="11.1941666"><ele>254.0</ele><time>2026-04-06T10:37:25.709Z</time></trkpt><trkpt lat="43.6751868" lon="11.1941741"><ele>254.0</ele><time>2026-04-06T10:37:26.709Z</time></trkpt><trkpt lat="43.6751196" lon="11.1941844"><ele>254.0</ele><time>2026-04-06T10:37:27.709Z</time></trkpt><trkpt lat="43.6750533" lon="11.1941897"><ele>254.0</ele><time>2026-04-06T10:37:28.708Z</time></trkpt><trkpt lat="43.6749901" lon="11.1942186"><ele>254.0</ele><time>2026-04-06T10:37:29.709Z</time></trkpt><trkpt lat="43.6748871" lon="11.1942585"><ele>254.2</ele><time>2026-04-06T10:37:31.71Z</time></trkpt><trkpt lat="43.6747896" lon="11.1942422"><ele>254.39999999999998</ele><time>2026-04-06T10:37:33.709Z</time></trkpt><trkpt lat="43.674693" lon="11.1942388"><ele>254.6</ele><time>2026-04-06T10:37:35.709Z</time></trkpt><trkpt lat="43.6745877" lon="11.1942444"><ele>254.8</ele><time>2026-04-06T10:37:37.709Z</time></trkpt><trkpt lat="43.6744942" lon="11.1942409"><ele>255.0</ele><time>2026-04-06T10:37:39.708Z</time></trkpt><trkpt lat="43.6743889" lon="11.1942419"><ele>255.0</ele><time>2026-04-06T10:37:41.708Z</time></trkpt><trkpt lat="43.6742877" lon="11.1942176"><ele>255.0</ele><time>2026-04-06T10:37:43.709Z</time></trkpt><trkpt lat="43.6741945" lon="11.1941661"><ele>255.0</ele><time>2026-04-06T10:37:45.71Z</time></trkpt><trkpt lat="43.6741023" lon="11.1941699"><ele>255.0</ele><time>2026-04-06T10:37:47.709Z</time></trkpt><trkpt lat="43.674006" lon="11.1941824"><ele>255.0</ele><time>2026-04-06T10:37:49.711Z</time></trkpt><trkpt lat="43.6739128" lon="11.1941911"><ele>255.0</ele><time>2026-04-06T10:37:51.71Z</time></trkpt><trkpt lat="43.6738294" lon="11.1942039"><ele>255.0</ele><time>2026-04-06T10:37:53.708Z</time></trkpt><trkpt lat="43.6737443" lon="11.1942313"><ele>255.0</ele><time>2026-04-06T10:37:55.709Z</time></trkpt><trkpt lat="43.6736606" lon="11.1942641"><ele>255.0</ele><time>2026-04-06T10:37:57.709Z</time></trkpt><trkpt lat="43.6735818" lon="11.1942857"><ele>255.0</ele><time>2026-04-06T10:37:59.709Z</time></trkpt><trkpt lat="43.6734999" lon="11.1943247"><ele>255.0</ele><time>2026-04-06T10:38:01.71Z</time></trkpt><trkpt lat="43.6734155" lon="11.1943791"><ele>256.8</ele><time>2026-04-06T10:38:03.708Z</time></trkpt><trkpt lat="43.6733268" lon="11.1944299"><ele>258.6</ele><time>2026-04-06T10:38:05.708Z</time></trkpt><trkpt lat="43.6732546" lon="11.1944773"><ele>260.4</ele><time>2026-04-06T10:38:07.708Z</time></trkpt><trkpt lat="43.6731481" lon="11.1944885"><ele>262.2</ele><time>2026-04-06T10:38:09.708Z</time></trkpt><trkpt lat="43.6730582" lon="11.1945427"><ele>264.0</ele><time>2026-04-06T10:38:11.708Z</time></trkpt><trkpt lat="43.6729351" lon="11.1945837"><ele>264.0</ele><time>2026-04-06T10:38:13.708Z</time></trkpt><trkpt lat="43.6728733" lon="11.1946117"><ele>264.0</ele><time>2026-04-06T10:38:14.708Z</time></trkpt><trkpt lat="43.672805" lon="11.1946397"><ele>264.0</ele><time>2026-04-06T10:38:15.709Z</time></trkpt><trkpt lat="43.6727349" lon="11.1946675"><ele>264.0</ele><time>2026-04-06T10:38:16.709Z</time></trkpt><trkpt lat="43.6726703" lon="11.1946649"><ele>264.0</ele><time>2026-04-06T10:38:17.708Z</time></trkpt><trkpt lat="43.6725541" lon="11.1946794"><ele>264.0</ele><time>2026-04-06T10:38:19.709Z</time></trkpt><trkpt lat="43.6724777" lon="11.1946884"><ele>264.1666666666667</ele><time>2026-04-06T10:38:20.709Z</time></trkpt><trkpt lat="43.6724078" lon="11.1947142"><ele>264.3333333333333</ele><time>2026-04-06T10:38:21.709Z</time></trkpt><trkpt lat="43.6723401" lon="11.1947832"><ele>264.5</ele><time>2026-04-06T10:38:22.709Z</time></trkpt><trkpt lat="43.6722204" lon="11.1948378"><ele>264.66666666666663</ele><time>2026-04-06T10:38:24.71Z</time></trkpt><trkpt lat="43.6721641" lon="11.194895"><ele>264.8333333333333</ele><time>2026-04-06T10:38:25.708Z</time></trkpt><trkpt lat="43.6720722" lon="11.1949262"><ele>265.0</ele><time>2026-04-06T10:38:27.709Z</time></trkpt><trkpt lat="43.6720231" lon="11.1949818"><ele>264.4</ele><time>2026-04-06T10:38:28.708Z</time></trkpt><trkpt lat="43.6719385" lon="11.1950768"><ele>263.8</ele><time>2026-04-06T10:38:30.709Z</time></trkpt><trkpt lat="43.6718612" lon="11.1951668"><ele>263.2</ele><time>2026-04-06T10:38:32.71Z</time></trkpt><trkpt lat="43.6717702" lon="11.1952452"><ele>262.6</ele><time>2026-04-06T10:38:34.71Z</time></trkpt><trkpt lat="43.6716918" lon="11.1953303"><ele>262.0</ele><time>2026-04-06T10:38:36.707Z</time></trkpt><trkpt lat="43.6716211" lon="11.1954062"><ele>262.0</ele><time>2026-04-06T10:38:38.709Z</time></trkpt><trkpt lat="43.6715371" lon="11.1954952"><ele>262.0</ele><time>2026-04-06T10:38:40.709Z</time></trkpt><trkpt lat="43.6714547" lon="11.1955661"><ele>262.0</ele><time>2026-04-06T10:38:42.708Z</time></trkpt><trkpt lat="43.6713742" lon="11.1956684"><ele>262.0</ele><time>2026-04-06T10:38:44.708Z</time></trkpt><trkpt lat="43.6712929" lon="11.1957489"><ele>262.0</ele><time>2026-04-06T10:38:46.707Z</time></trkpt><trkpt lat="43.6711962" lon="11.1958104"><ele>262.2</ele><time>2026-04-06T10:38:48.709Z</time></trkpt><trkpt lat="43.6711086" lon="11.1958768"><ele>262.4</ele><time>2026-04-06T10:38:50.71Z</time></trkpt><trkpt lat="43.6710165" lon="11.1959466"><ele>262.6</ele><time>2026-04-06T10:38:52.709Z</time></trkpt><trkpt lat="43.6709213" lon="11.1960024"><ele>262.8</ele><time>2026-04-06T10:38:54.71Z</time></trkpt><trkpt lat="43.670823" lon="11.1960498"><ele>263.0</ele><time>2026-04-06T10:38:56.708Z</time></trkpt><trkpt lat="43.6707157" lon="11.1960864"><ele>263.0</ele><time>2026-04-06T10:38:58.709Z</time></trkpt><trkpt lat="43.6706216" lon="11.1961375"><ele>263.0</ele><time>2026-04-06T10:39:00.708Z</time></trkpt><trkpt lat="43.6705301" lon="11.1961728"><ele>263.0</ele><time>2026-04-06T10:39:02.708Z</time></trkpt><trkpt lat="43.6704304" lon="11.1962432"><ele>263.0</ele><time>2026-04-06T10:39:04.709Z</time></trkpt><trkpt lat="43.6703237" lon="11.1962885"><ele>263.0</ele><time>2026-04-06T10:39:06.709Z</time></trkpt><trkpt lat="43.6702263" lon="11.1963237"><ele>263.4</ele><time>2026-04-06T10:39:08.709Z</time></trkpt><trkpt lat="43.6701286" lon="11.1963715"><ele>263.8</ele><time>2026-04-06T10:39:10.709Z</time></trkpt><trkpt lat="43.6700287" lon="11.1964314"><ele>264.2</ele><time>2026-04-06T10:39:12.707Z</time></trkpt><trkpt lat="43.6699098" lon="11.1964865"><ele>264.6</ele><time>2026-04-06T10:39:14.709Z</time></trkpt><trkpt lat="43.6698498" lon="11.1965259"><ele>265.0</ele><time>2026-04-06T10:39:15.708Z</time></trkpt><trkpt lat="43.6697544" lon="11.1965641"><ele>265.0</ele><time>2026-04-06T10:39:17.709Z</time></trkpt><trkpt lat="43.6696603" lon="11.1965806"><ele>265.0</ele><time>2026-04-06T10:39:19.709Z</time></trkpt><trkpt lat="43.6695506" lon="11.1966123"><ele>265.0</ele><time>2026-04-06T10:39:21.709Z</time></trkpt><trkpt lat="43.669455" lon="11.1966533"><ele>265.0</ele><time>2026-04-06T10:39:23.708Z</time></trkpt><trkpt lat="43.6693583" lon="11.1966827"><ele>265.0</ele><time>2026-04-06T10:39:25.71Z</time></trkpt><trkpt lat="43.6692556" lon="11.1966931"><ele>265.0</ele><time>2026-04-06T10:39:27.709Z</time></trkpt><trkpt lat="43.6691573" lon="11.1967232"><ele>265.0</ele><time>2026-04-06T10:39:29.707Z</time></trkpt><trkpt lat="43.6690558" lon="11.1967346"><ele>265.0</ele><time>2026-04-06T10:39:31.709Z</time></trkpt><trkpt lat="43.6689895" lon="11.1967469"><ele>265.0</ele><time>2026-04-06T10:39:32.71Z</time></trkpt><trkpt lat="43.6688994" lon="11.1967345"><ele>265.0</ele><time>2026-04-06T10:39:34.709Z</time></trkpt><trkpt lat="43.6688044" lon="11.1967064"><ele>265.0</ele><time>2026-04-06T10:39:36.708Z</time></trkpt><trkpt lat="43.6687084" lon="11.1966601"><ele>265.0</ele><time>2026-04-06T10:39:38.707Z</time></trkpt><trkpt lat="43.6686175" lon="11.1965882"><ele>265.0</ele><time>2026-04-06T10:39:40.708Z</time></trkpt><trkpt lat="43.6685277" lon="11.1965433"><ele>265.0</ele><time>2026-04-06T10:39:42.709Z</time></trkpt><trkpt lat="43.6684422" lon="11.1964819"><ele>265.0</ele><time>2026-04-06T10:39:44.707Z</time></trkpt><trkpt lat="43.6683537" lon="11.1964232"><ele>264.66666666666663</ele><time>2026-04-06T10:39:46.709Z</time></trkpt><trkpt lat="43.6682696" lon="11.1963667"><ele>264.3333333333333</ele><time>2026-04-06T10:39:48.709Z</time></trkpt><trkpt lat="43.6682037" lon="11.1963127"><ele>264.0</ele><time>2026-04-06T10:39:50.708Z</time></trkpt><trkpt lat="43.6681239" lon="11.1962554"><ele>263.6666666666667</ele><time>2026-04-06T10:39:52.709Z</time></trkpt><trkpt lat="43.6680547" lon="11.1961672"><ele>263.33333333333337</ele><time>2026-04-06T10:39:54.709Z</time></trkpt><trkpt lat="43.6679794" lon="11.1961081"><ele>263.0</ele><time>2026-04-06T10:39:56.709Z</time></trkpt><trkpt lat="43.6679122" lon="11.1960271"><ele>263.0</ele><time>2026-04-06T10:39:58.708Z</time></trkpt><trkpt lat="43.6678282" lon="11.1959434"><ele>263.0</ele><time>2026-04-06T10:40:00.708Z</time></trkpt><trkpt lat="43.6677414" lon="11.1958839"><ele>263.0</ele><time>2026-04-06T10:40:02.708Z</time></trkpt><trkpt lat="43.6676593" lon="11.1958193"><ele>263.0</ele><time>2026-04-06T10:40:04.707Z</time></trkpt><trkpt lat="43.6675827" lon="11.1957634"><ele>263.0</ele><time>2026-04-06T10:40:06.708Z</time></trkpt><trkpt lat="43.6675015" lon="11.1957118"><ele>263.5</ele><time>2026-04-06T10:40:08.708Z</time></trkpt><trkpt lat="43.6674239" lon="11.1956627"><ele>264.0</ele><time>2026-04-06T10:40:10.709Z</time></trkpt><trkpt lat="43.6673439" lon="11.1955762"><ele>264.5</ele><time>2026-04-06T10:40:12.709Z</time></trkpt><trkpt lat="43.6672747" lon="11.1955108"><ele>265.0</ele><time>2026-04-06T10:40:14.708Z</time></trkpt><trkpt lat="43.6671861" lon="11.1954216"><ele>265.5</ele><time>2026-04-06T10:40:16.709Z</time></trkpt><trkpt lat="43.6671303" lon="11.1953673"><ele>266.0</ele><time>2026-04-06T10:40:18.71Z</time></trkpt><trkpt lat="43.6670754" lon="11.1952484"><ele>266.0</ele><time>2026-04-06T10:40:20.707Z</time></trkpt><trkpt lat="43.6670189" lon="11.1951668"><ele>266.0</ele><time>2026-04-06T10:40:22.708Z</time></trkpt><trkpt lat="43.6669573" lon="11.1950927"><ele>266.0</ele><time>2026-04-06T10:40:24.709Z</time></trkpt><trkpt lat="43.6668926" lon="11.1950175"><ele>266.0</ele><time>2026-04-06T10:40:26.708Z</time></trkpt><trkpt lat="43.6668319" lon="11.1949329"><ele>266.0</ele><time>2026-04-06T10:40:28.709Z</time></trkpt><trkpt lat="43.6667768" lon="11.1948402"><ele>266.0</ele><time>2026-04-06T10:40:30.708Z</time></trkpt><trkpt lat="43.6667164" lon="11.1947501"><ele>267.83333333333337</ele><time>2026-04-06T10:40:32.709Z</time></trkpt><trkpt lat="43.6666569" lon="11.1946662"><ele>269.6666666666667</ele><time>2026-04-06T10:40:34.708Z</time></trkpt><trkpt lat="43.6665972" lon="11.1945842"><ele>271.5</ele><time>2026-04-06T10:40:36.709Z</time></trkpt><trkpt lat="43.666539" lon="11.1945028"><ele>273.3333333333333</ele><time>2026-04-06T10:40:38.708Z</time></trkpt><trkpt lat="43.6664789" lon="11.1944297"><ele>275.16666666666663</ele><time>2026-04-06T10:40:40.708Z</time></trkpt><trkpt lat="43.6664248" lon="11.1943577"><ele>277.0</ele><time>2026-04-06T10:40:42.707Z</time></trkpt><trkpt lat="43.6663689" lon="11.1942888"><ele>277.0</ele><time>2026-04-06T10:40:44.708Z</time></trkpt><trkpt lat="43.6663104" lon="11.194213"><ele>277.0</ele><time>2026-04-06T10:40:46.708Z</time></trkpt><trkpt lat="43.6662516" lon="11.1941315"><ele>277.0</ele><time>2026-04-06T10:40:48.709Z</time></trkpt><trkpt lat="43.6661957" lon="11.1940547"><ele>277.0</ele><time>2026-04-06T10:40:50.708Z</time></trkpt><trkpt lat="43.6661384" lon="11.1939742"><ele>277.0</ele><time>2026-04-06T10:40:52.707Z</time></trkpt><trkpt lat="43.6660805" lon="11.193896"><ele>277.0</ele><time>2026-04-06T10:40:54.708Z</time></trkpt><trkpt lat="43.6660267" lon="11.1938327"><ele>278.66666666666663</ele><time>2026-04-06T10:40:56.709Z</time></trkpt><trkpt lat="43.6659708" lon="11.1937662"><ele>280.3333333333333</ele><time>2026-04-06T10:40:58.708Z</time></trkpt><trkpt lat="43.6659174" lon="11.1936937"><ele>282.0</ele><time>2026-04-06T10:41:00.708Z</time></trkpt><trkpt lat="43.6658625" lon="11.1936269"><ele>283.6666666666667</ele><time>2026-04-06T10:41:02.708Z</time></trkpt><trkpt lat="43.6658089" lon="11.1935578"><ele>285.33333333333337</ele><time>2026-04-06T10:41:04.708Z</time></trkpt><trkpt lat="43.6657525" lon="11.1934806"><ele>287.0</ele><time>2026-04-06T10:41:06.709Z</time></trkpt><trkpt lat="43.6656684" lon="11.1934116"><ele>287.0</ele><time>2026-04-06T10:41:08.709Z</time></trkpt><trkpt lat="43.6655985" lon="11.1933032"><ele>287.0</ele><time>2026-04-06T10:41:10.709Z</time></trkpt><trkpt lat="43.6655247" lon="11.1932037"><ele>287.0</ele><time>2026-04-06T10:41:12.709Z</time></trkpt><trkpt lat="43.6654592" lon="11.1931046"><ele>287.0</ele><time>2026-04-06T10:41:14.71Z</time></trkpt><trkpt lat="43.665399" lon="11.1929906"><ele>287.0</ele><time>2026-04-06T10:41:16.709Z</time></trkpt><trkpt lat="43.6653189" lon="11.1928919"><ele>286.0</ele><time>2026-04-06T10:41:18.708Z</time></trkpt><trkpt lat="43.6652373" lon="11.1927943"><ele>285.0</ele><time>2026-04-06T10:41:20.709Z</time></trkpt><trkpt lat="43.6651511" lon="11.192709"><ele>284.0</ele><time>2026-04-06T10:41:22.708Z</time></trkpt><trkpt lat="43.6650763" lon="11.1926028"><ele>283.0</ele><time>2026-04-06T10:41:24.707Z</time></trkpt><trkpt lat="43.664998" lon="11.1925035"><ele>282.0</ele><time>2026-04-06T10:41:26.709Z</time></trkpt><trkpt lat="43.6649071" lon="11.1924279"><ele>282.6</ele><time>2026-04-06T10:41:28.708Z</time></trkpt><trkpt lat="43.6648327" lon="11.1923268"><ele>283.2</ele><time>2026-04-06T10:41:30.708Z</time></trkpt><trkpt lat="43.6647534" lon="11.1922363"><ele>283.8</ele><time>2026-04-06T10:41:32.707Z</time></trkpt><trkpt lat="43.6646797" lon="11.1921502"><ele>284.4</ele><time>2026-04-06T10:41:34.708Z</time></trkpt><trkpt lat="43.664594" lon="11.1920604"><ele>285.0</ele><time>2026-04-06T10:41:36.708Z</time></trkpt><trkpt lat="43.6645112" lon="11.1919757"><ele>284.4</ele><time>2026-04-06T10:41:38.707Z</time></trkpt><trkpt lat="43.664419" lon="11.1919012"><ele>283.8</ele><time>2026-04-06T10:41:40.707Z</time></trkpt><trkpt lat="43.6643331" lon="11.1918067"><ele>283.2</ele><time>2026-04-06T10:41:42.709Z</time></trkpt><trkpt lat="43.6642315" lon="11.1917325"><ele>282.6</ele><time>2026-04-06T10:41:44.708Z</time></trkpt><trkpt lat="43.6641324" lon="11.1916616"><ele>282.0</ele><time>2026-04-06T10:41:46.707Z</time></trkpt><trkpt lat="43.6640551" lon="11.1915999"><ele>282.0</ele><time>2026-04-06T10:41:48.709Z</time></trkpt><trkpt lat="43.6639726" lon="11.19155"><ele>282.0</ele><time>2026-04-06T10:41:50.708Z</time></trkpt><trkpt lat="43.6639186" lon="11.1915029"><ele>282.0</ele><time>2026-04-06T10:41:51.71Z</time></trkpt><trkpt lat="43.663824" lon="11.191451"><ele>282.0</ele><time>2026-04-06T10:41:53.708Z</time></trkpt><trkpt lat="43.6637314" lon="11.1914067"><ele>282.0</ele><time>2026-04-06T10:41:55.708Z</time></trkpt><trkpt lat="43.663632" lon="11.1913808"><ele>281.8</ele><time>2026-04-06T10:41:57.709Z</time></trkpt><trkpt lat="43.6635261" lon="11.191353"><ele>281.6</ele><time>2026-04-06T10:41:59.708Z</time></trkpt><trkpt lat="43.6634126" lon="11.1913324"><ele>281.40000000000003</ele><time>2026-04-06T10:42:01.708Z</time></trkpt><trkpt lat="43.6633045" lon="11.1913079"><ele>281.2</ele><time>2026-04-06T10:42:03.71Z</time></trkpt><trkpt lat="43.6632085" lon="11.1913093"><ele>281.0</ele><time>2026-04-06T10:42:05.709Z</time></trkpt><trkpt lat="43.6630975" lon="11.1912793"><ele>281.0</ele><time>2026-04-06T10:42:07.707Z</time></trkpt><trkpt lat="43.662983" lon="11.1912647"><ele>281.0</ele><time>2026-04-06T10:42:09.707Z</time></trkpt><trkpt lat="43.6628787" lon="11.1912434"><ele>281.0</ele><time>2026-04-06T10:42:11.707Z</time></trkpt><trkpt lat="43.6627728" lon="11.1912163"><ele>281.0</ele><time>2026-04-06T10:42:13.708Z</time></trkpt><trkpt lat="43.6626811" lon="11.191184"><ele>281.0</ele><time>2026-04-06T10:42:15.708Z</time></trkpt><trkpt lat="43.6625874" lon="11.1911599"><ele>281.6666666666667</ele><time>2026-04-06T10:42:17.707Z</time></trkpt><trkpt lat="43.6624991" lon="11.191129"><ele>282.33333333333337</ele><time>2026-04-06T10:42:19.707Z</time></trkpt><trkpt lat="43.6624368" lon="11.1911007"><ele>283.0</ele><time>2026-04-06T10:42:21.709Z</time></trkpt><trkpt lat="43.6623656" lon="11.1910031"><ele>283.6666666666667</ele><time>2026-04-06T10:42:24.707Z</time></trkpt><trkpt lat="43.6623115" lon="11.1909203"><ele>284.3333333333333</ele><time>2026-04-06T10:42:26.708Z</time></trkpt><trkpt lat="43.6622277" lon="11.1908674"><ele>285.0</ele><time>2026-04-06T10:42:28.707Z</time></trkpt><trkpt lat="43.6621265" lon="11.1908508"><ele>285.0</ele><time>2026-04-06T10:42:30.707Z</time></trkpt><trkpt lat="43.6620443" lon="11.1908282"><ele>285.0</ele><time>2026-04-06T10:42:32.709Z</time></trkpt><trkpt lat="43.6619607" lon="11.1907848"><ele>285.0</ele><time>2026-04-06T10:42:34.709Z</time></trkpt><trkpt lat="43.6618691" lon="11.1907567"><ele>285.0</ele><time>2026-04-06T10:42:36.708Z</time></trkpt><trkpt lat="43.6617822" lon="11.1907132"><ele>285.0</ele><time>2026-04-06T10:42:38.709Z</time></trkpt><trkpt lat="43.6616813" lon="11.1906893"><ele>285.0</ele><time>2026-04-06T10:42:40.708Z</time></trkpt><trkpt lat="43.6615778" lon="11.1906654"><ele>285.0</ele><time>2026-04-06T10:42:43.708Z</time></trkpt><trkpt lat="43.6614774" lon="11.1906173"><ele>285.0</ele><time>2026-04-06T10:42:45.708Z</time></trkpt><trkpt lat="43.6613917" lon="11.1905662"><ele>285.0</ele><time>2026-04-06T10:42:47.708Z</time></trkpt><trkpt lat="43.6612826" lon="11.1905366"><ele>285.0</ele><time>2026-04-06T10:42:49.707Z</time></trkpt><trkpt lat="43.6611724" lon="11.1905211"><ele>286.2</ele><time>2026-04-06T10:42:51.707Z</time></trkpt><trkpt lat="43.6610678" lon="11.1905011"><ele>287.4</ele><time>2026-04-06T10:42:53.708Z</time></trkpt><trkpt lat="43.660975" lon="11.190469"><ele>288.6</ele><time>2026-04-06T10:42:55.708Z</time></trkpt><trkpt lat="43.6608924" lon="11.190443"><ele>289.8</ele><time>2026-04-06T10:42:57.707Z</time></trkpt><trkpt lat="43.6608031" lon="11.190428"><ele>291.0</ele><time>2026-04-06T10:42:59.708Z</time></trkpt><trkpt lat="43.6607184" lon="11.1904158"><ele>291.0</ele><time>2026-04-06T10:43:01.708Z</time></trkpt><trkpt lat="43.6606286" lon="11.1903711"><ele>291.0</ele><time>2026-04-06T10:43:03.707Z</time></trkpt><trkpt lat="43.6605409" lon="11.1903353"><ele>291.0</ele><time>2026-04-06T10:43:05.707Z</time></trkpt><trkpt lat="43.6604548" lon="11.1902795"><ele>291.0</ele><time>2026-04-06T10:43:07.709Z</time></trkpt><trkpt lat="43.6603781" lon="11.1902221"><ele>291.0</ele><time>2026-04-06T10:43:09.708Z</time></trkpt><trkpt lat="43.6602914" lon="11.1901713"><ele>291.8333333333333</ele><time>2026-04-06T10:43:11.709Z</time></trkpt><trkpt lat="43.660208" lon="11.1901244"><ele>292.6666666666667</ele><time>2026-04-06T10:43:13.708Z</time></trkpt><trkpt lat="43.6601397" lon="11.1900626"><ele>293.5</ele><time>2026-04-06T10:43:15.708Z</time></trkpt><trkpt lat="43.6600658" lon="11.1899978"><ele>294.33333333333337</ele><time>2026-04-06T10:43:17.707Z</time></trkpt><trkpt lat="43.6599973" lon="11.189932"><ele>295.1666666666667</ele><time>2026-04-06T10:43:19.708Z</time></trkpt><trkpt lat="43.6599547" lon="11.1898454"><ele>296.0</ele><time>2026-04-06T10:43:20.709Z</time></trkpt><trkpt lat="43.6598899" lon="11.189786"><ele>296.0</ele><time>2026-04-06T10:43:22.707Z</time></trkpt><trkpt lat="43.6598209" lon="11.1897246"><ele>296.0</ele><time>2026-04-06T10:43:24.708Z</time></trkpt><trkpt lat="43.6597569" lon="11.1896734"><ele>296.0</ele><time>2026-04-06T10:43:26.707Z</time></trkpt><trkpt lat="43.6596938" lon="11.1896204"><ele>296.0</ele><time>2026-04-06T10:43:28.708Z</time></trkpt><trkpt lat="43.6596262" lon="11.1895657"><ele>296.0</ele><time>2026-04-06T10:43:30.707Z</time></trkpt><trkpt lat="43.6595645" lon="11.1895223"><ele>296.0</ele><time>2026-04-06T10:43:32.707Z</time></trkpt><trkpt lat="43.6594975" lon="11.1894839"><ele>297.0</ele><time>2026-04-06T10:43:34.707Z</time></trkpt><trkpt lat="43.6594303" lon="11.1894459"><ele>298.0</ele><time>2026-04-06T10:43:36.707Z</time></trkpt><trkpt lat="43.6593592" lon="11.1894074"><ele>299.0</ele><time>2026-04-06T10:43:38.709Z</time></trkpt><trkpt lat="43.6592843" lon="11.189375"><ele>300.0</ele><time>2026-04-06T10:43:40.708Z</time></trkpt><trkpt lat="43.6592173" lon="11.1893409"><ele>301.0</ele><time>2026-04-06T10:43:42.706Z</time></trkpt><trkpt lat="43.6591498" lon="11.1893088"><ele>302.0</ele><time>2026-04-06T10:43:44.708Z</time></trkpt><trkpt lat="43.6590839" lon="11.1892698"><ele>303.0</ele><time>2026-04-06T10:43:46.708Z</time></trkpt><trkpt lat="43.6590138" lon="11.1892202"><ele>303.0</ele><time>2026-04-06T10:43:48.707Z</time></trkpt><trkpt lat="43.6589509" lon="11.1891672"><ele>303.0</ele><time>2026-04-06T10:43:50.707Z</time></trkpt><trkpt lat="43.6588823" lon="11.1891141"><ele>303.0</ele><time>2026-04-06T10:43:52.707Z</time></trkpt><trkpt lat="43.6588329" lon="11.1890584"><ele>303.0</ele><time>2026-04-06T10:43:54.707Z</time></trkpt><trkpt lat="43.6587659" lon="11.1890018"><ele>303.0</ele><time>2026-04-06T10:43:56.708Z</time></trkpt><trkpt lat="43.6586905" lon="11.1889245"><ele>303.0</ele><time>2026-04-06T10:43:58.708Z</time></trkpt><trkpt lat="43.6586211" lon="11.1888441"><ele>303.3333333333333</ele><time>2026-04-06T10:44:00.708Z</time></trkpt><trkpt lat="43.6585658" lon="11.1887571"><ele>303.6666666666667</ele><time>2026-04-06T10:44:02.708Z</time></trkpt><trkpt lat="43.6585182" lon="11.1886629"><ele>304.0</ele><time>2026-04-06T10:44:04.708Z</time></trkpt><trkpt lat="43.6584761" lon="11.1885668"><ele>304.33333333333337</ele><time>2026-04-06T10:44:06.707Z</time></trkpt><trkpt lat="43.6584354" lon="11.1884568"><ele>304.6666666666667</ele><time>2026-04-06T10:44:08.708Z</time></trkpt><trkpt lat="43.6583944" lon="11.1883602"><ele>305.0</ele><time>2026-04-06T10:44:10.706Z</time></trkpt><trkpt lat="43.658361" lon="11.1882864"><ele>305.0</ele><time>2026-04-06T10:44:12.708Z</time></trkpt><trkpt lat="43.6583187" lon="11.1882065"><ele>305.0</ele><time>2026-04-06T10:44:14.707Z</time></trkpt><trkpt lat="43.6582771" lon="11.1881214"><ele>305.0</ele><time>2026-04-06T10:44:16.708Z</time></trkpt><trkpt lat="43.6582342" lon="11.188019"><ele>305.0</ele><time>2026-04-06T10:44:19.71Z</time></trkpt><trkpt lat="43.658195" lon="11.1879429"><ele>305.0</ele><time>2026-04-06T10:44:21.709Z</time></trkpt><trkpt lat="43.6581515" lon="11.187868"><ele>305.0</ele><time>2026-04-06T10:44:23.708Z</time></trkpt><trkpt lat="43.6580984" lon="11.1877844"><ele>305.0</ele><time>2026-04-06T10:44:25.707Z</time></trkpt><trkpt lat="43.6580448" lon="11.1877082"><ele>305.42857142857144</ele><time>2026-04-06T10:44:27.709Z</time></trkpt><trkpt lat="43.6579921" lon="11.1876353"><ele>305.85714285714283</ele><time>2026-04-06T10:44:29.707Z</time></trkpt><trkpt lat="43.6579335" lon="11.1875696"><ele>306.2857142857143</ele><time>2026-04-06T10:44:31.707Z</time></trkpt><trkpt lat="43.6578811" lon="11.1875074"><ele>306.7142857142857</ele><time>2026-04-06T10:44:33.707Z</time></trkpt><trkpt lat="43.6578291" lon="11.1874323"><ele>307.1428571428571</ele><time>2026-04-06T10:44:35.708Z</time></trkpt><trkpt lat="43.6577824" lon="11.1873483"><ele>307.57142857142856</ele><time>2026-04-06T10:44:37.707Z</time></trkpt><trkpt lat="43.6577436" lon="11.1872671"><ele>308.0</ele><time>2026-04-06T10:44:39.708Z</time></trkpt><trkpt lat="43.6577069" lon="11.1871877"><ele>309.0</ele><time>2026-04-06T10:44:41.709Z</time></trkpt><trkpt lat="43.6576641" lon="11.1871043"><ele>310.0</ele><time>2026-04-06T10:44:43.708Z</time></trkpt><trkpt lat="43.657619" lon="11.1870244"><ele>311.0</ele><time>2026-04-06T10:44:45.708Z</time></trkpt><trkpt lat="43.657585" lon="11.1869478"><ele>312.0</ele><time>2026-04-06T10:44:47.707Z</time></trkpt><trkpt lat="43.6575376" lon="11.1868585"><ele>313.0</ele><time>2026-04-06T10:44:50.709Z</time></trkpt><trkpt lat="43.6574896" lon="11.1867862"><ele>314.0</ele><time>2026-04-06T10:44:53.707Z</time></trkpt><trkpt lat="43.6574431" lon="11.1867094"><ele>315.0</ele><time>2026-04-06T10:44:55.708Z</time></trkpt><trkpt lat="43.657384" lon="11.1866105"><ele>315.0</ele><time>2026-04-06T10:44:58.707Z</time></trkpt><trkpt lat="43.6573404" lon="11.1865371"><ele>315.0</ele><time>2026-04-06T10:45:00.708Z</time></trkpt><trkpt lat="43.6573011" lon="11.1864666"><ele>315.0</ele><time>2026-04-06T10:45:02.708Z</time></trkpt><trkpt lat="43.6572609" lon="11.1863986"><ele>315.0</ele><time>2026-04-06T10:45:04.708Z</time></trkpt><trkpt lat="43.657218" lon="11.1863238"><ele>315.0</ele><time>2026-04-06T10:45:06.709Z</time></trkpt><trkpt lat="43.6571753" lon="11.1862514"><ele>315.0</ele><time>2026-04-06T10:45:08.709Z</time></trkpt><trkpt lat="43.6571298" lon="11.1861476"><ele>315.0</ele><time>2026-04-06T10:45:11.708Z</time></trkpt><trkpt lat="43.6570816" lon="11.1860539"><ele>315.5</ele><time>2026-04-06T10:45:14.707Z</time></trkpt><trkpt lat="43.6570408" lon="11.1859291"><ele>316.0</ele><time>2026-04-06T10:45:17.707Z</time></trkpt><trkpt lat="43.657025" lon="11.1858262"><ele>316.5</ele><time>2026-04-06T10:45:19.707Z</time></trkpt><trkpt lat="43.6570142" lon="11.1857247"><ele>317.0</ele><time>2026-04-06T10:45:21.707Z</time></trkpt><trkpt lat="43.6570019" lon="11.1856297"><ele>317.5</ele><time>2026-04-06T10:45:23.707Z</time></trkpt><trkpt lat="43.6570031" lon="11.1855406"><ele>318.0</ele><time>2026-04-06T10:45:26.707Z</time></trkpt><trkpt lat="43.6569881" lon="11.1854171"><ele>318.1666666666667</ele><time>2026-04-06T10:45:30.708Z</time></trkpt><trkpt lat="43.656967" lon="11.1853095"><ele>318.3333333333333</ele><time>2026-04-06T10:45:32.707Z</time></trkpt><trkpt lat="43.656952" lon="11.1852119"><ele>318.5</ele><time>2026-04-06T10:45:34.707Z</time></trkpt><trkpt lat="43.6569374" lon="11.1851146"><ele>318.66666666666663</ele><time>2026-04-06T10:45:36.708Z</time></trkpt><trkpt lat="43.6569286" lon="11.1849922"><ele>318.8333333333333</ele><time>2026-04-06T10:45:39.708Z</time></trkpt><trkpt lat="43.6569276" lon="11.184898"><ele>319.0</ele><time>2026-04-06T10:45:42.706Z</time></trkpt><trkpt lat="43.6569003" lon="11.1848011"><ele>317.8333333333333</ele><time>2026-04-06T10:45:45.707Z</time></trkpt><trkpt lat="43.656836" lon="11.1847322"><ele>316.66666666666663</ele><time>2026-04-06T10:45:49.707Z</time></trkpt><trkpt lat="43.6567751" lon="11.1846656"><ele>315.5</ele><time>2026-04-06T10:45:54.706Z</time></trkpt><trkpt lat="43.6567352" lon="11.1845885"><ele>314.3333333333333</ele><time>2026-04-06T10:45:57.707Z</time></trkpt><trkpt lat="43.6566839" lon="11.1844841"><ele>313.1666666666667</ele><time>2026-04-06T10:46:00.706Z</time></trkpt><trkpt lat="43.6566559" lon="11.1843985"><ele>312.0</ele><time>2026-04-06T10:46:03.707Z</time></trkpt><trkpt lat="43.6565993" lon="11.1843389"><ele>312.0</ele><time>2026-04-06T10:46:07.707Z</time></trkpt><trkpt lat="43.656528" lon="11.184272"><ele>312.0</ele><time>2026-04-06T10:46:10.706Z</time></trkpt><trkpt lat="43.6565369" lon="11.1841642"><ele>312.0</ele><time>2026-04-06T10:46:18.706Z</time></trkpt><trkpt lat="43.6565994" lon="11.1841213"><ele>312.0</ele><time>2026-04-06T10:46:21.707Z</time></trkpt><trkpt lat="43.6566642" lon="11.1841181"><ele>312.0</ele><time>2026-04-06T10:46:23.706Z</time></trkpt><trkpt lat="43.6567382" lon="11.1840817"><ele>312.0</ele><time>2026-04-06T10:46:26.707Z</time></trkpt><trkpt lat="43.65682" lon="11.1840627"><ele>312.0</ele><time>2026-04-06T10:46:30.706Z</time></trkpt><trkpt lat="43.6568963" lon="11.1840604"><ele>312.0</ele><time>2026-04-06T10:46:34.709Z</time></trkpt><trkpt lat="43.6569334" lon="11.1839821"><ele>312.0</ele><time>2026-04-06T10:46:41.707Z</time></trkpt><trkpt lat="43.6569669" lon="11.1838873"><ele>312.0</ele><time>2026-04-06T10:46:48.707Z</time></trkpt><trkpt lat="43.6569806" lon="11.1838006"><ele>312.0</ele><time>2026-04-06T10:46:51.708Z</time></trkpt><trkpt lat="43.6569497" lon="11.1837063"><ele>312.0</ele><time>2026-04-06T10:46:55.706Z</time></trkpt><trkpt lat="43.6569457" lon="11.1836121"><ele>312.0</ele><time>2026-04-06T10:47:01.706Z</time></trkpt><trkpt lat="43.6569808" lon="11.183518"><ele>312.2857142857143</ele><time>2026-04-06T10:47:06.707Z</time></trkpt><trkpt lat="43.6570018" lon="11.1834354"><ele>312.57142857142856</ele><time>2026-04-06T10:47:09.708Z</time></trkpt><trkpt lat="43.6570299" lon="11.183346"><ele>312.85714285714283</ele><time>2026-04-06T10:47:12.707Z</time></trkpt><trkpt lat="43.6570614" lon="11.1832686"><ele>313.1428571428571</ele><time>2026-04-06T10:47:15.707Z</time></trkpt><trkpt lat="43.657093" lon="11.1831792"><ele>313.42857142857144</ele><time>2026-04-06T10:47:19.707Z</time></trkpt><trkpt lat="43.6571624" lon="11.1831212"><ele>313.71428571428567</ele><time>2026-04-06T10:47:23.707Z</time></trkpt><trkpt lat="43.657218" lon="11.1830678"><ele>314.0</ele><time>2026-04-06T10:47:26.707Z</time></trkpt><trkpt lat="43.6572117" lon="11.1829473"><ele>313.99999999999994</ele><time>2026-04-06T10:47:30.708Z</time></trkpt><trkpt lat="43.6571793" lon="11.1828631"><ele>314.0</ele><time>2026-04-06T10:47:33.708Z</time></trkpt><trkpt lat="43.6571616" lon="11.1827511"><ele>314.0</ele><time>2026-04-06T10:47:37.706Z</time></trkpt><trkpt lat="43.6571251" lon="11.1826702"><ele>314.0</ele><time>2026-04-06T10:47:40.706Z</time></trkpt><trkpt lat="43.6570959" lon="11.1825886"><ele>314.0</ele><time>2026-04-06T10:47:43.707Z</time></trkpt><trkpt lat="43.6570571" lon="11.1825119"><ele>313.99999999999994</ele><time>2026-04-06T10:47:46.708Z</time></trkpt><trkpt lat="43.6570274" lon="11.1824305"><ele>314.0</ele><time>2026-04-06T10:47:49.707Z</time></trkpt><trkpt lat="43.6570049" lon="11.1823314"><ele>314.0</ele><time>2026-04-06T10:47:52.708Z</time></trkpt><trkpt lat="43.6569741" lon="11.1822373"><ele>314.0</ele><time>2026-04-06T10:47:55.707Z</time></trkpt><trkpt lat="43.6569462" lon="11.1821417"><ele>314.0</ele><time>2026-04-06T10:47:58.707Z</time></trkpt><trkpt lat="43.6569225" lon="11.1820453"><ele>314.0</ele><time>2026-04-06T10:48:01.707Z</time></trkpt><trkpt lat="43.6568943" lon="11.1819325"><ele>314.0</ele><time>2026-04-06T10:48:05.707Z</time></trkpt><trkpt lat="43.656871" lon="11.181835"><ele>314.0</ele><time>2026-04-06T10:48:08.707Z</time></trkpt><trkpt lat="43.6568616" lon="11.1817372"><ele>313.99999999999994</ele><time>2026-04-06T10:49:12.706Z</time></trkpt><trkpt lat="43.656905" lon="11.1818189"><ele>314.0</ele><time>2026-04-06T11:24:04.702Z</time></trkpt><trkpt lat="43.6569307" lon="11.1819117"><ele>314.0</ele><time>2026-04-06T11:24:07.703Z</time></trkpt><trkpt lat="43.6569514" lon="11.1819978"><ele>314.0</ele><time>2026-04-06T11:24:10.702Z</time></trkpt><trkpt lat="43.6569747" lon="11.1821064"><ele>314.0</ele><time>2026-04-06T11:24:13.703Z</time></trkpt><trkpt lat="43.657012" lon="11.1822198"><ele>313.99999999999994</ele><time>2026-04-06T11:24:16.701Z</time></trkpt><trkpt lat="43.6570359" lon="11.1823043"><ele>314.0</ele><time>2026-04-06T11:24:18.701Z</time></trkpt><trkpt lat="43.6570661" lon="11.1824288"><ele>314.0</ele><time>2026-04-06T11:24:21.701Z</time></trkpt><trkpt lat="43.6570922" lon="11.1825362"><ele>314.0</ele><time>2026-04-06T11:24:24.702Z</time></trkpt><trkpt lat="43.6571106" lon="11.1826394"><ele>314.0</ele><time>2026-04-06T11:24:27.703Z</time></trkpt><trkpt lat="43.6571338" lon="11.1827582"><ele>314.0</ele><time>2026-04-06T11:24:30.702Z</time></trkpt><trkpt lat="43.6571624" lon="11.1828616"><ele>314.0</ele><time>2026-04-06T11:24:33.703Z</time></trkpt><trkpt lat="43.657193" lon="11.1829391"><ele>314.0</ele><time>2026-04-06T11:24:36.703Z</time></trkpt><trkpt lat="43.6572127" lon="11.1830538"><ele>314.0</ele><time>2026-04-06T11:24:40.702Z</time></trkpt><trkpt lat="43.657194" lon="11.1831543"><ele>314.0</ele><time>2026-04-06T11:24:43.703Z</time></trkpt><trkpt lat="43.6571646" lon="11.1832484"><ele>314.0</ele><time>2026-04-06T11:24:48.701Z</time></trkpt><trkpt lat="43.6571425" lon="11.1833502"><ele>314.0</ele><time>2026-04-06T11:24:52.702Z</time></trkpt><trkpt lat="43.6571387" lon="11.18345"><ele>314.0</ele><time>2026-04-06T11:24:57.704Z</time></trkpt><trkpt lat="43.6571343" lon="11.1835674"><ele>314.0</ele><time>2026-04-06T11:25:03.701Z</time></trkpt><trkpt lat="43.6571061" lon="11.1836636"><ele>314.0</ele><time>2026-04-06T11:25:07.702Z</time></trkpt><trkpt lat="43.6570695" lon="11.1837403"><ele>314.0</ele><time>2026-04-06T11:25:09.703Z</time></trkpt><trkpt lat="43.6570385" lon="11.1838435"><ele>314.0</ele><time>2026-04-06T11:25:12.703Z</time></trkpt><trkpt lat="43.6570176" lon="11.183944"><ele>314.0</ele><time>2026-04-06T11:25:16.703Z</time></trkpt><trkpt lat="43.6569557" lon="11.184019"><ele>314.0</ele><time>2026-04-06T11:25:19.701Z</time></trkpt><trkpt lat="43.6569023" lon="11.1840696"><ele>314.0</ele><time>2026-04-06T11:25:22.702Z</time></trkpt><trkpt lat="43.6568243" lon="11.1840964"><ele>313.6666666666667</ele><time>2026-04-06T11:25:25.702Z</time></trkpt><trkpt lat="43.6567513" lon="11.1841061"><ele>313.33333333333337</ele><time>2026-04-06T11:25:29.702Z</time></trkpt><trkpt lat="43.6566767" lon="11.184112"><ele>313.0</ele><time>2026-04-06T11:25:32.702Z</time></trkpt><trkpt lat="43.6565899" lon="11.1841311"><ele>312.6666666666667</ele><time>2026-04-06T11:25:35.702Z</time></trkpt><trkpt lat="43.656511" lon="11.1841555"><ele>312.3333333333333</ele><time>2026-04-06T11:25:38.703Z</time></trkpt><trkpt lat="43.6564851" lon="11.1842583"><ele>312.0</ele><time>2026-04-06T11:25:42.704Z</time></trkpt><trkpt lat="43.6565283" lon="11.184335"><ele>312.0</ele><time>2026-04-06T11:25:47.702Z</time></trkpt><trkpt lat="43.6565956" lon="11.1843613"><ele>312.0</ele><time>2026-04-06T11:26:04.702Z</time></trkpt><trkpt lat="43.6565491" lon="11.1842853"><ele>312.0</ele><time>2026-04-06T11:27:22.701Z</time></trkpt><trkpt lat="43.6565814" lon="11.1843709"><ele>312.0</ele><time>2026-04-06T11:27:31.701Z</time></trkpt><trkpt lat="43.6566185" lon="11.184446"><ele>312.0</ele><time>2026-04-06T11:27:37.702Z</time></trkpt><trkpt lat="43.6566314" lon="11.184533"><ele>312.0</ele><time>2026-04-06T11:27:43.703Z</time></trkpt><trkpt lat="43.6566352" lon="11.1846246"><ele>312.0</ele><time>2026-04-06T11:27:52.701Z</time></trkpt><trkpt lat="43.6566282" lon="11.1845331"><ele>312.0</ele><time>2026-04-06T11:29:26.396Z</time></trkpt><trkpt lat="43.6566093" lon="11.1844487"><ele>312.0</ele><time>2026-04-06T11:29:31.701Z</time></trkpt><trkpt lat="43.6565678" lon="11.1843783"><ele>312.0</ele><time>2026-04-06T11:29:39.701Z</time></trkpt><trkpt lat="43.656482" lon="11.1843335"><ele>312.0</ele><time>2026-04-06T11:31:44.523Z</time></trkpt><trkpt lat="43.6565504" lon="11.1843955"><ele>312.0</ele><time>2026-04-06T11:41:14.7Z</time></trkpt><trkpt lat="43.656579" lon="11.1844796"><ele>312.0</ele><time>2026-04-06T11:41:17.7Z</time></trkpt><trkpt lat="43.6566117" lon="11.1845696"><ele>312.0</ele><time>2026-04-06T11:41:21.7Z</time></trkpt><trkpt lat="43.6566566" lon="11.1846546"><ele>312.0</ele><time>2026-04-06T11:41:25.701Z</time></trkpt><trkpt lat="43.6567084" lon="11.1847293"><ele>312.0</ele><time>2026-04-06T11:41:28.7Z</time></trkpt><trkpt lat="43.6567511" lon="11.1847975"><ele>312.0</ele><time>2026-04-06T11:41:31.699Z</time></trkpt><trkpt lat="43.6568015" lon="11.184871"><ele>312.0</ele><time>2026-04-06T11:41:34.7Z</time></trkpt><trkpt lat="43.6568504" lon="11.1849506"><ele>312.0</ele><time>2026-04-06T11:41:37.699Z</time></trkpt><trkpt lat="43.6568979" lon="11.1850286"><ele>312.0</ele><time>2026-04-06T11:41:40.7Z</time></trkpt><trkpt lat="43.6569285" lon="11.1851057"><ele>312.0</ele><time>2026-04-06T11:41:43.701Z</time></trkpt><trkpt lat="43.6569719" lon="11.1851972"><ele>312.8571428571429</ele><time>2026-04-06T11:41:47.701Z</time></trkpt><trkpt lat="43.6569964" lon="11.1852797"><ele>313.71428571428567</ele><time>2026-04-06T11:41:50.699Z</time></trkpt><trkpt lat="43.6570225" lon="11.1853667"><ele>314.57142857142856</ele><time>2026-04-06T11:41:53.7Z</time></trkpt><trkpt lat="43.6570561" lon="11.1854518"><ele>315.42857142857144</ele><time>2026-04-06T11:41:56.699Z</time></trkpt><trkpt lat="43.6570861" lon="11.1855366"><ele>316.28571428571433</ele><time>2026-04-06T11:41:59.7Z</time></trkpt><trkpt lat="43.6570748" lon="11.1856404"><ele>317.1428571428571</ele><time>2026-04-06T11:42:02.699Z</time></trkpt><trkpt lat="43.6570456" lon="11.1857268"><ele>318.0</ele><time>2026-04-06T11:42:05.7Z</time></trkpt><trkpt lat="43.6570568" lon="11.1858166"><ele>318.0</ele><time>2026-04-06T11:42:08.701Z</time></trkpt><trkpt lat="43.657087" lon="11.1859291"><ele>318.0</ele><time>2026-04-06T11:42:11.699Z</time></trkpt><trkpt lat="43.6571075" lon="11.1860298"><ele>318.0</ele><time>2026-04-06T11:42:14.7Z</time></trkpt><trkpt lat="43.6571493" lon="11.1861114"><ele>318.0</ele><time>2026-04-06T11:42:17.7Z</time></trkpt><trkpt lat="43.6571962" lon="11.1861949"><ele>318.0</ele><time>2026-04-06T11:42:20.7Z</time></trkpt><trkpt lat="43.6572433" lon="11.1863011"><ele>318.0</ele><time>2026-04-06T11:42:23.7Z</time></trkpt><trkpt lat="43.6572923" lon="11.1863999"><ele>318.0</ele><time>2026-04-06T11:42:26.699Z</time></trkpt><trkpt lat="43.6573481" lon="11.1864898"><ele>318.0</ele><time>2026-04-06T11:42:29.7Z</time></trkpt><trkpt lat="43.6573881" lon="11.1865593"><ele>318.0</ele><time>2026-04-06T11:42:31.7Z</time></trkpt><trkpt lat="43.6574341" lon="11.1866322"><ele>318.0</ele><time>2026-04-06T11:42:33.7Z</time></trkpt><trkpt lat="43.6574887" lon="11.186737"><ele>318.0</ele><time>2026-04-06T11:42:36.701Z</time></trkpt><trkpt lat="43.6575281" lon="11.1868129"><ele>318.0</ele><time>2026-04-06T11:42:38.699Z</time></trkpt><trkpt lat="43.6575651" lon="11.1869101"><ele>317.25</ele><time>2026-04-06T11:42:40.7Z</time></trkpt><trkpt lat="43.6576145" lon="11.1870452"><ele>316.5</ele><time>2026-04-06T11:42:42.7Z</time></trkpt><trkpt lat="43.6576923" lon="11.1871436"><ele>315.75</ele><time>2026-04-06T11:42:44.699Z</time></trkpt><trkpt lat="43.6577808" lon="11.1872726"><ele>315.0</ele><time>2026-04-06T11:42:46.7Z</time></trkpt><trkpt lat="43.6578792" lon="11.1873708"><ele>313.6</ele><time>2026-04-06T11:42:48.7Z</time></trkpt><trkpt lat="43.6579177" lon="11.1874456"><ele>312.2</ele><time>2026-04-06T11:42:49.701Z</time></trkpt><trkpt lat="43.6579911" lon="11.187562"><ele>310.8</ele><time>2026-04-06T11:42:51.7Z</time></trkpt><trkpt lat="43.6580617" lon="11.1876552"><ele>309.4</ele><time>2026-04-06T11:42:53.699Z</time></trkpt><trkpt lat="43.658108" lon="11.1877829"><ele>308.0</ele><time>2026-04-06T11:42:55.699Z</time></trkpt><trkpt lat="43.6581729" lon="11.1878943"><ele>308.0</ele><time>2026-04-06T11:42:57.7Z</time></trkpt><trkpt lat="43.6582469" lon="11.1880113"><ele>308.0</ele><time>2026-04-06T11:42:59.7Z</time></trkpt><trkpt lat="43.6583165" lon="11.1880895"><ele>308.0</ele><time>2026-04-06T11:43:01.7Z</time></trkpt><trkpt lat="43.6583683" lon="11.188165"><ele>308.0</ele><time>2026-04-06T11:43:03.699Z</time></trkpt><trkpt lat="43.6583824" lon="11.188286"><ele>308.0</ele><time>2026-04-06T11:43:06.7Z</time></trkpt><trkpt lat="43.6583709" lon="11.1883852"><ele>308.0</ele><time>2026-04-06T11:43:08.699Z</time></trkpt><trkpt lat="43.6583501" lon="11.1884866"><ele>307.5</ele><time>2026-04-06T11:43:10.7Z</time></trkpt><trkpt lat="43.6583492" lon="11.1886094"><ele>307.0</ele><time>2026-04-06T11:43:12.698Z</time></trkpt><trkpt lat="43.6584183" lon="11.1886818"><ele>306.5</ele><time>2026-04-06T11:43:14.699Z</time></trkpt><trkpt lat="43.6584847" lon="11.1887449"><ele>306.0</ele><time>2026-04-06T11:43:16.698Z</time></trkpt><trkpt lat="43.6585515" lon="11.1888034"><ele>305.5</ele><time>2026-04-06T11:43:18.698Z</time></trkpt><trkpt lat="43.6586211" lon="11.188875"><ele>305.0</ele><time>2026-04-06T11:43:20.699Z</time></trkpt><trkpt lat="43.6586825" lon="11.1889455"><ele>304.7142857142857</ele><time>2026-04-06T11:43:22.699Z</time></trkpt><trkpt lat="43.6587402" lon="11.1889975"><ele>304.4285714285714</ele><time>2026-04-06T11:43:24.7Z</time></trkpt><trkpt lat="43.6587885" lon="11.1890633"><ele>304.1428571428571</ele><time>2026-04-06T11:43:26.7Z</time></trkpt><trkpt lat="43.6588426" lon="11.1891262"><ele>303.8571428571429</ele><time>2026-04-06T11:43:28.7Z</time></trkpt><trkpt lat="43.6589035" lon="11.1891876"><ele>303.57142857142856</ele><time>2026-04-06T11:43:30.701Z</time></trkpt><trkpt lat="43.658966" lon="11.189247"><ele>303.2857142857143</ele><time>2026-04-06T11:43:32.699Z</time></trkpt><trkpt lat="43.6590338" lon="11.1893034"><ele>303.0</ele><time>2026-04-06T11:43:34.7Z</time></trkpt><trkpt lat="43.6591077" lon="11.1893486"><ele>303.0</ele><time>2026-04-06T11:43:36.699Z</time></trkpt><trkpt lat="43.6591865" lon="11.1893907"><ele>303.0</ele><time>2026-04-06T11:43:38.7Z</time></trkpt><trkpt lat="43.6592912" lon="11.1894282"><ele>303.0</ele><time>2026-04-06T11:43:40.7Z</time></trkpt><trkpt lat="43.6593469" lon="11.1894716"><ele>303.0</ele><time>2026-04-06T11:43:41.7Z</time></trkpt><trkpt lat="43.65942" lon="11.1895185"><ele>303.0</ele><time>2026-04-06T11:43:42.7Z</time></trkpt><trkpt lat="43.6594816" lon="11.1895549"><ele>303.0</ele><time>2026-04-06T11:43:43.7Z</time></trkpt><trkpt lat="43.6595376" lon="11.1895955"><ele>302.57142857142856</ele><time>2026-04-06T11:43:44.699Z</time></trkpt><trkpt lat="43.6595954" lon="11.1896428"><ele>302.1428571428571</ele><time>2026-04-06T11:43:45.698Z</time></trkpt><trkpt lat="43.6596547" lon="11.1896899"><ele>301.71428571428567</ele><time>2026-04-06T11:43:46.7Z</time></trkpt><trkpt lat="43.6597231" lon="11.189731"><ele>301.2857142857143</ele><time>2026-04-06T11:43:47.701Z</time></trkpt><trkpt lat="43.6597845" lon="11.1897752"><ele>300.85714285714283</ele><time>2026-04-06T11:43:48.699Z</time></trkpt><trkpt lat="43.659843" lon="11.1898318"><ele>300.4285714285714</ele><time>2026-04-06T11:43:49.699Z</time></trkpt><trkpt lat="43.6598954" lon="11.1898829"><ele>300.0</ele><time>2026-04-06T11:43:50.7Z</time></trkpt><trkpt lat="43.6599631" lon="11.1899271"><ele>300.0</ele><time>2026-04-06T11:43:51.699Z</time></trkpt><trkpt lat="43.6600142" lon="11.1899905"><ele>300.0</ele><time>2026-04-06T11:43:52.699Z</time></trkpt><trkpt lat="43.6600746" lon="11.1900432"><ele>300.0</ele><time>2026-04-06T11:43:53.699Z</time></trkpt><trkpt lat="43.660127" lon="11.1901125"><ele>300.0</ele><time>2026-04-06T11:43:54.7Z</time></trkpt><trkpt lat="43.6601902" lon="11.1901668"><ele>300.0</ele><time>2026-04-06T11:43:55.7Z</time></trkpt><trkpt lat="43.6602666" lon="11.1902313"><ele>300.0</ele><time>2026-04-06T11:43:56.701Z</time></trkpt><trkpt lat="43.6603395" lon="11.1902902"><ele>298.2</ele><time>2026-04-06T11:43:57.7Z</time></trkpt><trkpt lat="43.6604435" lon="11.1904028"><ele>296.4</ele><time>2026-04-06T11:43:59.7Z</time></trkpt><trkpt lat="43.6605336" lon="11.1904466"><ele>294.6</ele><time>2026-04-06T11:44:00.7Z</time></trkpt><trkpt lat="43.6606441" lon="11.19049"><ele>292.8</ele><time>2026-04-06T11:44:02.7Z</time></trkpt><trkpt lat="43.6607168" lon="11.1905141"><ele>291.0</ele><time>2026-04-06T11:44:03.7Z</time></trkpt><trkpt lat="43.6607855" lon="11.1905182"><ele>291.0</ele><time>2026-04-06T11:44:04.7Z</time></trkpt><trkpt lat="43.6608573" lon="11.1905361"><ele>291.0</ele><time>2026-04-06T11:44:05.699Z</time></trkpt><trkpt lat="43.6609352" lon="11.1905485"><ele>291.0</ele><time>2026-04-06T11:44:06.701Z</time></trkpt><trkpt lat="43.6610038" lon="11.190567"><ele>291.0</ele><time>2026-04-06T11:44:07.699Z</time></trkpt><trkpt lat="43.6610724" lon="11.1905841"><ele>291.0</ele><time>2026-04-06T11:44:08.698Z</time></trkpt><trkpt lat="43.661139" lon="11.1905989"><ele>291.0</ele><time>2026-04-06T11:44:09.7Z</time></trkpt><trkpt lat="43.6612082" lon="11.1906094"><ele>291.0</ele><time>2026-04-06T11:44:10.698Z</time></trkpt><trkpt lat="43.6612799" lon="11.1906141"><ele>291.1428571428571</ele><time>2026-04-06T11:44:11.699Z</time></trkpt><trkpt lat="43.6613474" lon="11.1906283"><ele>291.2857142857143</ele><time>2026-04-06T11:44:12.698Z</time></trkpt><trkpt lat="43.661422" lon="11.1906464"><ele>291.42857142857144</ele><time>2026-04-06T11:44:13.7Z</time></trkpt><trkpt lat="43.6614877" lon="11.1906548"><ele>291.57142857142856</ele><time>2026-04-06T11:44:14.7Z</time></trkpt><trkpt lat="43.6615544" lon="11.1906683"><ele>291.7142857142857</ele><time>2026-04-06T11:44:15.701Z</time></trkpt><trkpt lat="43.6616131" lon="11.1907018"><ele>291.85714285714283</ele><time>2026-04-06T11:44:16.699Z</time></trkpt><trkpt lat="43.6616824" lon="11.1907278"><ele>292.0</ele><time>2026-04-06T11:44:17.699Z</time></trkpt><trkpt lat="43.6617575" lon="11.1907547"><ele>292.0</ele><time>2026-04-06T11:44:18.699Z</time></trkpt><trkpt lat="43.6618235" lon="11.1907939"><ele>292.0</ele><time>2026-04-06T11:44:19.7Z</time></trkpt><trkpt lat="43.661945" lon="11.1908719"><ele>292.0</ele><time>2026-04-06T11:44:21.699Z</time></trkpt><trkpt lat="43.6619953" lon="11.1909251"><ele>292.0</ele><time>2026-04-06T11:44:22.7Z</time></trkpt><trkpt lat="43.6620355" lon="11.1909923"><ele>292.0</ele><time>2026-04-06T11:44:23.699Z</time></trkpt><trkpt lat="43.6620943" lon="11.1911302"><ele>292.0</ele><time>2026-04-06T11:44:25.698Z</time></trkpt><trkpt lat="43.6621019" lon="11.1912219"><ele>290.8333333333333</ele><time>2026-04-06T11:44:26.7Z</time></trkpt><trkpt lat="43.6621349" lon="11.1913006"><ele>289.66666666666663</ele><time>2026-04-06T11:44:27.699Z</time></trkpt><trkpt lat="43.662213" lon="11.1914049"><ele>288.5</ele><time>2026-04-06T11:44:29.699Z</time></trkpt><trkpt lat="43.6623124" lon="11.1914084"><ele>287.3333333333333</ele><time>2026-04-06T11:44:31.7Z</time></trkpt><trkpt lat="43.6623602" lon="11.1913505"><ele>286.1666666666667</ele><time>2026-04-06T11:44:32.7Z</time></trkpt><trkpt lat="43.6624148" lon="11.1913035"><ele>285.0</ele><time>2026-04-06T11:44:33.699Z</time></trkpt><trkpt lat="43.6624696" lon="11.1912419"><ele>285.0</ele><time>2026-04-06T11:44:34.7Z</time></trkpt><trkpt lat="43.6625347" lon="11.1912231"><ele>285.0</ele><time>2026-04-06T11:44:35.698Z</time></trkpt><trkpt lat="43.6626083" lon="11.1912205"><ele>285.0</ele><time>2026-04-06T11:44:36.699Z</time></trkpt><trkpt lat="43.6626806" lon="11.191228"><ele>285.0</ele><time>2026-04-06T11:44:37.698Z</time></trkpt><trkpt lat="43.6627502" lon="11.1912415"><ele>285.0</ele><time>2026-04-06T11:44:38.701Z</time></trkpt><trkpt lat="43.6628167" lon="11.1912491"><ele>285.0</ele><time>2026-04-06T11:44:39.699Z</time></trkpt><trkpt lat="43.6629345" lon="11.1912667"><ele>284.2</ele><time>2026-04-06T11:44:41.698Z</time></trkpt><trkpt lat="43.6630375" lon="11.1912773"><ele>283.4</ele><time>2026-04-06T11:44:43.699Z</time></trkpt><trkpt lat="43.6631463" lon="11.191289"><ele>282.6</ele><time>2026-04-06T11:44:45.7Z</time></trkpt><trkpt lat="43.6632445" lon="11.1912952"><ele>281.8</ele><time>2026-04-06T11:44:47.7Z</time></trkpt><trkpt lat="43.663358" lon="11.1913344"><ele>281.0</ele><time>2026-04-06T11:44:49.699Z</time></trkpt><trkpt lat="43.6634194" lon="11.1913602"><ele>281.0</ele><time>2026-04-06T11:44:50.7Z</time></trkpt><trkpt lat="43.6635405" lon="11.1913954"><ele>281.0</ele><time>2026-04-06T11:44:52.701Z</time></trkpt><trkpt lat="43.6636455" lon="11.1914135"><ele>281.0</ele><time>2026-04-06T11:44:54.701Z</time></trkpt><trkpt lat="43.6637494" lon="11.1914676"><ele>281.0</ele><time>2026-04-06T11:44:56.701Z</time></trkpt><trkpt lat="43.663855" lon="11.1915134"><ele>281.2</ele><time>2026-04-06T11:44:58.699Z</time></trkpt><trkpt lat="43.6639319" lon="11.1915858"><ele>281.40000000000003</ele><time>2026-04-06T11:45:00.699Z</time></trkpt><trkpt lat="43.6640179" lon="11.1916601"><ele>281.6</ele><time>2026-04-06T11:45:02.702Z</time></trkpt><trkpt lat="43.6640863" lon="11.1916997"><ele>281.8</ele><time>2026-04-06T11:45:03.699Z</time></trkpt><trkpt lat="43.6641495" lon="11.1917628"><ele>282.0</ele><time>2026-04-06T11:45:04.699Z</time></trkpt><trkpt lat="43.6642517" lon="11.1918334"><ele>282.0</ele><time>2026-04-06T11:45:06.7Z</time></trkpt><trkpt lat="43.6643454" lon="11.1919167"><ele>282.0</ele><time>2026-04-06T11:45:08.7Z</time></trkpt><trkpt lat="43.6644011" lon="11.1919644"><ele>282.0</ele><time>2026-04-06T11:45:09.7Z</time></trkpt><trkpt lat="43.6645008" lon="11.1920223"><ele>282.0</ele><time>2026-04-06T11:45:11.699Z</time></trkpt><trkpt lat="43.664585" lon="11.1921087"><ele>282.0</ele><time>2026-04-06T11:45:13.7Z</time></trkpt><trkpt lat="43.6646659" lon="11.1922103"><ele>282.0</ele><time>2026-04-06T11:45:15.699Z</time></trkpt><trkpt lat="43.6647537" lon="11.1923166"><ele>282.0</ele><time>2026-04-06T11:45:17.698Z</time></trkpt><trkpt lat="43.6648495" lon="11.1924217"><ele>282.0</ele><time>2026-04-06T11:45:19.699Z</time></trkpt><trkpt lat="43.664938" lon="11.1925254"><ele>282.0</ele><time>2026-04-06T11:45:21.698Z</time></trkpt><trkpt lat="43.6649928" lon="11.1925727"><ele>282.0</ele><time>2026-04-06T11:45:22.7Z</time></trkpt><trkpt lat="43.6650871" lon="11.1926639"><ele>282.0</ele><time>2026-04-06T11:45:24.699Z</time></trkpt><trkpt lat="43.6651774" lon="11.1927663"><ele>282.0</ele><time>2026-04-06T11:45:26.7Z</time></trkpt><trkpt lat="43.6652656" lon="11.1928751"><ele>282.0</ele><time>2026-04-06T11:45:28.699Z</time></trkpt><trkpt lat="43.6653357" lon="11.1929827"><ele>282.0</ele><time>2026-04-06T11:45:30.699Z</time></trkpt><trkpt lat="43.6654177" lon="11.1930844"><ele>283.0</ele><time>2026-04-06T11:45:32.699Z</time></trkpt><trkpt lat="43.6654911" lon="11.1931996"><ele>284.0</ele><time>2026-04-06T11:45:34.7Z</time></trkpt><trkpt lat="43.665552" lon="11.193298"><ele>285.0</ele><time>2026-04-06T11:45:36.698Z</time></trkpt><trkpt lat="43.6656202" lon="11.1934087"><ele>286.0</ele><time>2026-04-06T11:45:38.7Z</time></trkpt><trkpt lat="43.6656842" lon="11.1935032"><ele>287.0</ele><time>2026-04-06T11:45:40.7Z</time></trkpt><trkpt lat="43.6657367" lon="11.1935884"><ele>287.0</ele><time>2026-04-06T11:45:42.699Z</time></trkpt><trkpt lat="43.6658018" lon="11.1936697"><ele>287.0</ele><time>2026-04-06T11:45:44.698Z</time></trkpt><trkpt lat="43.6658564" lon="11.1937573"><ele>287.0</ele><time>2026-04-06T11:45:46.699Z</time></trkpt><trkpt lat="43.6659343" lon="11.1938437"><ele>287.0</ele><time>2026-04-06T11:45:48.7Z</time></trkpt><trkpt lat="43.6660072" lon="11.1939415"><ele>287.0</ele><time>2026-04-06T11:45:50.698Z</time></trkpt><trkpt lat="43.6660807" lon="11.1940328"><ele>285.33333333333337</ele><time>2026-04-06T11:45:52.699Z</time></trkpt><trkpt lat="43.6661602" lon="11.1941215"><ele>283.6666666666667</ele><time>2026-04-06T11:45:54.699Z</time></trkpt><trkpt lat="43.6662172" lon="11.1942014"><ele>282.0</ele><time>2026-04-06T11:45:56.699Z</time></trkpt><trkpt lat="43.6662721" lon="11.1942695"><ele>280.3333333333333</ele><time>2026-04-06T11:45:58.699Z</time></trkpt><trkpt lat="43.6663191" lon="11.1943434"><ele>278.66666666666663</ele><time>2026-04-06T11:46:00.7Z</time></trkpt><trkpt lat="43.6663743" lon="11.1944305"><ele>277.0</ele><time>2026-04-06T11:46:02.699Z</time></trkpt><trkpt lat="43.6664331" lon="11.194513"><ele>277.0</ele><time>2026-04-06T11:46:04.699Z</time></trkpt><trkpt lat="43.6664973" lon="11.1946072"><ele>277.0</ele><time>2026-04-06T11:46:06.7Z</time></trkpt><trkpt lat="43.6665722" lon="11.1946999"><ele>277.0</ele><time>2026-04-06T11:46:08.699Z</time></trkpt><trkpt lat="43.6666551" lon="11.1948214"><ele>277.0</ele><time>2026-04-06T11:46:10.699Z</time></trkpt><trkpt lat="43.6667417" lon="11.194925"><ele>277.0</ele><time>2026-04-06T11:46:12.698Z</time></trkpt><trkpt lat="43.6667934" lon="11.1949825"><ele>277.6</ele><time>2026-04-06T11:46:13.699Z</time></trkpt><trkpt lat="43.6668383" lon="11.1950461"><ele>278.2</ele><time>2026-04-06T11:46:14.698Z</time></trkpt><trkpt lat="43.6668858" lon="11.1951056"><ele>278.8</ele><time>2026-04-06T11:46:15.7Z</time></trkpt><trkpt lat="43.666976" lon="11.1952156"><ele>279.4</ele><time>2026-04-06T11:46:17.7Z</time></trkpt><trkpt lat="43.6670618" lon="11.1953303"><ele>280.0</ele><time>2026-04-06T11:46:19.7Z</time></trkpt><trkpt lat="43.6671555" lon="11.195438"><ele>278.8</ele><time>2026-04-06T11:46:21.698Z</time></trkpt><trkpt lat="43.6672365" lon="11.1955738"><ele>277.6</ele><time>2026-04-06T11:46:23.7Z</time></trkpt><trkpt lat="43.6673175" lon="11.1956408"><ele>276.4</ele><time>2026-04-06T11:46:25.699Z</time></trkpt><trkpt lat="43.6673714" lon="11.1956887"><ele>275.2</ele><time>2026-04-06T11:46:26.698Z</time></trkpt><trkpt lat="43.6674744" lon="11.1957787"><ele>274.0</ele><time>2026-04-06T11:46:28.698Z</time></trkpt><trkpt lat="43.6675808" lon="11.1958644"><ele>274.0</ele><time>2026-04-06T11:46:30.701Z</time></trkpt><trkpt lat="43.6676991" lon="11.1959535"><ele>274.0</ele><time>2026-04-06T11:46:32.698Z</time></trkpt><trkpt lat="43.6677592" lon="11.1960004"><ele>274.0</ele><time>2026-04-06T11:46:33.699Z</time></trkpt><trkpt lat="43.6678158" lon="11.1960397"><ele>274.0</ele><time>2026-04-06T11:46:34.699Z</time></trkpt><trkpt lat="43.6678804" lon="11.1960856"><ele>274.0</ele><time>2026-04-06T11:46:35.699Z</time></trkpt><trkpt lat="43.6679302" lon="11.1961417"><ele>274.0</ele><time>2026-04-06T11:46:36.698Z</time></trkpt><trkpt lat="43.6680361" lon="11.1962428"><ele>273.4</ele><time>2026-04-06T11:46:38.699Z</time></trkpt><trkpt lat="43.6681415" lon="11.1963254"><ele>272.79999999999995</ele><time>2026-04-06T11:46:40.699Z</time></trkpt><trkpt lat="43.6681956" lon="11.1963704"><ele>272.20000000000005</ele><time>2026-04-06T11:46:41.698Z</time></trkpt><trkpt lat="43.6683026" lon="11.1964517"><ele>271.6</ele><time>2026-04-06T11:46:43.699Z</time></trkpt><trkpt lat="43.6684153" lon="11.1965234"><ele>271.0</ele><time>2026-04-06T11:46:45.699Z</time></trkpt><trkpt lat="43.6684703" lon="11.1965666"><ele>271.0</ele><time>2026-04-06T11:46:46.7Z</time></trkpt><trkpt lat="43.6685836" lon="11.1966374"><ele>271.0</ele><time>2026-04-06T11:46:48.7Z</time></trkpt><trkpt lat="43.6686412" lon="11.1966773"><ele>271.0</ele><time>2026-04-06T11:46:49.699Z</time></trkpt><trkpt lat="43.6687011" lon="11.1967109"><ele>271.0</ele><time>2026-04-06T11:46:50.698Z</time></trkpt><trkpt lat="43.6688151" lon="11.1967636"><ele>271.0</ele><time>2026-04-06T11:46:52.699Z</time></trkpt><trkpt lat="43.6689336" lon="11.1967997"><ele>270.0</ele><time>2026-04-06T11:46:54.698Z</time></trkpt><trkpt lat="43.6690231" lon="11.1968089"><ele>269.0</ele><time>2026-04-06T11:46:56.7Z</time></trkpt><trkpt lat="43.6690968" lon="11.1968244"><ele>268.0</ele><time>2026-04-06T11:46:59.699Z</time></trkpt><trkpt lat="43.6691659" lon="11.1968076"><ele>267.0</ele><time>2026-04-06T11:47:03.7Z</time></trkpt><trkpt lat="43.669251" lon="11.1968086"><ele>266.0</ele><time>2026-04-06T11:48:12.699Z</time></trkpt><trkpt lat="43.6693273" lon="11.1967899"><ele>265.0</ele><time>2026-04-06T11:48:14.7Z</time></trkpt><trkpt lat="43.6694132" lon="11.1967608"><ele>265.0</ele><time>2026-04-06T11:48:16.698Z</time></trkpt><trkpt lat="43.6695088" lon="11.1967171"><ele>265.0</ele><time>2026-04-06T11:48:18.699Z</time></trkpt><trkpt lat="43.6695963" lon="11.1966897"><ele>265.0</ele><time>2026-04-06T11:48:20.7Z</time></trkpt><trkpt lat="43.669695" lon="11.1966617"><ele>265.0</ele><time>2026-04-06T11:48:22.699Z</time></trkpt><trkpt lat="43.6697947" lon="11.1966248"><ele>265.0</ele><time>2026-04-06T11:48:24.699Z</time></trkpt><trkpt lat="43.6698906" lon="11.196582"><ele>265.0</ele><time>2026-04-06T11:48:26.698Z</time></trkpt><trkpt lat="43.669999" lon="11.1965345"><ele>265.0</ele><time>2026-04-06T11:48:28.698Z</time></trkpt><trkpt lat="43.6701008" lon="11.1964819"><ele>265.0</ele><time>2026-04-06T11:48:30.698Z</time></trkpt><trkpt lat="43.6701956" lon="11.1964546"><ele>265.0</ele><time>2026-04-06T11:48:32.699Z</time></trkpt><trkpt lat="43.6702886" lon="11.196386"><ele>265.0</ele><time>2026-04-06T11:48:34.698Z</time></trkpt><trkpt lat="43.6703876" lon="11.1963385"><ele>264.6</ele><time>2026-04-06T11:48:36.699Z</time></trkpt><trkpt lat="43.6704911" lon="11.1962758"><ele>264.2</ele><time>2026-04-06T11:48:38.699Z</time></trkpt><trkpt lat="43.6705855" lon="11.1962348"><ele>263.8</ele><time>2026-04-06T11:48:40.699Z</time></trkpt><trkpt lat="43.6706812" lon="11.1961954"><ele>263.4</ele><time>2026-04-06T11:48:42.699Z</time></trkpt><trkpt lat="43.670786" lon="11.1961352"><ele>263.0</ele><time>2026-04-06T11:48:44.698Z</time></trkpt><trkpt lat="43.6708935" lon="11.1960832"><ele>263.0</ele><time>2026-04-06T11:48:46.699Z</time></trkpt><trkpt lat="43.6709901" lon="11.1960397"><ele>263.0</ele><time>2026-04-06T11:48:48.7Z</time></trkpt><trkpt lat="43.6711211" lon="11.1960084"><ele>263.0</ele><time>2026-04-06T11:48:50.699Z</time></trkpt><trkpt lat="43.6712239" lon="11.1959235"><ele>263.0</ele><time>2026-04-06T11:48:52.698Z</time></trkpt><trkpt lat="43.6713198" lon="11.1958269"><ele>262.75</ele><time>2026-04-06T11:48:54.699Z</time></trkpt><trkpt lat="43.6714086" lon="11.1957125"><ele>262.5</ele><time>2026-04-06T11:48:56.699Z</time></trkpt><trkpt lat="43.6715117" lon="11.1955871"><ele>262.25</ele><time>2026-04-06T11:48:58.699Z</time></trkpt><trkpt lat="43.671569" lon="11.1955377"><ele>262.0</ele><time>2026-04-06T11:48:59.698Z</time></trkpt><trkpt lat="43.6716721" lon="11.195431"><ele>262.0</ele><time>2026-04-06T11:49:01.699Z</time></trkpt><trkpt lat="43.6717239" lon="11.1953704"><ele>262.0</ele><time>2026-04-06T11:49:02.698Z</time></trkpt><trkpt lat="43.6717789" lon="11.1953035"><ele>262.0</ele><time>2026-04-06T11:49:03.699Z</time></trkpt><trkpt lat="43.6718373" lon="11.195234"><ele>262.0</ele><time>2026-04-06T11:49:04.699Z</time></trkpt><trkpt lat="43.6718951" lon="11.1951675"><ele>262.0</ele><time>2026-04-06T11:49:05.699Z</time></trkpt><trkpt lat="43.6719531" lon="11.1951014"><ele>262.0</ele><time>2026-04-06T11:49:06.699Z</time></trkpt><trkpt lat="43.6720097" lon="11.1950374"><ele>262.0</ele><time>2026-04-06T11:49:07.698Z</time></trkpt><trkpt lat="43.6720713" lon="11.1949786"><ele>262.42857142857144</ele><time>2026-04-06T11:49:08.698Z</time></trkpt><trkpt lat="43.6721314" lon="11.1949295"><ele>262.8571428571429</ele><time>2026-04-06T11:49:09.7Z</time></trkpt><trkpt lat="43.6721969" lon="11.1948845"><ele>263.2857142857143</ele><time>2026-04-06T11:49:10.699Z</time></trkpt><trkpt lat="43.6722652" lon="11.1948511"><ele>263.7142857142857</ele><time>2026-04-06T11:49:11.7Z</time></trkpt><trkpt lat="43.672334" lon="11.1948394"><ele>264.1428571428571</ele><time>2026-04-06T11:49:12.699Z</time></trkpt><trkpt lat="43.6724086" lon="11.1948185"><ele>264.57142857142856</ele><time>2026-04-06T11:49:13.699Z</time></trkpt><trkpt lat="43.6724714" lon="11.1947908"><ele>265.0</ele><time>2026-04-06T11:49:14.701Z</time></trkpt><trkpt lat="43.6725355" lon="11.1947701"><ele>265.0</ele><time>2026-04-06T11:49:15.699Z</time></trkpt><trkpt lat="43.6726548" lon="11.1947377"><ele>265.0</ele><time>2026-04-06T11:49:17.699Z</time></trkpt><trkpt lat="43.6727187" lon="11.194706"><ele>265.0</ele><time>2026-04-06T11:49:18.7Z</time></trkpt><trkpt lat="43.6728413" lon="11.1946978"><ele>265.0</ele><time>2026-04-06T11:49:20.697Z</time></trkpt><trkpt lat="43.6729469" lon="11.1946591"><ele>265.0</ele><time>2026-04-06T11:49:22.7Z</time></trkpt><trkpt lat="43.6730544" lon="11.1946156"><ele>264.8</ele><time>2026-04-06T11:49:24.698Z</time></trkpt><trkpt lat="43.6731551" lon="11.1945899"><ele>264.6</ele><time>2026-04-06T11:49:26.699Z</time></trkpt><trkpt lat="43.6732469" lon="11.1945445"><ele>264.4</ele><time>2026-04-06T11:49:28.699Z</time></trkpt><trkpt lat="43.6733464" lon="11.1944955"><ele>264.2</ele><time>2026-04-06T11:49:30.699Z</time></trkpt><trkpt lat="43.6734405" lon="11.1944359"><ele>264.0</ele><time>2026-04-06T11:49:32.698Z</time></trkpt><trkpt lat="43.6734945" lon="11.1943882"><ele>262.5</ele><time>2026-04-06T11:49:33.699Z</time></trkpt><trkpt lat="43.6736086" lon="11.1943441"><ele>261.0</ele><time>2026-04-06T11:49:35.699Z</time></trkpt><trkpt lat="43.673683" lon="11.1943193"><ele>259.5</ele><time>2026-04-06T11:49:36.7Z</time></trkpt><trkpt lat="43.6737537" lon="11.1942868"><ele>258.0</ele><time>2026-04-06T11:49:37.699Z</time></trkpt><trkpt lat="43.6738335" lon="11.1942695"><ele>256.5</ele><time>2026-04-06T11:49:38.699Z</time></trkpt><trkpt lat="43.6739193" lon="11.194241"><ele>255.0</ele><time>2026-04-06T11:49:39.698Z</time></trkpt><trkpt lat="43.6740088" lon="11.194226"><ele>255.0</ele><time>2026-04-06T11:49:40.698Z</time></trkpt><trkpt lat="43.6740968" lon="11.1942207"><ele>255.0</ele><time>2026-04-06T11:49:41.697Z</time></trkpt><trkpt lat="43.6741896" lon="11.1942182"><ele>255.0</ele><time>2026-04-06T11:49:42.699Z</time></trkpt><trkpt lat="43.6742868" lon="11.1942195"><ele>255.0</ele><time>2026-04-06T11:49:43.699Z</time></trkpt><trkpt lat="43.6743798" lon="11.1942269"><ele>255.0</ele><time>2026-04-06T11:49:44.699Z</time></trkpt><trkpt lat="43.6744788" lon="11.1942256"><ele>253.8</ele><time>2026-04-06T11:49:45.699Z</time></trkpt><trkpt lat="43.6745657" lon="11.1942226"><ele>252.6</ele><time>2026-04-06T11:49:46.698Z</time></trkpt><trkpt lat="43.6746634" lon="11.1942278"><ele>251.39999999999998</ele><time>2026-04-06T11:49:47.699Z</time></trkpt><trkpt lat="43.6747599" lon="11.1942238"><ele>250.2</ele><time>2026-04-06T11:49:48.699Z</time></trkpt><trkpt lat="43.6748544" lon="11.1942219"><ele>249.0</ele><time>2026-04-06T11:49:49.698Z</time></trkpt><trkpt lat="43.6749447" lon="11.1942249"><ele>249.0</ele><time>2026-04-06T11:49:50.699Z</time></trkpt><trkpt lat="43.6750365" lon="11.1942184"><ele>249.0</ele><time>2026-04-06T11:49:51.698Z</time></trkpt><trkpt lat="43.6751294" lon="11.1942109"><ele>249.0</ele><time>2026-04-06T11:49:52.698Z</time></trkpt><trkpt lat="43.6752097" lon="11.1941897"><ele>249.0</ele><time>2026-04-06T11:49:53.7Z</time></trkpt><trkpt lat="43.6752904" lon="11.1941692"><ele>249.0</ele><time>2026-04-06T11:49:54.699Z</time></trkpt><trkpt lat="43.6753819" lon="11.1941665"><ele>249.0</ele><time>2026-04-06T11:49:55.699Z</time></trkpt><trkpt lat="43.6754609" lon="11.1941505"><ele>249.83333333333334</ele><time>2026-04-06T11:49:56.698Z</time></trkpt><trkpt lat="43.675538" lon="11.1941286"><ele>250.66666666666669</ele><time>2026-04-06T11:49:57.698Z</time></trkpt><trkpt lat="43.6756059" lon="11.1941024"><ele>251.5</ele><time>2026-04-06T11:49:58.699Z</time></trkpt><trkpt lat="43.6756704" lon="11.1940774"><ele>252.33333333333334</ele><time>2026-04-06T11:49:59.698Z</time></trkpt><trkpt lat="43.6757365" lon="11.1940568"><ele>253.16666666666669</ele><time>2026-04-06T11:50:00.698Z</time></trkpt><trkpt lat="43.6758542" lon="11.194017"><ele>254.0</ele><time>2026-04-06T11:50:02.698Z</time></trkpt><trkpt lat="43.675956" lon="11.1939523"><ele>254.79999999999998</ele><time>2026-04-06T11:50:04.7Z</time></trkpt><trkpt lat="43.6760525" lon="11.1938899"><ele>255.59999999999997</ele><time>2026-04-06T11:50:06.698Z</time></trkpt><trkpt lat="43.6761581" lon="11.1938288"><ele>256.4</ele><time>2026-04-06T11:50:08.699Z</time></trkpt><trkpt lat="43.676253" lon="11.1937748"><ele>257.2</ele><time>2026-04-06T11:50:10.699Z</time></trkpt><trkpt lat="43.676337" lon="11.1937102"><ele>258.0</ele><time>2026-04-06T11:50:12.697Z</time></trkpt><trkpt lat="43.676431" lon="11.193642"><ele>258.8</ele><time>2026-04-06T11:50:14.697Z</time></trkpt><trkpt lat="43.6765226" lon="11.1935637"><ele>259.6</ele><time>2026-04-06T11:50:16.699Z</time></trkpt><trkpt lat="43.6766165" lon="11.1935067"><ele>260.4</ele><time>2026-04-06T11:50:18.697Z</time></trkpt><trkpt lat="43.6767129" lon="11.1934507"><ele>261.2</ele><time>2026-04-06T11:50:20.698Z</time></trkpt><trkpt lat="43.6767852" lon="11.1934002"><ele>262.0</ele><time>2026-04-06T11:50:22.698Z</time></trkpt><trkpt lat="43.6768656" lon="11.1933336"><ele>261.6</ele><time>2026-04-06T11:50:24.699Z</time></trkpt><trkpt lat="43.676959" lon="11.193299"><ele>261.2</ele><time>2026-04-06T11:50:26.7Z</time></trkpt><trkpt lat="43.6770495" lon="11.193245"><ele>260.8</ele><time>2026-04-06T11:50:28.699Z</time></trkpt><trkpt lat="43.6771415" lon="11.1931509"><ele>260.4</ele><time>2026-04-06T11:50:30.697Z</time></trkpt><trkpt lat="43.6772253" lon="11.1930467"><ele>260.0</ele><time>2026-04-06T11:50:32.699Z</time></trkpt><trkpt lat="43.6773119" lon="11.1929283"><ele>260.0</ele><time>2026-04-06T11:50:34.7Z</time></trkpt><trkpt lat="43.6773609" lon="11.1928684"><ele>260.0</ele><time>2026-04-06T11:50:35.698Z</time></trkpt><trkpt lat="43.6774384" lon="11.1927774"><ele>260.0</ele><time>2026-04-06T11:50:37.698Z</time></trkpt><trkpt lat="43.6775336" lon="11.1926742"><ele>260.0</ele><time>2026-04-06T11:50:39.699Z</time></trkpt><trkpt lat="43.6776386" lon="11.1926056"><ele>260.0</ele><time>2026-04-06T11:50:41.699Z</time></trkpt><trkpt lat="43.6776965" lon="11.1925646"><ele>259.5</ele><time>2026-04-06T11:50:42.698Z</time></trkpt><trkpt lat="43.6778005" lon="11.1924904"><ele>259.0</ele><time>2026-04-06T11:50:44.698Z</time></trkpt><trkpt lat="43.6779125" lon="11.1924386"><ele>258.5</ele><time>2026-04-06T11:50:46.699Z</time></trkpt><trkpt lat="43.6780264" lon="11.1923894"><ele>258.0</ele><time>2026-04-06T11:50:48.699Z</time></trkpt><trkpt lat="43.6781206" lon="11.1923399"><ele>258.6</ele><time>2026-04-06T11:50:50.698Z</time></trkpt><trkpt lat="43.6782125" lon="11.1922836"><ele>259.20000000000005</ele><time>2026-04-06T11:50:52.7Z</time></trkpt><trkpt lat="43.6783165" lon="11.1922611"><ele>259.8</ele><time>2026-04-06T11:50:54.699Z</time></trkpt><trkpt lat="43.6784244" lon="11.1922501"><ele>260.40000000000003</ele><time>2026-04-06T11:50:56.698Z</time></trkpt><trkpt lat="43.6785341" lon="11.192243"><ele>261.0</ele><time>2026-04-06T11:50:58.699Z</time></trkpt><trkpt lat="43.6786079" lon="11.1922576"><ele>261.6666666666667</ele><time>2026-04-06T11:50:59.7Z</time></trkpt><trkpt lat="43.6786717" lon="11.1922657"><ele>262.3333333333333</ele><time>2026-04-06T11:51:00.698Z</time></trkpt><trkpt lat="43.6787685" lon="11.1922862"><ele>263.0</ele><time>2026-04-06T11:51:02.7Z</time></trkpt><trkpt lat="43.6788705" lon="11.1922804"><ele>263.66666666666663</ele><time>2026-04-06T11:51:04.698Z</time></trkpt><trkpt lat="43.6789349" lon="11.1923052"><ele>264.3333333333333</ele><time>2026-04-06T11:51:05.698Z</time></trkpt><trkpt lat="43.6790502" lon="11.1922701"><ele>265.0</ele><time>2026-04-06T11:51:07.698Z</time></trkpt><trkpt lat="43.6791191" lon="11.1922664"><ele>265.0</ele><time>2026-04-06T11:51:08.698Z</time></trkpt><trkpt lat="43.6791919" lon="11.1922653"><ele>265.0</ele><time>2026-04-06T11:51:09.697Z</time></trkpt><trkpt lat="43.6792634" lon="11.1922633"><ele>265.0</ele><time>2026-04-06T11:51:10.699Z</time></trkpt><trkpt lat="43.6793864" lon="11.192262"><ele>265.0</ele><time>2026-04-06T11:51:12.699Z</time></trkpt><trkpt lat="43.6794624" lon="11.1922768"><ele>265.0</ele><time>2026-04-06T11:51:13.699Z</time></trkpt><trkpt lat="43.6795238" lon="11.192303"><ele>265.0</ele><time>2026-04-06T11:51:14.699Z</time></trkpt><trkpt lat="43.6796402" lon="11.1923537"><ele>264.6</ele><time>2026-04-06T11:51:16.699Z</time></trkpt><trkpt lat="43.6797326" lon="11.1924084"><ele>264.2</ele><time>2026-04-06T11:51:18.697Z</time></trkpt><trkpt lat="43.6798324" lon="11.1924671"><ele>263.8</ele><time>2026-04-06T11:51:20.699Z</time></trkpt><trkpt lat="43.6799154" lon="11.1925354"><ele>263.4</ele><time>2026-04-06T11:51:22.698Z</time></trkpt><trkpt lat="43.6800114" lon="11.1926225"><ele>263.0</ele><time>2026-04-06T11:51:24.698Z</time></trkpt><trkpt lat="43.6800938" lon="11.1926945"><ele>263.0</ele><time>2026-04-06T11:51:26.698Z</time></trkpt><trkpt lat="43.6801676" lon="11.1927775"><ele>263.0</ele><time>2026-04-06T11:51:28.699Z</time></trkpt><trkpt lat="43.6802085" lon="11.192869"><ele>263.0</ele><time>2026-04-06T11:51:29.699Z</time></trkpt><trkpt lat="43.6802824" lon="11.192948"><ele>263.0</ele><time>2026-04-06T11:51:31.699Z</time></trkpt><trkpt lat="43.680345" lon="11.1930207"><ele>263.0</ele><time>2026-04-06T11:51:33.699Z</time></trkpt><trkpt lat="43.6804216" lon="11.193106"><ele>263.0</ele><time>2026-04-06T11:51:35.699Z</time></trkpt><trkpt lat="43.6804997" lon="11.1931872"><ele>264.0</ele><time>2026-04-06T11:51:37.697Z</time></trkpt><trkpt lat="43.6805699" lon="11.1932657"><ele>265.0</ele><time>2026-04-06T11:51:39.7Z</time></trkpt><trkpt lat="43.6806267" lon="11.1933616"><ele>266.0</ele><time>2026-04-06T11:51:41.698Z</time></trkpt><trkpt lat="43.6806974" lon="11.1934635"><ele>267.0</ele><time>2026-04-06T11:51:43.698Z</time></trkpt><trkpt lat="43.6807661" lon="11.1935936"><ele>268.0</ele><time>2026-04-06T11:51:45.698Z</time></trkpt><trkpt lat="43.6808453" lon="11.1936506"><ele>268.0</ele><time>2026-04-06T11:51:48.699Z</time></trkpt><trkpt lat="43.6809352" lon="11.1936443"><ele>268.0</ele><time>2026-04-06T11:51:50.7Z</time></trkpt><trkpt lat="43.6810257" lon="11.1936133"><ele>268.0</ele><time>2026-04-06T11:51:52.698Z</time></trkpt><trkpt lat="43.6811123" lon="11.1935619"><ele>268.0</ele><time>2026-04-06T11:51:54.699Z</time></trkpt><trkpt lat="43.6812053" lon="11.1935138"><ele>268.0</ele><time>2026-04-06T11:51:56.699Z</time></trkpt><trkpt lat="43.6813076" lon="11.193454"><ele>268.0</ele><time>2026-04-06T11:51:58.699Z</time></trkpt><trkpt lat="43.6814206" lon="11.193428"><ele>268.0</ele><time>2026-04-06T11:52:00.699Z</time></trkpt><trkpt lat="43.6815208" lon="11.1933648"><ele>268.0</ele><time>2026-04-06T11:52:02.699Z</time></trkpt><trkpt lat="43.6816093" lon="11.1933024"><ele>268.0</ele><time>2026-04-06T11:52:04.699Z</time></trkpt><trkpt lat="43.6817017" lon="11.1932521"><ele>268.0</ele><time>2026-04-06T11:52:06.698Z</time></trkpt><trkpt lat="43.68178" lon="11.1932026"><ele>267.8</ele><time>2026-04-06T11:52:08.698Z</time></trkpt><trkpt lat="43.6818538" lon="11.1931476"><ele>267.6</ele><time>2026-04-06T11:52:10.698Z</time></trkpt><trkpt lat="43.6819593" lon="11.1930826"><ele>267.4</ele><time>2026-04-06T11:52:12.698Z</time></trkpt><trkpt lat="43.68206" lon="11.1930499"><ele>267.2</ele><time>2026-04-06T11:52:14.697Z</time></trkpt><trkpt lat="43.6821486" lon="11.1930062"><ele>267.0</ele><time>2026-04-06T11:52:16.698Z</time></trkpt><trkpt lat="43.6822497" lon="11.1929869"><ele>267.4</ele><time>2026-04-06T11:52:18.699Z</time></trkpt><trkpt lat="43.6823521" lon="11.1929799"><ele>267.79999999999995</ele><time>2026-04-06T11:52:20.698Z</time></trkpt><trkpt lat="43.6824528" lon="11.1929692"><ele>268.2</ele><time>2026-04-06T11:52:22.697Z</time></trkpt><trkpt lat="43.6825565" lon="11.1929599"><ele>268.59999999999997</ele><time>2026-04-06T11:52:24.699Z</time></trkpt><trkpt lat="43.6826582" lon="11.1929358"><ele>269.0</ele><time>2026-04-06T11:52:26.699Z</time></trkpt><trkpt lat="43.6827681" lon="11.1929122"><ele>269.0</ele><time>2026-04-06T11:52:28.698Z</time></trkpt><trkpt lat="43.682882" lon="11.1928466"><ele>269.0</ele><time>2026-04-06T11:52:30.698Z</time></trkpt><trkpt lat="43.6829836" lon="11.192819"><ele>269.0</ele><time>2026-04-06T11:52:32.697Z</time></trkpt><trkpt lat="43.6831095" lon="11.1928011"><ele>269.0</ele><time>2026-04-06T11:52:34.697Z</time></trkpt><trkpt lat="43.6832118" lon="11.1927731"><ele>269.0</ele><time>2026-04-06T11:52:36.698Z</time></trkpt><trkpt lat="43.6833228" lon="11.1927282"><ele>269.0</ele><time>2026-04-06T11:52:38.698Z</time></trkpt><trkpt lat="43.683445" lon="11.1926835"><ele>269.0</ele><time>2026-04-06T11:52:40.701Z</time></trkpt><trkpt lat="43.6835722" lon="11.1926476"><ele>269.0</ele><time>2026-04-06T11:52:42.699Z</time></trkpt><trkpt lat="43.6836388" lon="11.1926233"><ele>269.0</ele><time>2026-04-06T11:52:43.698Z</time></trkpt><trkpt lat="43.6837117" lon="11.1925964"><ele>268.0</ele><time>2026-04-06T11:52:44.699Z</time></trkpt><trkpt lat="43.6837853" lon="11.1925632"><ele>267.0</ele><time>2026-04-06T11:52:45.698Z</time></trkpt><trkpt lat="43.6838526" lon="11.1925326"><ele>266.0</ele><time>2026-04-06T11:52:46.698Z</time></trkpt><trkpt lat="43.6839208" lon="11.1925106"><ele>265.0</ele><time>2026-04-06T11:52:47.698Z</time></trkpt><trkpt lat="43.6839923" lon="11.1924925"><ele>264.0</ele><time>2026-04-06T11:52:48.697Z</time></trkpt><trkpt lat="43.6840598" lon="11.1924656"><ele>263.0</ele><time>2026-04-06T11:52:49.698Z</time></trkpt><trkpt lat="43.6841314" lon="11.1924402"><ele>262.0</ele><time>2026-04-06T11:52:50.698Z</time></trkpt><trkpt lat="43.6842036" lon="11.192422"><ele>262.0</ele><time>2026-04-06T11:52:51.698Z</time></trkpt><trkpt lat="43.6842717" lon="11.192402"><ele>262.0</ele><time>2026-04-06T11:52:52.697Z</time></trkpt><trkpt lat="43.6843403" lon="11.1923789"><ele>262.0</ele><time>2026-04-06T11:52:53.699Z</time></trkpt><trkpt lat="43.6844048" lon="11.1923534"><ele>262.0</ele><time>2026-04-06T11:52:54.697Z</time></trkpt><trkpt lat="43.6844729" lon="11.1923175"><ele>262.0</ele><time>2026-04-06T11:52:55.698Z</time></trkpt><trkpt lat="43.6845386" lon="11.1922941"><ele>262.0</ele><time>2026-04-06T11:52:56.697Z</time></trkpt><trkpt lat="43.6846015" lon="11.1922641"><ele>262.0</ele><time>2026-04-06T11:52:57.698Z</time></trkpt><trkpt lat="43.6847177" lon="11.192199"><ele>261.3333333333333</ele><time>2026-04-06T11:52:59.698Z</time></trkpt><trkpt lat="43.6847794" lon="11.1921689"><ele>260.66666666666663</ele><time>2026-04-06T11:53:00.699Z</time></trkpt><trkpt lat="43.6848397" lon="11.1921295"><ele>260.0</ele><time>2026-04-06T11:53:01.699Z</time></trkpt><trkpt lat="43.6849048" lon="11.1920949"><ele>259.3333333333333</ele><time>2026-04-06T11:53:02.698Z</time></trkpt><trkpt lat="43.6850141" lon="11.1920658"><ele>258.6666666666667</ele><time>2026-04-06T11:53:04.698Z</time></trkpt><trkpt lat="43.6851267" lon="11.1920286"><ele>258.0</ele><time>2026-04-06T11:53:06.699Z</time></trkpt><trkpt lat="43.6851944" lon="11.1920036"><ele>258.0</ele><time>2026-04-06T11:53:07.698Z</time></trkpt><trkpt lat="43.6852608" lon="11.1919859"><ele>258.0</ele><time>2026-04-06T11:53:08.698Z</time></trkpt><trkpt lat="43.6853771" lon="11.1919291"><ele>258.0</ele><time>2026-04-06T11:53:10.698Z</time></trkpt><trkpt lat="43.685437" lon="11.1919002"><ele>258.0</ele><time>2026-04-06T11:53:11.698Z</time></trkpt><trkpt lat="43.6855555" lon="11.1918493"><ele>258.0</ele><time>2026-04-06T11:53:13.699Z</time></trkpt><trkpt lat="43.6856703" lon="11.1918026"><ele>258.0</ele><time>2026-04-06T11:53:15.697Z</time></trkpt><trkpt lat="43.6857842" lon="11.1917502"><ele>258.0</ele><time>2026-04-06T11:53:17.698Z</time></trkpt><trkpt lat="43.6858904" lon="11.1916976"><ele>258.0</ele><time>2026-04-06T11:53:19.698Z</time></trkpt><trkpt lat="43.6859993" lon="11.1916326"><ele>258.0</ele><time>2026-04-06T11:53:21.699Z</time></trkpt><trkpt lat="43.6861076" lon="11.1915946"><ele>258.6</ele><time>2026-04-06T11:53:23.697Z</time></trkpt><trkpt lat="43.6862021" lon="11.191486"><ele>259.20000000000005</ele><time>2026-04-06T11:53:25.698Z</time></trkpt><trkpt lat="43.6862698" lon="11.1913914"><ele>259.8</ele><time>2026-04-06T11:53:27.699Z</time></trkpt><trkpt lat="43.6863419" lon="11.1912857"><ele>260.40000000000003</ele><time>2026-04-06T11:53:29.698Z</time></trkpt><trkpt lat="43.6863937" lon="11.1911778"><ele>261.0</ele><time>2026-04-06T11:53:31.698Z</time></trkpt><trkpt lat="43.6864252" lon="11.1910442"><ele>261.0</ele><time>2026-04-06T11:53:33.698Z</time></trkpt><trkpt lat="43.6864689" lon="11.1909305"><ele>261.0</ele><time>2026-04-06T11:53:35.698Z</time></trkpt><trkpt lat="43.6864648" lon="11.1908048"><ele>261.0</ele><time>2026-04-06T11:53:37.698Z</time></trkpt><trkpt lat="43.6864554" lon="11.1906687"><ele>261.0</ele><time>2026-04-06T11:53:39.697Z</time></trkpt><trkpt lat="43.6864366" lon="11.1905233"><ele>261.0</ele><time>2026-04-06T11:53:41.698Z</time></trkpt><trkpt lat="43.686432" lon="11.1903889"><ele>261.2</ele><time>2026-04-06T11:53:43.698Z</time></trkpt><trkpt lat="43.6864085" lon="11.1902398"><ele>261.40000000000003</ele><time>2026-04-06T11:53:45.699Z</time></trkpt><trkpt lat="43.6863756" lon="11.190099"><ele>261.6</ele><time>2026-04-06T11:53:47.699Z</time></trkpt><trkpt lat="43.6863772" lon="11.1900062"><ele>261.8</ele><time>2026-04-06T11:53:48.697Z</time></trkpt><trkpt lat="43.6863627" lon="11.1898664"><ele>262.0</ele><time>2026-04-06T11:53:50.698Z</time></trkpt><trkpt lat="43.6863413" lon="11.1897372"><ele>262.4</ele><time>2026-04-06T11:53:52.698Z</time></trkpt><trkpt lat="43.6863198" lon="11.189601"><ele>262.79999999999995</ele><time>2026-04-06T11:53:54.7Z</time></trkpt><trkpt lat="43.6863031" lon="11.1894316"><ele>263.2</ele><time>2026-04-06T11:53:56.698Z</time></trkpt><trkpt lat="43.6863026" lon="11.1893066"><ele>263.59999999999997</ele><time>2026-04-06T11:53:58.699Z</time></trkpt><trkpt lat="43.6862857" lon="11.1891698"><ele>264.0</ele><time>2026-04-06T11:54:00.698Z</time></trkpt><trkpt lat="43.6862754" lon="11.189034"><ele>263.59999999999997</ele><time>2026-04-06T11:54:02.698Z</time></trkpt><trkpt lat="43.6862685" lon="11.1888937"><ele>263.2</ele><time>2026-04-06T11:54:04.697Z</time></trkpt><trkpt lat="43.6862512" lon="11.1887583"><ele>262.79999999999995</ele><time>2026-04-06T11:54:06.698Z</time></trkpt><trkpt lat="43.6862302" lon="11.188606"><ele>262.4</ele><time>2026-04-06T11:54:08.699Z</time></trkpt><trkpt lat="43.6862153" lon="11.1884624"><ele>262.0</ele><time>2026-04-06T11:54:10.698Z</time></trkpt><trkpt lat="43.6862002" lon="11.1883231"><ele>262.4</ele><time>2026-04-06T11:54:12.698Z</time></trkpt><trkpt lat="43.6861882" lon="11.1881748"><ele>262.79999999999995</ele><time>2026-04-06T11:54:14.697Z</time></trkpt><trkpt lat="43.686173" lon="11.1880502"><ele>263.2</ele><time>2026-04-06T11:54:16.698Z</time></trkpt><trkpt lat="43.6861587" lon="11.1879262"><ele>263.59999999999997</ele><time>2026-04-06T11:54:18.698Z</time></trkpt><trkpt lat="43.6861494" lon="11.1877919"><ele>264.0</ele><time>2026-04-06T11:54:20.699Z</time></trkpt><trkpt lat="43.6861291" lon="11.18766"><ele>264.0</ele><time>2026-04-06T11:54:22.697Z</time></trkpt><trkpt lat="43.6861206" lon="11.1875443"><ele>264.0</ele><time>2026-04-06T11:54:24.699Z</time></trkpt><trkpt lat="43.6861079" lon="11.1874188"><ele>264.0</ele><time>2026-04-06T11:54:26.698Z</time></trkpt><trkpt lat="43.6860815" lon="11.1872921"><ele>264.0</ele><time>2026-04-06T11:54:28.699Z</time></trkpt><trkpt lat="43.6860665" lon="11.1871518"><ele>264.0</ele><time>2026-04-06T11:54:30.697Z</time></trkpt><trkpt lat="43.6860459" lon="11.1870192"><ele>264.2</ele><time>2026-04-06T11:54:32.699Z</time></trkpt><trkpt lat="43.6860235" lon="11.1868858"><ele>264.4</ele><time>2026-04-06T11:54:34.697Z</time></trkpt><trkpt lat="43.6860085" lon="11.1867414"><ele>264.6</ele><time>2026-04-06T11:54:36.697Z</time></trkpt><trkpt lat="43.6859827" lon="11.1866117"><ele>264.8</ele><time>2026-04-06T11:54:38.697Z</time></trkpt><trkpt lat="43.6859714" lon="11.1864804"><ele>265.0</ele><time>2026-04-06T11:54:40.698Z</time></trkpt><trkpt lat="43.6859392" lon="11.1863265"><ele>265.0</ele><time>2026-04-06T11:54:42.697Z</time></trkpt><trkpt lat="43.6859228" lon="11.1861687"><ele>265.0</ele><time>2026-04-06T11:54:44.699Z</time></trkpt><trkpt lat="43.6859102" lon="11.1860286"><ele>265.0</ele><time>2026-04-06T11:54:46.697Z</time></trkpt><trkpt lat="43.6858957" lon="11.1858979"><ele>265.0</ele><time>2026-04-06T11:54:48.697Z</time></trkpt><trkpt lat="43.6858726" lon="11.1857577"><ele>265.0</ele><time>2026-04-06T11:54:50.698Z</time></trkpt><trkpt lat="43.6858695" lon="11.1855989"><ele>265.4</ele><time>2026-04-06T11:54:52.699Z</time></trkpt><trkpt lat="43.6858998" lon="11.1854529"><ele>265.8</ele><time>2026-04-06T11:54:54.698Z</time></trkpt><trkpt lat="43.6859492" lon="11.1853266"><ele>266.2</ele><time>2026-04-06T11:54:56.698Z</time></trkpt><trkpt lat="43.6860144" lon="11.1852067"><ele>266.6</ele><time>2026-04-06T11:54:58.697Z</time></trkpt><trkpt lat="43.6860752" lon="11.1850801"><ele>267.0</ele><time>2026-04-06T11:55:00.698Z</time></trkpt><trkpt lat="43.6861162" lon="11.1850128"><ele>267.2</ele><time>2026-04-06T11:55:01.697Z</time></trkpt><trkpt lat="43.6861919" lon="11.1848921"><ele>267.4</ele><time>2026-04-06T11:55:03.698Z</time></trkpt><trkpt lat="43.6862814" lon="11.1848062"><ele>267.6</ele><time>2026-04-06T11:55:05.699Z</time></trkpt><trkpt lat="43.6863846" lon="11.184748"><ele>267.8</ele><time>2026-04-06T11:55:07.698Z</time></trkpt><trkpt lat="43.686492" lon="11.1847312"><ele>268.0</ele><time>2026-04-06T11:55:09.698Z</time></trkpt><trkpt lat="43.6865887" lon="11.1847212"><ele>267.8</ele><time>2026-04-06T11:55:11.697Z</time></trkpt><trkpt lat="43.6866832" lon="11.1847011"><ele>267.6</ele><time>2026-04-06T11:55:13.698Z</time></trkpt><trkpt lat="43.686808" lon="11.1847049"><ele>267.4</ele><time>2026-04-06T11:55:15.698Z</time></trkpt><trkpt lat="43.6868817" lon="11.1847072"><ele>267.2</ele><time>2026-04-06T11:55:16.697Z</time></trkpt><trkpt lat="43.6869961" lon="11.1847195"><ele>267.0</ele><time>2026-04-06T11:55:18.698Z</time></trkpt><trkpt lat="43.6871034" lon="11.1847003"><ele>267.0</ele><time>2026-04-06T11:55:20.698Z</time></trkpt><trkpt lat="43.6872185" lon="11.1846871"><ele>267.0</ele><time>2026-04-06T11:55:22.699Z</time></trkpt><trkpt lat="43.6873284" lon="11.1846481"><ele>267.0</ele><time>2026-04-06T11:55:24.697Z</time></trkpt><trkpt lat="43.6873945" lon="11.1846352"><ele>267.0</ele><time>2026-04-06T11:55:25.699Z</time></trkpt><trkpt lat="43.6874949" lon="11.184605"><ele>267.0</ele><time>2026-04-06T11:55:27.698Z</time></trkpt><trkpt lat="43.687558" lon="11.1845882"><ele>267.0</ele><time>2026-04-06T11:55:28.697Z</time></trkpt><trkpt lat="43.6876616" lon="11.184547"><ele>267.0</ele><time>2026-04-06T11:55:30.698Z</time></trkpt><trkpt lat="43.687756" lon="11.1844608"><ele>267.0</ele><time>2026-04-06T11:55:32.699Z</time></trkpt><trkpt lat="43.6878482" lon="11.1843144"><ele>267.0</ele><time>2026-04-06T11:55:34.698Z</time></trkpt><trkpt lat="43.6879137" lon="11.1842085"><ele>267.0</ele><time>2026-04-06T11:55:36.697Z</time></trkpt><trkpt lat="43.6879784" lon="11.1840609"><ele>267.0</ele><time>2026-04-06T11:55:38.698Z</time></trkpt><trkpt lat="43.6880239" lon="11.1839186"><ele>267.0</ele><time>2026-04-06T11:55:40.698Z</time></trkpt><trkpt lat="43.6880489" lon="11.1838031"><ele>267.0</ele><time>2026-04-06T11:55:42.699Z</time></trkpt><trkpt lat="43.6880706" lon="11.1836496"><ele>267.0</ele><time>2026-04-06T11:55:44.697Z</time></trkpt><trkpt lat="43.6880893" lon="11.1834985"><ele>267.6</ele><time>2026-04-06T11:55:46.697Z</time></trkpt><trkpt lat="43.6880989" lon="11.1833655"><ele>268.2</ele><time>2026-04-06T11:55:48.698Z</time></trkpt><trkpt lat="43.6881251" lon="11.1832325"><ele>268.8</ele><time>2026-04-06T11:55:50.698Z</time></trkpt><trkpt lat="43.6881601" lon="11.183075"><ele>269.4</ele><time>2026-04-06T11:55:52.698Z</time></trkpt><trkpt lat="43.6882175" lon="11.1829342"><ele>270.0</ele><time>2026-04-06T11:55:54.698Z</time></trkpt><trkpt lat="43.6882664" lon="11.1828222"><ele>270.0</ele><time>2026-04-06T11:55:56.698Z</time></trkpt><trkpt lat="43.6883248" lon="11.1826887"><ele>270.0</ele><time>2026-04-06T11:55:58.698Z</time></trkpt><trkpt lat="43.688373" lon="11.182556"><ele>270.0</ele><time>2026-04-06T11:56:00.698Z</time></trkpt><trkpt lat="43.6884102" lon="11.1824812"><ele>270.0</ele><time>2026-04-06T11:56:01.698Z</time></trkpt><trkpt lat="43.6884619" lon="11.1824046"><ele>270.0</ele><time>2026-04-06T11:56:02.698Z</time></trkpt><trkpt lat="43.6885022" lon="11.1823329"><ele>270.0</ele><time>2026-04-06T11:56:03.697Z</time></trkpt><trkpt lat="43.6885453" lon="11.182263"><ele>269.1666666666667</ele><time>2026-04-06T11:56:04.698Z</time></trkpt><trkpt lat="43.6885869" lon="11.1821785"><ele>268.3333333333333</ele><time>2026-04-06T11:56:05.699Z</time></trkpt><trkpt lat="43.6886328" lon="11.1820942"><ele>267.5</ele><time>2026-04-06T11:56:06.697Z</time></trkpt><trkpt lat="43.6886758" lon="11.1820092"><ele>266.66666666666663</ele><time>2026-04-06T11:56:07.697Z</time></trkpt><trkpt lat="43.6887367" lon="11.1819262"><ele>265.8333333333333</ele><time>2026-04-06T11:56:08.697Z</time></trkpt><trkpt lat="43.6887845" lon="11.1818284"><ele>265.0</ele><time>2026-04-06T11:56:09.696Z</time></trkpt><trkpt lat="43.6888343" lon="11.18173"><ele>264.3333333333333</ele><time>2026-04-06T11:56:10.697Z</time></trkpt><trkpt lat="43.6888885" lon="11.1816494"><ele>263.66666666666663</ele><time>2026-04-06T11:56:11.697Z</time></trkpt><trkpt lat="43.6889522" lon="11.1815755"><ele>263.0</ele><time>2026-04-06T11:56:12.698Z</time></trkpt><trkpt lat="43.6890233" lon="11.1815134"><ele>262.3333333333333</ele><time>2026-04-06T11:56:13.698Z</time></trkpt><trkpt lat="43.6890971" lon="11.1814733"><ele>261.6666666666667</ele><time>2026-04-06T11:56:14.699Z</time></trkpt><trkpt lat="43.6891788" lon="11.1814263"><ele>261.0</ele><time>2026-04-06T11:56:15.698Z</time></trkpt><trkpt lat="43.6892589" lon="11.1813829"><ele>260.6666666666667</ele><time>2026-04-06T11:56:16.698Z</time></trkpt><trkpt lat="43.6893373" lon="11.18134"><ele>260.3333333333333</ele><time>2026-04-06T11:56:17.698Z</time></trkpt><trkpt lat="43.6894206" lon="11.1812934"><ele>260.0</ele><time>2026-04-06T11:56:18.698Z</time></trkpt><trkpt lat="43.6895024" lon="11.1812549"><ele>259.66666666666663</ele><time>2026-04-06T11:56:19.698Z</time></trkpt><trkpt lat="43.6895873" lon="11.1812364"><ele>259.3333333333333</ele><time>2026-04-06T11:56:20.698Z</time></trkpt><trkpt lat="43.6896707" lon="11.1812253"><ele>259.0</ele><time>2026-04-06T11:56:21.698Z</time></trkpt><trkpt lat="43.6897583" lon="11.1812471"><ele>258.4</ele><time>2026-04-06T11:56:22.698Z</time></trkpt><trkpt lat="43.6898433" lon="11.1812573"><ele>257.79999999999995</ele><time>2026-04-06T11:56:23.697Z</time></trkpt><trkpt lat="43.689938" lon="11.1812781"><ele>257.20000000000005</ele><time>2026-04-06T11:56:24.697Z</time></trkpt><trkpt lat="43.6900301" lon="11.1813032"><ele>256.6</ele><time>2026-04-06T11:56:25.697Z</time></trkpt><trkpt lat="43.6901203" lon="11.1813252"><ele>256.0</ele><time>2026-04-06T11:56:26.698Z</time></trkpt><trkpt lat="43.6902111" lon="11.1813463"><ele>254.8</ele><time>2026-04-06T11:56:27.698Z</time></trkpt><trkpt lat="43.6903015" lon="11.1813714"><ele>253.60000000000002</ele><time>2026-04-06T11:56:28.698Z</time></trkpt><trkpt lat="43.6903988" lon="11.181397"><ele>252.4</ele><time>2026-04-06T11:56:29.698Z</time></trkpt><trkpt lat="43.6904696" lon="11.1814368"><ele>251.2</ele><time>2026-04-06T11:56:30.699Z</time></trkpt><trkpt lat="43.6905674" lon="11.1814488"><ele>250.0</ele><time>2026-04-06T11:56:31.698Z</time></trkpt><trkpt lat="43.6906574" lon="11.1814569"><ele>250.0</ele><time>2026-04-06T11:56:32.698Z</time></trkpt><trkpt lat="43.6907686" lon="11.181451"><ele>250.0</ele><time>2026-04-06T11:56:33.698Z</time></trkpt><trkpt lat="43.6908859" lon="11.1814883"><ele>250.0</ele><time>2026-04-06T11:56:34.697Z</time></trkpt><trkpt lat="43.690982" lon="11.1815111"><ele>250.0</ele><time>2026-04-06T11:56:35.697Z</time></trkpt><trkpt lat="43.6910752" lon="11.1815731"><ele>250.0</ele><time>2026-04-06T11:56:36.698Z</time></trkpt><trkpt lat="43.6911663" lon="11.1816665"><ele>247.6</ele><time>2026-04-06T11:56:37.698Z</time></trkpt><trkpt lat="43.6912544" lon="11.181762"><ele>245.2</ele><time>2026-04-06T11:56:38.697Z</time></trkpt><trkpt lat="43.6913396" lon="11.1818603"><ele>242.8</ele><time>2026-04-06T11:56:39.697Z</time></trkpt><trkpt lat="43.6914163" lon="11.1819534"><ele>240.4</ele><time>2026-04-06T11:56:40.697Z</time></trkpt><trkpt lat="43.6914977" lon="11.1820416"><ele>238.0</ele><time>2026-04-06T11:56:41.698Z</time></trkpt><trkpt lat="43.6915609" lon="11.1821189"><ele>237.99999999999997</ele><time>2026-04-06T11:56:42.697Z</time></trkpt><trkpt lat="43.6916407" lon="11.1821803"><ele>238.0</ele><time>2026-04-06T11:56:43.697Z</time></trkpt><trkpt lat="43.6917155" lon="11.1822463"><ele>238.0</ele><time>2026-04-06T11:56:44.697Z</time></trkpt><trkpt lat="43.6918026" lon="11.182294"><ele>238.0</ele><time>2026-04-06T11:56:45.698Z</time></trkpt><trkpt lat="43.6918841" lon="11.1823474"><ele>237.99999999999997</ele><time>2026-04-06T11:56:46.698Z</time></trkpt><trkpt lat="43.691959" lon="11.1823902"><ele>238.0</ele><time>2026-04-06T11:56:47.698Z</time></trkpt><trkpt lat="43.6920417" lon="11.1824405"><ele>238.57142857142856</ele><time>2026-04-06T11:56:48.698Z</time></trkpt><trkpt lat="43.6921109" lon="11.1824863"><ele>239.14285714285714</ele><time>2026-04-06T11:56:49.697Z</time></trkpt><trkpt lat="43.6921871" lon="11.1825252"><ele>239.71428571428572</ele><time>2026-04-06T11:56:50.698Z</time></trkpt><trkpt lat="43.6922589" lon="11.1825741"><ele>240.28571428571428</ele><time>2026-04-06T11:56:51.699Z</time></trkpt><trkpt lat="43.6923175" lon="11.1826241"><ele>240.85714285714283</ele><time>2026-04-06T11:56:52.698Z</time></trkpt><trkpt lat="43.6923748" lon="11.1826661"><ele>241.42857142857142</ele><time>2026-04-06T11:56:53.698Z</time></trkpt><trkpt lat="43.6924289" lon="11.1827176"><ele>242.0</ele><time>2026-04-06T11:56:54.697Z</time></trkpt><trkpt lat="43.6924914" lon="11.1827588"><ele>242.0</ele><time>2026-04-06T11:56:55.698Z</time></trkpt><trkpt lat="43.6926077" lon="11.182908"><ele>242.0</ele><time>2026-04-06T11:56:57.698Z</time></trkpt><trkpt lat="43.6926608" lon="11.1829658"><ele>242.0</ele><time>2026-04-06T11:56:58.698Z</time></trkpt><trkpt lat="43.6927553" lon="11.1830582"><ele>242.0</ele><time>2026-04-06T11:57:00.697Z</time></trkpt><trkpt lat="43.692847" lon="11.1831216"><ele>242.0</ele><time>2026-04-06T11:57:02.699Z</time></trkpt><trkpt lat="43.6929317" lon="11.183205"><ele>241.8</ele><time>2026-04-06T11:57:04.698Z</time></trkpt><trkpt lat="43.6929824" lon="11.1832572"><ele>241.6</ele><time>2026-04-06T11:57:05.698Z</time></trkpt><trkpt lat="43.6930465" lon="11.1833121"><ele>241.40000000000003</ele><time>2026-04-06T11:57:07.697Z</time></trkpt><trkpt lat="43.6931356" lon="11.1833937"><ele>241.20000000000002</ele><time>2026-04-06T11:57:09.698Z</time></trkpt><trkpt lat="43.6932224" lon="11.1834664"><ele>241.0</ele><time>2026-04-06T11:57:11.698Z</time></trkpt><trkpt lat="43.693308" lon="11.1835565"><ele>241.0</ele><time>2026-04-06T11:57:13.697Z</time></trkpt><trkpt lat="43.6933999" lon="11.1836641"><ele>241.00000000000003</ele><time>2026-04-06T11:57:15.697Z</time></trkpt><trkpt lat="43.6934911" lon="11.1837748"><ele>241.00000000000003</ele><time>2026-04-06T11:57:17.697Z</time></trkpt><trkpt lat="43.6935761" lon="11.1839192"><ele>241.0</ele><time>2026-04-06T11:57:19.699Z</time></trkpt><trkpt lat="43.6936244" lon="11.1839759"><ele>241.0</ele><time>2026-04-06T11:57:20.698Z</time></trkpt><trkpt lat="43.6937013" lon="11.1840846"><ele>240.60000000000002</ele><time>2026-04-06T11:57:22.697Z</time></trkpt><trkpt lat="43.6937873" lon="11.1841706"><ele>240.20000000000002</ele><time>2026-04-06T11:57:24.698Z</time></trkpt><trkpt lat="43.693893" lon="11.1842624"><ele>239.79999999999998</ele><time>2026-04-06T11:57:26.697Z</time></trkpt><trkpt lat="43.6939886" lon="11.1843248"><ele>239.39999999999998</ele><time>2026-04-06T11:57:28.697Z</time></trkpt><trkpt lat="43.6940966" lon="11.1843623"><ele>239.0</ele><time>2026-04-06T11:57:30.696Z</time></trkpt><trkpt lat="43.6941598" lon="11.1843732"><ele>239.0</ele><time>2026-04-06T11:57:31.698Z</time></trkpt><trkpt lat="43.6942795" lon="11.1843724"><ele>238.99999999999997</ele><time>2026-04-06T11:57:33.698Z</time></trkpt><trkpt lat="43.6943992" lon="11.1843512"><ele>238.99999999999997</ele><time>2026-04-06T11:57:35.699Z</time></trkpt><trkpt lat="43.6944654" lon="11.1843272"><ele>239.0</ele><time>2026-04-06T11:57:36.698Z</time></trkpt><trkpt lat="43.6945821" lon="11.1842808"><ele>239.0</ele><time>2026-04-06T11:57:38.698Z</time></trkpt><trkpt lat="43.6946478" lon="11.1842663"><ele>238.79999999999998</ele><time>2026-04-06T11:57:39.698Z</time></trkpt><trkpt lat="43.694711" lon="11.1842415"><ele>238.59999999999997</ele><time>2026-04-06T11:57:40.698Z</time></trkpt><trkpt lat="43.694817" lon="11.1842012"><ele>238.4</ele><time>2026-04-06T11:57:42.696Z</time></trkpt><trkpt lat="43.6949178" lon="11.1841888"><ele>238.2</ele><time>2026-04-06T11:57:44.696Z</time></trkpt><trkpt lat="43.6950295" lon="11.1841565"><ele>238.0</ele><time>2026-04-06T11:57:46.698Z</time></trkpt><trkpt lat="43.6951404" lon="11.1841159"><ele>238.75</ele><time>2026-04-06T11:57:48.698Z</time></trkpt><trkpt lat="43.6952568" lon="11.1840901"><ele>239.5</ele><time>2026-04-06T11:57:50.699Z</time></trkpt><trkpt lat="43.6953729" lon="11.1840537"><ele>240.25</ele><time>2026-04-06T11:57:52.696Z</time></trkpt><trkpt lat="43.6954843" lon="11.1840414"><ele>241.0</ele><time>2026-04-06T11:57:54.699Z</time></trkpt><trkpt lat="43.6956054" lon="11.1840311"><ele>241.0</ele><time>2026-04-06T11:57:56.698Z</time></trkpt><trkpt lat="43.6957161" lon="11.1840274"><ele>241.0</ele><time>2026-04-06T11:57:58.698Z</time></trkpt><trkpt lat="43.6958222" lon="11.1840152"><ele>241.0</ele><time>2026-04-06T11:58:00.697Z</time></trkpt><trkpt lat="43.6959381" lon="11.1840146"><ele>241.0</ele><time>2026-04-06T11:58:02.697Z</time></trkpt><trkpt lat="43.6960545" lon="11.1840206"><ele>241.25</ele><time>2026-04-06T11:58:04.698Z</time></trkpt><trkpt lat="43.6961597" lon="11.1840223"><ele>241.5</ele><time>2026-04-06T11:58:06.698Z</time></trkpt><trkpt lat="43.6962733" lon="11.1840068"><ele>241.75</ele><time>2026-04-06T11:58:08.698Z</time></trkpt><trkpt lat="43.6963935" lon="11.1839943"><ele>242.0</ele><time>2026-04-06T11:58:10.696Z</time></trkpt><trkpt lat="43.6965166" lon="11.1839652"><ele>241.14285714285714</ele><time>2026-04-06T11:58:12.696Z</time></trkpt><trkpt lat="43.6965818" lon="11.1839539"><ele>240.28571428571428</ele><time>2026-04-06T11:58:13.697Z</time></trkpt><trkpt lat="43.6966468" lon="11.1839446"><ele>239.42857142857142</ele><time>2026-04-06T11:58:14.697Z</time></trkpt><trkpt lat="43.696714" lon="11.1839377"><ele>238.57142857142856</ele><time>2026-04-06T11:58:15.697Z</time></trkpt><trkpt lat="43.6967772" lon="11.1839376"><ele>237.71428571428572</ele><time>2026-04-06T11:58:16.697Z</time></trkpt><trkpt lat="43.6968486" lon="11.1839263"><ele>236.85714285714283</ele><time>2026-04-06T11:58:17.697Z</time></trkpt><trkpt lat="43.6969182" lon="11.183924"><ele>236.0</ele><time>2026-04-06T11:58:18.697Z</time></trkpt><trkpt lat="43.6969872" lon="11.1839295"><ele>236.33333333333334</ele><time>2026-04-06T11:58:19.697Z</time></trkpt><trkpt lat="43.6970549" lon="11.1839454"><ele>236.66666666666669</ele><time>2026-04-06T11:58:20.697Z</time></trkpt><trkpt lat="43.6971204" lon="11.1839519"><ele>237.0</ele><time>2026-04-06T11:58:21.698Z</time></trkpt><trkpt lat="43.6971949" lon="11.1839669"><ele>237.33333333333331</ele><time>2026-04-06T11:58:22.697Z</time></trkpt><trkpt lat="43.6972635" lon="11.1839776"><ele>237.66666666666666</ele><time>2026-04-06T11:58:23.697Z</time></trkpt><trkpt lat="43.6973292" lon="11.1839936"><ele>238.0</ele><time>2026-04-06T11:58:24.698Z</time></trkpt><trkpt lat="43.6974588" lon="11.1840289"><ele>237.99999999999997</ele><time>2026-04-06T11:58:26.696Z</time></trkpt><trkpt lat="43.6975831" lon="11.1840772"><ele>238.0</ele><time>2026-04-06T11:58:28.696Z</time></trkpt><trkpt lat="43.6976482" lon="11.1840996"><ele>238.0</ele><time>2026-04-06T11:58:29.697Z</time></trkpt><trkpt lat="43.6977152" lon="11.1841212"><ele>238.0</ele><time>2026-04-06T11:58:30.697Z</time></trkpt><trkpt lat="43.6977793" lon="11.1841424"><ele>237.99999999999997</ele><time>2026-04-06T11:58:31.696Z</time></trkpt><trkpt lat="43.6978325" lon="11.1841926"><ele>238.0</ele><time>2026-04-06T11:58:32.696Z</time></trkpt><trkpt lat="43.6979206" lon="11.1842444"><ele>238.14285714285714</ele><time>2026-04-06T11:58:33.697Z</time></trkpt><trkpt lat="43.6979902" lon="11.1842553"><ele>238.28571428571428</ele><time>2026-04-06T11:58:34.697Z</time></trkpt><trkpt lat="43.6980684" lon="11.1842919"><ele>238.42857142857144</ele><time>2026-04-06T11:58:35.696Z</time></trkpt><trkpt lat="43.698132" lon="11.1843294"><ele>238.57142857142858</ele><time>2026-04-06T11:58:36.698Z</time></trkpt><trkpt lat="43.6981952" lon="11.1843445"><ele>238.71428571428572</ele><time>2026-04-06T11:58:37.697Z</time></trkpt><trkpt lat="43.6982538" lon="11.1843953"><ele>238.8571428571429</ele><time>2026-04-06T11:58:38.698Z</time></trkpt><trkpt lat="43.6983336" lon="11.1844283"><ele>239.00000000000003</ele><time>2026-04-06T11:58:39.697Z</time></trkpt><trkpt lat="43.6983966" lon="11.1844913"><ele>239.00000000000003</ele><time>2026-04-06T11:58:40.698Z</time></trkpt><trkpt lat="43.6984569" lon="11.1845854"><ele>239.0</ele><time>2026-04-06T11:58:41.697Z</time></trkpt><trkpt lat="43.6984965" lon="11.1846648"><ele>239.0</ele><time>2026-04-06T11:58:42.696Z</time></trkpt><trkpt lat="43.6985403" lon="11.184754"><ele>239.0</ele><time>2026-04-06T11:58:43.698Z</time></trkpt><trkpt lat="43.6985831" lon="11.184843"><ele>239.00000000000003</ele><time>2026-04-06T11:58:44.698Z</time></trkpt><trkpt lat="43.6986342" lon="11.1849217"><ele>239.0</ele><time>2026-04-06T11:58:45.698Z</time></trkpt><trkpt lat="43.6986833" lon="11.1849975"><ele>238.28571428571433</ele><time>2026-04-06T11:58:46.699Z</time></trkpt><trkpt lat="43.6987414" lon="11.1850541"><ele>237.57142857142858</ele><time>2026-04-06T11:58:47.698Z</time></trkpt><trkpt lat="43.6988141" lon="11.1850869"><ele>236.8571428571429</ele><time>2026-04-06T11:58:48.697Z</time></trkpt><trkpt lat="43.6988809" lon="11.1851097"><ele>236.14285714285717</ele><time>2026-04-06T11:58:49.698Z</time></trkpt><trkpt lat="43.698952" lon="11.1851154"><ele>235.42857142857144</ele><time>2026-04-06T11:58:50.697Z</time></trkpt><trkpt lat="43.6990228" lon="11.1851066"><ele>234.71428571428572</ele><time>2026-04-06T11:58:51.698Z</time></trkpt><trkpt lat="43.6990912" lon="11.1850887"><ele>234.0</ele><time>2026-04-06T11:58:52.697Z</time></trkpt><trkpt lat="43.6991563" lon="11.1850634"><ele>234.0</ele><time>2026-04-06T11:58:53.699Z</time></trkpt><trkpt lat="43.6992294" lon="11.1850162"><ele>233.99999999999997</ele><time>2026-04-06T11:58:54.699Z</time></trkpt><trkpt lat="43.6993442" lon="11.1849757"><ele>233.99999999999997</ele><time>2026-04-06T11:58:56.698Z</time></trkpt><trkpt lat="43.6994492" lon="11.1849336"><ele>234.0</ele><time>2026-04-06T11:58:58.697Z</time></trkpt><trkpt lat="43.6995726" lon="11.1849166"><ele>234.0</ele><time>2026-04-06T11:59:00.697Z</time></trkpt><trkpt lat="43.6996996" lon="11.184909"><ele>234.0</ele><time>2026-04-06T11:59:02.698Z</time></trkpt><trkpt lat="43.6998111" lon="11.1849113"><ele>233.99999999999997</ele><time>2026-04-06T11:59:04.698Z</time></trkpt><trkpt lat="43.6998774" lon="11.1849229"><ele>233.99999999999997</ele><time>2026-04-06T11:59:05.698Z</time></trkpt><trkpt lat="43.699997" lon="11.1849449"><ele>234.0</ele><time>2026-04-06T11:59:07.697Z</time></trkpt><trkpt lat="43.7000626" lon="11.184951"><ele>234.0</ele><time>2026-04-06T11:59:08.697Z</time></trkpt><trkpt lat="43.7001778" lon="11.1849708"><ele>234.0</ele><time>2026-04-06T11:59:10.698Z</time></trkpt><trkpt lat="43.7002414" lon="11.1849865"><ele>233.99999999999997</ele><time>2026-04-06T11:59:11.697Z</time></trkpt><trkpt lat="43.7003455" lon="11.1850088"><ele>233.99999999999997</ele><time>2026-04-06T11:59:13.698Z</time></trkpt><trkpt lat="43.7004547" lon="11.1850279"><ele>234.0</ele><time>2026-04-06T11:59:15.697Z</time></trkpt><trkpt lat="43.7005695" lon="11.1850731"><ele>234.0</ele><time>2026-04-06T11:59:17.698Z</time></trkpt><trkpt lat="43.7006763" lon="11.1851178"><ele>234.0</ele><time>2026-04-06T11:59:19.698Z</time></trkpt><trkpt lat="43.7007796" lon="11.1851613"><ele>233.99999999999997</ele><time>2026-04-06T11:59:21.697Z</time></trkpt><trkpt lat="43.7008891" lon="11.1852329"><ele>233.99999999999997</ele><time>2026-04-06T11:59:23.699Z</time></trkpt><trkpt lat="43.7009855" lon="11.1852959"><ele>234.0</ele><time>2026-04-06T11:59:25.698Z</time></trkpt><trkpt lat="43.7010808" lon="11.1853585"><ele>234.0</ele><time>2026-04-06T11:59:27.698Z</time></trkpt><trkpt lat="43.7011752" lon="11.1854272"><ele>234.0</ele><time>2026-04-06T11:59:29.697Z</time></trkpt><trkpt lat="43.701279" lon="11.1854769"><ele>233.99999999999997</ele><time>2026-04-06T11:59:31.697Z</time></trkpt><trkpt lat="43.7013729" lon="11.185543"><ele>233.99999999999997</ele><time>2026-04-06T11:59:33.697Z</time></trkpt><trkpt lat="43.7014703" lon="11.1856094"><ele>234.0</ele><time>2026-04-06T11:59:35.697Z</time></trkpt><trkpt lat="43.7015682" lon="11.1856673"><ele>234.0</ele><time>2026-04-06T11:59:37.698Z</time></trkpt><trkpt lat="43.7016679" lon="11.1857299"><ele>234.0</ele><time>2026-04-06T11:59:39.698Z</time></trkpt><trkpt lat="43.7017717" lon="11.1857999"><ele>234.0</ele><time>2026-04-06T11:59:41.697Z</time></trkpt><trkpt lat="43.701885" lon="11.1858517"><ele>234.0</ele><time>2026-04-06T11:59:43.696Z</time></trkpt><trkpt lat="43.7019956" lon="11.1858961"><ele>234.0</ele><time>2026-04-06T11:59:45.699Z</time></trkpt><trkpt lat="43.7021131" lon="11.1858928"><ele>233.66666666666666</ele><time>2026-04-06T11:59:47.697Z</time></trkpt><trkpt lat="43.7021883" lon="11.1858881"><ele>233.33333333333331</ele><time>2026-04-06T11:59:48.698Z</time></trkpt><trkpt lat="43.7023111" lon="11.1858718"><ele>233.0</ele><time>2026-04-06T11:59:50.699Z</time></trkpt><trkpt lat="43.7023758" lon="11.1858482"><ele>232.66666666666666</ele><time>2026-04-06T11:59:51.697Z</time></trkpt><trkpt lat="43.7024897" lon="11.1858223"><ele>232.33333333333331</ele><time>2026-04-06T11:59:53.699Z</time></trkpt><trkpt lat="43.702554" lon="11.1857949"><ele>232.0</ele><time>2026-04-06T11:59:54.698Z</time></trkpt><trkpt lat="43.7026737" lon="11.1857425"><ele>232.0</ele><time>2026-04-06T11:59:56.698Z</time></trkpt><trkpt lat="43.7027368" lon="11.1857225"><ele>232.0</ele><time>2026-04-06T11:59:57.697Z</time></trkpt><trkpt lat="43.7028465" lon="11.1856798"><ele>232.0</ele><time>2026-04-06T11:59:59.696Z</time></trkpt><trkpt lat="43.7029786" lon="11.1856549"><ele>232.0</ele><time>2026-04-06T12:00:01.696Z</time></trkpt><trkpt lat="43.703085" lon="11.1856464"><ele>232.0</ele><time>2026-04-06T12:00:03.698Z</time></trkpt><trkpt lat="43.703174" lon="11.1856327"><ele>231.8</ele><time>2026-04-06T12:00:05.697Z</time></trkpt><trkpt lat="43.7032778" lon="11.1856315"><ele>231.6</ele><time>2026-04-06T12:00:07.697Z</time></trkpt><trkpt lat="43.703374" lon="11.1856253"><ele>231.40000000000003</ele><time>2026-04-06T12:00:09.696Z</time></trkpt><trkpt lat="43.7034968" lon="11.1856407"><ele>231.20000000000002</ele><time>2026-04-06T12:00:11.698Z</time></trkpt><trkpt lat="43.7036026" lon="11.1856403"><ele>231.0</ele><time>2026-04-06T12:00:13.698Z</time></trkpt><trkpt lat="43.7037199" lon="11.185659"><ele>231.0</ele><time>2026-04-06T12:00:15.699Z</time></trkpt><trkpt lat="43.7038368" lon="11.1856625"><ele>231.00000000000003</ele><time>2026-04-06T12:00:17.698Z</time></trkpt><trkpt lat="43.7039506" lon="11.1856577"><ele>231.00000000000003</ele><time>2026-04-06T12:00:19.697Z</time></trkpt><trkpt lat="43.7040214" lon="11.1856768"><ele>231.0</ele><time>2026-04-06T12:00:20.697Z</time></trkpt><trkpt lat="43.7041367" lon="11.185681"><ele>231.0</ele><time>2026-04-06T12:00:22.697Z</time></trkpt><trkpt lat="43.704201" lon="11.1856829"><ele>231.16666666666666</ele><time>2026-04-06T12:00:23.7Z</time></trkpt><trkpt lat="43.7042657" lon="11.1856847"><ele>231.33333333333331</ele><time>2026-04-06T12:00:24.698Z</time></trkpt><trkpt lat="43.7043751" lon="11.1857043"><ele>231.5</ele><time>2026-04-06T12:00:26.699Z</time></trkpt><trkpt lat="43.7044729" lon="11.185754"><ele>231.66666666666666</ele><time>2026-04-06T12:00:28.698Z</time></trkpt><trkpt lat="43.7045425" lon="11.185741"><ele>231.83333333333331</ele><time>2026-04-06T12:00:30.697Z</time></trkpt><trkpt lat="43.704631" lon="11.1857274"><ele>232.0</ele><time>2026-04-06T12:00:32.697Z</time></trkpt><trkpt lat="43.7047007" lon="11.1857764"><ele>231.99999999999997</ele><time>2026-04-06T12:00:34.697Z</time></trkpt><trkpt lat="43.7047945" lon="11.1858294"><ele>232.0</ele><time>2026-04-06T12:00:36.697Z</time></trkpt><trkpt lat="43.7048705" lon="11.1858585"><ele>232.0</ele><time>2026-04-06T12:00:38.697Z</time></trkpt><trkpt lat="43.7049443" lon="11.1858929"><ele>232.0</ele><time>2026-04-06T12:00:40.697Z</time></trkpt><trkpt lat="43.7050214" lon="11.1859531"><ele>231.99999999999997</ele><time>2026-04-06T12:00:42.697Z</time></trkpt><trkpt lat="43.7050761" lon="11.1860043"><ele>232.0</ele><time>2026-04-06T12:00:43.697Z</time></trkpt><trkpt lat="43.7051655" lon="11.1860716"><ele>232.39999999999998</ele><time>2026-04-06T12:00:45.699Z</time></trkpt><trkpt lat="43.7052714" lon="11.1861319"><ele>232.79999999999998</ele><time>2026-04-06T12:00:47.698Z</time></trkpt><trkpt lat="43.7053706" lon="11.186197"><ele>233.2</ele><time>2026-04-06T12:00:49.699Z</time></trkpt><trkpt lat="43.7054807" lon="11.1862247"><ele>233.6</ele><time>2026-04-06T12:00:51.697Z</time></trkpt><trkpt lat="43.7055738" lon="11.1862657"><ele>234.0</ele><time>2026-04-06T12:00:53.698Z</time></trkpt><trkpt lat="43.7056938" lon="11.1862767"><ele>234.0</ele><time>2026-04-06T12:00:55.699Z</time></trkpt><trkpt lat="43.7057854" lon="11.186286"><ele>233.99999999999997</ele><time>2026-04-06T12:00:57.699Z</time></trkpt><trkpt lat="43.7059021" lon="11.1862972"><ele>233.99999999999997</ele><time>2026-04-06T12:00:59.698Z</time></trkpt><trkpt lat="43.7059661" lon="11.1863366"><ele>234.0</ele><time>2026-04-06T12:01:00.697Z</time></trkpt><trkpt lat="43.7060927" lon="11.1863514"><ele>234.0</ele><time>2026-04-06T12:01:02.698Z</time></trkpt><trkpt lat="43.7062226" lon="11.1863646"><ele>233.5</ele><time>2026-04-06T12:01:04.697Z</time></trkpt><trkpt lat="43.7063037" lon="11.1864048"><ele>233.0</ele><time>2026-04-06T12:01:05.696Z</time></trkpt><trkpt lat="43.7063707" lon="11.1864285"><ele>232.5</ele><time>2026-04-06T12:01:06.696Z</time></trkpt><trkpt lat="43.7064479" lon="11.1864382"><ele>232.0</ele><time>2026-04-06T12:01:07.698Z</time></trkpt><trkpt lat="43.7065266" lon="11.1864912"><ele>231.5</ele><time>2026-04-06T12:01:08.697Z</time></trkpt><trkpt lat="43.7066053" lon="11.1865628"><ele>231.0</ele><time>2026-04-06T12:01:09.696Z</time></trkpt><trkpt lat="43.7066787" lon="11.1866184"><ele>230.20000000000002</ele><time>2026-04-06T12:01:10.698Z</time></trkpt><trkpt lat="43.7067901" lon="11.1866851"><ele>229.40000000000003</ele><time>2026-04-06T12:01:11.7Z</time></trkpt><trkpt lat="43.7068482" lon="11.1867552"><ele>228.6</ele><time>2026-04-06T12:01:12.698Z</time></trkpt><trkpt lat="43.7069187" lon="11.1868033"><ele>227.8</ele><time>2026-04-06T12:01:13.697Z</time></trkpt><trkpt lat="43.7070066" lon="11.1868483"><ele>227.0</ele><time>2026-04-06T12:01:14.698Z</time></trkpt><trkpt lat="43.7070918" lon="11.1868725"><ele>226.2</ele><time>2026-04-06T12:01:15.696Z</time></trkpt><trkpt lat="43.7071717" lon="11.1868928"><ele>225.39999999999998</ele><time>2026-04-06T12:01:16.697Z</time></trkpt><trkpt lat="43.7072484" lon="11.186897"><ele>224.60000000000002</ele><time>2026-04-06T12:01:17.696Z</time></trkpt><trkpt lat="43.7073296" lon="11.1869313"><ele>223.8</ele><time>2026-04-06T12:01:18.697Z</time></trkpt><trkpt lat="43.7074123" lon="11.1869541"><ele>223.0</ele><time>2026-04-06T12:01:19.696Z</time></trkpt><trkpt lat="43.7075417" lon="11.1869698"><ele>222.99999999999997</ele><time>2026-04-06T12:01:21.698Z</time></trkpt><trkpt lat="43.7076099" lon="11.1869853"><ele>223.0</ele><time>2026-04-06T12:01:22.697Z</time></trkpt><trkpt lat="43.7076875" lon="11.1870052"><ele>223.0</ele><time>2026-04-06T12:01:23.698Z</time></trkpt><trkpt lat="43.7077719" lon="11.1870202"><ele>223.0</ele><time>2026-04-06T12:01:24.696Z</time></trkpt><trkpt lat="43.7078467" lon="11.1870351"><ele>222.99999999999997</ele><time>2026-04-06T12:01:25.696Z</time></trkpt><trkpt lat="43.7079261" lon="11.1870532"><ele>223.0</ele><time>2026-04-06T12:01:26.698Z</time></trkpt><trkpt lat="43.7080069" lon="11.1870706"><ele>221.99999999999997</ele><time>2026-04-06T12:01:27.699Z</time></trkpt><trkpt lat="43.7080908" lon="11.1870897"><ele>221.0</ele><time>2026-04-06T12:01:28.697Z</time></trkpt><trkpt lat="43.708163" lon="11.1871052"><ele>220.0</ele><time>2026-04-06T12:01:29.698Z</time></trkpt><trkpt lat="43.7082311" lon="11.1871195"><ele>219.0</ele><time>2026-04-06T12:01:30.697Z</time></trkpt><trkpt lat="43.7083103" lon="11.1871496"><ele>217.99999999999997</ele><time>2026-04-06T12:01:31.698Z</time></trkpt><trkpt lat="43.7083829" lon="11.1871726"><ele>217.0</ele><time>2026-04-06T12:01:32.696Z</time></trkpt><trkpt lat="43.7084991" lon="11.1872359"><ele>216.39999999999998</ele><time>2026-04-06T12:01:34.698Z</time></trkpt><trkpt lat="43.7085877" lon="11.1873396"><ele>215.79999999999998</ele><time>2026-04-06T12:01:36.696Z</time></trkpt><trkpt lat="43.7086767" lon="11.1874541"><ele>215.2</ele><time>2026-04-06T12:01:38.697Z</time></trkpt><trkpt lat="43.7087408" lon="11.1875105"><ele>214.6</ele><time>2026-04-06T12:01:39.698Z</time></trkpt><trkpt lat="43.7088009" lon="11.1875683"><ele>214.0</ele><time>2026-04-06T12:01:40.697Z</time></trkpt><trkpt lat="43.7088898" lon="11.1876665"><ele>213.79999999999998</ele><time>2026-04-06T12:01:42.697Z</time></trkpt><trkpt lat="43.7089904" lon="11.187769"><ele>213.59999999999997</ele><time>2026-04-06T12:01:44.697Z</time></trkpt><trkpt lat="43.7090838" lon="11.187862"><ele>213.4</ele><time>2026-04-06T12:01:46.697Z</time></trkpt><trkpt lat="43.709146" lon="11.1879487"><ele>213.2</ele><time>2026-04-06T12:01:47.696Z</time></trkpt><trkpt lat="43.7092021" lon="11.1879981"><ele>213.0</ele><time>2026-04-06T12:01:48.697Z</time></trkpt><trkpt lat="43.7092568" lon="11.1880537"><ele>213.0</ele><time>2026-04-06T12:01:49.697Z</time></trkpt><trkpt lat="43.7093234" lon="11.1881219"><ele>213.0</ele><time>2026-04-06T12:01:50.698Z</time></trkpt><trkpt lat="43.7093789" lon="11.1881794"><ele>213.0</ele><time>2026-04-06T12:01:51.696Z</time></trkpt><trkpt lat="43.7094781" lon="11.1882618"><ele>213.0</ele><time>2026-04-06T12:01:53.696Z</time></trkpt><trkpt lat="43.7095827" lon="11.1883645"><ele>213.0</ele><time>2026-04-06T12:01:55.696Z</time></trkpt><trkpt lat="43.7096881" lon="11.1884523"><ele>213.0</ele><time>2026-04-06T12:01:57.697Z</time></trkpt><trkpt lat="43.7098012" lon="11.1884955"><ele>213.0</ele><time>2026-04-06T12:01:59.698Z</time></trkpt><trkpt lat="43.7098914" lon="11.1885725"><ele>213.0</ele><time>2026-04-06T12:02:01.697Z</time></trkpt><trkpt lat="43.7099919" lon="11.1886636"><ele>213.0</ele><time>2026-04-06T12:02:03.699Z</time></trkpt><trkpt lat="43.7100491" lon="11.1887124"><ele>213.0</ele><time>2026-04-06T12:02:04.697Z</time></trkpt><trkpt lat="43.7101547" lon="11.1887944"><ele>212.2</ele><time>2026-04-06T12:02:06.697Z</time></trkpt><trkpt lat="43.7102475" lon="11.1888757"><ele>211.4</ele><time>2026-04-06T12:02:08.698Z</time></trkpt><trkpt lat="43.7103048" lon="11.1889126"><ele>210.6</ele><time>2026-04-06T12:02:09.698Z</time></trkpt><trkpt lat="43.7104074" lon="11.1889549"><ele>209.79999999999998</ele><time>2026-04-06T12:02:11.696Z</time></trkpt><trkpt lat="43.7104721" lon="11.188991"><ele>209.0</ele><time>2026-04-06T12:02:12.698Z</time></trkpt><trkpt lat="43.710576" lon="11.189"><ele>210.0</ele><time>2026-04-06T12:02:14.697Z</time></trkpt><trkpt lat="43.7106372" lon="11.1890372"><ele>211.0</ele><time>2026-04-06T12:02:15.696Z</time></trkpt><trkpt lat="43.710742" lon="11.1890752"><ele>211.99999999999997</ele><time>2026-04-06T12:02:17.696Z</time></trkpt><trkpt lat="43.7108607" lon="11.1891182"><ele>213.0</ele><time>2026-04-06T12:02:19.697Z</time></trkpt><trkpt lat="43.7109733" lon="11.1891514"><ele>214.0</ele><time>2026-04-06T12:02:21.696Z</time></trkpt><trkpt lat="43.7110346" lon="11.1891766"><ele>214.39999999999998</ele><time>2026-04-06T12:02:22.697Z</time></trkpt><trkpt lat="43.7111424" lon="11.1892045"><ele>214.79999999999998</ele><time>2026-04-06T12:02:24.696Z</time></trkpt><trkpt lat="43.7112606" lon="11.1892346"><ele>215.20000000000002</ele><time>2026-04-06T12:02:26.697Z</time></trkpt><trkpt lat="43.7113737" lon="11.1892308"><ele>215.60000000000002</ele><time>2026-04-06T12:02:28.698Z</time></trkpt><trkpt lat="43.7114411" lon="11.1892142"><ele>216.0</ele><time>2026-04-06T12:02:29.696Z</time></trkpt><trkpt lat="43.7115621" lon="11.1892038"><ele>216.0</ele><time>2026-04-06T12:02:31.697Z</time></trkpt><trkpt lat="43.7116778" lon="11.1891921"><ele>216.00000000000003</ele><time>2026-04-06T12:02:33.696Z</time></trkpt><trkpt lat="43.7117411" lon="11.1891887"><ele>216.00000000000003</ele><time>2026-04-06T12:02:34.697Z</time></trkpt><trkpt lat="43.7118656" lon="11.1891634"><ele>216.0</ele><time>2026-04-06T12:02:36.697Z</time></trkpt><trkpt lat="43.7119919" lon="11.1891436"><ele>216.0</ele><time>2026-04-06T12:02:38.698Z</time></trkpt><trkpt lat="43.7121165" lon="11.1891284"><ele>216.4</ele><time>2026-04-06T12:02:40.698Z</time></trkpt><trkpt lat="43.71218" lon="11.1891111"><ele>216.8</ele><time>2026-04-06T12:02:41.697Z</time></trkpt><trkpt lat="43.7122953" lon="11.1890907"><ele>217.20000000000002</ele><time>2026-04-06T12:02:43.696Z</time></trkpt><trkpt lat="43.7124" lon="11.1890177"><ele>217.60000000000002</ele><time>2026-04-06T12:02:45.696Z</time></trkpt><trkpt lat="43.7124507" lon="11.188962"><ele>218.0</ele><time>2026-04-06T12:02:46.697Z</time></trkpt><trkpt lat="43.7125289" lon="11.1888605"><ele>217.2</ele><time>2026-04-06T12:02:48.696Z</time></trkpt><trkpt lat="43.7125951" lon="11.1887392"><ele>216.4</ele><time>2026-04-06T12:02:50.697Z</time></trkpt><trkpt lat="43.7126406" lon="11.1886045"><ele>215.59999999999997</ele><time>2026-04-06T12:02:52.699Z</time></trkpt><trkpt lat="43.7126831" lon="11.1884664"><ele>214.79999999999998</ele><time>2026-04-06T12:02:54.696Z</time></trkpt><trkpt lat="43.7127088" lon="11.1883462"><ele>214.0</ele><time>2026-04-06T12:02:56.697Z</time></trkpt><trkpt lat="43.7127336" lon="11.188223"><ele>213.85714285714286</ele><time>2026-04-06T12:02:58.696Z</time></trkpt><trkpt lat="43.7127575" lon="11.1881291"><ele>213.71428571428572</ele><time>2026-04-06T12:03:00.696Z</time></trkpt><trkpt lat="43.7127823" lon="11.1880224"><ele>213.57142857142856</ele><time>2026-04-06T12:03:03.697Z</time></trkpt><trkpt lat="43.7128291" lon="11.1879577"><ele>213.42857142857144</ele><time>2026-04-06T12:03:29.697Z</time></trkpt><trkpt lat="43.7128793" lon="11.1878561"><ele>213.28571428571428</ele><time>2026-04-06T12:03:33.697Z</time></trkpt><trkpt lat="43.7129123" lon="11.1877729"><ele>213.14285714285714</ele><time>2026-04-06T12:03:35.697Z</time></trkpt><trkpt lat="43.712954" lon="11.1877055"><ele>213.0</ele><time>2026-04-06T12:03:37.698Z</time></trkpt><trkpt lat="43.7130156" lon="11.1876212"><ele>213.0</ele><time>2026-04-06T12:03:39.696Z</time></trkpt><trkpt lat="43.7131113" lon="11.1875619"><ele>213.0</ele><time>2026-04-06T12:03:41.697Z</time></trkpt><trkpt lat="43.7132238" lon="11.1875051"><ele>213.0</ele><time>2026-04-06T12:03:43.697Z</time></trkpt><trkpt lat="43.7133464" lon="11.187442"><ele>213.0</ele><time>2026-04-06T12:03:45.697Z</time></trkpt><trkpt lat="43.7134097" lon="11.1874332"><ele>213.0</ele><time>2026-04-06T12:03:46.696Z</time></trkpt><trkpt lat="43.7134796" lon="11.1874127"><ele>213.0</ele><time>2026-04-06T12:03:47.697Z</time></trkpt><trkpt lat="43.7135529" lon="11.1873865"><ele>213.0</ele><time>2026-04-06T12:03:48.697Z</time></trkpt><trkpt lat="43.713634" lon="11.1873668"><ele>213.0</ele><time>2026-04-06T12:03:49.696Z</time></trkpt><trkpt lat="43.7137166" lon="11.187344"><ele>213.0</ele><time>2026-04-06T12:03:50.696Z</time></trkpt><trkpt lat="43.7137981" lon="11.1873245"><ele>213.0</ele><time>2026-04-06T12:03:51.697Z</time></trkpt><trkpt lat="43.7138825" lon="11.1873134"><ele>213.0</ele><time>2026-04-06T12:03:52.697Z</time></trkpt><trkpt lat="43.7139617" lon="11.187331"><ele>212.33333333333334</ele><time>2026-04-06T12:03:53.697Z</time></trkpt><trkpt lat="43.7140477" lon="11.187342"><ele>211.66666666666669</ele><time>2026-04-06T12:03:54.696Z</time></trkpt><trkpt lat="43.7141355" lon="11.1873418"><ele>211.0</ele><time>2026-04-06T12:03:55.697Z</time></trkpt><trkpt lat="43.7142281" lon="11.1873389"><ele>210.33333333333334</ele><time>2026-04-06T12:03:56.696Z</time></trkpt><trkpt lat="43.7143091" lon="11.187359"><ele>209.66666666666669</ele><time>2026-04-06T12:03:57.696Z</time></trkpt><trkpt lat="43.7144025" lon="11.1873777"><ele>209.0</ele><time>2026-04-06T12:03:58.697Z</time></trkpt><trkpt lat="43.714494" lon="11.1874128"><ele>206.0</ele><time>2026-04-06T12:03:59.696Z</time></trkpt><trkpt lat="43.7145891" lon="11.1874968"><ele>203.0</ele><time>2026-04-06T12:04:00.697Z</time></trkpt><trkpt lat="43.7146776" lon="11.1875551"><ele>200.0</ele><time>2026-04-06T12:04:01.698Z</time></trkpt><trkpt lat="43.7147448" lon="11.1876039"><ele>197.0</ele><time>2026-04-06T12:04:02.698Z</time></trkpt><trkpt lat="43.7148296" lon="11.187673"><ele>194.0</ele><time>2026-04-06T12:04:03.696Z</time></trkpt><trkpt lat="43.7149177" lon="11.1877416"><ele>194.0</ele><time>2026-04-06T12:04:04.698Z</time></trkpt><trkpt lat="43.7150029" lon="11.1878048"><ele>194.0</ele><time>2026-04-06T12:04:05.698Z</time></trkpt><trkpt lat="43.715091" lon="11.1878719"><ele>194.0</ele><time>2026-04-06T12:04:06.697Z</time></trkpt><trkpt lat="43.7151791" lon="11.1879398"><ele>194.0</ele><time>2026-04-06T12:04:07.698Z</time></trkpt><trkpt lat="43.7152652" lon="11.1880032"><ele>194.0</ele><time>2026-04-06T12:04:08.698Z</time></trkpt><trkpt lat="43.7153527" lon="11.1880702"><ele>193.39999999999998</ele><time>2026-04-06T12:04:09.696Z</time></trkpt><trkpt lat="43.715435" lon="11.1881386"><ele>192.8</ele><time>2026-04-06T12:04:10.698Z</time></trkpt><trkpt lat="43.7155162" lon="11.1882129"><ele>192.2</ele><time>2026-04-06T12:04:11.696Z</time></trkpt><trkpt lat="43.7155956" lon="11.1882947"><ele>191.60000000000002</ele><time>2026-04-06T12:04:12.696Z</time></trkpt><trkpt lat="43.7156749" lon="11.188368"><ele>191.0</ele><time>2026-04-06T12:04:13.697Z</time></trkpt><trkpt lat="43.7157419" lon="11.1884352"><ele>191.0</ele><time>2026-04-06T12:04:14.697Z</time></trkpt><trkpt lat="43.7157976" lon="11.1884952"><ele>191.0</ele><time>2026-04-06T12:04:15.696Z</time></trkpt><trkpt lat="43.7158546" lon="11.1885786"><ele>191.0</ele><time>2026-04-06T12:04:16.697Z</time></trkpt><trkpt lat="43.7159191" lon="11.1886111"><ele>191.0</ele><time>2026-04-06T12:04:18.697Z</time></trkpt><trkpt lat="43.7158891" lon="11.1885209"><ele>191.0</ele><time>2026-04-06T12:04:22.697Z</time></trkpt><trkpt lat="43.7158361" lon="11.1884371"><ele>191.0</ele><time>2026-04-06T12:04:26.696Z</time></trkpt><trkpt lat="43.7157727" lon="11.1883412"><ele>191.0</ele><time>2026-04-06T12:04:29.697Z</time></trkpt><trkpt lat="43.7157036" lon="11.188258"><ele>191.0</ele><time>2026-04-06T12:04:31.697Z</time></trkpt><trkpt lat="43.7156038" lon="11.1881799"><ele>191.0</ele><time>2026-04-06T12:04:33.697Z</time></trkpt><trkpt lat="43.715555" lon="11.1881167"><ele>191.0</ele><time>2026-04-06T12:04:34.697Z</time></trkpt><trkpt lat="43.7155014" lon="11.1880598"><ele>191.0</ele><time>2026-04-06T12:04:35.697Z</time></trkpt><trkpt lat="43.7154209" lon="11.1879465"><ele>191.60000000000002</ele><time>2026-04-06T12:04:37.697Z</time></trkpt><trkpt lat="43.7153605" lon="11.1878365"><ele>192.2</ele><time>2026-04-06T12:04:39.696Z</time></trkpt><trkpt lat="43.7152997" lon="11.1877881"><ele>192.8</ele><time>2026-04-06T12:04:41.697Z</time></trkpt><trkpt lat="43.7152185" lon="11.1877538"><ele>193.39999999999998</ele><time>2026-04-06T12:04:43.698Z</time></trkpt><trkpt lat="43.7151352" lon="11.1876588"><ele>194.0</ele><time>2026-04-06T12:04:46.696Z</time></trkpt><trkpt lat="43.715077" lon="11.1875496"><ele>194.0</ele><time>2026-04-06T12:04:48.697Z</time></trkpt><trkpt lat="43.7150078" lon="11.1873776"><ele>194.0</ele><time>2026-04-06T12:04:50.696Z</time></trkpt><trkpt lat="43.7149514" lon="11.1872822"><ele>194.0</ele><time>2026-04-06T12:04:52.696Z</time></trkpt><trkpt lat="43.7148934" lon="11.1871716"><ele>194.0</ele><time>2026-04-06T12:04:54.698Z</time></trkpt><trkpt lat="43.7148085" lon="11.1870252"><ele>194.79999999999998</ele><time>2026-04-06T12:04:56.697Z</time></trkpt><trkpt lat="43.7147526" lon="11.186966"><ele>195.6</ele><time>2026-04-06T12:04:57.697Z</time></trkpt><trkpt lat="43.7146606" lon="11.1868737"><ele>196.4</ele><time>2026-04-06T12:04:59.696Z</time></trkpt><trkpt lat="43.7146852" lon="11.1867363"><ele>197.2</ele><time>2026-04-06T12:05:01.696Z</time></trkpt><trkpt lat="43.7147064" lon="11.1865908"><ele>198.0</ele><time>2026-04-06T12:05:03.697Z</time></trkpt><trkpt lat="43.7147886" lon="11.1865267"><ele>198.0</ele><time>2026-04-06T12:05:06.698Z</time></trkpt><trkpt lat="43.714873" lon="11.1865596"><ele>198.0</ele><time>2026-04-06T12:05:08.696Z</time></trkpt><trkpt lat="43.7149923" lon="11.1865891"><ele>198.0</ele><time>2026-04-06T12:05:11.698Z</time></trkpt><trkpt lat="43.7150778" lon="11.18656"><ele>198.0</ele><time>2026-04-06T12:05:14.697Z</time></trkpt><trkpt lat="43.7151466" lon="11.1865685"><ele>198.0</ele><time>2026-04-06T12:05:16.697Z</time></trkpt><trkpt lat="43.7152229" lon="11.1865917"><ele>198.0</ele><time>2026-04-06T12:05:18.696Z</time></trkpt><trkpt lat="43.7153009" lon="11.1866166"><ele>198.33333333333334</ele><time>2026-04-06T12:05:20.696Z</time></trkpt><trkpt lat="43.7153861" lon="11.1866353"><ele>198.66666666666669</ele><time>2026-04-06T12:05:22.697Z</time></trkpt><trkpt lat="43.7154728" lon="11.1866596"><ele>199.0</ele><time>2026-04-06T12:05:24.696Z</time></trkpt><trkpt lat="43.7155584" lon="11.1866713"><ele>199.33333333333334</ele><time>2026-04-06T12:05:25.697Z</time></trkpt><trkpt lat="43.7156297" lon="11.1866728"><ele>199.66666666666669</ele><time>2026-04-06T12:05:27.696Z</time></trkpt><trkpt lat="43.7157041" lon="11.1866945"><ele>200.0</ele><time>2026-04-06T12:05:29.697Z</time></trkpt><trkpt lat="43.7157907" lon="11.1866995"><ele>200.00000000000003</ele><time>2026-04-06T12:05:31.697Z</time></trkpt><trkpt lat="43.7158654" lon="11.1866889"><ele>200.0</ele><time>2026-04-06T12:05:33.697Z</time></trkpt><trkpt lat="43.7159335" lon="11.1866541"><ele>200.0</ele><time>2026-04-06T12:05:35.697Z</time></trkpt><trkpt lat="43.716012" lon="11.186641"><ele>200.0</ele><time>2026-04-06T12:05:37.696Z</time></trkpt><trkpt lat="43.7160976" lon="11.1866262"><ele>200.00000000000003</ele><time>2026-04-06T12:05:39.696Z</time></trkpt><trkpt lat="43.7161657" lon="11.18662"><ele>200.0</ele><time>2026-04-06T12:05:40.697Z</time></trkpt><trkpt lat="43.7162579" lon="11.1866013"><ele>198.6</ele><time>2026-04-06T12:05:42.696Z</time></trkpt><trkpt lat="43.7164042" lon="11.1866097"><ele>197.2</ele><time>2026-04-06T12:05:44.696Z</time></trkpt><trkpt lat="43.7165108" lon="11.1866091"><ele>195.8</ele><time>2026-04-06T12:05:46.697Z</time></trkpt><trkpt lat="43.7165791" lon="11.1865278"><ele>194.4</ele><time>2026-04-06T12:05:48.698Z</time></trkpt><trkpt lat="43.7166174" lon="11.1864298"><ele>193.0</ele><time>2026-04-06T12:05:50.696Z</time></trkpt><trkpt lat="43.7166716" lon="11.1862837"><ele>193.0</ele><time>2026-04-06T12:05:52.695Z</time></trkpt><trkpt lat="43.7166954" lon="11.1861658"><ele>193.0</ele><time>2026-04-06T12:05:54.696Z</time></trkpt><trkpt lat="43.7167174" lon="11.1859944"><ele>193.0</ele><time>2026-04-06T12:05:56.697Z</time></trkpt><trkpt lat="43.7167484" lon="11.185826"><ele>193.0</ele><time>2026-04-06T12:05:58.696Z</time></trkpt><trkpt lat="43.7168045" lon="11.1856945"><ele>193.99999999999997</ele><time>2026-04-06T12:06:00.696Z</time></trkpt><trkpt lat="43.7168522" lon="11.1856345"><ele>195.0</ele><time>2026-04-06T12:06:01.698Z</time></trkpt><trkpt lat="43.7168911" lon="11.1855509"><ele>196.0</ele><time>2026-04-06T12:06:02.697Z</time></trkpt><trkpt lat="43.71696" lon="11.1854096"><ele>197.0</ele><time>2026-04-06T12:06:04.696Z</time></trkpt><trkpt lat="43.7170234" lon="11.1852711"><ele>197.99999999999997</ele><time>2026-04-06T12:06:06.696Z</time></trkpt><trkpt lat="43.7170528" lon="11.1851925"><ele>199.0</ele><time>2026-04-06T12:06:07.697Z</time></trkpt><trkpt lat="43.7171022" lon="11.1850595"><ele>196.2</ele><time>2026-04-06T12:06:09.697Z</time></trkpt><trkpt lat="43.7171622" lon="11.1849044"><ele>193.39999999999998</ele><time>2026-04-06T12:06:11.695Z</time></trkpt><trkpt lat="43.7172118" lon="11.1847788"><ele>190.6</ele><time>2026-04-06T12:06:13.697Z</time></trkpt><trkpt lat="43.7172439" lon="11.1846333"><ele>187.8</ele><time>2026-04-06T12:06:15.697Z</time></trkpt><trkpt lat="43.7172443" lon="11.1844892"><ele>185.0</ele><time>2026-04-06T12:06:17.697Z</time></trkpt><trkpt lat="43.7173147" lon="11.1843934"><ele>185.0</ele><time>2026-04-06T12:06:19.697Z</time></trkpt><trkpt lat="43.7174044" lon="11.1843713"><ele>185.0</ele><time>2026-04-06T12:06:21.697Z</time></trkpt><trkpt lat="43.7174937" lon="11.1843118"><ele>185.0</ele><time>2026-04-06T12:06:23.698Z</time></trkpt><trkpt lat="43.7175931" lon="11.1842723"><ele>185.0</ele><time>2026-04-06T12:06:25.696Z</time></trkpt><trkpt lat="43.7176882" lon="11.1842366"><ele>185.0</ele><time>2026-04-06T12:06:27.696Z</time></trkpt><trkpt lat="43.7177778" lon="11.1841615"><ele>182.2</ele><time>2026-04-06T12:06:29.695Z</time></trkpt><trkpt lat="43.7178548" lon="11.1840935"><ele>179.4</ele><time>2026-04-06T12:06:31.696Z</time></trkpt><trkpt lat="43.7178917" lon="11.1839758"><ele>176.60000000000002</ele><time>2026-04-06T12:06:33.697Z</time></trkpt><trkpt lat="43.7179228" lon="11.1838491"><ele>173.8</ele><time>2026-04-06T12:06:35.697Z</time></trkpt><trkpt lat="43.7179843" lon="11.1837583"><ele>171.0</ele><time>2026-04-06T12:06:37.697Z</time></trkpt><trkpt lat="43.7180286" lon="11.1836398"><ele>171.0</ele><time>2026-04-06T12:06:39.697Z</time></trkpt><trkpt lat="43.7181033" lon="11.1835685"><ele>171.0</ele><time>2026-04-06T12:06:41.697Z</time></trkpt><trkpt lat="43.7181677" lon="11.1834954"><ele>171.0</ele><time>2026-04-06T12:06:43.698Z</time></trkpt><trkpt lat="43.7182158" lon="11.1833669"><ele>171.0</ele><time>2026-04-06T12:06:45.697Z</time></trkpt><trkpt lat="43.7182522" lon="11.1832392"><ele>171.0</ele><time>2026-04-06T12:06:47.696Z</time></trkpt><trkpt lat="43.7182603" lon="11.1831025"><ele>172.0</ele><time>2026-04-06T12:06:49.696Z</time></trkpt><trkpt lat="43.718274" lon="11.1829764"><ele>173.0</ele><time>2026-04-06T12:06:51.696Z</time></trkpt><trkpt lat="43.7182875" lon="11.1828583"><ele>174.0</ele><time>2026-04-06T12:06:53.697Z</time></trkpt><trkpt lat="43.7182932" lon="11.1827147"><ele>175.0</ele><time>2026-04-06T12:06:55.697Z</time></trkpt><trkpt lat="43.7183023" lon="11.1825738"><ele>176.0</ele><time>2026-04-06T12:06:57.698Z</time></trkpt><trkpt lat="43.7183151" lon="11.1824737"><ele>176.0</ele><time>2026-04-06T12:06:58.697Z</time></trkpt><trkpt lat="43.718423" lon="11.1824411"><ele>176.0</ele><time>2026-04-06T12:07:00.695Z</time></trkpt><trkpt lat="43.718485" lon="11.1824606"><ele>176.0</ele><time>2026-04-06T12:07:01.697Z</time></trkpt><trkpt lat="43.7185741" lon="11.1825121"><ele>176.0</ele><time>2026-04-06T12:07:03.696Z</time></trkpt><trkpt lat="43.7186473" lon="11.1826213"><ele>176.0</ele><time>2026-04-06T12:07:05.695Z</time></trkpt><trkpt lat="43.7187151" lon="11.1827142"><ele>173.20000000000002</ele><time>2026-04-06T12:07:07.697Z</time></trkpt><trkpt lat="43.7188056" lon="11.1827945"><ele>170.4</ele><time>2026-04-06T12:07:09.695Z</time></trkpt><trkpt lat="43.718885" lon="11.18272"><ele>167.6</ele><time>2026-04-06T12:07:11.695Z</time></trkpt><trkpt lat="43.7189563" lon="11.1826126"><ele>164.8</ele><time>2026-04-06T12:07:13.697Z</time></trkpt><trkpt lat="43.7189817" lon="11.1825082"><ele>162.0</ele><time>2026-04-06T12:07:15.695Z</time></trkpt><trkpt lat="43.719005" lon="11.1823701"><ele>161.83333333333334</ele><time>2026-04-06T12:07:17.697Z</time></trkpt><trkpt lat="43.719004" lon="11.1822639"><ele>161.66666666666666</ele><time>2026-04-06T12:07:19.695Z</time></trkpt><trkpt lat="43.7189929" lon="11.1821579"><ele>161.5</ele><time>2026-04-06T12:07:22.696Z</time></trkpt><trkpt lat="43.718968" lon="11.1820634"><ele>161.33333333333331</ele><time>2026-04-06T12:10:46.695Z</time></trkpt><trkpt lat="43.7189739" lon="11.181939"><ele>161.16666666666666</ele><time>2026-04-06T12:10:49.696Z</time></trkpt><trkpt lat="43.7190002" lon="11.1817902"><ele>161.0</ele><time>2026-04-06T12:10:51.696Z</time></trkpt><trkpt lat="43.7190462" lon="11.1816493"><ele>161.0</ele><time>2026-04-06T12:10:53.696Z</time></trkpt><trkpt lat="43.7190723" lon="11.181563"><ele>161.0</ele><time>2026-04-06T12:10:54.695Z</time></trkpt><trkpt lat="43.7191009" lon="11.1814727"><ele>161.0</ele><time>2026-04-06T12:10:55.695Z</time></trkpt><trkpt lat="43.7191275" lon="11.1813858"><ele>161.0</ele><time>2026-04-06T12:10:56.695Z</time></trkpt><trkpt lat="43.7191631" lon="11.1812422"><ele>161.0</ele><time>2026-04-06T12:10:58.697Z</time></trkpt><trkpt lat="43.7191669" lon="11.1811509"><ele>161.0</ele><time>2026-04-06T12:10:59.696Z</time></trkpt><trkpt lat="43.7192083" lon="11.1810136"><ele>161.60000000000002</ele><time>2026-04-06T12:11:01.696Z</time></trkpt><trkpt lat="43.7192352" lon="11.180921"><ele>162.2</ele><time>2026-04-06T12:11:02.696Z</time></trkpt><trkpt lat="43.7193218" lon="11.1808268"><ele>162.8</ele><time>2026-04-06T12:11:04.697Z</time></trkpt><trkpt lat="43.7194187" lon="11.1807381"><ele>163.39999999999998</ele><time>2026-04-06T12:11:06.696Z</time></trkpt><trkpt lat="43.7194902" lon="11.1806437"><ele>164.0</ele><time>2026-04-06T12:11:08.696Z</time></trkpt><trkpt lat="43.7195061" lon="11.1805585"><ele>164.0</ele><time>2026-04-06T12:11:09.696Z</time></trkpt><trkpt lat="43.7195447" lon="11.1804273"><ele>164.0</ele><time>2026-04-06T12:11:11.696Z</time></trkpt><trkpt lat="43.7196013" lon="11.1803095"><ele>164.0</ele><time>2026-04-06T12:11:13.696Z</time></trkpt><trkpt lat="43.7196891" lon="11.1801772"><ele>164.0</ele><time>2026-04-06T12:11:15.695Z</time></trkpt><trkpt lat="43.7197443" lon="11.1800674"><ele>164.0</ele><time>2026-04-06T12:11:17.695Z</time></trkpt><trkpt lat="43.7198001" lon="11.179979"><ele>164.0</ele><time>2026-04-06T12:11:19.695Z</time></trkpt><trkpt lat="43.7198391" lon="11.1799106"><ele>164.0</ele><time>2026-04-06T12:11:20.696Z</time></trkpt><trkpt lat="43.7198923" lon="11.1798152"><ele>164.0</ele><time>2026-04-06T12:11:22.695Z</time></trkpt><trkpt lat="43.7199451" lon="11.1797342"><ele>164.0</ele><time>2026-04-06T12:11:24.696Z</time></trkpt><trkpt lat="43.7199952" lon="11.1796643"><ele>164.0</ele><time>2026-04-06T12:11:26.695Z</time></trkpt><trkpt lat="43.7200464" lon="11.179588"><ele>164.0</ele><time>2026-04-06T12:11:28.695Z</time></trkpt><trkpt lat="43.7200977" lon="11.1794867"><ele>163.83333333333331</ele><time>2026-04-06T12:11:30.695Z</time></trkpt><trkpt lat="43.7201537" lon="11.1794068"><ele>163.66666666666666</ele><time>2026-04-06T12:11:32.697Z</time></trkpt><trkpt lat="43.7202103" lon="11.1793494"><ele>163.5</ele><time>2026-04-06T12:11:34.696Z</time></trkpt><trkpt lat="43.7202882" lon="11.1792539"><ele>163.33333333333334</ele><time>2026-04-06T12:11:36.695Z</time></trkpt><trkpt lat="43.7203314" lon="11.1791763"><ele>163.16666666666669</ele><time>2026-04-06T12:11:38.696Z</time></trkpt><trkpt lat="43.7203871" lon="11.1790801"><ele>163.0</ele><time>2026-04-06T12:11:40.696Z</time></trkpt><trkpt lat="43.7204551" lon="11.1789855"><ele>163.0</ele><time>2026-04-06T12:11:42.696Z</time></trkpt><trkpt lat="43.7204941" lon="11.178896"><ele>163.0</ele><time>2026-04-06T12:11:44.697Z</time></trkpt><trkpt lat="43.7205247" lon="11.1788181"><ele>163.0</ele><time>2026-04-06T12:11:46.695Z</time></trkpt><trkpt lat="43.7205569" lon="11.1787377"><ele>163.0</ele><time>2026-04-06T12:11:48.695Z</time></trkpt><trkpt lat="43.7205759" lon="11.1786347"><ele>163.0</ele><time>2026-04-06T12:11:50.696Z</time></trkpt><trkpt lat="43.7205885" lon="11.1785191"><ele>163.0</ele><time>2026-04-06T12:11:52.696Z</time></trkpt><trkpt lat="43.7205943" lon="11.1784049"><ele>163.0</ele><time>2026-04-06T12:11:54.696Z</time></trkpt><trkpt lat="43.7205945" lon="11.1782846"><ele>163.0</ele><time>2026-04-06T12:11:56.695Z</time></trkpt><trkpt lat="43.7205852" lon="11.1781596"><ele>163.0</ele><time>2026-04-06T12:11:58.695Z</time></trkpt><trkpt lat="43.7206047" lon="11.1780523"><ele>163.0</ele><time>2026-04-06T12:12:00.696Z</time></trkpt><trkpt lat="43.7206488" lon="11.1779592"><ele>163.0</ele><time>2026-04-06T12:12:02.696Z</time></trkpt><trkpt lat="43.7206831" lon="11.1778497"><ele>163.0</ele><time>2026-04-06T12:12:04.695Z</time></trkpt><trkpt lat="43.7207123" lon="11.1777266"><ele>165.33333333333334</ele><time>2026-04-06T12:12:06.695Z</time></trkpt><trkpt lat="43.7207566" lon="11.177625"><ele>167.66666666666669</ele><time>2026-04-06T12:12:08.697Z</time></trkpt><trkpt lat="43.7207878" lon="11.177521"><ele>170.0</ele><time>2026-04-06T12:12:10.697Z</time></trkpt><trkpt lat="43.72082" lon="11.1774345"><ele>172.33333333333334</ele><time>2026-04-06T12:12:12.697Z</time></trkpt><trkpt lat="43.7208613" lon="11.1773332"><ele>174.66666666666666</ele><time>2026-04-06T12:12:14.696Z</time></trkpt><trkpt lat="43.7208873" lon="11.1772265"><ele>177.0</ele><time>2026-04-06T12:12:16.696Z</time></trkpt><trkpt lat="43.720919" lon="11.177094"><ele>178.33333333333334</ele><time>2026-04-06T12:12:18.695Z</time></trkpt><trkpt lat="43.7209629" lon="11.1769944"><ele>179.66666666666666</ele><time>2026-04-06T12:12:20.695Z</time></trkpt><trkpt lat="43.7209769" lon="11.176909"><ele>181.0</ele><time>2026-04-06T12:12:21.697Z</time></trkpt><trkpt lat="43.720992" lon="11.1768135"><ele>182.33333333333331</ele><time>2026-04-06T12:12:23.696Z</time></trkpt><trkpt lat="43.7210244" lon="11.176687"><ele>183.66666666666666</ele><time>2026-04-06T12:12:25.695Z</time></trkpt><trkpt lat="43.7210745" lon="11.1765826"><ele>185.0</ele><time>2026-04-06T12:12:27.696Z</time></trkpt><trkpt lat="43.7211185" lon="11.1764571"><ele>180.6</ele><time>2026-04-06T12:12:29.696Z</time></trkpt><trkpt lat="43.7211574" lon="11.1763169"><ele>176.2</ele><time>2026-04-06T12:12:31.695Z</time></trkpt><trkpt lat="43.7211893" lon="11.1761623"><ele>171.8</ele><time>2026-04-06T12:12:33.696Z</time></trkpt><trkpt lat="43.7212057" lon="11.1760028"><ele>167.4</ele><time>2026-04-06T12:12:35.696Z</time></trkpt><trkpt lat="43.7212241" lon="11.1758961"><ele>163.0</ele><time>2026-04-06T12:12:37.697Z</time></trkpt><trkpt lat="43.7212814" lon="11.1757789"><ele>166.0</ele><time>2026-04-06T12:12:39.694Z</time></trkpt><trkpt lat="43.7213457" lon="11.1756379"><ele>169.0</ele><time>2026-04-06T12:12:41.695Z</time></trkpt><trkpt lat="43.7213995" lon="11.1755231"><ele>172.0</ele><time>2026-04-06T12:12:43.695Z</time></trkpt><trkpt lat="43.7214646" lon="11.1753828"><ele>175.0</ele><time>2026-04-06T12:12:45.694Z</time></trkpt><trkpt lat="43.7215259" lon="11.1752498"><ele>175.0</ele><time>2026-04-06T12:12:47.694Z</time></trkpt><trkpt lat="43.7215959" lon="11.1751346"><ele>175.0</ele><time>2026-04-06T12:12:49.696Z</time></trkpt><trkpt lat="43.7216342" lon="11.1750055"><ele>175.0</ele><time>2026-04-06T12:12:51.696Z</time></trkpt><trkpt lat="43.7216533" lon="11.1748817"><ele>175.0</ele><time>2026-04-06T12:12:53.696Z</time></trkpt><trkpt lat="43.7216566" lon="11.1747768"><ele>175.0</ele><time>2026-04-06T12:12:55.695Z</time></trkpt><trkpt lat="43.7216487" lon="11.1746679"><ele>176.5</ele><time>2026-04-06T12:12:57.696Z</time></trkpt><trkpt lat="43.721653" lon="11.1745622"><ele>178.0</ele><time>2026-04-06T12:12:59.695Z</time></trkpt><trkpt lat="43.7216846" lon="11.1744548"><ele>179.5</ele><time>2026-04-06T12:13:01.695Z</time></trkpt><trkpt lat="43.721716" lon="11.1743402"><ele>181.0</ele><time>2026-04-06T12:13:03.695Z</time></trkpt><trkpt lat="43.7217411" lon="11.174231"><ele>182.5</ele><time>2026-04-06T12:13:05.695Z</time></trkpt><trkpt lat="43.7217869" lon="11.1741397"><ele>184.0</ele><time>2026-04-06T12:13:07.697Z</time></trkpt><trkpt lat="43.7218259" lon="11.1740468"><ele>185.0</ele><time>2026-04-06T12:13:10.694Z</time></trkpt><trkpt lat="43.7218061" lon="11.1739517"><ele>186.0</ele><time>2026-04-06T12:13:13.696Z</time></trkpt><trkpt lat="43.7218146" lon="11.1738511"><ele>187.0</ele><time>2026-04-06T12:13:15.696Z</time></trkpt><trkpt lat="43.7218149" lon="11.1737344"><ele>188.0</ele><time>2026-04-06T12:13:17.695Z</time></trkpt><trkpt lat="43.7218271" lon="11.1736402"><ele>189.0</ele><time>2026-04-06T12:13:20.695Z</time></trkpt><trkpt lat="43.7218848" lon="11.1735594"><ele>190.0</ele><time>2026-04-06T12:14:14.695Z</time></trkpt><trkpt lat="43.7219666" lon="11.1735374"><ele>190.0</ele><time>2026-04-06T12:14:16.694Z</time></trkpt><trkpt lat="43.7220561" lon="11.1735321"><ele>190.0</ele><time>2026-04-06T12:14:18.696Z</time></trkpt><trkpt lat="43.7221446" lon="11.1735387"><ele>190.0</ele><time>2026-04-06T12:14:20.694Z</time></trkpt><trkpt lat="43.722227" lon="11.1735731"><ele>190.0</ele><time>2026-04-06T12:14:22.696Z</time></trkpt><trkpt lat="43.7223019" lon="11.1736341"><ele>190.0</ele><time>2026-04-06T12:14:24.695Z</time></trkpt><trkpt lat="43.7223484" lon="11.1736943"><ele>190.0</ele><time>2026-04-06T12:14:25.695Z</time></trkpt><trkpt lat="43.7224062" lon="11.1737934"><ele>190.0</ele><time>2026-04-06T12:14:27.695Z</time></trkpt><trkpt lat="43.7224632" lon="11.1738744"><ele>190.0</ele><time>2026-04-06T12:14:29.694Z</time></trkpt><trkpt lat="43.7225497" lon="11.1739594"><ele>190.0</ele><time>2026-04-06T12:14:32.695Z</time></trkpt><trkpt lat="43.7226041" lon="11.1740737"><ele>190.0</ele><time>2026-04-06T12:14:34.695Z</time></trkpt><trkpt lat="43.7226529" lon="11.1741486"><ele>190.0</ele><time>2026-04-06T12:14:36.695Z</time></trkpt><trkpt lat="43.7226921" lon="11.1742238"><ele>190.0</ele><time>2026-04-06T12:14:38.694Z</time></trkpt><trkpt lat="43.7227335" lon="11.1743307"><ele>189.4</ele><time>2026-04-06T12:14:40.695Z</time></trkpt><trkpt lat="43.722766" lon="11.1744637"><ele>188.8</ele><time>2026-04-06T12:14:42.697Z</time></trkpt><trkpt lat="43.722829" lon="11.174595"><ele>188.2</ele><time>2026-04-06T12:14:44.696Z</time></trkpt><trkpt lat="43.7228508" lon="11.1747022"><ele>187.6</ele><time>2026-04-06T12:14:46.695Z</time></trkpt><trkpt lat="43.7228567" lon="11.1748101"><ele>187.0</ele><time>2026-04-06T12:14:48.697Z</time></trkpt><trkpt lat="43.7228766" lon="11.1749327"><ele>187.0</ele><time>2026-04-06T12:14:50.696Z</time></trkpt><trkpt lat="43.7228996" lon="11.1750219"><ele>187.0</ele><time>2026-04-06T12:14:52.695Z</time></trkpt><trkpt lat="43.7229159" lon="11.1751116"><ele>187.0</ele><time>2026-04-06T12:14:54.696Z</time></trkpt><trkpt lat="43.7229304" lon="11.1752117"><ele>187.0</ele><time>2026-04-06T12:14:56.695Z</time></trkpt><trkpt lat="43.7229429" lon="11.1753167"><ele>187.0</ele><time>2026-04-06T12:14:58.695Z</time></trkpt><trkpt lat="43.722948" lon="11.1754436"><ele>187.0</ele><time>2026-04-06T12:15:00.695Z</time></trkpt><trkpt lat="43.7229646" lon="11.1755726"><ele>187.0</ele><time>2026-04-06T12:15:02.696Z</time></trkpt><trkpt lat="43.7229875" lon="11.1756833"><ele>187.0</ele><time>2026-04-06T12:15:04.694Z</time></trkpt><trkpt lat="43.7231371" lon="11.1756916"><ele>187.0</ele><time>2026-04-06T12:15:09.694Z</time></trkpt><trkpt lat="43.7231943" lon="11.1756263"><ele>187.0</ele><time>2026-04-06T12:15:11.694Z</time></trkpt><trkpt lat="43.7232568" lon="11.1755734"><ele>187.0</ele><time>2026-04-06T12:15:13.695Z</time></trkpt><trkpt lat="43.7233361" lon="11.1755072"><ele>187.0</ele><time>2026-04-06T12:15:16.694Z</time></trkpt><trkpt lat="43.7234061" lon="11.1754291"><ele>187.0</ele><time>2026-04-06T12:15:19.695Z</time></trkpt><trkpt lat="43.7234626" lon="11.1753877"><ele>187.0</ele><time>2026-04-06T12:15:22.695Z</time></trkpt><trkpt lat="43.7235359" lon="11.1753162"><ele>187.0</ele><time>2026-04-06T12:15:25.696Z</time></trkpt><trkpt lat="43.7236065" lon="11.1752795"><ele>187.0</ele><time>2026-04-06T12:15:28.696Z</time></trkpt><trkpt lat="43.7236885" lon="11.1753306"><ele>187.0</ele><time>2026-04-06T12:15:30.695Z</time></trkpt><trkpt lat="43.7237559" lon="11.1754697"><ele>186.5</ele><time>2026-04-06T12:15:32.694Z</time></trkpt><trkpt lat="43.7237809" lon="11.1755508"><ele>186.0</ele><time>2026-04-06T12:15:33.696Z</time></trkpt><trkpt lat="43.7238157" lon="11.1756311"><ele>185.5</ele><time>2026-04-06T12:15:34.696Z</time></trkpt><trkpt lat="43.7238457" lon="11.1757146"><ele>185.0</ele><time>2026-04-06T12:15:35.694Z</time></trkpt><trkpt lat="43.7238864" lon="11.1757848"><ele>184.5</ele><time>2026-04-06T12:15:36.695Z</time></trkpt><trkpt lat="43.7239448" lon="11.1759349"><ele>184.0</ele><time>2026-04-06T12:15:38.697Z</time></trkpt><trkpt lat="43.7240132" lon="11.1760846"><ele>184.0</ele><time>2026-04-06T12:15:40.695Z</time></trkpt><trkpt lat="43.7240422" lon="11.176163"><ele>184.0</ele><time>2026-04-06T12:15:41.695Z</time></trkpt><trkpt lat="43.724099" lon="11.1763276"><ele>184.0</ele><time>2026-04-06T12:15:43.696Z</time></trkpt><trkpt lat="43.7241327" lon="11.17641"><ele>184.0</ele><time>2026-04-06T12:15:44.696Z</time></trkpt><trkpt lat="43.7241983" lon="11.1765525"><ele>184.0</ele><time>2026-04-06T12:15:46.694Z</time></trkpt><trkpt lat="43.7242334" lon="11.1766394"><ele>183.83333333333334</ele><time>2026-04-06T12:15:49.695Z</time></trkpt><trkpt lat="43.7243008" lon="11.1765935"><ele>183.66666666666669</ele><time>2026-04-06T12:15:51.694Z</time></trkpt><trkpt lat="43.724368" lon="11.1765485"><ele>183.5</ele><time>2026-04-06T12:15:52.695Z</time></trkpt><trkpt lat="43.7244798" lon="11.1764629"><ele>183.33333333333334</ele><time>2026-04-06T12:15:54.695Z</time></trkpt><trkpt lat="43.7245423" lon="11.176414"><ele>183.16666666666666</ele><time>2026-04-06T12:15:55.694Z</time></trkpt><trkpt lat="43.7246189" lon="11.1763611"><ele>183.0</ele><time>2026-04-06T12:15:56.695Z</time></trkpt><trkpt lat="43.7246907" lon="11.1763033"><ele>179.8</ele><time>2026-04-06T12:15:57.695Z</time></trkpt><trkpt lat="43.7247619" lon="11.1762407"><ele>176.60000000000002</ele><time>2026-04-06T12:15:58.694Z</time></trkpt><trkpt lat="43.724842" lon="11.1761584"><ele>173.39999999999998</ele><time>2026-04-06T12:15:59.749Z</time></trkpt><trkpt lat="43.7249275" lon="11.1760805"><ele>170.2</ele><time>2026-04-06T12:16:00.863Z</time></trkpt><trkpt lat="43.7250739" lon="11.175995"><ele>167.0</ele><time>2026-04-06T12:16:02.695Z</time></trkpt><trkpt lat="43.7251579" lon="11.1759159"><ele>165.5</ele><time>2026-04-06T12:16:03.695Z</time></trkpt><trkpt lat="43.7252392" lon="11.1758424"><ele>164.0</ele><time>2026-04-06T12:16:04.696Z</time></trkpt><trkpt lat="43.7253202" lon="11.1757692"><ele>162.5</ele><time>2026-04-06T12:16:05.695Z</time></trkpt><trkpt lat="43.7253979" lon="11.1757105"><ele>161.0</ele><time>2026-04-06T12:16:06.694Z</time></trkpt><trkpt lat="43.7254733" lon="11.1756581"><ele>159.5</ele><time>2026-04-06T12:16:07.696Z</time></trkpt><trkpt lat="43.7255375" lon="11.1755942"><ele>158.0</ele><time>2026-04-06T12:16:08.695Z</time></trkpt><trkpt lat="43.725601" lon="11.1755427"><ele>158.0</ele><time>2026-04-06T12:16:09.695Z</time></trkpt><trkpt lat="43.7256736" lon="11.175491"><ele>158.0</ele><time>2026-04-06T12:16:10.696Z</time></trkpt><trkpt lat="43.7257358" lon="11.1754419"><ele>158.0</ele><time>2026-04-06T12:16:11.694Z</time></trkpt><trkpt lat="43.7258081" lon="11.1753836"><ele>158.0</ele><time>2026-04-06T12:16:12.695Z</time></trkpt><trkpt lat="43.7258724" lon="11.1753258"><ele>158.0</ele><time>2026-04-06T12:16:13.695Z</time></trkpt><trkpt lat="43.725932" lon="11.1752614"><ele>158.0</ele><time>2026-04-06T12:16:14.694Z</time></trkpt><trkpt lat="43.7260396" lon="11.1751566"><ele>155.83333333333331</ele><time>2026-04-06T12:16:16.695Z</time></trkpt><trkpt lat="43.7261008" lon="11.1751158"><ele>153.66666666666666</ele><time>2026-04-06T12:16:17.694Z</time></trkpt><trkpt lat="43.7261679" lon="11.1751"><ele>151.5</ele><time>2026-04-06T12:16:18.695Z</time></trkpt><trkpt lat="43.7262546" lon="11.1751242"><ele>149.33333333333334</ele><time>2026-04-06T12:16:19.695Z</time></trkpt><trkpt lat="43.7263311" lon="11.1752202"><ele>147.16666666666669</ele><time>2026-04-06T12:16:20.695Z</time></trkpt><trkpt lat="43.7263782" lon="11.1753011"><ele>145.0</ele><time>2026-04-06T12:16:21.696Z</time></trkpt><trkpt lat="43.7264565" lon="11.1754016"><ele>145.0</ele><time>2026-04-06T12:16:22.696Z</time></trkpt><trkpt lat="43.7265175" lon="11.1754858"><ele>145.0</ele><time>2026-04-06T12:16:23.695Z</time></trkpt><trkpt lat="43.7265911" lon="11.1755643"><ele>145.0</ele><time>2026-04-06T12:16:24.696Z</time></trkpt><trkpt lat="43.7266653" lon="11.1756466"><ele>145.0</ele><time>2026-04-06T12:16:25.695Z</time></trkpt><trkpt lat="43.7267468" lon="11.1757211"><ele>145.0</ele><time>2026-04-06T12:16:26.696Z</time></trkpt><trkpt lat="43.7268018" lon="11.1758343"><ele>145.5</ele><time>2026-04-06T12:16:27.695Z</time></trkpt><trkpt lat="43.7268251" lon="11.1759179"><ele>146.0</ele><time>2026-04-06T12:16:28.695Z</time></trkpt><trkpt lat="43.7268578" lon="11.1760045"><ele>146.5</ele><time>2026-04-06T12:16:29.695Z</time></trkpt><trkpt lat="43.7268789" lon="11.1761394"><ele>147.0</ele><time>2026-04-06T12:16:31.695Z</time></trkpt><trkpt lat="43.7269026" lon="11.1762777"><ele>147.5</ele><time>2026-04-06T12:16:33.695Z</time></trkpt><trkpt lat="43.7269902" lon="11.1763344"><ele>148.0</ele><time>2026-04-06T12:16:35.695Z</time></trkpt><trkpt lat="43.7270989" lon="11.1763827"><ele>147.0</ele><time>2026-04-06T12:16:37.694Z</time></trkpt><trkpt lat="43.7271792" lon="11.1764554"><ele>146.0</ele><time>2026-04-06T12:16:39.695Z</time></trkpt><trkpt lat="43.7272843" lon="11.1765017"><ele>145.0</ele><time>2026-04-06T12:16:41.696Z</time></trkpt><trkpt lat="43.7273849" lon="11.1766949"><ele>144.0</ele><time>2026-04-06T12:16:43.695Z</time></trkpt><trkpt lat="43.7274506" lon="11.1767256"><ele>143.0</ele><time>2026-04-06T12:16:45.695Z</time></trkpt><trkpt lat="43.7275284" lon="11.176788"><ele>143.0</ele><time>2026-04-06T12:16:47.696Z</time></trkpt><trkpt lat="43.7275968" lon="11.1768631"><ele>143.0</ele><time>2026-04-06T12:16:49.696Z</time></trkpt><trkpt lat="43.7276649" lon="11.1769376"><ele>143.0</ele><time>2026-04-06T12:16:51.696Z</time></trkpt><trkpt lat="43.7277157" lon="11.1770183"><ele>143.0</ele><time>2026-04-06T12:16:53.696Z</time></trkpt><trkpt lat="43.7277701" lon="11.1770782"><ele>143.0</ele><time>2026-04-06T12:16:55.695Z</time></trkpt><trkpt lat="43.7278318" lon="11.1771763"><ele>143.0</ele><time>2026-04-06T12:16:57.695Z</time></trkpt><trkpt lat="43.727892" lon="11.1772758"><ele>144.66666666666666</ele><time>2026-04-06T12:16:59.695Z</time></trkpt><trkpt lat="43.7279453" lon="11.1773598"><ele>146.33333333333331</ele><time>2026-04-06T12:17:01.694Z</time></trkpt><trkpt lat="43.7280068" lon="11.1774312"><ele>148.0</ele><time>2026-04-06T12:17:03.694Z</time></trkpt><trkpt lat="43.7280684" lon="11.1774745"><ele>149.66666666666666</ele><time>2026-04-06T12:17:05.695Z</time></trkpt><trkpt lat="43.7281716" lon="11.1775034"><ele>151.33333333333334</ele><time>2026-04-06T12:17:07.695Z</time></trkpt><trkpt lat="43.7282661" lon="11.1774919"><ele>153.0</ele><time>2026-04-06T12:17:09.694Z</time></trkpt><trkpt lat="43.728363" lon="11.1774549"><ele>153.0</ele><time>2026-04-06T12:17:11.695Z</time></trkpt><trkpt lat="43.7284412" lon="11.1774477"><ele>153.0</ele><time>2026-04-06T12:17:13.695Z</time></trkpt><trkpt lat="43.7285232" lon="11.1774154"><ele>153.0</ele><time>2026-04-06T12:17:15.695Z</time></trkpt><trkpt lat="43.7286023" lon="11.1773761"><ele>153.0</ele><time>2026-04-06T12:17:17.695Z</time></trkpt><trkpt lat="43.7286807" lon="11.1773327"><ele>153.0</ele><time>2026-04-06T12:17:19.695Z</time></trkpt><trkpt lat="43.7287696" lon="11.177303"><ele>153.0</ele><time>2026-04-06T12:17:21.695Z</time></trkpt><trkpt lat="43.728854" lon="11.1773098"><ele>152.83333333333334</ele><time>2026-04-06T12:17:23.695Z</time></trkpt><trkpt lat="43.7289506" lon="11.1773354"><ele>152.66666666666666</ele><time>2026-04-06T12:17:25.694Z</time></trkpt><trkpt lat="43.7290469" lon="11.1773544"><ele>152.5</ele><time>2026-04-06T12:17:27.695Z</time></trkpt><trkpt lat="43.7291208" lon="11.1773753"><ele>152.33333333333331</ele><time>2026-04-06T12:17:29.694Z</time></trkpt><trkpt lat="43.7291886" lon="11.1774275"><ele>152.16666666666666</ele><time>2026-04-06T12:17:31.695Z</time></trkpt><trkpt lat="43.7292736" lon="11.1774918"><ele>152.0</ele><time>2026-04-06T12:17:33.695Z</time></trkpt><trkpt lat="43.7293557" lon="11.1775462"><ele>151.0</ele><time>2026-04-06T12:17:35.696Z</time></trkpt><trkpt lat="43.7294364" lon="11.1775918"><ele>150.0</ele><time>2026-04-06T12:17:37.696Z</time></trkpt><trkpt lat="43.7295212" lon="11.1776369"><ele>149.0</ele><time>2026-04-06T12:17:39.694Z</time></trkpt><trkpt lat="43.7296036" lon="11.1776916"><ele>148.0</ele><time>2026-04-06T12:17:41.694Z</time></trkpt><trkpt lat="43.7296905" lon="11.1777436"><ele>147.0</ele><time>2026-04-06T12:17:43.694Z</time></trkpt><trkpt lat="43.7297685" lon="11.1777909"><ele>146.0</ele><time>2026-04-06T12:17:45.695Z</time></trkpt><trkpt lat="43.7298554" lon="11.1778329"><ele>146.0</ele><time>2026-04-06T12:17:47.694Z</time></trkpt><trkpt lat="43.7299033" lon="11.1779052"><ele>146.0</ele><time>2026-04-06T12:17:48.694Z</time></trkpt><trkpt lat="43.7299761" lon="11.177978"><ele>146.0</ele><time>2026-04-06T12:17:50.696Z</time></trkpt><trkpt lat="43.7300614" lon="11.1780348"><ele>146.0</ele><time>2026-04-06T12:17:52.694Z</time></trkpt><trkpt lat="43.7301387" lon="11.1780768"><ele>146.0</ele><time>2026-04-06T12:17:54.695Z</time></trkpt><trkpt lat="43.7302232" lon="11.1781355"><ele>146.0</ele><time>2026-04-06T12:17:56.694Z</time></trkpt><trkpt lat="43.7303104" lon="11.1781974"><ele>146.0</ele><time>2026-04-06T12:17:58.695Z</time></trkpt><trkpt lat="43.7303917" lon="11.178252"><ele>146.0</ele><time>2026-04-06T12:18:00.694Z</time></trkpt><trkpt lat="43.730486" lon="11.1782709"><ele>146.0</ele><time>2026-04-06T12:18:02.694Z</time></trkpt><trkpt lat="43.7305837" lon="11.1782938"><ele>146.0</ele><time>2026-04-06T12:18:04.696Z</time></trkpt><trkpt lat="43.7306912" lon="11.1782936"><ele>146.0</ele><time>2026-04-06T12:18:06.695Z</time></trkpt><trkpt lat="43.7308088" lon="11.1782854"><ele>146.0</ele><time>2026-04-06T12:18:08.694Z</time></trkpt><trkpt lat="43.7308738" lon="11.1782901"><ele>146.0</ele><time>2026-04-06T12:18:09.694Z</time></trkpt><trkpt lat="43.7309388" lon="11.1782932"><ele>146.0</ele><time>2026-04-06T12:18:10.695Z</time></trkpt><trkpt lat="43.7310687" lon="11.178276"><ele>146.0</ele><time>2026-04-06T12:18:12.695Z</time></trkpt><trkpt lat="43.73114" lon="11.1782696"><ele>146.0</ele><time>2026-04-06T12:18:13.694Z</time></trkpt><trkpt lat="43.7312089" lon="11.1782613"><ele>146.0</ele><time>2026-04-06T12:18:14.695Z</time></trkpt><trkpt lat="43.7312836" lon="11.1782264"><ele>145.33333333333331</ele><time>2026-04-06T12:18:15.696Z</time></trkpt><trkpt lat="43.7313543" lon="11.1782122"><ele>144.66666666666666</ele><time>2026-04-06T12:18:16.695Z</time></trkpt><trkpt lat="43.7314329" lon="11.1781979"><ele>144.0</ele><time>2026-04-06T12:18:17.695Z</time></trkpt><trkpt lat="43.7315154" lon="11.1781969"><ele>143.33333333333334</ele><time>2026-04-06T12:18:18.695Z</time></trkpt><trkpt lat="43.7315941" lon="11.1782025"><ele>142.66666666666669</ele><time>2026-04-06T12:18:19.695Z</time></trkpt><trkpt lat="43.7316849" lon="11.1782309"><ele>142.0</ele><time>2026-04-06T12:18:20.695Z</time></trkpt><trkpt lat="43.731768" lon="11.1782599"><ele>142.0</ele><time>2026-04-06T12:18:21.694Z</time></trkpt><trkpt lat="43.7318445" lon="11.1782942"><ele>142.0</ele><time>2026-04-06T12:18:22.695Z</time></trkpt><trkpt lat="43.7319248" lon="11.1783296"><ele>142.0</ele><time>2026-04-06T12:18:23.694Z</time></trkpt><trkpt lat="43.7320063" lon="11.1783617"><ele>142.0</ele><time>2026-04-06T12:18:24.696Z</time></trkpt><trkpt lat="43.7320859" lon="11.1783816"><ele>142.0</ele><time>2026-04-06T12:18:25.695Z</time></trkpt><trkpt lat="43.7321639" lon="11.178393"><ele>142.0</ele><time>2026-04-06T12:18:26.694Z</time></trkpt><trkpt lat="43.7322463" lon="11.1783933"><ele>140.66666666666669</ele><time>2026-04-06T12:18:27.695Z</time></trkpt><trkpt lat="43.7323277" lon="11.1783881"><ele>139.33333333333334</ele><time>2026-04-06T12:18:28.695Z</time></trkpt><trkpt lat="43.732415" lon="11.178366"><ele>138.0</ele><time>2026-04-06T12:18:29.695Z</time></trkpt><trkpt lat="43.7324973" lon="11.1783493"><ele>136.66666666666666</ele><time>2026-04-06T12:18:30.695Z</time></trkpt><trkpt lat="43.7325693" lon="11.1783297"><ele>135.33333333333331</ele><time>2026-04-06T12:18:31.695Z</time></trkpt><trkpt lat="43.7326413" lon="11.1783035"><ele>134.0</ele><time>2026-04-06T12:18:32.695Z</time></trkpt><trkpt lat="43.7327102" lon="11.1783047"><ele>130.4</ele><time>2026-04-06T12:18:33.693Z</time></trkpt><trkpt lat="43.7328102" lon="11.1783409"><ele>126.80000000000001</ele><time>2026-04-06T12:18:35.695Z</time></trkpt><trkpt lat="43.7328975" lon="11.1784273"><ele>123.19999999999999</ele><time>2026-04-06T12:18:37.695Z</time></trkpt><trkpt lat="43.7329989" lon="11.1785347"><ele>119.6</ele><time>2026-04-06T12:18:39.694Z</time></trkpt><trkpt lat="43.7330359" lon="11.178611"><ele>116.0</ele><time>2026-04-06T12:18:40.694Z</time></trkpt><trkpt lat="43.7330825" lon="11.1786823"><ele>116.0</ele><time>2026-04-06T12:18:41.695Z</time></trkpt><trkpt lat="43.7331512" lon="11.1788424"><ele>116.0</ele><time>2026-04-06T12:18:43.694Z</time></trkpt><trkpt lat="43.7331781" lon="11.1789227"><ele>116.0</ele><time>2026-04-06T12:18:44.696Z</time></trkpt><trkpt lat="43.7332318" lon="11.1790842"><ele>116.0</ele><time>2026-04-06T12:18:46.693Z</time></trkpt><trkpt lat="43.7332554" lon="11.1791821"><ele>116.0</ele><time>2026-04-06T12:18:47.694Z</time></trkpt><trkpt lat="43.7332853" lon="11.1792835"><ele>115.16666666666666</ele><time>2026-04-06T12:18:48.695Z</time></trkpt><trkpt lat="43.7333282" lon="11.179382"><ele>114.33333333333333</ele><time>2026-04-06T12:18:49.695Z</time></trkpt><trkpt lat="43.7333631" lon="11.1794773"><ele>113.5</ele><time>2026-04-06T12:18:50.694Z</time></trkpt><trkpt lat="43.7334044" lon="11.1795744"><ele>112.66666666666666</ele><time>2026-04-06T12:18:51.694Z</time></trkpt><trkpt lat="43.7334447" lon="11.1796452"><ele>111.83333333333333</ele><time>2026-04-06T12:18:52.695Z</time></trkpt><trkpt lat="43.7335424" lon="11.1796639"><ele>111.0</ele><time>2026-04-06T12:18:53.694Z</time></trkpt><trkpt lat="43.7336179" lon="11.1796577"><ele>111.0</ele><time>2026-04-06T12:18:54.695Z</time></trkpt><trkpt lat="43.7336918" lon="11.1796548"><ele>111.0</ele><time>2026-04-06T12:18:55.695Z</time></trkpt><trkpt lat="43.7337581" lon="11.1796417"><ele>111.0</ele><time>2026-04-06T12:18:56.696Z</time></trkpt><trkpt lat="43.7338362" lon="11.1796293"><ele>111.0</ele><time>2026-04-06T12:18:57.695Z</time></trkpt><trkpt lat="43.7339132" lon="11.1796175"><ele>111.0</ele><time>2026-04-06T12:18:58.695Z</time></trkpt><trkpt lat="43.7340038" lon="11.179573"><ele>111.0</ele><time>2026-04-06T12:18:59.695Z</time></trkpt><trkpt lat="43.7340719" lon="11.1795704"><ele>111.0</ele><time>2026-04-06T12:19:00.694Z</time></trkpt><trkpt lat="43.7341478" lon="11.1795702"><ele>111.0</ele><time>2026-04-06T12:19:01.695Z</time></trkpt><trkpt lat="43.7342241" lon="11.1795754"><ele>111.0</ele><time>2026-04-06T12:19:02.694Z</time></trkpt><trkpt lat="43.7342978" lon="11.1795765"><ele>111.0</ele><time>2026-04-06T12:19:03.694Z</time></trkpt><trkpt lat="43.7344015" lon="11.179578"><ele>111.0</ele><time>2026-04-06T12:19:05.696Z</time></trkpt><trkpt lat="43.7344429" lon="11.1796671"><ele>111.0</ele><time>2026-04-06T12:19:06.693Z</time></trkpt><trkpt lat="43.7344079" lon="11.1797897"><ele>111.66666666666667</ele><time>2026-04-06T12:19:07.694Z</time></trkpt><trkpt lat="43.7343935" lon="11.1798932"><ele>112.33333333333334</ele><time>2026-04-06T12:19:08.695Z</time></trkpt><trkpt lat="43.7343821" lon="11.1800115"><ele>113.0</ele><time>2026-04-06T12:19:09.695Z</time></trkpt><trkpt lat="43.7343675" lon="11.1801247"><ele>113.66666666666667</ele><time>2026-04-06T12:19:10.694Z</time></trkpt><trkpt lat="43.7343671" lon="11.180231"><ele>114.33333333333334</ele><time>2026-04-06T12:19:11.695Z</time></trkpt><trkpt lat="43.7343574" lon="11.1803395"><ele>115.0</ele><time>2026-04-06T12:19:12.695Z</time></trkpt><trkpt lat="43.7344239" lon="11.180462"><ele>111.6</ele><time>2026-04-06T12:19:13.696Z</time></trkpt><trkpt lat="43.7344624" lon="11.1805647"><ele>108.2</ele><time>2026-04-06T12:19:14.694Z</time></trkpt><trkpt lat="43.7345185" lon="11.1806667"><ele>104.80000000000001</ele><time>2026-04-06T12:19:15.694Z</time></trkpt><trkpt lat="43.734584" lon="11.1807884"><ele>101.4</ele><time>2026-04-06T12:19:16.695Z</time></trkpt><trkpt lat="43.7346576" lon="11.1808995"><ele>98.0</ele><time>2026-04-06T12:19:17.695Z</time></trkpt><trkpt lat="43.7347242" lon="11.1810152"><ele>97.80000000000001</ele><time>2026-04-06T12:19:18.695Z</time></trkpt><trkpt lat="43.7347935" lon="11.1811293"><ele>97.6</ele><time>2026-04-06T12:19:19.695Z</time></trkpt><trkpt lat="43.734849" lon="11.1812287"><ele>97.4</ele><time>2026-04-06T12:19:20.695Z</time></trkpt><trkpt lat="43.7349113" lon="11.1813443"><ele>97.19999999999999</ele><time>2026-04-06T12:19:21.694Z</time></trkpt><trkpt lat="43.7349793" lon="11.1814529"><ele>97.0</ele><time>2026-04-06T12:19:22.695Z</time></trkpt><trkpt lat="43.7350363" lon="11.1815621"><ele>98.0</ele><time>2026-04-06T12:19:23.694Z</time></trkpt><trkpt lat="43.7351058" lon="11.1816568"><ele>99.0</ele><time>2026-04-06T12:19:24.695Z</time></trkpt><trkpt lat="43.7351713" lon="11.1817497"><ele>100.0</ele><time>2026-04-06T12:19:25.694Z</time></trkpt><trkpt lat="43.7352528" lon="11.1818322"><ele>101.0</ele><time>2026-04-06T12:19:26.694Z</time></trkpt><trkpt lat="43.735318" lon="11.1819012"><ele>102.0</ele><time>2026-04-06T12:19:27.694Z</time></trkpt><trkpt lat="43.7353904" lon="11.1819727"><ele>100.33333333333333</ele><time>2026-04-06T12:19:28.694Z</time></trkpt><trkpt lat="43.7354674" lon="11.1820294"><ele>98.66666666666667</ele><time>2026-04-06T12:19:29.694Z</time></trkpt><trkpt lat="43.7355441" lon="11.1820857"><ele>97.0</ele><time>2026-04-06T12:19:30.694Z</time></trkpt><trkpt lat="43.7356138" lon="11.1821549"><ele>95.33333333333334</ele><time>2026-04-06T12:19:31.695Z</time></trkpt><trkpt lat="43.7356983" lon="11.182182"><ele>93.66666666666667</ele><time>2026-04-06T12:19:32.695Z</time></trkpt><trkpt lat="43.7357744" lon="11.1821987"><ele>92.0</ele><time>2026-04-06T12:19:33.696Z</time></trkpt><trkpt lat="43.7358524" lon="11.1822025"><ele>92.0</ele><time>2026-04-06T12:19:34.694Z</time></trkpt><trkpt lat="43.7359191" lon="11.1822119"><ele>92.0</ele><time>2026-04-06T12:19:35.694Z</time></trkpt><trkpt lat="43.7360368" lon="11.1822309"><ele>92.0</ele><time>2026-04-06T12:19:37.694Z</time></trkpt><trkpt lat="43.7360995" lon="11.1822222"><ele>92.0</ele><time>2026-04-06T12:19:38.695Z</time></trkpt><trkpt lat="43.736201" lon="11.1822136"><ele>92.0</ele><time>2026-04-06T12:19:40.695Z</time></trkpt><trkpt lat="43.7362896" lon="11.1821799"><ele>92.0</ele><time>2026-04-06T12:19:42.694Z</time></trkpt><trkpt lat="43.7363689" lon="11.1821467"><ele>92.6</ele><time>2026-04-06T12:19:44.695Z</time></trkpt><trkpt lat="43.7364574" lon="11.1820716"><ele>93.19999999999999</ele><time>2026-04-06T12:19:46.694Z</time></trkpt><trkpt lat="43.7365506" lon="11.1820086"><ele>93.8</ele><time>2026-04-06T12:19:48.695Z</time></trkpt><trkpt lat="43.7366278" lon="11.181949"><ele>94.4</ele><time>2026-04-06T12:19:50.694Z</time></trkpt><trkpt lat="43.7367062" lon="11.1818921"><ele>95.0</ele><time>2026-04-06T12:19:52.694Z</time></trkpt><trkpt lat="43.7367836" lon="11.1818347"><ele>95.0</ele><time>2026-04-06T12:19:54.694Z</time></trkpt><trkpt lat="43.7368661" lon="11.1817718"><ele>95.0</ele><time>2026-04-06T12:19:56.694Z</time></trkpt><trkpt lat="43.7369473" lon="11.1817136"><ele>95.0</ele><time>2026-04-06T12:19:58.695Z</time></trkpt><trkpt lat="43.7370417" lon="11.1816555"><ele>95.0</ele><time>2026-04-06T12:20:00.694Z</time></trkpt><trkpt lat="43.7371432" lon="11.1815997"><ele>95.0</ele><time>2026-04-06T12:20:02.695Z</time></trkpt><trkpt lat="43.7372396" lon="11.1815451"><ele>93.4</ele><time>2026-04-06T12:20:04.696Z</time></trkpt><trkpt lat="43.7373339" lon="11.1814825"><ele>91.8</ele><time>2026-04-06T12:20:06.693Z</time></trkpt><trkpt lat="43.7374396" lon="11.181429"><ele>90.19999999999999</ele><time>2026-04-06T12:20:08.695Z</time></trkpt><trkpt lat="43.7375391" lon="11.1813662"><ele>88.6</ele><time>2026-04-06T12:20:10.694Z</time></trkpt><trkpt lat="43.7376485" lon="11.181305"><ele>87.0</ele><time>2026-04-06T12:20:12.695Z</time></trkpt><trkpt lat="43.7377651" lon="11.1812629"><ele>87.0</ele><time>2026-04-06T12:20:14.693Z</time></trkpt><trkpt lat="43.7378306" lon="11.1812331"><ele>87.0</ele><time>2026-04-06T12:20:15.695Z</time></trkpt><trkpt lat="43.737893" lon="11.1812087"><ele>87.0</ele><time>2026-04-06T12:20:16.694Z</time></trkpt><trkpt lat="43.7379558" lon="11.1811847"><ele>87.0</ele><time>2026-04-06T12:20:17.694Z</time></trkpt><trkpt lat="43.7380303" lon="11.1811616"><ele>87.0</ele><time>2026-04-06T12:20:18.695Z</time></trkpt><trkpt lat="43.738107" lon="11.1811419"><ele>87.0</ele><time>2026-04-06T12:20:19.694Z</time></trkpt><trkpt lat="43.7381781" lon="11.1811184"><ele>87.0</ele><time>2026-04-06T12:20:20.694Z</time></trkpt><trkpt lat="43.7382484" lon="11.1811065"><ele>87.0</ele><time>2026-04-06T12:20:21.694Z</time></trkpt><trkpt lat="43.7383307" lon="11.1811171"><ele>87.0</ele><time>2026-04-06T12:20:22.694Z</time></trkpt><trkpt lat="43.7384097" lon="11.1811044"><ele>87.0</ele><time>2026-04-06T12:20:23.695Z</time></trkpt><trkpt lat="43.7384909" lon="11.1810916"><ele>87.0</ele><time>2026-04-06T12:20:24.695Z</time></trkpt><trkpt lat="43.7385744" lon="11.1810727"><ele>87.0</ele><time>2026-04-06T12:20:25.694Z</time></trkpt><trkpt lat="43.7386609" lon="11.1810547"><ele>87.0</ele><time>2026-04-06T12:20:26.696Z</time></trkpt><trkpt lat="43.738745" lon="11.1810346"><ele>86.8</ele><time>2026-04-06T12:20:27.694Z</time></trkpt><trkpt lat="43.7388299" lon="11.1810201"><ele>86.6</ele><time>2026-04-06T12:20:28.695Z</time></trkpt><trkpt lat="43.7389112" lon="11.1810086"><ele>86.39999999999999</ele><time>2026-04-06T12:20:29.693Z</time></trkpt><trkpt lat="43.7390048" lon="11.1810106"><ele>86.19999999999999</ele><time>2026-04-06T12:20:30.695Z</time></trkpt><trkpt lat="43.7391" lon="11.1810182"><ele>86.0</ele><time>2026-04-06T12:20:31.693Z</time></trkpt><trkpt lat="43.7391941" lon="11.1810278"><ele>86.0</ele><time>2026-04-06T12:20:32.695Z</time></trkpt><trkpt lat="43.7392945" lon="11.1810466"><ele>86.0</ele><time>2026-04-06T12:20:33.694Z</time></trkpt><trkpt lat="43.7393898" lon="11.1810598"><ele>86.0</ele><time>2026-04-06T12:20:34.695Z</time></trkpt><trkpt lat="43.7394823" lon="11.1810767"><ele>86.0</ele><time>2026-04-06T12:20:35.693Z</time></trkpt><trkpt lat="43.7395731" lon="11.1810803"><ele>86.0</ele><time>2026-04-06T12:20:36.694Z</time></trkpt><trkpt lat="43.7396661" lon="11.1810884"><ele>84.0</ele><time>2026-04-06T12:20:37.695Z</time></trkpt><trkpt lat="43.7397586" lon="11.181116"><ele>82.0</ele><time>2026-04-06T12:20:38.694Z</time></trkpt><trkpt lat="43.7398555" lon="11.1811313"><ele>80.0</ele><time>2026-04-06T12:20:39.695Z</time></trkpt><trkpt lat="43.7399547" lon="11.1811396"><ele>78.0</ele><time>2026-04-06T12:20:40.696Z</time></trkpt><trkpt lat="43.7400562" lon="11.1811614"><ele>76.0</ele><time>2026-04-06T12:20:41.695Z</time></trkpt><trkpt lat="43.7401531" lon="11.1811624"><ele>74.8</ele><time>2026-04-06T12:20:42.693Z</time></trkpt><trkpt lat="43.7402567" lon="11.1812006"><ele>73.6</ele><time>2026-04-06T12:20:43.694Z</time></trkpt><trkpt lat="43.7403551" lon="11.1812198"><ele>72.4</ele><time>2026-04-06T12:20:44.694Z</time></trkpt><trkpt lat="43.7404579" lon="11.1812309"><ele>71.2</ele><time>2026-04-06T12:20:45.694Z</time></trkpt><trkpt lat="43.7405481" lon="11.1812874"><ele>70.0</ele><time>2026-04-06T12:20:46.694Z</time></trkpt><trkpt lat="43.7406378" lon="11.1812999"><ele>70.0</ele><time>2026-04-06T12:20:47.694Z</time></trkpt><trkpt lat="43.7407274" lon="11.1812958"><ele>70.0</ele><time>2026-04-06T12:20:48.694Z</time></trkpt><trkpt lat="43.7408299" lon="11.1812931"><ele>70.0</ele><time>2026-04-06T12:20:49.694Z</time></trkpt><trkpt lat="43.7409196" lon="11.1812851"><ele>70.0</ele><time>2026-04-06T12:20:50.694Z</time></trkpt><trkpt lat="43.741057" lon="11.1812302"><ele>70.0</ele><time>2026-04-06T12:20:51.695Z</time></trkpt><trkpt lat="43.7411567" lon="11.1812201"><ele>68.57142857142857</ele><time>2026-04-06T12:20:52.695Z</time></trkpt><trkpt lat="43.7411067" lon="11.1812753"><ele>67.14285714285714</ele><time>2026-04-06T12:20:53.696Z</time></trkpt><trkpt lat="43.7411721" lon="11.1812701"><ele>65.71428571428572</ele><time>2026-04-06T12:20:54.693Z</time></trkpt><trkpt lat="43.7412314" lon="11.181213"><ele>64.28571428571428</ele><time>2026-04-06T12:20:55.696Z</time></trkpt><trkpt lat="43.741296" lon="11.1811557"><ele>62.857142857142854</ele><time>2026-04-06T12:20:56.695Z</time></trkpt><trkpt lat="43.7413873" lon="11.1811301"><ele>61.42857142857143</ele><time>2026-04-06T12:20:57.695Z</time></trkpt><trkpt lat="43.7414568" lon="11.1811025"><ele>60.0</ele><time>2026-04-06T12:20:58.695Z</time></trkpt><trkpt lat="43.7415354" lon="11.1810765"><ele>60.0</ele><time>2026-04-06T12:20:59.695Z</time></trkpt><trkpt lat="43.7416414" lon="11.1810737"><ele>60.0</ele><time>2026-04-06T12:21:01.695Z</time></trkpt><trkpt lat="43.7417045" lon="11.1810738"><ele>60.0</ele><time>2026-04-06T12:21:03.695Z</time></trkpt><trkpt lat="43.7417644" lon="11.1811024"><ele>60.0</ele><time>2026-04-06T12:21:45.693Z</time></trkpt><trkpt lat="43.7418504" lon="11.1811017"><ele>60.0</ele><time>2026-04-06T12:21:47.695Z</time></trkpt><trkpt lat="43.7419274" lon="11.1811746"><ele>60.0</ele><time>2026-04-06T12:21:49.695Z</time></trkpt><trkpt lat="43.742491" lon="11.1815126"><ele>59.4</ele><time>2026-04-06T12:21:58.694Z</time></trkpt><trkpt lat="43.7425985" lon="11.1815057"><ele>58.8</ele><time>2026-04-06T12:22:00.694Z</time></trkpt><trkpt lat="43.7427095" lon="11.1814866"><ele>58.2</ele><time>2026-04-06T12:22:02.695Z</time></trkpt><trkpt lat="43.7428223" lon="11.1814918"><ele>57.6</ele><time>2026-04-06T12:22:04.694Z</time></trkpt><trkpt lat="43.7429154" lon="11.181483"><ele>57.0</ele><time>2026-04-06T12:22:06.694Z</time></trkpt><trkpt lat="43.74303" lon="11.1814689"><ele>56.666666666666664</ele><time>2026-04-06T12:22:08.694Z</time></trkpt><trkpt lat="43.7431278" lon="11.1814512"><ele>56.33333333333333</ele><time>2026-04-06T12:22:10.695Z</time></trkpt><trkpt lat="43.7432272" lon="11.1814163"><ele>56.0</ele><time>2026-04-06T12:22:12.694Z</time></trkpt><trkpt lat="43.7433044" lon="11.1813675"><ele>55.666666666666664</ele><time>2026-04-06T12:22:14.695Z</time></trkpt><trkpt lat="43.7433676" lon="11.1813424"><ele>55.33333333333333</ele><time>2026-04-06T12:22:16.693Z</time></trkpt><trkpt lat="43.7434359" lon="11.1813989"><ele>55.0</ele><time>2026-04-06T12:22:18.693Z</time></trkpt><trkpt lat="43.7435067" lon="11.1814909"><ele>54.8</ele><time>2026-04-06T12:22:20.694Z</time></trkpt><trkpt lat="43.7435938" lon="11.1815965"><ele>54.6</ele><time>2026-04-06T12:22:22.693Z</time></trkpt><trkpt lat="43.7436877" lon="11.1816637"><ele>54.400000000000006</ele><time>2026-04-06T12:22:24.693Z</time></trkpt><trkpt lat="43.7437839" lon="11.1817317"><ele>54.2</ele><time>2026-04-06T12:22:26.694Z</time></trkpt><trkpt lat="43.7438752" lon="11.1817976"><ele>54.0</ele><time>2026-04-06T12:22:28.694Z</time></trkpt><trkpt lat="43.7439689" lon="11.1818639"><ele>54.0</ele><time>2026-04-06T12:22:30.696Z</time></trkpt><trkpt lat="43.7440706" lon="11.181891"><ele>54.00000000000001</ele><time>2026-04-06T12:22:32.693Z</time></trkpt><trkpt lat="43.7441758" lon="11.1818782"><ele>54.00000000000001</ele><time>2026-04-06T12:22:34.695Z</time></trkpt><trkpt lat="43.7442763" lon="11.1818477"><ele>54.0</ele><time>2026-04-06T12:22:36.694Z</time></trkpt><trkpt lat="43.7443715" lon="11.1818147"><ele>54.0</ele><time>2026-04-06T12:22:38.693Z</time></trkpt><trkpt lat="43.7444716" lon="11.1817694"><ele>54.800000000000004</ele><time>2026-04-06T12:22:40.694Z</time></trkpt><trkpt lat="43.7445699" lon="11.1817262"><ele>55.60000000000001</ele><time>2026-04-06T12:22:42.693Z</time></trkpt><trkpt lat="43.7446709" lon="11.1816777"><ele>56.4</ele><time>2026-04-06T12:22:44.693Z</time></trkpt><trkpt lat="43.7447678" lon="11.1816311"><ele>57.2</ele><time>2026-04-06T12:22:46.694Z</time></trkpt><trkpt lat="43.7448585" lon="11.1815827"><ele>58.0</ele><time>2026-04-06T12:22:48.694Z</time></trkpt><trkpt lat="43.7449602" lon="11.1815336"><ele>57.2</ele><time>2026-04-06T12:22:50.695Z</time></trkpt><trkpt lat="43.7450564" lon="11.181495"><ele>56.4</ele><time>2026-04-06T12:22:52.695Z</time></trkpt><trkpt lat="43.7451528" lon="11.1814296"><ele>55.60000000000001</ele><time>2026-04-06T12:22:54.694Z</time></trkpt><trkpt lat="43.7452462" lon="11.1813676"><ele>54.800000000000004</ele><time>2026-04-06T12:22:56.695Z</time></trkpt><trkpt lat="43.7453391" lon="11.1813125"><ele>54.0</ele><time>2026-04-06T12:22:58.694Z</time></trkpt><trkpt lat="43.7454342" lon="11.1812346"><ele>53.800000000000004</ele><time>2026-04-06T12:23:00.695Z</time></trkpt><trkpt lat="43.7455356" lon="11.1811526"><ele>53.60000000000001</ele><time>2026-04-06T12:23:02.694Z</time></trkpt><trkpt lat="43.7456361" lon="11.1810921"><ele>53.4</ele><time>2026-04-06T12:23:04.694Z</time></trkpt><trkpt lat="43.7457437" lon="11.1810311"><ele>53.2</ele><time>2026-04-06T12:23:06.694Z</time></trkpt><trkpt lat="43.7458285" lon="11.1809593"><ele>53.0</ele><time>2026-04-06T12:23:08.694Z</time></trkpt><trkpt lat="43.745921" lon="11.1808666"><ele>53.0</ele><time>2026-04-06T12:23:10.693Z</time></trkpt><trkpt lat="43.7460117" lon="11.1807822"><ele>53.0</ele><time>2026-04-06T12:23:12.694Z</time></trkpt><trkpt lat="43.74609" lon="11.1806728"><ele>53.0</ele><time>2026-04-06T12:23:14.694Z</time></trkpt><trkpt lat="43.7461783" lon="11.1805888"><ele>53.0</ele><time>2026-04-06T12:23:16.693Z</time></trkpt><trkpt lat="43.7462734" lon="11.1804964"><ele>53.0</ele><time>2026-04-06T12:23:18.694Z</time></trkpt><trkpt lat="43.7463702" lon="11.1804522"><ele>52.599999999999994</ele><time>2026-04-06T12:23:20.693Z</time></trkpt><trkpt lat="43.7464585" lon="11.1805029"><ele>52.199999999999996</ele><time>2026-04-06T12:23:22.694Z</time></trkpt><trkpt lat="43.7465325" lon="11.1806179"><ele>51.8</ele><time>2026-04-06T12:23:24.695Z</time></trkpt><trkpt lat="43.7466073" lon="11.1807388"><ele>51.4</ele><time>2026-04-06T12:23:26.693Z</time></trkpt><trkpt lat="43.7466917" lon="11.1808602"><ele>51.0</ele><time>2026-04-06T12:23:28.694Z</time></trkpt><trkpt lat="43.7467434" lon="11.1809166"><ele>51.0</ele><time>2026-04-06T12:23:29.694Z</time></trkpt><trkpt lat="43.7468259" lon="11.1810435"><ele>51.0</ele><time>2026-04-06T12:23:31.694Z</time></trkpt><trkpt lat="43.7469049" lon="11.1811554"><ele>51.0</ele><time>2026-04-06T12:23:33.695Z</time></trkpt><trkpt lat="43.7469802" lon="11.1812761"><ele>51.0</ele><time>2026-04-06T12:23:35.693Z</time></trkpt><trkpt lat="43.7470627" lon="11.1813836"><ele>51.0</ele><time>2026-04-06T12:23:37.694Z</time></trkpt><trkpt lat="43.7471452" lon="11.1815002"><ele>51.0</ele><time>2026-04-06T12:23:39.694Z</time></trkpt><trkpt lat="43.7472255" lon="11.181617"><ele>51.0</ele><time>2026-04-06T12:23:41.694Z</time></trkpt><trkpt lat="43.7473004" lon="11.1817299"><ele>51.0</ele><time>2026-04-06T12:23:43.693Z</time></trkpt><trkpt lat="43.747376" lon="11.1818333"><ele>51.0</ele><time>2026-04-06T12:23:45.695Z</time></trkpt><trkpt lat="43.7474572" lon="11.1819372"><ele>51.0</ele><time>2026-04-06T12:23:47.693Z</time></trkpt><trkpt lat="43.7475089" lon="11.1819939"><ele>51.0</ele><time>2026-04-06T12:23:48.694Z</time></trkpt><trkpt lat="43.7475901" lon="11.182082"><ele>51.0</ele><time>2026-04-06T12:23:50.694Z</time></trkpt><trkpt lat="43.7476378" lon="11.1821412"><ele>51.0</ele><time>2026-04-06T12:23:51.695Z</time></trkpt><trkpt lat="43.7477193" lon="11.1822227"><ele>51.0</ele><time>2026-04-06T12:23:53.694Z</time></trkpt><trkpt lat="43.7478115" lon="11.1822952"><ele>50.8</ele><time>2026-04-06T12:23:55.694Z</time></trkpt><trkpt lat="43.7479123" lon="11.1823798"><ele>50.599999999999994</ele><time>2026-04-06T12:23:57.693Z</time></trkpt><trkpt lat="43.7480126" lon="11.1824519"><ele>50.4</ele><time>2026-04-06T12:23:59.694Z</time></trkpt><trkpt lat="43.7481072" lon="11.1825268"><ele>50.2</ele><time>2026-04-06T12:24:01.694Z</time></trkpt><trkpt lat="43.7482026" lon="11.1825994"><ele>50.0</ele><time>2026-04-06T12:24:03.695Z</time></trkpt><trkpt lat="43.7482994" lon="11.1826826"><ele>50.0</ele><time>2026-04-06T12:24:05.694Z</time></trkpt><trkpt lat="43.7483915" lon="11.1827585"><ele>50.0</ele><time>2026-04-06T12:24:07.694Z</time></trkpt><trkpt lat="43.7484533" lon="11.1827997"><ele>50.0</ele><time>2026-04-06T12:24:08.695Z</time></trkpt><trkpt lat="43.7485471" lon="11.1828925"><ele>50.0</ele><time>2026-04-06T12:24:10.694Z</time></trkpt><trkpt lat="43.7486486" lon="11.1829581"><ele>50.0</ele><time>2026-04-06T12:24:12.694Z</time></trkpt><trkpt lat="43.7487397" lon="11.1830182"><ele>50.0</ele><time>2026-04-06T12:24:14.694Z</time></trkpt><trkpt lat="43.7488233" lon="11.1831054"><ele>50.0</ele><time>2026-04-06T12:24:16.694Z</time></trkpt><trkpt lat="43.7489055" lon="11.1831928"><ele>50.0</ele><time>2026-04-06T12:24:18.693Z</time></trkpt><trkpt lat="43.7489919" lon="11.1832954"><ele>50.0</ele><time>2026-04-06T12:24:20.694Z</time></trkpt><trkpt lat="43.7490709" lon="11.1833997"><ele>50.0</ele><time>2026-04-06T12:24:22.695Z</time></trkpt><trkpt lat="43.749156" lon="11.1835032"><ele>50.0</ele><time>2026-04-06T12:24:24.695Z</time></trkpt><trkpt lat="43.7492419" lon="11.1836159"><ele>50.0</ele><time>2026-04-06T12:24:26.692Z</time></trkpt><trkpt lat="43.749317" lon="11.1837276"><ele>50.0</ele><time>2026-04-06T12:24:28.694Z</time></trkpt><trkpt lat="43.7493943" lon="11.1838262"><ele>50.0</ele><time>2026-04-06T12:24:30.693Z</time></trkpt><trkpt lat="43.7494775" lon="11.183936"><ele>50.0</ele><time>2026-04-06T12:24:32.695Z</time></trkpt><trkpt lat="43.7495523" lon="11.1840423"><ele>49.8</ele><time>2026-04-06T12:24:34.695Z</time></trkpt><trkpt lat="43.749641" lon="11.1841411"><ele>49.6</ele><time>2026-04-06T12:24:36.694Z</time></trkpt><trkpt lat="43.7497164" lon="11.1842518"><ele>49.400000000000006</ele><time>2026-04-06T12:24:38.693Z</time></trkpt><trkpt lat="43.7497574" lon="11.1843385"><ele>49.2</ele><time>2026-04-06T12:24:39.695Z</time></trkpt><trkpt lat="43.7498378" lon="11.1844505"><ele>49.0</ele><time>2026-04-06T12:24:41.693Z</time></trkpt><trkpt lat="43.7499075" lon="11.1845482"><ele>49.0</ele><time>2026-04-06T12:24:43.694Z</time></trkpt><trkpt lat="43.7499789" lon="11.184665"><ele>49.0</ele><time>2026-04-06T12:24:45.694Z</time></trkpt><trkpt lat="43.7500385" lon="11.1847759"><ele>49.0</ele><time>2026-04-06T12:24:47.693Z</time></trkpt><trkpt lat="43.7501158" lon="11.1848927"><ele>49.0</ele><time>2026-04-06T12:24:49.694Z</time></trkpt><trkpt lat="43.7501692" lon="11.1849887"><ele>49.0</ele><time>2026-04-06T12:24:51.694Z</time></trkpt><trkpt lat="43.7502243" lon="11.1851093"><ele>48.6</ele><time>2026-04-06T12:24:53.694Z</time></trkpt><trkpt lat="43.7503059" lon="11.1851877"><ele>48.2</ele><time>2026-04-06T12:24:55.694Z</time></trkpt><trkpt lat="43.7503767" lon="11.1852875"><ele>47.800000000000004</ele><time>2026-04-06T12:24:57.695Z</time></trkpt><trkpt lat="43.7504537" lon="11.1854026"><ele>47.400000000000006</ele><time>2026-04-06T12:24:59.693Z</time></trkpt><trkpt lat="43.7504904" lon="11.1854838"><ele>47.0</ele><time>2026-04-06T12:25:00.694Z</time></trkpt><trkpt lat="43.7505553" lon="11.1855846"><ele>47.0</ele><time>2026-04-06T12:25:02.694Z</time></trkpt><trkpt lat="43.750608" lon="11.1856376"><ele>47.0</ele><time>2026-04-06T12:25:03.695Z</time></trkpt><trkpt lat="43.7506809" lon="11.1857423"><ele>47.0</ele><time>2026-04-06T12:25:05.695Z</time></trkpt><trkpt lat="43.7507618" lon="11.1858371"><ele>47.0</ele><time>2026-04-06T12:25:07.693Z</time></trkpt><trkpt lat="43.7508088" lon="11.1859063"><ele>47.0</ele><time>2026-04-06T12:25:08.695Z</time></trkpt><trkpt lat="43.7508933" lon="11.1860143"><ele>47.0</ele><time>2026-04-06T12:25:10.694Z</time></trkpt><trkpt lat="43.7509505" lon="11.1861467"><ele>47.0</ele><time>2026-04-06T12:25:12.693Z</time></trkpt><trkpt lat="43.751035" lon="11.1862616"><ele>47.0</ele><time>2026-04-06T12:25:14.696Z</time></trkpt><trkpt lat="43.7510845" lon="11.1863335"><ele>47.0</ele><time>2026-04-06T12:25:15.694Z</time></trkpt><trkpt lat="43.7511866" lon="11.1864274"><ele>47.0</ele><time>2026-04-06T12:25:17.693Z</time></trkpt><trkpt lat="43.7512691" lon="11.1865351"><ele>46.75</ele><time>2026-04-06T12:25:19.693Z</time></trkpt><trkpt lat="43.7513408" lon="11.1866392"><ele>46.5</ele><time>2026-04-06T12:25:21.693Z</time></trkpt><trkpt lat="43.7514109" lon="11.1867625"><ele>46.25</ele><time>2026-04-06T12:25:23.695Z</time></trkpt><trkpt lat="43.7515033" lon="11.1869144"><ele>46.0</ele><time>2026-04-06T12:25:25.694Z</time></trkpt><trkpt lat="43.7515736" lon="11.1870231"><ele>46.0</ele><time>2026-04-06T12:25:27.694Z</time></trkpt><trkpt lat="43.751666" lon="11.1871215"><ele>46.0</ele><time>2026-04-06T12:25:29.694Z</time></trkpt><trkpt lat="43.7517385" lon="11.1872322"><ele>46.0</ele><time>2026-04-06T12:25:31.693Z</time></trkpt><trkpt lat="43.7518184" lon="11.1873317"><ele>46.0</ele><time>2026-04-06T12:25:33.695Z</time></trkpt><trkpt lat="43.7518936" lon="11.1874287"><ele>46.0</ele><time>2026-04-06T12:25:35.693Z</time></trkpt><trkpt lat="43.7519682" lon="11.1875228"><ele>46.199999999999996</ele><time>2026-04-06T12:25:37.694Z</time></trkpt><trkpt lat="43.7520414" lon="11.1876061"><ele>46.4</ele><time>2026-04-06T12:25:39.694Z</time></trkpt><trkpt lat="43.7521224" lon="11.1877022"><ele>46.6</ele><time>2026-04-06T12:25:41.694Z</time></trkpt><trkpt lat="43.7522015" lon="11.187806"><ele>46.8</ele><time>2026-04-06T12:25:43.695Z</time></trkpt><trkpt lat="43.7522929" lon="11.1879136"><ele>47.0</ele><time>2026-04-06T12:25:45.693Z</time></trkpt><trkpt lat="43.7523687" lon="11.1880162"><ele>47.0</ele><time>2026-04-06T12:25:47.695Z</time></trkpt><trkpt lat="43.7524349" lon="11.1881328"><ele>47.0</ele><time>2026-04-06T12:25:49.693Z</time></trkpt><trkpt lat="43.752517" lon="11.188292"><ele>47.0</ele><time>2026-04-06T12:25:51.696Z</time></trkpt><trkpt lat="43.7525796" lon="11.1884036"><ele>47.0</ele><time>2026-04-06T12:25:53.695Z</time></trkpt><trkpt lat="43.752639" lon="11.188533"><ele>47.0</ele><time>2026-04-06T12:25:55.694Z</time></trkpt><trkpt lat="43.752703" lon="11.1885755"><ele>47.0</ele><time>2026-04-06T12:25:56.694Z</time></trkpt><trkpt lat="43.7527459" lon="11.1887027"><ele>47.0</ele><time>2026-04-06T12:25:58.693Z</time></trkpt><trkpt lat="43.7527846" lon="11.1887766"><ele>47.0</ele><time>2026-04-06T12:25:59.694Z</time></trkpt><trkpt lat="43.7528587" lon="11.188909"><ele>47.0</ele><time>2026-04-06T12:26:01.693Z</time></trkpt><trkpt lat="43.752943" lon="11.1890239"><ele>47.400000000000006</ele><time>2026-04-06T12:26:03.694Z</time></trkpt><trkpt lat="43.7530037" lon="11.1891458"><ele>47.800000000000004</ele><time>2026-04-06T12:26:05.693Z</time></trkpt><trkpt lat="43.7530512" lon="11.1892828"><ele>48.2</ele><time>2026-04-06T12:26:07.694Z</time></trkpt><trkpt lat="43.7531127" lon="11.1894032"><ele>48.6</ele><time>2026-04-06T12:26:09.694Z</time></trkpt><trkpt lat="43.7531849" lon="11.1895177"><ele>49.0</ele><time>2026-04-06T12:26:11.695Z</time></trkpt><trkpt lat="43.7532574" lon="11.1896336"><ele>49.0</ele><time>2026-04-06T12:26:13.693Z</time></trkpt><trkpt lat="43.7533247" lon="11.1897433"><ele>49.0</ele><time>2026-04-06T12:26:15.694Z</time></trkpt><trkpt lat="43.7533812" lon="11.1898143"><ele>49.0</ele><time>2026-04-06T12:26:17.694Z</time></trkpt><trkpt lat="43.753421" lon="11.1899167"><ele>49.0</ele><time>2026-04-06T12:26:18.693Z</time></trkpt><trkpt lat="43.7534764" lon="11.1900639"><ele>49.0</ele><time>2026-04-06T12:26:20.693Z</time></trkpt><trkpt lat="43.7535291" lon="11.1902114"><ele>48.6</ele><time>2026-04-06T12:26:22.692Z</time></trkpt><trkpt lat="43.7535759" lon="11.1903665"><ele>48.2</ele><time>2026-04-06T12:26:24.694Z</time></trkpt><trkpt lat="43.7536301" lon="11.1904852"><ele>47.800000000000004</ele><time>2026-04-06T12:26:26.692Z</time></trkpt><trkpt lat="43.7536822" lon="11.1906064"><ele>47.400000000000006</ele><time>2026-04-06T12:26:28.693Z</time></trkpt><trkpt lat="43.7537817" lon="11.1906674"><ele>47.0</ele><time>2026-04-06T12:26:30.695Z</time></trkpt><trkpt lat="43.7538593" lon="11.1905977"><ele>47.0</ele><time>2026-04-06T12:26:32.693Z</time></trkpt><trkpt lat="43.7539208" lon="11.1905345"><ele>47.0</ele><time>2026-04-06T12:26:34.693Z</time></trkpt><trkpt lat="43.7539708" lon="11.1904636"><ele>47.0</ele><time>2026-04-06T12:26:37.694Z</time></trkpt><trkpt lat="43.7540239" lon="11.1904077"><ele>47.0</ele><time>2026-04-06T12:26:40.694Z</time></trkpt><trkpt lat="43.7540886" lon="11.1903582"><ele>47.0</ele><time>2026-04-06T12:26:42.694Z</time></trkpt><trkpt lat="43.7541554" lon="11.1902941"><ele>47.0</ele><time>2026-04-06T12:26:44.695Z</time></trkpt><trkpt lat="43.7542081" lon="11.1902191"><ele>47.0</ele><time>2026-04-06T12:26:46.693Z</time></trkpt><trkpt lat="43.7542555" lon="11.1901554"><ele>47.0</ele><time>2026-04-06T12:26:48.693Z</time></trkpt><trkpt lat="43.7543171" lon="11.1900956"><ele>47.0</ele><time>2026-04-06T12:26:50.693Z</time></trkpt><trkpt lat="43.7543848" lon="11.1900295"><ele>47.0</ele><time>2026-04-06T12:26:52.693Z</time></trkpt><trkpt lat="43.7544534" lon="11.1900133"><ele>47.0</ele><time>2026-04-06T12:26:54.694Z</time></trkpt><trkpt lat="43.7545294" lon="11.190069"><ele>47.0</ele><time>2026-04-06T12:26:57.694Z</time></trkpt><trkpt lat="43.754583" lon="11.190147"><ele>47.0</ele><time>2026-04-06T12:27:01.694Z</time></trkpt><trkpt lat="43.7546467" lon="11.1902328"><ele>46.8</ele><time>2026-04-06T12:27:05.694Z</time></trkpt><trkpt lat="43.7546971" lon="11.1903061"><ele>46.6</ele><time>2026-04-06T12:27:07.695Z</time></trkpt><trkpt lat="43.7547627" lon="11.1903965"><ele>46.4</ele><time>2026-04-06T12:27:09.696Z</time></trkpt><trkpt lat="43.7548393" lon="11.1904997"><ele>46.199999999999996</ele><time>2026-04-06T12:27:11.694Z</time></trkpt><trkpt lat="43.7548932" lon="11.1906101"><ele>46.0</ele><time>2026-04-06T12:27:13.693Z</time></trkpt><trkpt lat="43.7549577" lon="11.1907068"><ele>46.0</ele><time>2026-04-06T12:27:15.694Z</time></trkpt><trkpt lat="43.7549817" lon="11.1908039"><ele>46.0</ele><time>2026-04-06T12:27:17.693Z</time></trkpt><trkpt lat="43.755068" lon="11.1908984"><ele>46.0</ele><time>2026-04-06T12:27:19.695Z</time></trkpt><trkpt lat="43.7551506" lon="11.1909679"><ele>46.0</ele><time>2026-04-06T12:27:21.692Z</time></trkpt><trkpt lat="43.7552101" lon="11.191006"><ele>46.0</ele><time>2026-04-06T12:27:22.694Z</time></trkpt><trkpt lat="43.7552458" lon="11.1910837"><ele>46.0</ele><time>2026-04-06T12:27:23.693Z</time></trkpt><trkpt lat="43.7553046" lon="11.1911998"><ele>46.0</ele><time>2026-04-06T12:27:25.693Z</time></trkpt><trkpt lat="43.7553381" lon="11.191307"><ele>46.0</ele><time>2026-04-06T12:27:27.693Z</time></trkpt><trkpt lat="43.7553809" lon="11.1913946"><ele>46.0</ele><time>2026-04-06T12:27:30.692Z</time></trkpt><trkpt lat="43.7554272" lon="11.1914972"><ele>46.0</ele><time>2026-04-06T12:27:32.692Z</time></trkpt><trkpt lat="43.7554879" lon="11.1915885"><ele>46.0</ele><time>2026-04-06T12:27:34.693Z</time></trkpt><trkpt lat="43.7555763" lon="11.1916896"><ele>45.8</ele><time>2026-04-06T12:27:36.693Z</time></trkpt><trkpt lat="43.7556564" lon="11.191802"><ele>45.599999999999994</ele><time>2026-04-06T12:27:38.693Z</time></trkpt><trkpt lat="43.755726" lon="11.1918921"><ele>45.4</ele><time>2026-04-06T12:27:40.694Z</time></trkpt><trkpt lat="43.7558051" lon="11.1919991"><ele>45.2</ele><time>2026-04-06T12:27:42.692Z</time></trkpt><trkpt lat="43.7558732" lon="11.1921025"><ele>45.0</ele><time>2026-04-06T12:27:44.694Z</time></trkpt><trkpt lat="43.7559619" lon="11.1922039"><ele>45.0</ele><time>2026-04-06T12:27:46.693Z</time></trkpt><trkpt lat="43.7560141" lon="11.1922536"><ele>45.0</ele><time>2026-04-06T12:27:47.694Z</time></trkpt><trkpt lat="43.75611" lon="11.1923274"><ele>45.0</ele><time>2026-04-06T12:27:49.693Z</time></trkpt><trkpt lat="43.7562192" lon="11.192372"><ele>45.0</ele><time>2026-04-06T12:27:51.692Z</time></trkpt><trkpt lat="43.7562841" lon="11.1923557"><ele>45.0</ele><time>2026-04-06T12:27:52.693Z</time></trkpt><trkpt lat="43.7563551" lon="11.1923581"><ele>45.0</ele><time>2026-04-06T12:27:53.694Z</time></trkpt><trkpt lat="43.7564673" lon="11.1923666"><ele>45.0</ele><time>2026-04-06T12:27:55.694Z</time></trkpt><trkpt lat="43.7565735" lon="11.1923663"><ele>45.0</ele><time>2026-04-06T12:27:57.693Z</time></trkpt><trkpt lat="43.7566686" lon="11.192351"><ele>45.0</ele><time>2026-04-06T12:27:59.694Z</time></trkpt><trkpt lat="43.756768" lon="11.192353"><ele>45.0</ele><time>2026-04-06T12:28:01.694Z</time></trkpt><trkpt lat="43.7568629" lon="11.1923536"><ele>45.0</ele><time>2026-04-06T12:28:03.692Z</time></trkpt><trkpt lat="43.7569634" lon="11.1923284"><ele>45.0</ele><time>2026-04-06T12:28:05.693Z</time></trkpt><trkpt lat="43.7570621" lon="11.1923237"><ele>45.0</ele><time>2026-04-06T12:28:07.694Z</time></trkpt><trkpt lat="43.7571683" lon="11.1923157"><ele>45.0</ele><time>2026-04-06T12:28:09.693Z</time></trkpt><trkpt lat="43.7572777" lon="11.1923147"><ele>45.0</ele><time>2026-04-06T12:28:11.692Z</time></trkpt><trkpt lat="43.7573782" lon="11.1923"><ele>45.0</ele><time>2026-04-06T12:28:13.692Z</time></trkpt><trkpt lat="43.7574816" lon="11.1922992"><ele>45.0</ele><time>2026-04-06T12:28:15.693Z</time></trkpt><trkpt lat="43.7575781" lon="11.192317"><ele>45.0</ele><time>2026-04-06T12:28:17.692Z</time></trkpt><trkpt lat="43.757682" lon="11.1923268"><ele>45.0</ele><time>2026-04-06T12:28:19.694Z</time></trkpt><trkpt lat="43.7577887" lon="11.1923223"><ele>45.0</ele><time>2026-04-06T12:28:21.692Z</time></trkpt><trkpt lat="43.7578949" lon="11.1923173"><ele>45.0</ele><time>2026-04-06T12:28:23.693Z</time></trkpt><trkpt lat="43.7579857" lon="11.1923186"><ele>44.6</ele><time>2026-04-06T12:28:25.693Z</time></trkpt><trkpt lat="43.7580448" lon="11.1923582"><ele>44.2</ele><time>2026-04-06T12:28:26.694Z</time></trkpt><trkpt lat="43.7581417" lon="11.1923618"><ele>43.8</ele><time>2026-04-06T12:28:28.692Z</time></trkpt><trkpt lat="43.7582449" lon="11.1923758"><ele>43.4</ele><time>2026-04-06T12:28:30.694Z</time></trkpt><trkpt lat="43.7583569" lon="11.1923575"><ele>43.0</ele><time>2026-04-06T12:28:32.693Z</time></trkpt><trkpt lat="43.758458" lon="11.1923307"><ele>43.4</ele><time>2026-04-06T12:28:34.692Z</time></trkpt><trkpt lat="43.7585581" lon="11.1923209"><ele>43.8</ele><time>2026-04-06T12:28:36.693Z</time></trkpt><trkpt lat="43.7586608" lon="11.1923049"><ele>44.2</ele><time>2026-04-06T12:28:38.692Z</time></trkpt><trkpt lat="43.7587727" lon="11.192295"><ele>44.6</ele><time>2026-04-06T12:28:40.694Z</time></trkpt><trkpt lat="43.7588792" lon="11.1922727"><ele>45.0</ele><time>2026-04-06T12:28:42.693Z</time></trkpt><trkpt lat="43.758989" lon="11.1922593"><ele>45.0</ele><time>2026-04-06T12:28:44.693Z</time></trkpt><trkpt lat="43.7590815" lon="11.1922461"><ele>45.0</ele><time>2026-04-06T12:28:46.693Z</time></trkpt><trkpt lat="43.7591751" lon="11.1922406"><ele>45.0</ele><time>2026-04-06T12:28:48.692Z</time></trkpt><trkpt lat="43.7592652" lon="11.1922123"><ele>45.0</ele><time>2026-04-06T12:28:50.693Z</time></trkpt><trkpt lat="43.7593752" lon="11.1921879"><ele>45.0</ele><time>2026-04-06T12:28:52.695Z</time></trkpt><trkpt lat="43.7594812" lon="11.1921648"><ele>44.6</ele><time>2026-04-06T12:28:54.694Z</time></trkpt><trkpt lat="43.7595812" lon="11.1921476"><ele>44.2</ele><time>2026-04-06T12:28:56.693Z</time></trkpt><trkpt lat="43.7596905" lon="11.1921297"><ele>43.8</ele><time>2026-04-06T12:28:58.693Z</time></trkpt><trkpt lat="43.7597887" lon="11.1921085"><ele>43.4</ele><time>2026-04-06T12:29:00.693Z</time></trkpt><trkpt lat="43.759893" lon="11.192084"><ele>43.0</ele><time>2026-04-06T12:29:02.693Z</time></trkpt><trkpt lat="43.7599936" lon="11.1920512"><ele>43.0</ele><time>2026-04-06T12:29:04.693Z</time></trkpt><trkpt lat="43.7600995" lon="11.1920145"><ele>43.0</ele><time>2026-04-06T12:29:06.694Z</time></trkpt><trkpt lat="43.7602047" lon="11.1919771"><ele>43.0</ele><time>2026-04-06T12:29:08.693Z</time></trkpt><trkpt lat="43.7603086" lon="11.1919272"><ele>43.0</ele><time>2026-04-06T12:29:10.693Z</time></trkpt><trkpt lat="43.760418" lon="11.1918829"><ele>43.0</ele><time>2026-04-06T12:29:12.693Z</time></trkpt><trkpt lat="43.7605243" lon="11.1918355"><ele>43.0</ele><time>2026-04-06T12:29:14.693Z</time></trkpt><trkpt lat="43.760625" lon="11.1917804"><ele>43.0</ele><time>2026-04-06T12:29:16.694Z</time></trkpt><trkpt lat="43.7607175" lon="11.1917234"><ele>43.0</ele><time>2026-04-06T12:29:18.693Z</time></trkpt><trkpt lat="43.7608157" lon="11.1916674"><ele>43.0</ele><time>2026-04-06T12:29:20.694Z</time></trkpt><trkpt lat="43.7609207" lon="11.1916219"><ele>43.0</ele><time>2026-04-06T12:29:22.693Z</time></trkpt><trkpt lat="43.7610203" lon="11.1916094"><ele>43.0</ele><time>2026-04-06T12:29:24.693Z</time></trkpt><trkpt lat="43.7611187" lon="11.191546"><ele>43.0</ele><time>2026-04-06T12:29:26.694Z</time></trkpt><trkpt lat="43.7612225" lon="11.1914815"><ele>43.0</ele><time>2026-04-06T12:29:28.694Z</time></trkpt><trkpt lat="43.7613264" lon="11.1914085"><ele>43.0</ele><time>2026-04-06T12:29:30.693Z</time></trkpt><trkpt lat="43.7614226" lon="11.1913398"><ele>43.0</ele><time>2026-04-06T12:29:32.693Z</time></trkpt><trkpt lat="43.7615181" lon="11.1912747"><ele>42.8</ele><time>2026-04-06T12:29:34.692Z</time></trkpt><trkpt lat="43.7616111" lon="11.1912046"><ele>42.599999999999994</ele><time>2026-04-06T12:29:36.692Z</time></trkpt><trkpt lat="43.7616996" lon="11.1911258"><ele>42.400000000000006</ele><time>2026-04-06T12:29:38.692Z</time></trkpt><trkpt lat="43.7617896" lon="11.1910598"><ele>42.2</ele><time>2026-04-06T12:29:40.693Z</time></trkpt><trkpt lat="43.7618788" lon="11.1909935"><ele>42.0</ele><time>2026-04-06T12:29:42.692Z</time></trkpt><trkpt lat="43.7619744" lon="11.1909321"><ele>41.8</ele><time>2026-04-06T12:29:44.693Z</time></trkpt><trkpt lat="43.7620632" lon="11.1908501"><ele>41.6</ele><time>2026-04-06T12:29:46.693Z</time></trkpt><trkpt lat="43.7621331" lon="11.1907667"><ele>41.4</ele><time>2026-04-06T12:29:48.694Z</time></trkpt><trkpt lat="43.7622124" lon="11.1906905"><ele>41.199999999999996</ele><time>2026-04-06T12:29:50.692Z</time></trkpt><trkpt lat="43.7623111" lon="11.1906507"><ele>41.0</ele><time>2026-04-06T12:29:52.693Z</time></trkpt><trkpt lat="43.7624167" lon="11.1906805"><ele>41.0</ele><time>2026-04-06T12:29:54.692Z</time></trkpt><trkpt lat="43.762503" lon="11.1907682"><ele>41.0</ele><time>2026-04-06T12:29:56.692Z</time></trkpt><trkpt lat="43.7625545" lon="11.1909013"><ele>41.0</ele><time>2026-04-06T12:29:58.694Z</time></trkpt><trkpt lat="43.7625707" lon="11.1910203"><ele>41.0</ele><time>2026-04-06T12:30:00.694Z</time></trkpt><trkpt lat="43.7625962" lon="11.1911317"><ele>41.0</ele><time>2026-04-06T12:30:02.695Z</time></trkpt><trkpt lat="43.7626176" lon="11.1912636"><ele>41.0</ele><time>2026-04-06T12:30:04.693Z</time></trkpt><trkpt lat="43.7626334" lon="11.1913779"><ele>41.0</ele><time>2026-04-06T12:30:06.693Z</time></trkpt><trkpt lat="43.7626491" lon="11.1914914"><ele>41.0</ele><time>2026-04-06T12:30:08.695Z</time></trkpt><trkpt lat="43.7626716" lon="11.1916155"><ele>41.0</ele><time>2026-04-06T12:30:10.692Z</time></trkpt><trkpt lat="43.7627021" lon="11.1917237"><ele>41.0</ele><time>2026-04-06T12:30:12.693Z</time></trkpt><trkpt lat="43.7627252" lon="11.1918368"><ele>41.0</ele><time>2026-04-06T12:30:14.693Z</time></trkpt><trkpt lat="43.7627459" lon="11.1919652"><ele>40.8</ele><time>2026-04-06T12:30:16.693Z</time></trkpt><trkpt lat="43.7627645" lon="11.1920902"><ele>40.599999999999994</ele><time>2026-04-06T12:30:18.693Z</time></trkpt><trkpt lat="43.7627849" lon="11.1922133"><ele>40.4</ele><time>2026-04-06T12:30:20.693Z</time></trkpt><trkpt lat="43.7628146" lon="11.1923382"><ele>40.2</ele><time>2026-04-06T12:30:22.693Z</time></trkpt><trkpt lat="43.7628389" lon="11.192464"><ele>40.0</ele><time>2026-04-06T12:30:24.694Z</time></trkpt><trkpt lat="43.762863" lon="11.1925996"><ele>40.0</ele><time>2026-04-06T12:30:26.693Z</time></trkpt><trkpt lat="43.7628836" lon="11.1927409"><ele>40.0</ele><time>2026-04-06T12:30:28.693Z</time></trkpt><trkpt lat="43.7629271" lon="11.1928779"><ele>40.0</ele><time>2026-04-06T12:30:30.692Z</time></trkpt><trkpt lat="43.762946" lon="11.1930229"><ele>40.0</ele><time>2026-04-06T12:30:32.692Z</time></trkpt><trkpt lat="43.7629566" lon="11.1931531"><ele>40.0</ele><time>2026-04-06T12:30:34.693Z</time></trkpt><trkpt lat="43.7629798" lon="11.1932824"><ele>40.4</ele><time>2026-04-06T12:30:36.694Z</time></trkpt><trkpt lat="43.762991" lon="11.1934206"><ele>40.8</ele><time>2026-04-06T12:30:38.694Z</time></trkpt><trkpt lat="43.7630163" lon="11.1935644"><ele>41.2</ele><time>2026-04-06T12:30:40.693Z</time></trkpt><trkpt lat="43.7630426" lon="11.1937233"><ele>41.6</ele><time>2026-04-06T12:30:42.693Z</time></trkpt><trkpt lat="43.7630679" lon="11.1938826"><ele>42.0</ele><time>2026-04-06T12:30:44.694Z</time></trkpt><trkpt lat="43.7630922" lon="11.1940429"><ele>42.0</ele><time>2026-04-06T12:30:46.694Z</time></trkpt><trkpt lat="43.7630989" lon="11.1941371"><ele>42.0</ele><time>2026-04-06T12:30:47.693Z</time></trkpt><trkpt lat="43.7631285" lon="11.1943084"><ele>42.0</ele><time>2026-04-06T12:30:49.692Z</time></trkpt><trkpt lat="43.7631313" lon="11.1944019"><ele>42.0</ele><time>2026-04-06T12:30:50.692Z</time></trkpt><trkpt lat="43.7631637" lon="11.1945708"><ele>42.0</ele><time>2026-04-06T12:30:52.693Z</time></trkpt><trkpt lat="43.7631848" lon="11.1946618"><ele>42.0</ele><time>2026-04-06T12:30:53.693Z</time></trkpt><trkpt lat="43.7632007" lon="11.1947547"><ele>42.0</ele><time>2026-04-06T12:30:54.693Z</time></trkpt><trkpt lat="43.7632318" lon="11.1948396"><ele>42.0</ele><time>2026-04-06T12:30:55.693Z</time></trkpt><trkpt lat="43.7632567" lon="11.1949257"><ele>42.0</ele><time>2026-04-06T12:30:56.693Z</time></trkpt><trkpt lat="43.7632774" lon="11.1950195"><ele>42.0</ele><time>2026-04-06T12:30:57.692Z</time></trkpt><trkpt lat="43.7633025" lon="11.195112"><ele>42.0</ele><time>2026-04-06T12:30:58.693Z</time></trkpt><trkpt lat="43.7633267" lon="11.1952108"><ele>42.0</ele><time>2026-04-06T12:30:59.694Z</time></trkpt><trkpt lat="43.7633515" lon="11.1953057"><ele>41.833333333333336</ele><time>2026-04-06T12:31:00.692Z</time></trkpt><trkpt lat="43.7633758" lon="11.1954049"><ele>41.666666666666664</ele><time>2026-04-06T12:31:01.693Z</time></trkpt><trkpt lat="43.7633995" lon="11.1955035"><ele>41.5</ele><time>2026-04-06T12:31:02.693Z</time></trkpt><trkpt lat="43.7634234" lon="11.1956024"><ele>41.33333333333333</ele><time>2026-04-06T12:31:03.693Z</time></trkpt><trkpt lat="43.7634407" lon="11.195707"><ele>41.166666666666664</ele><time>2026-04-06T12:31:04.693Z</time></trkpt><trkpt lat="43.7634539" lon="11.1958155"><ele>41.0</ele><time>2026-04-06T12:31:05.694Z</time></trkpt><trkpt lat="43.763466" lon="11.1959178"><ele>41.0</ele><time>2026-04-06T12:31:06.692Z</time></trkpt><trkpt lat="43.7634616" lon="11.1960237"><ele>41.0</ele><time>2026-04-06T12:31:07.692Z</time></trkpt><trkpt lat="43.7634533" lon="11.1961258"><ele>41.0</ele><time>2026-04-06T12:31:08.692Z</time></trkpt><trkpt lat="43.7634442" lon="11.1962196"><ele>41.0</ele><time>2026-04-06T12:31:09.693Z</time></trkpt><trkpt lat="43.7634209" lon="11.196309"><ele>41.0</ele><time>2026-04-06T12:31:10.693Z</time></trkpt><trkpt lat="43.7633985" lon="11.1964871"><ele>41.0</ele><time>2026-04-06T12:31:12.694Z</time></trkpt><trkpt lat="43.7634014" lon="11.1965791"><ele>40.75</ele><time>2026-04-06T12:31:13.692Z</time></trkpt><trkpt lat="43.7634295" lon="11.1967308"><ele>40.5</ele><time>2026-04-06T12:31:15.693Z</time></trkpt><trkpt lat="43.7634808" lon="11.1968844"><ele>40.25</ele><time>2026-04-06T12:31:17.693Z</time></trkpt><trkpt lat="43.7635424" lon="11.1970328"><ele>40.0</ele><time>2026-04-06T12:31:19.693Z</time></trkpt><trkpt lat="43.7636118" lon="11.197164"><ele>39.8</ele><time>2026-04-06T12:31:21.693Z</time></trkpt><trkpt lat="43.7636859" lon="11.1972801"><ele>39.6</ele><time>2026-04-06T12:31:23.694Z</time></trkpt><trkpt lat="43.7637654" lon="11.1973914"><ele>39.4</ele><time>2026-04-06T12:31:25.693Z</time></trkpt><trkpt lat="43.7638137" lon="11.1974657"><ele>39.2</ele><time>2026-04-06T12:31:26.692Z</time></trkpt><trkpt lat="43.7638762" lon="11.1975675"><ele>39.0</ele><time>2026-04-06T12:31:28.692Z</time></trkpt><trkpt lat="43.7639313" lon="11.1976982"><ele>39.0</ele><time>2026-04-06T12:31:30.692Z</time></trkpt><trkpt lat="43.763989" lon="11.1978098"><ele>39.0</ele><time>2026-04-06T12:31:32.692Z</time></trkpt><trkpt lat="43.7640307" lon="11.1979456"><ele>39.0</ele><time>2026-04-06T12:31:34.694Z</time></trkpt><trkpt lat="43.7640539" lon="11.1980793"><ele>39.0</ele><time>2026-04-06T12:31:36.692Z</time></trkpt><trkpt lat="43.7640665" lon="11.1982035"><ele>39.0</ele><time>2026-04-06T12:31:38.693Z</time></trkpt><trkpt lat="43.7640977" lon="11.19831"><ele>38.8</ele><time>2026-04-06T12:31:40.693Z</time></trkpt><trkpt lat="43.7641146" lon="11.1984499"><ele>38.599999999999994</ele><time>2026-04-06T12:31:42.693Z</time></trkpt><trkpt lat="43.764134" lon="11.198603"><ele>38.4</ele><time>2026-04-06T12:31:44.694Z</time></trkpt><trkpt lat="43.764136" lon="11.198756"><ele>38.199999999999996</ele><time>2026-04-06T12:31:46.693Z</time></trkpt><trkpt lat="43.7641392" lon="11.1988905"><ele>38.0</ele><time>2026-04-06T12:31:48.693Z</time></trkpt><trkpt lat="43.7641308" lon="11.1990436"><ele>38.0</ele><time>2026-04-06T12:31:50.691Z</time></trkpt><trkpt lat="43.7641195" lon="11.1991922"><ele>38.0</ele><time>2026-04-06T12:31:52.693Z</time></trkpt><trkpt lat="43.7640988" lon="11.1993216"><ele>38.0</ele><time>2026-04-06T12:31:54.693Z</time></trkpt><trkpt lat="43.7640754" lon="11.1994465"><ele>38.0</ele><time>2026-04-06T12:31:56.693Z</time></trkpt><trkpt lat="43.764063" lon="11.1995859"><ele>38.0</ele><time>2026-04-06T12:31:58.692Z</time></trkpt><trkpt lat="43.7640695" lon="11.1997134"><ele>38.0</ele><time>2026-04-06T12:32:00.693Z</time></trkpt><trkpt lat="43.7641153" lon="11.1998294"><ele>38.0</ele><time>2026-04-06T12:32:02.693Z</time></trkpt><trkpt lat="43.7641813" lon="11.1999281"><ele>38.0</ele><time>2026-04-06T12:32:04.694Z</time></trkpt><trkpt lat="43.7642338" lon="11.2000135"><ele>38.0</ele><time>2026-04-06T12:32:06.692Z</time></trkpt><trkpt lat="43.7643018" lon="11.2000815"><ele>38.0</ele><time>2026-04-06T12:32:08.693Z</time></trkpt><trkpt lat="43.7643478" lon="11.2001585"><ele>38.0</ele><time>2026-04-06T12:32:10.692Z</time></trkpt><trkpt lat="43.7643939" lon="11.2002458"><ele>38.5</ele><time>2026-04-06T12:32:24.691Z</time></trkpt><trkpt lat="43.7644722" lon="11.2002409"><ele>39.0</ele><time>2026-04-06T12:32:27.692Z</time></trkpt><trkpt lat="43.7645461" lon="11.2002157"><ele>39.5</ele><time>2026-04-06T12:32:29.691Z</time></trkpt><trkpt lat="43.764632" lon="11.2002235"><ele>40.0</ele><time>2026-04-06T12:32:31.693Z</time></trkpt><trkpt lat="43.764665" lon="11.2003018"><ele>40.5</ele><time>2026-04-06T12:32:33.693Z</time></trkpt><trkpt lat="43.7646717" lon="11.2004167"><ele>41.0</ele><time>2026-04-06T12:32:36.693Z</time></trkpt><trkpt lat="43.7647018" lon="11.2005001"><ele>41.0</ele><time>2026-04-06T12:32:38.693Z</time></trkpt><trkpt lat="43.764748" lon="11.2006018"><ele>41.0</ele><time>2026-04-06T12:32:40.692Z</time></trkpt><trkpt lat="43.7648098" lon="11.2006852"><ele>41.0</ele><time>2026-04-06T12:32:42.693Z</time></trkpt><trkpt lat="43.7648754" lon="11.200755"><ele>41.0</ele><time>2026-04-06T12:32:44.693Z</time></trkpt><trkpt lat="43.7649436" lon="11.2008179"><ele>41.0</ele><time>2026-04-06T12:32:46.693Z</time></trkpt><trkpt lat="43.7650316" lon="11.2008924"><ele>41.0</ele><time>2026-04-06T12:32:48.692Z</time></trkpt><trkpt lat="43.7651216" lon="11.2009599"><ele>41.166666666666664</ele><time>2026-04-06T12:32:50.694Z</time></trkpt><trkpt lat="43.7651997" lon="11.2010301"><ele>41.33333333333333</ele><time>2026-04-06T12:32:52.692Z</time></trkpt><trkpt lat="43.7652863" lon="11.2010998"><ele>41.5</ele><time>2026-04-06T12:32:54.693Z</time></trkpt><trkpt lat="43.7653725" lon="11.2011678"><ele>41.666666666666664</ele><time>2026-04-06T12:32:56.691Z</time></trkpt><trkpt lat="43.7654282" lon="11.201214"><ele>41.833333333333336</ele><time>2026-04-06T12:32:57.693Z</time></trkpt><trkpt lat="43.7654972" lon="11.2012778"><ele>42.0</ele><time>2026-04-06T12:32:59.692Z</time></trkpt><trkpt lat="43.7655719" lon="11.2013491"><ele>42.0</ele><time>2026-04-06T12:33:01.692Z</time></trkpt><trkpt lat="43.7656547" lon="11.2014153"><ele>42.0</ele><time>2026-04-06T12:33:03.692Z</time></trkpt><trkpt lat="43.7657234" lon="11.2014931"><ele>42.0</ele><time>2026-04-06T12:33:05.692Z</time></trkpt><trkpt lat="43.7658016" lon="11.2015683"><ele>42.0</ele><time>2026-04-06T12:33:07.691Z</time></trkpt><trkpt lat="43.7658844" lon="11.2016421"><ele>42.0</ele><time>2026-04-06T12:33:09.692Z</time></trkpt><trkpt lat="43.7659713" lon="11.2016991"><ele>41.833333333333336</ele><time>2026-04-06T12:33:11.694Z</time></trkpt><trkpt lat="43.7660668" lon="11.2017681"><ele>41.666666666666664</ele><time>2026-04-06T12:33:13.693Z</time></trkpt><trkpt lat="43.7661287" lon="11.2018173"><ele>41.5</ele><time>2026-04-06T12:33:14.692Z</time></trkpt><trkpt lat="43.7662087" lon="11.2018922"><ele>41.33333333333333</ele><time>2026-04-06T12:33:16.693Z</time></trkpt><trkpt lat="43.7662792" lon="11.2019496"><ele>41.166666666666664</ele><time>2026-04-06T12:33:18.692Z</time></trkpt><trkpt lat="43.7663545" lon="11.2020036"><ele>41.0</ele><time>2026-04-06T12:33:20.692Z</time></trkpt><trkpt lat="43.7664192" lon="11.2020573"><ele>41.0</ele><time>2026-04-06T12:33:22.693Z</time></trkpt><trkpt lat="43.7664937" lon="11.2021287"><ele>41.0</ele><time>2026-04-06T12:33:25.691Z</time></trkpt><trkpt lat="43.7665478" lon="11.2021844"><ele>41.0</ele><time>2026-04-06T12:33:28.692Z</time></trkpt><trkpt lat="43.7666152" lon="11.2022414"><ele>41.0</ele><time>2026-04-06T12:33:32.693Z</time></trkpt><trkpt lat="43.7666882" lon="11.2022906"><ele>41.0</ele><time>2026-04-06T12:33:35.693Z</time></trkpt><trkpt lat="43.7667534" lon="11.2023508"><ele>41.0</ele><time>2026-04-06T12:33:37.693Z</time></trkpt><trkpt lat="43.76683" lon="11.2024262"><ele>41.33333333333333</ele><time>2026-04-06T12:33:39.693Z</time></trkpt><trkpt lat="43.7669165" lon="11.2025023"><ele>41.666666666666664</ele><time>2026-04-06T12:33:41.692Z</time></trkpt><trkpt lat="43.7670019" lon="11.2025633"><ele>42.0</ele><time>2026-04-06T12:33:43.693Z</time></trkpt><trkpt lat="43.7670446" lon="11.2026293"><ele>42.333333333333336</ele><time>2026-04-06T12:33:44.692Z</time></trkpt><trkpt lat="43.7671245" lon="11.2027105"><ele>42.66666666666667</ele><time>2026-04-06T12:33:46.692Z</time></trkpt><trkpt lat="43.7672003" lon="11.2027705"><ele>43.0</ele><time>2026-04-06T12:33:48.692Z</time></trkpt><trkpt lat="43.7672866" lon="11.2028377"><ele>43.0</ele><time>2026-04-06T12:33:50.693Z</time></trkpt><trkpt lat="43.7673529" lon="11.2029035"><ele>43.0</ele><time>2026-04-06T12:33:52.692Z</time></trkpt><trkpt lat="43.7674513" lon="11.2029912"><ele>43.0</ele><time>2026-04-06T12:33:54.693Z</time></trkpt><trkpt lat="43.7675313" lon="11.2030722"><ele>43.0</ele><time>2026-04-06T12:33:56.692Z</time></trkpt><trkpt lat="43.7676133" lon="11.2031542"><ele>43.0</ele><time>2026-04-06T12:33:58.692Z</time></trkpt><trkpt lat="43.7676981" lon="11.2032285"><ele>43.0</ele><time>2026-04-06T12:34:00.692Z</time></trkpt><trkpt lat="43.7677841" lon="11.2032987"><ele>43.0</ele><time>2026-04-06T12:34:02.692Z</time></trkpt><trkpt lat="43.7678633" lon="11.2033283"><ele>43.0</ele><time>2026-04-06T12:34:04.691Z</time></trkpt><trkpt lat="43.7679301" lon="11.2034323"><ele>43.0</ele><time>2026-04-06T12:34:06.693Z</time></trkpt><trkpt lat="43.768" lon="11.2035105"><ele>43.0</ele><time>2026-04-06T12:34:08.693Z</time></trkpt><trkpt lat="43.7680837" lon="11.2035835"><ele>43.0</ele><time>2026-04-06T12:34:10.691Z</time></trkpt><trkpt lat="43.76818" lon="11.2036604"><ele>43.0</ele><time>2026-04-06T12:34:12.693Z</time></trkpt><trkpt lat="43.7682293" lon="11.2037178"><ele>43.0</ele><time>2026-04-06T12:34:13.692Z</time></trkpt><trkpt lat="43.7683028" lon="11.203787"><ele>43.0</ele><time>2026-04-06T12:34:15.694Z</time></trkpt><trkpt lat="43.7683933" lon="11.2038614"><ele>43.0</ele><time>2026-04-06T12:34:17.692Z</time></trkpt><trkpt lat="43.7684843" lon="11.2039317"><ele>43.16666666666667</ele><time>2026-04-06T12:34:19.693Z</time></trkpt><trkpt lat="43.7685393" lon="11.2039932"><ele>43.333333333333336</ele><time>2026-04-06T12:34:20.693Z</time></trkpt><trkpt lat="43.7686365" lon="11.2040013"><ele>43.5</ele><time>2026-04-06T12:34:22.692Z</time></trkpt><trkpt lat="43.7687115" lon="11.2039909"><ele>43.666666666666664</ele><time>2026-04-06T12:34:25.693Z</time></trkpt><trkpt lat="43.7687222" lon="11.2040773"><ele>43.83333333333333</ele><time>2026-04-06T12:34:32.694Z</time></trkpt><trkpt lat="43.7687359" lon="11.2041934"><ele>44.0</ele><time>2026-04-06T12:34:36.692Z</time></trkpt><trkpt lat="43.7687463" lon="11.2042886"><ele>43.714285714285715</ele><time>2026-04-06T12:34:38.694Z</time></trkpt><trkpt lat="43.7687464" lon="11.2043948"><ele>43.42857142857143</ele><time>2026-04-06T12:34:40.693Z</time></trkpt><trkpt lat="43.768725" lon="11.2044975"><ele>43.14285714285714</ele><time>2026-04-06T12:34:42.693Z</time></trkpt><trkpt lat="43.76869" lon="11.2045781"><ele>42.85714285714286</ele><time>2026-04-06T12:34:44.692Z</time></trkpt><trkpt lat="43.7686547" lon="11.2046612"><ele>42.57142857142857</ele><time>2026-04-06T12:34:46.693Z</time></trkpt><trkpt lat="43.7686143" lon="11.2047525"><ele>42.285714285714285</ele><time>2026-04-06T12:34:48.693Z</time></trkpt><trkpt lat="43.7685877" lon="11.2048474"><ele>42.0</ele><time>2026-04-06T12:34:50.692Z</time></trkpt><trkpt lat="43.7685596" lon="11.2049913"><ele>41.833333333333336</ele><time>2026-04-06T12:34:52.692Z</time></trkpt><trkpt lat="43.7685483" lon="11.2051288"><ele>41.666666666666664</ele><time>2026-04-06T12:34:54.692Z</time></trkpt><trkpt lat="43.768538" lon="11.205234"><ele>41.5</ele><time>2026-04-06T12:34:56.693Z</time></trkpt><trkpt lat="43.7685017" lon="11.2053363"><ele>41.33333333333333</ele><time>2026-04-06T12:34:58.692Z</time></trkpt><trkpt lat="43.7684762" lon="11.2054302"><ele>41.166666666666664</ele><time>2026-04-06T12:35:00.691Z</time></trkpt><trkpt lat="43.7684661" lon="11.205524"><ele>41.0</ele><time>2026-04-06T12:35:07.691Z</time></trkpt><trkpt lat="43.7684789" lon="11.2056208"><ele>41.199999999999996</ele><time>2026-04-06T12:35:12.692Z</time></trkpt><trkpt lat="43.7685759" lon="11.2056636"><ele>41.4</ele><time>2026-04-06T12:35:15.694Z</time></trkpt><trkpt lat="43.7686754" lon="11.2056952"><ele>41.6</ele><time>2026-04-06T12:35:17.694Z</time></trkpt><trkpt lat="43.7687638" lon="11.2057324"><ele>41.8</ele><time>2026-04-06T12:35:19.694Z</time></trkpt><trkpt lat="43.7688378" lon="11.2057718"><ele>42.0</ele><time>2026-04-06T12:35:21.692Z</time></trkpt><trkpt lat="43.7689048" lon="11.2058208"><ele>42.0</ele><time>2026-04-06T12:35:23.691Z</time></trkpt><trkpt lat="43.7689747" lon="11.2058613"><ele>42.0</ele><time>2026-04-06T12:35:25.693Z</time></trkpt><trkpt lat="43.7690501" lon="11.2058856"><ele>42.0</ele><time>2026-04-06T12:35:27.691Z</time></trkpt><trkpt lat="43.7691215" lon="11.2059073"><ele>42.0</ele><time>2026-04-06T12:35:29.692Z</time></trkpt><trkpt lat="43.7691997" lon="11.20594"><ele>42.0</ele><time>2026-04-06T12:35:31.692Z</time></trkpt><trkpt lat="43.7692753" lon="11.2059722"><ele>42.0</ele><time>2026-04-06T12:35:33.693Z</time></trkpt><trkpt lat="43.7693414" lon="11.2059977"><ele>42.0</ele><time>2026-04-06T12:35:35.692Z</time></trkpt><trkpt lat="43.7694221" lon="11.2060035"><ele>42.0</ele><time>2026-04-06T12:35:38.691Z</time></trkpt><trkpt lat="43.7694973" lon="11.2060107"><ele>42.0</ele><time>2026-04-06T12:35:51.693Z</time></trkpt><trkpt lat="43.7695953" lon="11.2060291"><ele>42.0</ele><time>2026-04-06T12:35:53.691Z</time></trkpt><trkpt lat="43.769696" lon="11.2060539"><ele>42.0</ele><time>2026-04-06T12:35:55.692Z</time></trkpt><trkpt lat="43.7697858" lon="11.2060614"><ele>42.0</ele><time>2026-04-06T12:35:56.692Z</time></trkpt><trkpt lat="43.7698869" lon="11.206092"><ele>42.0</ele><time>2026-04-06T12:35:58.691Z</time></trkpt><trkpt lat="43.7699755" lon="11.2061443"><ele>42.0</ele><time>2026-04-06T12:36:00.691Z</time></trkpt><trkpt lat="43.7700783" lon="11.2061872"><ele>42.0</ele><time>2026-04-06T12:36:02.692Z</time></trkpt><trkpt lat="43.7701736" lon="11.2062723"><ele>42.0</ele><time>2026-04-06T12:36:04.692Z</time></trkpt><trkpt lat="43.7702797" lon="11.2063111"><ele>42.0</ele><time>2026-04-06T12:36:06.692Z</time></trkpt><trkpt lat="43.770384" lon="11.2063532"><ele>42.0</ele><time>2026-04-06T12:36:08.693Z</time></trkpt><trkpt lat="43.7704839" lon="11.2063879"><ele>42.0</ele><time>2026-04-06T12:36:10.692Z</time></trkpt><trkpt lat="43.7705467" lon="11.2064226"><ele>42.0</ele><time>2026-04-06T12:36:11.691Z</time></trkpt><trkpt lat="43.7706457" lon="11.2064695"><ele>42.0</ele><time>2026-04-06T12:36:13.691Z</time></trkpt><trkpt lat="43.7707447" lon="11.2065129"><ele>42.0</ele><time>2026-04-06T12:36:15.692Z</time></trkpt><trkpt lat="43.7708472" lon="11.2065753"><ele>42.0</ele><time>2026-04-06T12:36:17.693Z</time></trkpt><trkpt lat="43.7709453" lon="11.2066087"><ele>42.0</ele><time>2026-04-06T12:36:19.691Z</time></trkpt><trkpt lat="43.771059" lon="11.2066534"><ele>42.0</ele><time>2026-04-06T12:36:21.692Z</time></trkpt><trkpt lat="43.7711422" lon="11.206683"><ele>42.0</ele><time>2026-04-06T12:36:23.692Z</time></trkpt><trkpt lat="43.7712335" lon="11.206705"><ele>42.0</ele><time>2026-04-06T12:36:25.691Z</time></trkpt><trkpt lat="43.7713121" lon="11.2067341"><ele>41.833333333333336</ele><time>2026-04-06T12:36:27.692Z</time></trkpt><trkpt lat="43.7714096" lon="11.2067685"><ele>41.666666666666664</ele><time>2026-04-06T12:36:29.692Z</time></trkpt><trkpt lat="43.7714756" lon="11.2068378"><ele>41.5</ele><time>2026-04-06T12:36:31.692Z</time></trkpt><trkpt lat="43.7715541" lon="11.2068471"><ele>41.33333333333333</ele><time>2026-04-06T12:36:33.694Z</time></trkpt><trkpt lat="43.7716446" lon="11.2068447"><ele>41.166666666666664</ele><time>2026-04-06T12:36:35.693Z</time></trkpt><trkpt lat="43.7717248" lon="11.2068941"><ele>41.0</ele><time>2026-04-06T12:36:37.692Z</time></trkpt><trkpt lat="43.771803" lon="11.2069356"><ele>41.166666666666664</ele><time>2026-04-06T12:36:39.691Z</time></trkpt><trkpt lat="43.7718654" lon="11.2069588"><ele>41.33333333333333</ele><time>2026-04-06T12:36:41.693Z</time></trkpt><trkpt lat="43.7719423" lon="11.207017"><ele>41.5</ele><time>2026-04-06T12:36:43.692Z</time></trkpt><trkpt lat="43.7720206" lon="11.2070758"><ele>41.666666666666664</ele><time>2026-04-06T12:36:45.691Z</time></trkpt><trkpt lat="43.7720901" lon="11.2071397"><ele>41.833333333333336</ele><time>2026-04-06T12:36:47.691Z</time></trkpt><trkpt lat="43.7721642" lon="11.2071906"><ele>42.0</ele><time>2026-04-06T12:36:49.692Z</time></trkpt><trkpt lat="43.7722422" lon="11.2072475"><ele>42.0</ele><time>2026-04-06T12:36:51.692Z</time></trkpt><trkpt lat="43.7723114" lon="11.2073244"><ele>42.0</ele><time>2026-04-06T12:36:53.692Z</time></trkpt><trkpt lat="43.7723954" lon="11.2073844"><ele>42.0</ele><time>2026-04-06T12:36:55.691Z</time></trkpt><trkpt lat="43.7724739" lon="11.2074478"><ele>42.0</ele><time>2026-04-06T12:36:57.692Z</time></trkpt><trkpt lat="43.7725468" lon="11.2075092"><ele>42.0</ele><time>2026-04-06T12:36:59.692Z</time></trkpt><trkpt lat="43.7726126" lon="11.2076018"><ele>42.333333333333336</ele><time>2026-04-06T12:37:01.692Z</time></trkpt><trkpt lat="43.7726894" lon="11.2076876"><ele>42.666666666666664</ele><time>2026-04-06T12:37:03.692Z</time></trkpt><trkpt lat="43.7727423" lon="11.2077458"><ele>43.0</ele><time>2026-04-06T12:37:05.691Z</time></trkpt><trkpt lat="43.7726753" lon="11.2076845"><ele>43.33333333333333</ele><time>2026-04-06T12:37:12.692Z</time></trkpt><trkpt lat="43.7725943" lon="11.2076024"><ele>43.666666666666664</ele><time>2026-04-06T12:37:15.692Z</time></trkpt><trkpt lat="43.7725195" lon="11.2075226"><ele>44.0</ele><time>2026-04-06T12:37:17.692Z</time></trkpt><trkpt lat="43.772408" lon="11.2074034"><ele>43.666666666666664</ele><time>2026-04-06T12:37:19.691Z</time></trkpt><trkpt lat="43.7723395" lon="11.2073232"><ele>43.33333333333333</ele><time>2026-04-06T12:37:21.692Z</time></trkpt><trkpt lat="43.7722806" lon="11.2072513"><ele>43.0</ele><time>2026-04-06T12:37:23.691Z</time></trkpt><trkpt lat="43.7721944" lon="11.2072185"><ele>42.666666666666664</ele><time>2026-04-06T12:37:26.692Z</time></trkpt><trkpt lat="43.7721352" lon="11.2071529"><ele>42.333333333333336</ele><time>2026-04-06T12:37:29.691Z</time></trkpt><trkpt lat="43.7720739" lon="11.2071008"><ele>42.0</ele><time>2026-04-06T12:37:33.692Z</time></trkpt><trkpt lat="43.7721091" lon="11.2072069"><ele>42.0</ele><time>2026-04-06T12:37:38.691Z</time></trkpt><trkpt lat="43.7721765" lon="11.2072699"><ele>42.0</ele><time>2026-04-06T12:37:40.691Z</time></trkpt><trkpt lat="43.7722611" lon="11.207334"><ele>42.0</ele><time>2026-04-06T12:37:42.692Z</time></trkpt><trkpt lat="43.7723465" lon="11.2074123"><ele>42.0</ele><time>2026-04-06T12:37:44.692Z</time></trkpt><trkpt lat="43.772433" lon="11.2075053"><ele>42.0</ele><time>2026-04-06T12:37:46.692Z</time></trkpt><trkpt lat="43.772506" lon="11.2076001"><ele>42.333333333333336</ele><time>2026-04-06T12:37:48.691Z</time></trkpt><trkpt lat="43.7725774" lon="11.2076925"><ele>42.666666666666664</ele><time>2026-04-06T12:37:50.692Z</time></trkpt><trkpt lat="43.7726259" lon="11.2077739"><ele>43.0</ele><time>2026-04-06T12:37:53.692Z</time></trkpt><trkpt lat="43.7726966" lon="11.2077994"><ele>43.33333333333333</ele><time>2026-04-06T12:38:02.692Z</time></trkpt><trkpt lat="43.772755" lon="11.2078362"><ele>43.666666666666664</ele><time>2026-04-06T12:38:04.692Z</time></trkpt><trkpt lat="43.7728578" lon="11.2079276"><ele>44.0</ele><time>2026-04-06T12:38:05.692Z</time></trkpt><trkpt lat="43.7729752" lon="11.2079789"><ele>43.666666666666664</ele><time>2026-04-06T12:38:07.692Z</time></trkpt><trkpt lat="43.7730419" lon="11.2080004"><ele>43.33333333333333</ele><time>2026-04-06T12:38:08.691Z</time></trkpt><trkpt lat="43.7731064" lon="11.2080305"><ele>43.0</ele><time>2026-04-06T12:38:09.692Z</time></trkpt><trkpt lat="43.7732094" lon="11.2081091"><ele>42.666666666666664</ele><time>2026-04-06T12:38:11.692Z</time></trkpt><trkpt lat="43.7732743" lon="11.2081769"><ele>42.333333333333336</ele><time>2026-04-06T12:38:13.691Z</time></trkpt><trkpt lat="43.7733207" lon="11.2082596"><ele>42.0</ele><time>2026-04-06T12:38:15.692Z</time></trkpt><trkpt lat="43.7733931" lon="11.2083677"><ele>42.0</ele><time>2026-04-06T12:38:17.692Z</time></trkpt><trkpt lat="43.7734951" lon="11.2084307"><ele>42.0</ele><time>2026-04-06T12:38:19.692Z</time></trkpt><trkpt lat="43.7735712" lon="11.2085218"><ele>42.0</ele><time>2026-04-06T12:38:21.692Z</time></trkpt><trkpt lat="43.7736342" lon="11.20859"><ele>42.0</ele><time>2026-04-06T12:38:23.693Z</time></trkpt><trkpt lat="43.7736921" lon="11.2086567"><ele>42.0</ele><time>2026-04-06T12:38:25.692Z</time></trkpt><trkpt lat="43.773786" lon="11.2087433"><ele>41.666666666666664</ele><time>2026-04-06T12:38:27.692Z</time></trkpt><trkpt lat="43.7738652" lon="11.208815"><ele>41.333333333333336</ele><time>2026-04-06T12:38:29.692Z</time></trkpt><trkpt lat="43.7739453" lon="11.2088584"><ele>41.0</ele><time>2026-04-06T12:38:31.692Z</time></trkpt><trkpt lat="43.7739912" lon="11.2089233"><ele>40.66666666666667</ele><time>2026-04-06T12:38:32.69Z</time></trkpt><trkpt lat="43.7740512" lon="11.2089737"><ele>40.333333333333336</ele><time>2026-04-06T12:38:33.691Z</time></trkpt><trkpt lat="43.7741367" lon="11.2090779"><ele>40.0</ele><time>2026-04-06T12:38:36.691Z</time></trkpt><trkpt lat="43.7741877" lon="11.2091407"><ele>40.0</ele><time>2026-04-06T12:38:38.691Z</time></trkpt><trkpt lat="43.7742665" lon="11.209249"><ele>40.0</ele><time>2026-04-06T12:38:40.69Z</time></trkpt><trkpt lat="43.7743292" lon="11.2093158"><ele>40.0</ele><time>2026-04-06T12:38:42.691Z</time></trkpt><trkpt lat="43.7743699" lon="11.2094312"><ele>40.0</ele><time>2026-04-06T12:38:44.692Z</time></trkpt><trkpt lat="43.7744306" lon="11.2095018"><ele>40.0</ele><time>2026-04-06T12:38:46.692Z</time></trkpt><trkpt lat="43.7745118" lon="11.209585"><ele>40.0</ele><time>2026-04-06T12:38:48.692Z</time></trkpt><trkpt lat="43.7746003" lon="11.2096663"><ele>40.0</ele><time>2026-04-06T12:38:50.691Z</time></trkpt><trkpt lat="43.7746825" lon="11.2097346"><ele>40.0</ele><time>2026-04-06T12:38:52.692Z</time></trkpt><trkpt lat="43.7747629" lon="11.2098175"><ele>40.0</ele><time>2026-04-06T12:38:54.692Z</time></trkpt><trkpt lat="43.7748326" lon="11.2098834"><ele>40.0</ele><time>2026-04-06T12:38:56.69Z</time></trkpt><trkpt lat="43.7749132" lon="11.2099399"><ele>40.0</ele><time>2026-04-06T12:38:58.692Z</time></trkpt><trkpt lat="43.7749825" lon="11.2099966"><ele>40.0</ele><time>2026-04-06T12:39:00.691Z</time></trkpt><trkpt lat="43.7750276" lon="11.2100947"><ele>40.0</ele><time>2026-04-06T12:39:02.69Z</time></trkpt><trkpt lat="43.7750821" lon="11.2101595"><ele>40.0</ele><time>2026-04-06T12:39:04.693Z</time></trkpt><trkpt lat="43.7751499" lon="11.2102006"><ele>40.0</ele><time>2026-04-06T12:39:07.692Z</time></trkpt><trkpt lat="43.7752141" lon="11.2102411"><ele>40.0</ele><time>2026-04-06T12:39:11.69Z</time></trkpt><trkpt lat="43.7752798" lon="11.2102645"><ele>40.0</ele><time>2026-04-06T12:39:21.692Z</time></trkpt><trkpt lat="43.7753651" lon="11.2103289"><ele>40.16666666666667</ele><time>2026-04-06T12:39:24.69Z</time></trkpt><trkpt lat="43.7754308" lon="11.2103956"><ele>40.333333333333336</ele><time>2026-04-06T12:39:26.692Z</time></trkpt><trkpt lat="43.7754968" lon="11.210455"><ele>40.5</ele><time>2026-04-06T12:39:28.69Z</time></trkpt><trkpt lat="43.7755682" lon="11.2105063"><ele>40.666666666666664</ele><time>2026-04-06T12:39:30.691Z</time></trkpt><trkpt lat="43.7756476" lon="11.2105634"><ele>40.83333333333333</ele><time>2026-04-06T12:39:32.692Z</time></trkpt><trkpt lat="43.7757245" lon="11.2106076"><ele>41.0</ele><time>2026-04-06T12:39:34.691Z</time></trkpt><trkpt lat="43.7758117" lon="11.2106647"><ele>41.199999999999996</ele><time>2026-04-06T12:39:36.693Z</time></trkpt><trkpt lat="43.7758904" lon="11.210706"><ele>41.4</ele><time>2026-04-06T12:39:37.692Z</time></trkpt><trkpt lat="43.7759615" lon="11.2107675"><ele>41.6</ele><time>2026-04-06T12:39:39.691Z</time></trkpt><trkpt lat="43.776036" lon="11.21083"><ele>41.8</ele><time>2026-04-06T12:39:41.692Z</time></trkpt><trkpt lat="43.776128" lon="11.2108903"><ele>42.0</ele><time>2026-04-06T12:39:44.69Z</time></trkpt><trkpt lat="43.7762125" lon="11.2109469"><ele>42.400000000000006</ele><time>2026-04-06T12:39:46.693Z</time></trkpt><trkpt lat="43.7762921" lon="11.2110093"><ele>42.800000000000004</ele><time>2026-04-06T12:39:48.69Z</time></trkpt><trkpt lat="43.7763754" lon="11.211089"><ele>43.2</ele><time>2026-04-06T12:39:50.692Z</time></trkpt><trkpt lat="43.7764591" lon="11.2111422"><ele>43.6</ele><time>2026-04-06T12:39:52.692Z</time></trkpt><trkpt lat="43.7765246" lon="11.2112262"><ele>44.0</ele><time>2026-04-06T12:39:54.692Z</time></trkpt><trkpt lat="43.7765939" lon="11.2112838"><ele>44.0</ele><time>2026-04-06T12:39:56.69Z</time></trkpt><trkpt lat="43.7766692" lon="11.2113372"><ele>44.0</ele><time>2026-04-06T12:39:59.692Z</time></trkpt><trkpt lat="43.7767385" lon="11.211391"><ele>44.0</ele><time>2026-04-06T12:40:02.693Z</time></trkpt><trkpt lat="43.7768161" lon="11.2114606"><ele>44.0</ele><time>2026-04-06T12:40:05.692Z</time></trkpt><trkpt lat="43.7769089" lon="11.211544"><ele>44.0</ele><time>2026-04-06T12:40:07.691Z</time></trkpt><trkpt lat="43.7769938" lon="11.2116135"><ele>44.2</ele><time>2026-04-06T12:40:09.691Z</time></trkpt><trkpt lat="43.7770711" lon="11.2116661"><ele>44.400000000000006</ele><time>2026-04-06T12:40:11.691Z</time></trkpt><trkpt lat="43.7771478" lon="11.2117517"><ele>44.6</ele><time>2026-04-06T12:40:13.691Z</time></trkpt><trkpt lat="43.7772351" lon="11.2118119"><ele>44.8</ele><time>2026-04-06T12:40:15.69Z</time></trkpt><trkpt lat="43.7773122" lon="11.2118704"><ele>45.0</ele><time>2026-04-06T12:40:17.691Z</time></trkpt><trkpt lat="43.7773718" lon="11.2119632"><ele>45.0</ele><time>2026-04-06T12:40:19.692Z</time></trkpt><trkpt lat="43.7774434" lon="11.2120281"><ele>45.0</ele><time>2026-04-06T12:40:21.691Z</time></trkpt><trkpt lat="43.7775215" lon="11.2120912"><ele>45.0</ele><time>2026-04-06T12:40:23.691Z</time></trkpt><trkpt lat="43.7776152" lon="11.21215"><ele>45.0</ele><time>2026-04-06T12:40:25.69Z</time></trkpt><trkpt lat="43.7776911" lon="11.2122172"><ele>45.0</ele><time>2026-04-06T12:40:27.692Z</time></trkpt><trkpt lat="43.7777658" lon="11.2122789"><ele>44.666666666666664</ele><time>2026-04-06T12:40:29.691Z</time></trkpt><trkpt lat="43.7778497" lon="11.2123424"><ele>44.333333333333336</ele><time>2026-04-06T12:40:31.69Z</time></trkpt><trkpt lat="43.7779274" lon="11.2123985"><ele>44.0</ele><time>2026-04-06T12:40:33.692Z</time></trkpt><trkpt lat="43.7779923" lon="11.2124696"><ele>43.66666666666667</ele><time>2026-04-06T12:40:35.691Z</time></trkpt><trkpt lat="43.7780652" lon="11.2125272"><ele>43.333333333333336</ele><time>2026-04-06T12:40:37.691Z</time></trkpt><trkpt lat="43.7781345" lon="11.2124879"><ele>43.0</ele><time>2026-04-06T12:40:39.691Z</time></trkpt><trkpt lat="43.7781704" lon="11.212388"><ele>43.0</ele><time>2026-04-06T12:40:41.692Z</time></trkpt><trkpt lat="43.7782253" lon="11.2122604"><ele>43.0</ele><time>2026-04-06T12:40:43.691Z</time></trkpt><trkpt lat="43.7782672" lon="11.212119"><ele>43.0</ele><time>2026-04-06T12:40:45.691Z</time></trkpt><trkpt lat="43.7782995" lon="11.2119817"><ele>43.0</ele><time>2026-04-06T12:40:47.692Z</time></trkpt><trkpt lat="43.778313" lon="11.2118647"><ele>43.0</ele><time>2026-04-06T12:40:49.69Z</time></trkpt><trkpt lat="43.7783461" lon="11.2117295"><ele>43.0</ele><time>2026-04-06T12:40:51.691Z</time></trkpt><trkpt lat="43.7783564" lon="11.2116274"><ele>43.0</ele><time>2026-04-06T12:40:53.69Z</time></trkpt><trkpt lat="43.7783841" lon="11.2114987"><ele>43.0</ele><time>2026-04-06T12:40:56.691Z</time></trkpt><trkpt lat="43.7784023" lon="11.211396"><ele>43.0</ele><time>2026-04-06T12:40:58.69Z</time></trkpt><trkpt lat="43.7784364" lon="11.2112718"><ele>43.0</ele><time>2026-04-06T12:41:00.691Z</time></trkpt><trkpt lat="43.7784404" lon="11.2111639"><ele>43.0</ele><time>2026-04-06T12:41:02.691Z</time></trkpt><trkpt lat="43.7784554" lon="11.2110425"><ele>43.0</ele><time>2026-04-06T12:41:04.691Z</time></trkpt><trkpt lat="43.778479" lon="11.21091"><ele>43.0</ele><time>2026-04-06T12:41:06.691Z</time></trkpt><trkpt lat="43.7784961" lon="11.2107804"><ele>43.0</ele><time>2026-04-06T12:41:08.693Z</time></trkpt><trkpt lat="43.7785154" lon="11.210657"><ele>43.0</ele><time>2026-04-06T12:41:10.691Z</time></trkpt><trkpt lat="43.7785392" lon="11.2105488"><ele>43.0</ele><time>2026-04-06T12:41:12.69Z</time></trkpt><trkpt lat="43.7785563" lon="11.2104394"><ele>43.0</ele><time>2026-04-06T12:41:14.691Z</time></trkpt><trkpt lat="43.7785768" lon="11.2103324"><ele>43.0</ele><time>2026-04-06T12:41:16.691Z</time></trkpt><trkpt lat="43.7786036" lon="11.2102233"><ele>43.0</ele><time>2026-04-06T12:41:19.692Z</time></trkpt><trkpt lat="43.7786209" lon="11.2100924"><ele>43.0</ele><time>2026-04-06T12:41:22.692Z</time></trkpt><trkpt lat="43.7786503" lon="11.2099837"><ele>43.0</ele><time>2026-04-06T12:41:23.691Z</time></trkpt><trkpt lat="43.7786789" lon="11.2098452"><ele>43.0</ele><time>2026-04-06T12:41:25.691Z</time></trkpt><trkpt lat="43.7787214" lon="11.2096638"><ele>43.0</ele><time>2026-04-06T12:41:27.691Z</time></trkpt><trkpt lat="43.7787372" lon="11.209529"><ele>43.0</ele><time>2026-04-06T12:41:29.691Z</time></trkpt><trkpt lat="43.778763" lon="11.2094366"><ele>43.0</ele><time>2026-04-06T12:41:31.691Z</time></trkpt><trkpt lat="43.7787812" lon="11.2093018"><ele>43.0</ele><time>2026-04-06T12:41:34.691Z</time></trkpt><trkpt lat="43.7788082" lon="11.2091778"><ele>43.0</ele><time>2026-04-06T12:41:36.691Z</time></trkpt><trkpt lat="43.7788654" lon="11.2090713"><ele>42.66666666666667</ele><time>2026-04-06T12:41:38.692Z</time></trkpt><trkpt lat="43.7788774" lon="11.2089605"><ele>42.333333333333336</ele><time>2026-04-06T12:41:40.691Z</time></trkpt><trkpt lat="43.7789044" lon="11.2088446"><ele>42.0</ele><time>2026-04-06T12:41:42.691Z</time></trkpt><trkpt lat="43.7789321" lon="11.2087228"><ele>41.666666666666664</ele><time>2026-04-06T12:41:44.691Z</time></trkpt><trkpt lat="43.7789561" lon="11.2086023"><ele>41.33333333333333</ele><time>2026-04-06T12:41:46.692Z</time></trkpt><trkpt lat="43.778977" lon="11.2084702"><ele>41.0</ele><time>2026-04-06T12:41:48.691Z</time></trkpt><trkpt lat="43.7790144" lon="11.2083159"><ele>41.0</ele><time>2026-04-06T12:41:50.691Z</time></trkpt><trkpt lat="43.7790454" lon="11.2081916"><ele>41.0</ele><time>2026-04-06T12:41:52.691Z</time></trkpt><trkpt lat="43.7790457" lon="11.2080864"><ele>41.0</ele><time>2026-04-06T12:41:54.691Z</time></trkpt><trkpt lat="43.7790605" lon="11.2079573"><ele>41.0</ele><time>2026-04-06T12:41:56.691Z</time></trkpt><trkpt lat="43.7790825" lon="11.2078329"><ele>41.0</ele><time>2026-04-06T12:41:58.691Z</time></trkpt><trkpt lat="43.7791004" lon="11.2077116"><ele>41.0</ele><time>2026-04-06T12:42:00.692Z</time></trkpt><trkpt lat="43.7791124" lon="11.2075913"><ele>41.0</ele><time>2026-04-06T12:42:02.691Z</time></trkpt><trkpt lat="43.7791277" lon="11.2074776"><ele>41.0</ele><time>2026-04-06T12:42:04.69Z</time></trkpt><trkpt lat="43.7791432" lon="11.2073413"><ele>41.0</ele><time>2026-04-06T12:42:06.69Z</time></trkpt><trkpt lat="43.7791499" lon="11.2072052"><ele>41.0</ele><time>2026-04-06T12:42:08.69Z</time></trkpt><trkpt lat="43.7791614" lon="11.2070682"><ele>41.0</ele><time>2026-04-06T12:42:10.692Z</time></trkpt><trkpt lat="43.7791807" lon="11.2069444"><ele>41.0</ele><time>2026-04-06T12:42:12.69Z</time></trkpt><trkpt lat="43.7792018" lon="11.2068382"><ele>41.0</ele><time>2026-04-06T12:42:14.69Z</time></trkpt><trkpt lat="43.7792054" lon="11.2067481"><ele>41.0</ele><time>2026-04-06T12:42:16.69Z</time></trkpt><trkpt lat="43.7792277" lon="11.2066507"><ele>41.0</ele><time>2026-04-06T12:42:18.69Z</time></trkpt><trkpt lat="43.7792554" lon="11.2065449"><ele>41.0</ele><time>2026-04-06T12:42:20.69Z</time></trkpt><trkpt lat="43.7792703" lon="11.2064371"><ele>41.0</ele><time>2026-04-06T12:42:22.691Z</time></trkpt><trkpt lat="43.7792874" lon="11.2063326"><ele>40.857142857142854</ele><time>2026-04-06T12:42:24.69Z</time></trkpt><trkpt lat="43.7793084" lon="11.2062381"><ele>40.714285714285715</ele><time>2026-04-06T12:42:26.691Z</time></trkpt><trkpt lat="43.7793239" lon="11.2061532"><ele>40.57142857142857</ele><time>2026-04-06T12:42:28.691Z</time></trkpt><trkpt lat="43.7793297" lon="11.2060298"><ele>40.42857142857143</ele><time>2026-04-06T12:42:31.691Z</time></trkpt><trkpt lat="43.7793461" lon="11.205943"><ele>40.285714285714285</ele><time>2026-04-06T12:42:34.691Z</time></trkpt><trkpt lat="43.7792882" lon="11.2058941"><ele>40.14285714285714</ele><time>2026-04-06T12:42:38.691Z</time></trkpt><trkpt lat="43.7792026" lon="11.2058611"><ele>40.0</ele><time>2026-04-06T12:42:41.691Z</time></trkpt><trkpt lat="43.7791267" lon="11.2058646"><ele>40.0</ele><time>2026-04-06T12:42:45.691Z</time></trkpt><trkpt lat="43.7791911" lon="11.2058998"><ele>40.0</ele><time>2026-04-06T12:42:53.691Z</time></trkpt><trkpt lat="43.7791237" lon="11.2058768"><ele>40.0</ele><time>2026-04-06T12:45:59.69Z</time></trkpt><trkpt lat="43.7790568" lon="11.205811"><ele>40.0</ele><time>2026-04-06T12:46:02.689Z</time></trkpt><trkpt lat="43.7789926" lon="11.2058092"><ele>40.0</ele><time>2026-04-06T12:46:38.69Z</time></trkpt></trkseg></trk></gpx>